<?xml version='1.0' encoding='UTF-8'?><gpx version="1.1" creator="JPX - https://github.com/jenetics/jpx" xmlns="http://www.topografix.com/GPX/1/1"><trk><trkseg><trkpt lat="36.913008145355" lon="15.151768812873534"><ele>10.0</ele><time>2026-04-11T13:30:05.999Z</time></trkpt><trkpt lat="36.91296464923851" lon="15.151839901680548"><ele>10.0</ele><time>2026-04-11T13:30:06.999Z</time></trkpt><trkpt lat="36.91292606758844" lon="15.15192226980549"><ele>10.0</ele><time>2026-04-11T13:30:07.999Z</time></trkpt><trkpt lat="36.91289997573975" lon="15.151997727603298"><ele>10.0</ele><time>2026-04-11T13:30:08.999Z</time></trkpt><trkpt lat="36.91282873104564" lon="15.152108018942418"><ele>10.0</ele><time>2026-04-11T13:30:10.999Z</time></trkpt><trkpt lat="36.9127230203999" lon="15.152110293803812"><ele>10.0</ele><time>2026-04-11T13:30:12.999Z</time></trkpt><trkpt lat="36.91263068205222" lon="15.152080914613833"><ele>9.5</ele><time>2026-04-11T13:30:13.999Z</time></trkpt><trkpt lat="36.91253268147012" lon="15.15203096662216"><ele>9.0</ele><time>2026-04-11T13:30:14.999Z</time></trkpt><trkpt lat="36.912436920531675" lon="15.151970523187087"><ele>8.5</ele><time>2026-04-11T13:30:15.999Z</time></trkpt><trkpt lat="36.912320757070134" lon="15.151900469383534"><ele>8.0</ele><time>2026-04-11T13:30:16.999Z</time></trkpt><trkpt lat="36.91219824650916" lon="15.151826256997557"><ele>8.0</ele><time>2026-04-11T13:30:17.999Z</time></trkpt><trkpt lat="36.91207732433777" lon="15.151751016954995"><ele>8.0</ele><time>2026-04-11T13:30:18.999Z</time></trkpt><trkpt lat="36.911959285580245" lon="15.151689192607718"><ele>8.0</ele><time>2026-04-11T13:30:19.999Z</time></trkpt><trkpt lat="36.91184449735701" lon="15.151631270420674"><ele>8.0</ele><time>2026-04-11T13:30:20.999Z</time></trkpt><trkpt lat="36.91172672406195" lon="15.151564497892846"><ele>9.0</ele><time>2026-04-11T13:30:21.999Z</time></trkpt><trkpt lat="36.91160241287683" lon="15.151486427913325"><ele>10.0</ele><time>2026-04-11T13:30:22.999Z</time></trkpt><trkpt lat="36.91149711351228" lon="15.151412943307934"><ele>11.0</ele><time>2026-04-11T13:30:23.999Z</time></trkpt><trkpt lat="36.91139741232337" lon="15.151353931105087"><ele>12.0</ele><time>2026-04-11T13:30:24.999Z</time></trkpt><trkpt lat="36.91129767885317" lon="15.1512909557804"><ele>12.0</ele><time>2026-04-11T13:30:25.999Z</time></trkpt><trkpt lat="36.91120254847375" lon="15.151236865379323"><ele>12.0</ele><time>2026-04-11T13:30:26.999Z</time></trkpt><trkpt lat="36.91110947470728" lon="15.151203866117163"><ele>12.0</ele><time>2026-04-11T13:30:27.999Z</time></trkpt><trkpt lat="36.91102114100591" lon="15.15118650859313"><ele>12.0</ele><time>2026-04-11T13:30:28.999Z</time></trkpt><trkpt lat="36.91093383338799" lon="15.151159544118741"><ele>12.0</ele><time>2026-04-11T13:30:29.999Z</time></trkpt><trkpt lat="36.910849696565386" lon="15.151132019064107"><ele>11.857142857142856</ele><time>2026-04-11T13:30:30.999Z</time></trkpt><trkpt lat="36.91077726568262" lon="15.151109654121033"><ele>11.714285714285714</ele><time>2026-04-11T13:30:31.999Z</time></trkpt><trkpt lat="36.91070561111835" lon="15.151085750237819"><ele>11.571428571428571</ele><time>2026-04-11T13:30:32.999Z</time></trkpt><trkpt lat="36.91062485459551" lon="15.151059007648017"><ele>11.428571428571427</ele><time>2026-04-11T13:30:33.999Z</time></trkpt><trkpt lat="36.9105474490802" lon="15.15103607452249"><ele>11.285714285714285</ele><time>2026-04-11T13:30:34.999Z</time></trkpt><trkpt lat="36.91048096134934" lon="15.151013411743092"><ele>11.142857142857142</ele><time>2026-04-11T13:30:35.999Z</time></trkpt><trkpt lat="36.91041705768671" lon="15.150985378125512"><ele>11.0</ele><time>2026-04-11T13:30:36.999Z</time></trkpt><trkpt lat="36.91034852744712" lon="15.150958532775448"><ele>11.0</ele><time>2026-04-11T13:30:37.999Z</time></trkpt><trkpt lat="36.91027347438911" lon="15.150933004291788"><ele>11.0</ele><time>2026-04-11T13:30:38.999Z</time></trkpt><trkpt lat="36.91020120829215" lon="15.150906744444042"><ele>11.0</ele><time>2026-04-11T13:30:39.999Z</time></trkpt><trkpt lat="36.9101379006007" lon="15.150880624501536"><ele>11.0</ele><time>2026-04-11T13:30:40.999Z</time></trkpt><trkpt lat="36.91007777809384" lon="15.150852847880126"><ele>11.0</ele><time>2026-04-11T13:30:41.999Z</time></trkpt><trkpt lat="36.91001027959307" lon="15.150827549957361"><ele>11.0</ele><time>2026-04-11T13:30:42.999Z</time></trkpt><trkpt lat="36.90993544075172" lon="15.150790034025926"><ele>11.0</ele><time>2026-04-11T13:30:43.999Z</time></trkpt><trkpt lat="36.90985189600601" lon="15.150745166661666"><ele>11.200000000000001</ele><time>2026-04-11T13:30:44.999Z</time></trkpt><trkpt lat="36.90976525608553" lon="15.150696954078665"><ele>11.4</ele><time>2026-04-11T13:30:45.999Z</time></trkpt><trkpt lat="36.90967731032874" lon="15.150643230098787"><ele>11.6</ele><time>2026-04-11T13:30:46.999Z</time></trkpt><trkpt lat="36.90957796270101" lon="15.150599134811742"><ele>11.8</ele><time>2026-04-11T13:30:47.999Z</time></trkpt><trkpt lat="36.90947648851248" lon="15.150546694804776"><ele>12.0</ele><time>2026-04-11T13:30:48.999Z</time></trkpt><trkpt lat="36.90937235425888" lon="15.150488007888734"><ele>12.0</ele><time>2026-04-11T13:30:49.999Z</time></trkpt><trkpt lat="36.90925963317894" lon="15.150433333424871"><ele>12.0</ele><time>2026-04-11T13:30:50.999Z</time></trkpt><trkpt lat="36.90916866454415" lon="15.15037133003394"><ele>12.0</ele><time>2026-04-11T13:30:51.999Z</time></trkpt><trkpt lat="36.909087001364966" lon="15.150328017099277"><ele>12.0</ele><time>2026-04-11T13:30:52.999Z</time></trkpt><trkpt lat="36.909006338509144" lon="15.150285938027015"><ele>12.0</ele><time>2026-04-11T13:30:53.999Z</time></trkpt><trkpt lat="36.9089149301258" lon="15.150240123684677"><ele>11.6</ele><time>2026-04-11T13:30:54.999Z</time></trkpt><trkpt lat="36.90882646619809" lon="15.150192542322872"><ele>11.2</ele><time>2026-04-11T13:30:55.999Z</time></trkpt><trkpt lat="36.90873448267099" lon="15.150142514314366"><ele>10.8</ele><time>2026-04-11T13:30:56.999Z</time></trkpt><trkpt lat="36.90863726925787" lon="15.150089452072386"><ele>10.4</ele><time>2026-04-11T13:30:57.999Z</time></trkpt><trkpt lat="36.90854791885373" lon="15.150042908546599"><ele>10.0</ele><time>2026-04-11T13:30:58.999Z</time></trkpt><trkpt lat="36.90845870281364" lon="15.150005611650762"><ele>9.6</ele><time>2026-04-11T13:30:59.999Z</time></trkpt><trkpt lat="36.908371829363205" lon="15.14997224806923"><ele>9.2</ele><time>2026-04-11T13:31:00.999Z</time></trkpt><trkpt lat="36.908288035848244" lon="15.149946225458605"><ele>8.8</ele><time>2026-04-11T13:31:01.999Z</time></trkpt><trkpt lat="36.908192240965825" lon="15.14992342371408"><ele>8.4</ele><time>2026-04-11T13:31:02.999Z</time></trkpt><trkpt lat="36.90808925702531" lon="15.149916019661617"><ele>8.0</ele><time>2026-04-11T13:31:03.999Z</time></trkpt><trkpt lat="36.9079923842277" lon="15.14989168670389"><ele>8.666666666666666</ele><time>2026-04-11T13:31:04.999Z</time></trkpt><trkpt lat="36.90790676583254" lon="15.149864317876933"><ele>9.333333333333332</ele><time>2026-04-11T13:31:05.999Z</time></trkpt><trkpt lat="36.90782023968154" lon="15.149823453024522"><ele>10.0</ele><time>2026-04-11T13:31:06.999Z</time></trkpt><trkpt lat="36.907733768564505" lon="15.149779087671376"><ele>10.666666666666666</ele><time>2026-04-11T13:31:07.999Z</time></trkpt><trkpt lat="36.90766186035814" lon="15.1497351731737"><ele>11.333333333333334</ele><time>2026-04-11T13:31:08.999Z</time></trkpt><trkpt lat="36.907607964189346" lon="15.149681452513894"><ele>12.0</ele><time>2026-04-11T13:31:09.999Z</time></trkpt><trkpt lat="36.90754420502914" lon="15.149619426088364"><ele>12.0</ele><time>2026-04-11T13:31:10.999Z</time></trkpt><trkpt lat="36.907467522603284" lon="15.149525928166042"><ele>12.0</ele><time>2026-04-11T13:31:12Z</time></trkpt><trkpt lat="36.90738904959917" lon="15.149399110484097"><ele>12.0</ele><time>2026-04-11T13:31:13Z</time></trkpt><trkpt lat="36.90730881832608" lon="15.149248158212723"><ele>12.0</ele><time>2026-04-11T13:31:14Z</time></trkpt><trkpt lat="36.90721530012199" lon="15.149078458865057"><ele>12.75</ele><time>2026-04-11T13:31:15Z</time></trkpt><trkpt lat="36.90712721896648" lon="15.148904754769308"><ele>13.5</ele><time>2026-04-11T13:31:16Z</time></trkpt><trkpt lat="36.907050925383764" lon="15.148750895956292"><ele>14.25</ele><time>2026-04-11T13:31:17Z</time></trkpt><trkpt lat="36.90697099575547" lon="15.148616915883656"><ele>15.0</ele><time>2026-04-11T13:31:18Z</time></trkpt><trkpt lat="36.90688529505104" lon="15.148507184013392"><ele>15.0</ele><time>2026-04-11T13:31:19Z</time></trkpt><trkpt lat="36.906790582275114" lon="15.148403834124537"><ele>15.0</ele><time>2026-04-11T13:31:20Z</time></trkpt><trkpt lat="36.90667706564515" lon="15.148306771735573"><ele>15.0</ele><time>2026-04-11T13:31:21Z</time></trkpt><trkpt lat="36.90654524720837" lon="15.148223264430822"><ele>15.0</ele><time>2026-04-11T13:31:22Z</time></trkpt><trkpt lat="36.90639945442084" lon="15.148157607013095"><ele>15.0</ele><time>2026-04-11T13:31:23Z</time></trkpt><trkpt lat="36.906248619970995" lon="15.148107301614218"><ele>15.0</ele><time>2026-04-11T13:31:24Z</time></trkpt><trkpt lat="36.906111031731605" lon="15.148068584693586"><ele>15.0</ele><time>2026-04-11T13:31:25Z</time></trkpt><trkpt lat="36.90597556502132" lon="15.148031501700078"><ele>15.0</ele><time>2026-04-11T13:31:26Z</time></trkpt><trkpt lat="36.905841627679685" lon="15.14799393508736"><ele>14.75</ele><time>2026-04-11T13:31:27Z</time></trkpt><trkpt lat="36.90571312728557" lon="15.147953479144487"><ele>14.5</ele><time>2026-04-11T13:31:28Z</time></trkpt><trkpt lat="36.905591827025" lon="15.147916994984074"><ele>14.25</ele><time>2026-04-11T13:31:29Z</time></trkpt><trkpt lat="36.90547055215069" lon="15.147882425253293"><ele>14.0</ele><time>2026-04-11T13:31:30Z</time></trkpt><trkpt lat="36.9053428671316" lon="15.147846238131342"><ele>14.0</ele><time>2026-04-11T13:31:31Z</time></trkpt><trkpt lat="36.90521161318246" lon="15.147804741837152"><ele>14.0</ele><time>2026-04-11T13:31:32Z</time></trkpt><trkpt lat="36.905082509468926" lon="15.147762714061905"><ele>14.0</ele><time>2026-04-11T13:31:33Z</time></trkpt><trkpt lat="36.904950135115" lon="15.147716816064946"><ele>14.0</ele><time>2026-04-11T13:31:34Z</time></trkpt><trkpt lat="36.904803682858564" lon="15.147674092079695"><ele>13.0</ele><time>2026-04-11T13:31:35Z</time></trkpt><trkpt lat="36.90463698471074" lon="15.147647451635311"><ele>12.0</ele><time>2026-04-11T13:31:36Z</time></trkpt><trkpt lat="36.90447387657108" lon="15.147595673100199"><ele>11.0</ele><time>2026-04-11T13:31:37Z</time></trkpt><trkpt lat="36.90433409743903" lon="15.14755022766771"><ele>10.75</ele><time>2026-04-11T13:31:38Z</time></trkpt><trkpt lat="36.904198179429905" lon="15.147508522465031"><ele>10.5</ele><time>2026-04-11T13:31:39Z</time></trkpt><trkpt lat="36.90407119475381" lon="15.147484787497165"><ele>10.25</ele><time>2026-04-11T13:31:40Z</time></trkpt><trkpt lat="36.903949417114426" lon="15.147446967289627"><ele>10.0</ele><time>2026-04-11T13:31:41Z</time></trkpt><trkpt lat="36.9038237517015" lon="15.147412046142518"><ele>10.75</ele><time>2026-04-11T13:31:42Z</time></trkpt><trkpt lat="36.90369789169948" lon="15.147361565710051"><ele>11.5</ele><time>2026-04-11T13:31:43Z</time></trkpt><trkpt lat="36.90357959539713" lon="15.147284906022483"><ele>12.25</ele><time>2026-04-11T13:31:44Z</time></trkpt><trkpt lat="36.903482350252986" lon="15.1471868464572"><ele>13.0</ele><time>2026-04-11T13:31:45Z</time></trkpt><trkpt lat="36.90339349895586" lon="15.147072085091153"><ele>13.0</ele><time>2026-04-11T13:31:46Z</time></trkpt><trkpt lat="36.90330596812984" lon="15.146957619003835"><ele>13.0</ele><time>2026-04-11T13:31:47Z</time></trkpt><trkpt lat="36.90321540892775" lon="15.146837636077539"><ele>13.0</ele><time>2026-04-11T13:31:48Z</time></trkpt><trkpt lat="36.90312716719406" lon="15.146716540258192"><ele>13.0</ele><time>2026-04-11T13:31:49Z</time></trkpt><trkpt lat="36.90303271681566" lon="15.146595497828013"><ele>13.5</ele><time>2026-04-11T13:31:50Z</time></trkpt><trkpt lat="36.90293838305554" lon="15.1464654580703"><ele>14.0</ele><time>2026-04-11T13:31:51Z</time></trkpt><trkpt lat="36.90283935832703" lon="15.146334283956234"><ele>14.5</ele><time>2026-04-11T13:31:52Z</time></trkpt><trkpt lat="36.902738218948315" lon="15.146207360439691"><ele>15.0</ele><time>2026-04-11T13:31:53Z</time></trkpt><trkpt lat="36.90263688029483" lon="15.146082045683338"><ele>15.0</ele><time>2026-04-11T13:31:54Z</time></trkpt><trkpt lat="36.902525370001655" lon="15.145938921452352"><ele>15.0</ele><time>2026-04-11T13:31:55Z</time></trkpt><trkpt lat="36.902407499109565" lon="15.145787704347018"><ele>15.0</ele><time>2026-04-11T13:31:56Z</time></trkpt><trkpt lat="36.90228558004428" lon="15.145632810921125"><ele>15.333333333333332</ele><time>2026-04-11T13:31:57Z</time></trkpt><trkpt lat="36.902158175026" lon="15.145478807923851"><ele>15.666666666666666</ele><time>2026-04-11T13:31:57.999Z</time></trkpt><trkpt lat="36.90203848242851" lon="15.145329282136982"><ele>16.0</ele><time>2026-04-11T13:31:58.999Z</time></trkpt><trkpt lat="36.901922969585236" lon="15.145193940165656"><ele>16.0</ele><time>2026-04-11T13:31:59.999Z</time></trkpt><trkpt lat="36.90181793963812" lon="15.14506066997785"><ele>16.0</ele><time>2026-04-11T13:32:00.999Z</time></trkpt><trkpt lat="36.90171803325067" lon="15.144931301008548"><ele>16.0</ele><time>2026-04-11T13:32:01.999Z</time></trkpt><trkpt lat="36.90162639438871" lon="15.144807129474213"><ele>16.0</ele><time>2026-04-11T13:32:02.999Z</time></trkpt><trkpt lat="36.901534520015474" lon="15.144683470036211"><ele>15.75</ele><time>2026-04-11T13:32:03.999Z</time></trkpt><trkpt lat="36.901449755778174" lon="15.144572678152198"><ele>15.5</ele><time>2026-04-11T13:32:04.999Z</time></trkpt><trkpt lat="36.901360489918076" lon="15.144471507548"><ele>15.25</ele><time>2026-04-11T13:32:05.999Z</time></trkpt><trkpt lat="36.90127218828178" lon="15.144351390473298"><ele>15.0</ele><time>2026-04-11T13:32:06.999Z</time></trkpt><trkpt lat="36.901175181145774" lon="15.144224221774317"><ele>15.0</ele><time>2026-04-11T13:32:07.999Z</time></trkpt><trkpt lat="36.90108016109037" lon="15.144105566996855"><ele>15.0</ele><time>2026-04-11T13:32:08.999Z</time></trkpt><trkpt lat="36.90099144559638" lon="15.143999413427037"><ele>15.0</ele><time>2026-04-11T13:32:09.999Z</time></trkpt><trkpt lat="36.90089195738797" lon="15.14390564984537"><ele>15.0</ele><time>2026-04-11T13:32:10.999Z</time></trkpt><trkpt lat="36.9007775617418" lon="15.143822633570155"><ele>15.0</ele><time>2026-04-11T13:32:11.999Z</time></trkpt><trkpt lat="36.90065487855498" lon="15.143763700676976"><ele>15.0</ele><time>2026-04-11T13:32:12.999Z</time></trkpt><trkpt lat="36.900545663141955" lon="15.143704711188365"><ele>15.0</ele><time>2026-04-11T13:32:13.999Z</time></trkpt><trkpt lat="36.900450055742674" lon="15.143647018491748"><ele>15.0</ele><time>2026-04-11T13:32:14.999Z</time></trkpt><trkpt lat="36.900374361819935" lon="15.143591456268787"><ele>15.0</ele><time>2026-04-11T13:32:15.999Z</time></trkpt><trkpt lat="36.90031068800468" lon="15.143546685743228"><ele>15.0</ele><time>2026-04-11T13:32:16.999Z</time></trkpt><trkpt lat="36.90023450195276" lon="15.143515002567472"><ele>15.0</ele><time>2026-04-11T13:32:18.999Z</time></trkpt><trkpt lat="36.900097907807236" lon="15.143667645662749"><ele>15.0</ele><time>2026-04-11T13:32:21.999Z</time></trkpt><trkpt lat="36.900025267446225" lon="15.14378181651587"><ele>15.0</ele><time>2026-04-11T13:32:22.999Z</time></trkpt><trkpt lat="36.899963331539524" lon="15.143906987300877"><ele>14.25</ele><time>2026-04-11T13:32:23.999Z</time></trkpt><trkpt lat="36.89989474477668" lon="15.144046667447402"><ele>13.5</ele><time>2026-04-11T13:32:24.999Z</time></trkpt><trkpt lat="36.89982749797121" lon="15.144182249293614"><ele>12.75</ele><time>2026-04-11T13:32:25.999Z</time></trkpt><trkpt lat="36.899770541052305" lon="15.144293418905018"><ele>12.0</ele><time>2026-04-11T13:32:26.999Z</time></trkpt><trkpt lat="36.89972175954439" lon="15.144388631562222"><ele>12.0</ele><time>2026-04-11T13:32:27.999Z</time></trkpt><trkpt lat="36.89967702136401" lon="15.14447595240393"><ele>12.0</ele><time>2026-04-11T13:32:28.999Z</time></trkpt><trkpt lat="36.8996392908539" lon="15.144549595459383"><ele>12.0</ele><time>2026-04-11T13:32:29.999Z</time></trkpt><trkpt lat="36.89960304476085" lon="15.144620341278197"><ele>12.0</ele><time>2026-04-11T13:32:30.999Z</time></trkpt><trkpt lat="36.899534777324185" lon="15.144753586962548"><ele>12.0</ele><time>2026-04-11T13:32:32.999Z</time></trkpt><trkpt lat="36.899485591445476" lon="15.144849588920868"><ele>12.0</ele><time>2026-04-11T13:32:34.999Z</time></trkpt><trkpt lat="36.89945110890759" lon="15.144916892560362"><ele>12.0</ele><time>2026-04-11T13:32:36.999Z</time></trkpt><trkpt lat="36.89941329028032" lon="15.14499070793807"><ele>12.0</ele><time>2026-04-11T13:32:38.999Z</time></trkpt><trkpt lat="36.89937265132494" lon="15.145068563904136"><ele>12.0</ele><time>2026-04-11T13:32:44.999Z</time></trkpt><trkpt lat="36.89926155278033" lon="15.145031460732067"><ele>12.0</ele><time>2026-04-11T13:32:49.999Z</time></trkpt><trkpt lat="36.899177957713334" lon="15.144948384158265"><ele>12.0</ele><time>2026-04-11T13:32:51.999Z</time></trkpt><trkpt lat="36.89907479679381" lon="15.144875218079074"><ele>12.0</ele><time>2026-04-11T13:32:53.999Z</time></trkpt><trkpt lat="36.89901247637722" lon="15.144827396238211"><ele>12.0</ele><time>2026-04-11T13:32:54.999Z</time></trkpt><trkpt lat="36.89895115589767" lon="15.144771258055128"><ele>12.0</ele><time>2026-04-11T13:32:55.999Z</time></trkpt><trkpt lat="36.898894042382494" lon="15.144712799059638"><ele>12.0</ele><time>2026-04-11T13:32:56.999Z</time></trkpt><trkpt lat="36.89882398284227" lon="15.144643455636757"><ele>12.0</ele><time>2026-04-11T13:32:57.999Z</time></trkpt><trkpt lat="36.89874435038264" lon="15.144563237899755"><ele>12.0</ele><time>2026-04-11T13:32:58.999Z</time></trkpt><trkpt lat="36.89866547321796" lon="15.144484142043932"><ele>12.0</ele><time>2026-04-11T13:32:59.999Z</time></trkpt><trkpt lat="36.898595667519864" lon="15.144410733304602"><ele>12.0</ele><time>2026-04-11T13:33:00.999Z</time></trkpt><trkpt lat="36.89854088169399" lon="15.144348048305464"><ele>12.0</ele><time>2026-04-11T13:33:01.999Z</time></trkpt><trkpt lat="36.89849237503431" lon="15.14429539984024"><ele>12.0</ele><time>2026-04-11T13:33:02.999Z</time></trkpt><trkpt lat="36.89844203392943" lon="15.144242297045976"><ele>12.0</ele><time>2026-04-11T13:33:03.999Z</time></trkpt><trkpt lat="36.89837658490583" lon="15.144180963828498"><ele>12.0</ele><time>2026-04-11T13:33:04.999Z</time></trkpt><trkpt lat="36.89829313914199" lon="15.14410642431448"><ele>11.5</ele><time>2026-04-11T13:33:05.999Z</time></trkpt><trkpt lat="36.89816618470794" lon="15.144003025296442"><ele>11.0</ele><time>2026-04-11T13:33:06.999Z</time></trkpt><trkpt lat="36.898034059958945" lon="15.143911461318966"><ele>10.5</ele><time>2026-04-11T13:33:07.999Z</time></trkpt><trkpt lat="36.89790785496223" lon="15.143850575920919"><ele>10.0</ele><time>2026-04-11T13:33:08.999Z</time></trkpt><trkpt lat="36.89777000417165" lon="15.143785402791584"><ele>10.0</ele><time>2026-04-11T13:33:09.999Z</time></trkpt><trkpt lat="36.89763273883521" lon="15.143738757910748"><ele>10.0</ele><time>2026-04-11T13:33:10.999Z</time></trkpt><trkpt lat="36.897512622359294" lon="15.14368476167134"><ele>10.0</ele><time>2026-04-11T13:33:11.999Z</time></trkpt><trkpt lat="36.897383796189594" lon="15.143642433842977"><ele>10.0</ele><time>2026-04-11T13:33:12.999Z</time></trkpt><trkpt lat="36.89723299916239" lon="15.14361823237927"><ele>9.5</ele><time>2026-04-11T13:33:13.999Z</time></trkpt><trkpt lat="36.89708359128396" lon="15.143594929929801"><ele>9.0</ele><time>2026-04-11T13:33:14.999Z</time></trkpt><trkpt lat="36.89694165064414" lon="15.143575362005882"><ele>8.5</ele><time>2026-04-11T13:33:15.999Z</time></trkpt><trkpt lat="36.89679743121449" lon="15.14355056624456"><ele>8.0</ele><time>2026-04-11T13:33:16.999Z</time></trkpt><trkpt lat="36.89664255914823" lon="15.143528552540173"><ele>7.666666666666666</ele><time>2026-04-11T13:33:18Z</time></trkpt><trkpt lat="36.896483143906075" lon="15.14349747818682"><ele>7.333333333333334</ele><time>2026-04-11T13:33:19Z</time></trkpt><trkpt lat="36.896323331117955" lon="15.143450673113973"><ele>7.0</ele><time>2026-04-11T13:33:20Z</time></trkpt><trkpt lat="36.896167386451246" lon="15.143402751746802"><ele>7.0</ele><time>2026-04-11T13:33:21Z</time></trkpt><trkpt lat="36.8960094664487" lon="15.1433516051787"><ele>7.0</ele><time>2026-04-11T13:33:22Z</time></trkpt><trkpt lat="36.89586084743203" lon="15.143304855747855"><ele>7.0</ele><time>2026-04-11T13:33:23Z</time></trkpt><trkpt lat="36.89572515642378" lon="15.143266244425268"><ele>6.5</ele><time>2026-04-11T13:33:24Z</time></trkpt><trkpt lat="36.89560101771006" lon="15.143233627436212"><ele>6.0</ele><time>2026-04-11T13:33:25Z</time></trkpt><trkpt lat="36.89548151736777" lon="15.143212015302323"><ele>5.5</ele><time>2026-04-11T13:33:26Z</time></trkpt><trkpt lat="36.89534783982765" lon="15.143212672848193"><ele>5.0</ele><time>2026-04-11T13:33:27Z</time></trkpt><trkpt lat="36.89522088187371" lon="15.143245881727537"><ele>5.0</ele><time>2026-04-11T13:33:28Z</time></trkpt><trkpt lat="36.895089501791034" lon="15.143304023579136"><ele>5.0</ele><time>2026-04-11T13:33:29Z</time></trkpt><trkpt lat="36.89496432456494" lon="15.143358032569148"><ele>5.0</ele><time>2026-04-11T13:33:30Z</time></trkpt><trkpt lat="36.89483895785661" lon="15.143367420921354"><ele>5.0</ele><time>2026-04-11T13:33:31Z</time></trkpt><trkpt lat="36.89472243712315" lon="15.143317215277921"><ele>5.0</ele><time>2026-04-11T13:33:32Z</time></trkpt><trkpt lat="36.89461277952649" lon="15.14326900817242"><ele>5.0</ele><time>2026-04-11T13:33:33Z</time></trkpt><trkpt lat="36.894508383244556" lon="15.143205463210915"><ele>5.0</ele><time>2026-04-11T13:33:34Z</time></trkpt><trkpt lat="36.89441578659138" lon="15.143132597345552"><ele>5.0</ele><time>2026-04-11T13:33:35Z</time></trkpt><trkpt lat="36.89433280760501" lon="15.14305865022178"><ele>5.0</ele><time>2026-04-11T13:33:36Z</time></trkpt><trkpt lat="36.89425881819539" lon="15.1430018356383"><ele>5.4</ele><time>2026-04-11T13:33:37Z</time></trkpt><trkpt lat="36.89418523869583" lon="15.142960177319148"><ele>5.8</ele><time>2026-04-11T13:33:38Z</time></trkpt><trkpt lat="36.89408473873923" lon="15.142918375288403"><ele>6.199999999999999</ele><time>2026-04-11T13:33:39Z</time></trkpt><trkpt lat="36.89396325277663" lon="15.14287545577461"><ele>6.6</ele><time>2026-04-11T13:33:40Z</time></trkpt><trkpt lat="36.89383899213489" lon="15.14283606327185"><ele>7.0</ele><time>2026-04-11T13:33:41Z</time></trkpt><trkpt lat="36.89371265866063" lon="15.142804891858285"><ele>7.0</ele><time>2026-04-11T13:33:42Z</time></trkpt><trkpt lat="36.89357014358701" lon="15.142764981298667"><ele>7.0</ele><time>2026-04-11T13:33:43Z</time></trkpt><trkpt lat="36.8934206834241" lon="15.142692977567169"><ele>7.0</ele><time>2026-04-11T13:33:44Z</time></trkpt><trkpt lat="36.8932708381648" lon="15.142607679950471"><ele>6.75</ele><time>2026-04-11T13:33:45Z</time></trkpt><trkpt lat="36.89313528110952" lon="15.142533017558181"><ele>6.5</ele><time>2026-04-11T13:33:46Z</time></trkpt><trkpt lat="36.89301765024584" lon="15.14245140710936"><ele>6.25</ele><time>2026-04-11T13:33:47Z</time></trkpt><trkpt lat="36.89291139091076" lon="15.14234921019792"><ele>6.0</ele><time>2026-04-11T13:33:48Z</time></trkpt><trkpt lat="36.89281215332489" lon="15.142217621690973"><ele>6.0</ele><time>2026-04-11T13:33:49Z</time></trkpt><trkpt lat="36.89273391333878" lon="15.14207275918164"><ele>6.0</ele><time>2026-04-11T13:33:50Z</time></trkpt><trkpt lat="36.89266345558022" lon="15.141950953429296"><ele>6.0</ele><time>2026-04-11T13:33:51Z</time></trkpt><trkpt lat="36.89257192899375" lon="15.141852854394186"><ele>6.0</ele><time>2026-04-11T13:33:52Z</time></trkpt><trkpt lat="36.89245194258465" lon="15.141768267910203"><ele>6.0</ele><time>2026-04-11T13:33:53Z</time></trkpt><trkpt lat="36.89231516533453" lon="15.141696546437188"><ele>6.0</ele><time>2026-04-11T13:33:54Z</time></trkpt><trkpt lat="36.89219613800088" lon="15.141637185675817"><ele>6.0</ele><time>2026-04-11T13:33:55Z</time></trkpt><trkpt lat="36.89209485995418" lon="15.141578688050586"><ele>6.0</ele><time>2026-04-11T13:33:56Z</time></trkpt><trkpt lat="36.89199954809348" lon="15.141518686361776"><ele>6.199999999999999</ele><time>2026-04-11T13:33:57Z</time></trkpt><trkpt lat="36.891887941199634" lon="15.141440375998467"><ele>6.3999999999999995</ele><time>2026-04-11T13:33:58Z</time></trkpt><trkpt lat="36.89178788540265" lon="15.141360655534138"><ele>6.6</ele><time>2026-04-11T13:33:59Z</time></trkpt><trkpt lat="36.891697999530535" lon="15.141299008623918"><ele>6.8</ele><time>2026-04-11T13:34:00Z</time></trkpt><trkpt lat="36.89160475004126" lon="15.141258344335506"><ele>7.0</ele><time>2026-04-11T13:34:01Z</time></trkpt><trkpt lat="36.891506052619505" lon="15.141225568171558"><ele>7.0</ele><time>2026-04-11T13:34:02Z</time></trkpt><trkpt lat="36.891409333675625" lon="15.141189332088091"><ele>7.0</ele><time>2026-04-11T13:34:03Z</time></trkpt><trkpt lat="36.89131196387062" lon="15.14113672213901"><ele>7.0</ele><time>2026-04-11T13:34:04Z</time></trkpt><trkpt lat="36.89121127329512" lon="15.1410540518439"><ele>7.0</ele><time>2026-04-11T13:34:05Z</time></trkpt><trkpt lat="36.89110313767893" lon="15.140959951036958"><ele>7.0</ele><time>2026-04-11T13:34:06Z</time></trkpt><trkpt lat="36.89098656448225" lon="15.14085013635583"><ele>7.0</ele><time>2026-04-11T13:34:07Z</time></trkpt><trkpt lat="36.8908699129004" lon="15.140746231532138"><ele>7.0</ele><time>2026-04-11T13:34:08Z</time></trkpt><trkpt lat="36.890752374955085" lon="15.140656677611155"><ele>7.0</ele><time>2026-04-11T13:34:09Z</time></trkpt><trkpt lat="36.89064050961965" lon="15.14059180575583"><ele>7.25</ele><time>2026-04-11T13:34:10Z</time></trkpt><trkpt lat="36.89052943979734" lon="15.14053605441573"><ele>7.5</ele><time>2026-04-11T13:34:11Z</time></trkpt><trkpt lat="36.89040594997705" lon="15.14049252371067"><ele>7.75</ele><time>2026-04-11T13:34:12Z</time></trkpt><trkpt lat="36.89026817972112" lon="15.14047665935765"><ele>8.0</ele><time>2026-04-11T13:34:13Z</time></trkpt><trkpt lat="36.89013515750762" lon="15.140470913115507"><ele>8.333333333333332</ele><time>2026-04-11T13:34:14Z</time></trkpt><trkpt lat="36.8899881308308" lon="15.140474064464778"><ele>8.666666666666666</ele><time>2026-04-11T13:34:15Z</time></trkpt><trkpt lat="36.88983321042832" lon="15.14050118695853"><ele>9.0</ele><time>2026-04-11T13:34:15.999Z</time></trkpt><trkpt lat="36.88967124164166" lon="15.140536589835756"><ele>9.0</ele><time>2026-04-11T13:34:16.999Z</time></trkpt><trkpt lat="36.889500081194264" lon="15.140558992011961"><ele>9.0</ele><time>2026-04-11T13:34:17.999Z</time></trkpt><trkpt lat="36.88934885125458" lon="15.14057412802881"><ele>9.0</ele><time>2026-04-11T13:34:18.999Z</time></trkpt><trkpt lat="36.88921879653644" lon="15.140588781219211"><ele>8.8</ele><time>2026-04-11T13:34:19.999Z</time></trkpt><trkpt lat="36.8891011363711" lon="15.140603625882898"><ele>8.600000000000001</ele><time>2026-04-11T13:34:20.999Z</time></trkpt><trkpt lat="36.88899080714568" lon="15.140592042013932"><ele>8.4</ele><time>2026-04-11T13:34:21.999Z</time></trkpt><trkpt lat="36.88888935199425" lon="15.140598787849756"><ele>8.200000000000001</ele><time>2026-04-11T13:34:22.999Z</time></trkpt><trkpt lat="36.88880071155026" lon="15.140604135803287"><ele>8.0</ele><time>2026-04-11T13:34:23.999Z</time></trkpt><trkpt lat="36.88872103896948" lon="15.140623233784007"><ele>8.0</ele><time>2026-04-11T13:34:24.999Z</time></trkpt><trkpt lat="36.88860522124976" lon="15.14055847389848"><ele>8.0</ele><time>2026-04-11T13:34:26.999Z</time></trkpt><trkpt lat="36.88852891951157" lon="15.140456004874677"><ele>8.0</ele><time>2026-04-11T13:34:27.999Z</time></trkpt><trkpt lat="36.888402951765634" lon="15.140349784950695"><ele>8.0</ele><time>2026-04-11T13:34:28.999Z</time></trkpt><trkpt lat="36.88828043357506" lon="15.140222017332693"><ele>7.75</ele><time>2026-04-11T13:34:29.999Z</time></trkpt><trkpt lat="36.88815693064196" lon="15.140108072125633"><ele>7.5</ele><time>2026-04-11T13:34:30.999Z</time></trkpt><trkpt lat="36.888049394234166" lon="15.140010721213507"><ele>7.25</ele><time>2026-04-11T13:34:31.999Z</time></trkpt><trkpt lat="36.88795361094335" lon="15.13991811618765"><ele>7.0</ele><time>2026-04-11T13:34:32.999Z</time></trkpt><trkpt lat="36.88786642227653" lon="15.139827090058725"><ele>7.0</ele><time>2026-04-11T13:34:33.999Z</time></trkpt><trkpt lat="36.88778366997824" lon="15.139740043132468"><ele>6.999999999999999</ele><time>2026-04-11T13:34:34.999Z</time></trkpt><trkpt lat="36.887699763704134" lon="15.139661171499315"><ele>6.999999999999999</ele><time>2026-04-11T13:34:35.999Z</time></trkpt><trkpt lat="36.88761692112205" lon="15.13959981964115"><ele>7.0</ele><time>2026-04-11T13:34:36.999Z</time></trkpt><trkpt lat="36.887542307826514" lon="15.139563631358563"><ele>7.0</ele><time>2026-04-11T13:34:37.999Z</time></trkpt><trkpt lat="36.88747050672239" lon="15.13954163281598"><ele>6.833333333333334</ele><time>2026-04-11T13:34:38.999Z</time></trkpt><trkpt lat="36.8873946306229" lon="15.139553467458583"><ele>6.666666666666667</ele><time>2026-04-11T13:34:39.999Z</time></trkpt><trkpt lat="36.88730869298388" lon="15.139608025184245"><ele>6.5</ele><time>2026-04-11T13:34:40.999Z</time></trkpt><trkpt lat="36.887230134244135" lon="15.13968197748996"><ele>6.333333333333334</ele><time>2026-04-11T13:34:41.999Z</time></trkpt><trkpt lat="36.887169502104676" lon="15.139708925473272"><ele>6.166666666666667</ele><time>2026-04-11T13:34:42.999Z</time></trkpt><trkpt lat="36.88709190962954" lon="15.139688922154797"><ele>6.0</ele><time>2026-04-11T13:34:43.999Z</time></trkpt><trkpt lat="36.88700082381294" lon="15.139628583744239"><ele>6.0</ele><time>2026-04-11T13:34:44.999Z</time></trkpt><trkpt lat="36.88689201502219" lon="15.139563218368261"><ele>6.0</ele><time>2026-04-11T13:34:45.999Z</time></trkpt><trkpt lat="36.88678107832622" lon="15.13951426115675"><ele>6.0</ele><time>2026-04-11T13:34:46.999Z</time></trkpt><trkpt lat="36.88667848236056" lon="15.139447874809575"><ele>6.0</ele><time>2026-04-11T13:34:47.999Z</time></trkpt><trkpt lat="36.88657437943242" lon="15.139389329388415"><ele>6.199999999999999</ele><time>2026-04-11T13:34:48.999Z</time></trkpt><trkpt lat="36.886485343553076" lon="15.139346127613637"><ele>6.3999999999999995</ele><time>2026-04-11T13:34:49.999Z</time></trkpt><trkpt lat="36.88639713536009" lon="15.139312217358787"><ele>6.6</ele><time>2026-04-11T13:34:50.999Z</time></trkpt><trkpt lat="36.886294541879906" lon="15.139306178499263"><ele>6.8</ele><time>2026-04-11T13:34:51.999Z</time></trkpt><trkpt lat="36.88617556293498" lon="15.13932804418216"><ele>7.0</ele><time>2026-04-11T13:34:52.999Z</time></trkpt><trkpt lat="36.88604653673116" lon="15.139366229874502"><ele>6.8</ele><time>2026-04-11T13:34:53.999Z</time></trkpt><trkpt lat="36.88592747981446" lon="15.139370501144025"><ele>6.6</ele><time>2026-04-11T13:34:54.999Z</time></trkpt><trkpt lat="36.88582908671532" lon="15.139380665074425"><ele>6.3999999999999995</ele><time>2026-04-11T13:34:55.999Z</time></trkpt><trkpt lat="36.88573917522679" lon="15.139392797163135"><ele>6.199999999999999</ele><time>2026-04-11T13:34:56.999Z</time></trkpt><trkpt lat="36.885656182975524" lon="15.13933557101675"><ele>6.0</ele><time>2026-04-11T13:34:57.999Z</time></trkpt><trkpt lat="36.885582703025364" lon="15.139288075971642"><ele>6.0</ele><time>2026-04-11T13:34:58.999Z</time></trkpt><trkpt lat="36.885521142590484" lon="15.139262897815934"><ele>6.0</ele><time>2026-04-11T13:34:59.999Z</time></trkpt><trkpt lat="36.88546293490359" lon="15.139209428766211"><ele>6.0</ele><time>2026-04-11T13:35:01.999Z</time></trkpt><trkpt lat="36.88547195936085" lon="15.139088335765091"><ele>6.0</ele><time>2026-04-11T13:35:03.999Z</time></trkpt><trkpt lat="36.885496563910216" lon="15.138977835878132"><ele>6.0</ele><time>2026-04-11T13:35:04.999Z</time></trkpt><trkpt lat="36.88554311550993" lon="15.138858439530251"><ele>6.0</ele><time>2026-04-11T13:35:05.999Z</time></trkpt><trkpt lat="36.88557700126902" lon="15.13873625541955"><ele>6.75</ele><time>2026-04-11T13:35:06.999Z</time></trkpt><trkpt lat="36.8856233896617" lon="15.138573307710177"><ele>7.5</ele><time>2026-04-11T13:35:07.999Z</time></trkpt><trkpt lat="36.88568578226811" lon="15.138393091993159"><ele>8.25</ele><time>2026-04-11T13:35:08.999Z</time></trkpt><trkpt lat="36.88574464539851" lon="15.138218248682868"><ele>9.0</ele><time>2026-04-11T13:35:09.999Z</time></trkpt><trkpt lat="36.8858004095877" lon="15.138049478772864"><ele>9.25</ele><time>2026-04-11T13:35:10.999Z</time></trkpt><trkpt lat="36.88586122907919" lon="15.137903237136813"><ele>9.5</ele><time>2026-04-11T13:35:11.999Z</time></trkpt><trkpt lat="36.88592695012431" lon="15.13775538621817"><ele>9.75</ele><time>2026-04-11T13:35:12.999Z</time></trkpt><trkpt lat="36.88598728624186" lon="15.1375989499439"><ele>10.0</ele><time>2026-04-11T13:35:13.999Z</time></trkpt><trkpt lat="36.88604578702928" lon="15.137436243488088"><ele>10.333333333333334</ele><time>2026-04-11T13:35:14.999Z</time></trkpt><trkpt lat="36.886101293166426" lon="15.137261048067591"><ele>10.666666666666666</ele><time>2026-04-11T13:35:15.999Z</time></trkpt><trkpt lat="36.886151305508974" lon="15.137065738904127"><ele>11.0</ele><time>2026-04-11T13:35:16.999Z</time></trkpt><trkpt lat="36.88618449039667" lon="15.13686666147651"><ele>11.0</ele><time>2026-04-11T13:35:17.999Z</time></trkpt><trkpt lat="36.88620990869315" lon="15.13668953242686"><ele>11.0</ele><time>2026-04-11T13:35:18.999Z</time></trkpt><trkpt lat="36.8862368066656" lon="15.136531452974259"><ele>11.0</ele><time>2026-04-11T13:35:19.999Z</time></trkpt><trkpt lat="36.886264952672306" lon="15.136388440396981"><ele>11.0</ele><time>2026-04-11T13:35:20.999Z</time></trkpt><trkpt lat="36.886270081105664" lon="15.136255447266215"><ele>11.5</ele><time>2026-04-11T13:35:21.999Z</time></trkpt><trkpt lat="36.88624289148598" lon="15.136118945815793"><ele>12.0</ele><time>2026-04-11T13:35:22.999Z</time></trkpt><trkpt lat="36.88618775178363" lon="15.13598212073854"><ele>12.5</ele><time>2026-04-11T13:35:24Z</time></trkpt><trkpt lat="36.88614325545811" lon="15.135825455930918"><ele>13.0</ele><time>2026-04-11T13:35:25Z</time></trkpt><trkpt lat="36.88609754954848" lon="15.135664515681302"><ele>13.5</ele><time>2026-04-11T13:35:26Z</time></trkpt><trkpt lat="36.886053511403425" lon="15.135509051226856"><ele>14.0</ele><time>2026-04-11T13:35:27Z</time></trkpt><trkpt lat="36.88601148918327" lon="15.135355076396914"><ele>14.5</ele><time>2026-04-11T13:35:28Z</time></trkpt><trkpt lat="36.88598405779952" lon="15.135204506602012"><ele>15.0</ele><time>2026-04-11T13:35:29Z</time></trkpt><trkpt lat="36.88597319302116" lon="15.135060248182535"><ele>15.0</ele><time>2026-04-11T13:35:30Z</time></trkpt><trkpt lat="36.88597258358696" lon="15.134913658984114"><ele>15.0</ele><time>2026-04-11T13:35:31Z</time></trkpt><trkpt lat="36.885990374620405" lon="15.134763682692517"><ele>15.0</ele><time>2026-04-11T13:35:32Z</time></trkpt><trkpt lat="36.88601634931694" lon="15.13463773659233"><ele>15.0</ele><time>2026-04-11T13:35:33Z</time></trkpt><trkpt lat="36.88603083620952" lon="15.134532807424797"><ele>15.0</ele><time>2026-04-11T13:35:34Z</time></trkpt><trkpt lat="36.88603499198901" lon="15.134451511958602"><ele>15.2</ele><time>2026-04-11T13:35:35Z</time></trkpt><trkpt lat="36.8860427675688" lon="15.134360604006982"><ele>15.4</ele><time>2026-04-11T13:35:36Z</time></trkpt><trkpt lat="36.8860594274767" lon="15.134216779009583"><ele>15.600000000000001</ele><time>2026-04-11T13:35:37Z</time></trkpt><trkpt lat="36.886133726266955" lon="15.134084127768636"><ele>15.8</ele><time>2026-04-11T13:35:38Z</time></trkpt><trkpt lat="36.88620939430789" lon="15.133956953892879"><ele>16.0</ele><time>2026-04-11T13:35:39Z</time></trkpt><trkpt lat="36.88626755436279" lon="15.133839378812432"><ele>16.0</ele><time>2026-04-11T13:35:40Z</time></trkpt><trkpt lat="36.88631979490234" lon="15.133722361457217"><ele>16.0</ele><time>2026-04-11T13:35:41Z</time></trkpt><trkpt lat="36.88634970924395" lon="15.133578466895772"><ele>16.0</ele><time>2026-04-11T13:35:42Z</time></trkpt><trkpt lat="36.886373996031594" lon="15.133431206433777"><ele>16.0</ele><time>2026-04-11T13:35:43Z</time></trkpt><trkpt lat="36.886377737302915" lon="15.133288260048777"><ele>16.25</ele><time>2026-04-11T13:35:44Z</time></trkpt><trkpt lat="36.88636414203015" lon="15.133126723679652"><ele>16.5</ele><time>2026-04-11T13:35:45Z</time></trkpt><trkpt lat="36.88635361556004" lon="15.132991216110165"><ele>16.75</ele><time>2026-04-11T13:35:46Z</time></trkpt><trkpt lat="36.8863599340154" lon="15.132844249314841"><ele>17.0</ele><time>2026-04-11T13:35:47Z</time></trkpt><trkpt lat="36.886391750409956" lon="15.132685211393003"><ele>17.0</ele><time>2026-04-11T13:35:48Z</time></trkpt><trkpt lat="36.886449790561095" lon="15.132525910003961"><ele>17.0</ele><time>2026-04-11T13:35:49Z</time></trkpt><trkpt lat="36.88650866736109" lon="15.132376294480357"><ele>17.0</ele><time>2026-04-11T13:35:50Z</time></trkpt><trkpt lat="36.88656884540653" lon="15.132223628533632"><ele>17.0</ele><time>2026-04-11T13:35:51Z</time></trkpt><trkpt lat="36.88664570136788" lon="15.132067425288854"><ele>17.2</ele><time>2026-04-11T13:35:52Z</time></trkpt><trkpt lat="36.8867053559337" lon="15.131929145226911"><ele>17.4</ele><time>2026-04-11T13:35:53Z</time></trkpt><trkpt lat="36.88675368473836" lon="15.131804560192228"><ele>17.6</ele><time>2026-04-11T13:35:54Z</time></trkpt><trkpt lat="36.886801201449366" lon="15.131697779984812"><ele>17.8</ele><time>2026-04-11T13:35:55Z</time></trkpt><trkpt lat="36.886843504276435" lon="15.131605499984737"><ele>18.0</ele><time>2026-04-11T13:35:56Z</time></trkpt><trkpt lat="36.88688426846209" lon="15.131514802849134"><ele>18.4</ele><time>2026-04-11T13:35:57Z</time></trkpt><trkpt lat="36.88691601076254" lon="15.131436400865889"><ele>18.8</ele><time>2026-04-11T13:35:58Z</time></trkpt><trkpt lat="36.88694414510456" lon="15.131362849750815"><ele>19.2</ele><time>2026-04-11T13:35:59Z</time></trkpt><trkpt lat="36.886986676956404" lon="15.131259147713754"><ele>19.6</ele><time>2026-04-11T13:36:01Z</time></trkpt><trkpt lat="36.88700968651051" lon="15.131163866050187"><ele>20.0</ele><time>2026-04-11T13:36:05Z</time></trkpt><trkpt lat="36.88685854745002" lon="15.131098477727374"><ele>20.0</ele><time>2026-04-11T13:36:08Z</time></trkpt><trkpt lat="36.88677288844191" lon="15.131078319244704"><ele>20.0</ele><time>2026-04-11T13:36:09Z</time></trkpt><trkpt lat="36.88667415219494" lon="15.131052637985992"><ele>20.0</ele><time>2026-04-11T13:36:10Z</time></trkpt><trkpt lat="36.8865629676449" lon="15.131035127251337"><ele>20.0</ele><time>2026-04-11T13:36:11Z</time></trkpt><trkpt lat="36.88641647662595" lon="15.131031915696386"><ele>20.0</ele><time>2026-04-11T13:36:12Z</time></trkpt><trkpt lat="36.88624907835958" lon="15.131040176900107"><ele>20.0</ele><time>2026-04-11T13:36:13Z</time></trkpt><trkpt lat="36.886081044853256" lon="15.131041426382986"><ele>20.0</ele><time>2026-04-11T13:36:14Z</time></trkpt><trkpt lat="36.8858947617798" lon="15.131033179916377"><ele>20.0</ele><time>2026-04-11T13:36:15Z</time></trkpt><trkpt lat="36.88569328100597" lon="15.13104055442605"><ele>20.0</ele><time>2026-04-11T13:36:16Z</time></trkpt><trkpt lat="36.88548425589895" lon="15.131064544944868"><ele>20.0</ele><time>2026-04-11T13:36:17Z</time></trkpt><trkpt lat="36.88528072953133" lon="15.13109276306254"><ele>20.0</ele><time>2026-04-11T13:36:18Z</time></trkpt><trkpt lat="36.88505976725565" lon="15.131094655293452"><ele>20.0</ele><time>2026-04-11T13:36:19Z</time></trkpt><trkpt lat="36.88483794674052" lon="15.131123400751385"><ele>20.0</ele><time>2026-04-11T13:36:20Z</time></trkpt><trkpt lat="36.884623224589085" lon="15.131134557999818"><ele>20.0</ele><time>2026-04-11T13:36:21Z</time></trkpt><trkpt lat="36.88442218376547" lon="15.131149068585566"><ele>19.666666666666668</ele><time>2026-04-11T13:36:22Z</time></trkpt><trkpt lat="36.884233205821694" lon="15.131165127413094"><ele>19.333333333333332</ele><time>2026-04-11T13:36:23Z</time></trkpt><trkpt lat="36.88405181251467" lon="15.131182757948437"><ele>19.0</ele><time>2026-04-11T13:36:24Z</time></trkpt><trkpt lat="36.88386936303392" lon="15.131198437517936"><ele>19.0</ele><time>2026-04-11T13:36:25Z</time></trkpt><trkpt lat="36.883684558572526" lon="15.131211184141895"><ele>19.0</ele><time>2026-04-11T13:36:26Z</time></trkpt><trkpt lat="36.88350350019051" lon="15.131213221158184"><ele>19.0</ele><time>2026-04-11T13:36:27Z</time></trkpt><trkpt lat="36.8833303374024" lon="15.13120250710636"><ele>18.666666666666664</ele><time>2026-04-11T13:36:28Z</time></trkpt><trkpt lat="36.88316643673347" lon="15.131182550181116"><ele>18.333333333333332</ele><time>2026-04-11T13:36:29Z</time></trkpt><trkpt lat="36.88300391776613" lon="15.131152665747905"><ele>18.0</ele><time>2026-04-11T13:36:30Z</time></trkpt><trkpt lat="36.882836380263875" lon="15.13111183165689"><ele>18.0</ele><time>2026-04-11T13:36:31Z</time></trkpt><trkpt lat="36.88266809314334" lon="15.131046090850472"><ele>18.0</ele><time>2026-04-11T13:36:32Z</time></trkpt><trkpt lat="36.882508509423694" lon="15.130958818471477"><ele>18.0</ele><time>2026-04-11T13:36:33Z</time></trkpt><trkpt lat="36.88235409437886" lon="15.130873398283654"><ele>17.666666666666668</ele><time>2026-04-11T13:36:34Z</time></trkpt><trkpt lat="36.882196485945514" lon="15.130802079559091"><ele>17.333333333333336</ele><time>2026-04-11T13:36:34.999Z</time></trkpt><trkpt lat="36.88202733032693" lon="15.130740458376208"><ele>17.0</ele><time>2026-04-11T13:36:35.999Z</time></trkpt><trkpt lat="36.881844339992696" lon="15.130697974776604"><ele>16.333333333333336</ele><time>2026-04-11T13:36:36.999Z</time></trkpt><trkpt lat="36.88165090206973" lon="15.130685031386731"><ele>15.666666666666668</ele><time>2026-04-11T13:36:37.999Z</time></trkpt><trkpt lat="36.88145247753225" lon="15.13069002541655"><ele>15.0</ele><time>2026-04-11T13:36:38.999Z</time></trkpt><trkpt lat="36.881261632908505" lon="15.130696953192107"><ele>15.0</ele><time>2026-04-11T13:36:39.999Z</time></trkpt><trkpt lat="36.88108737339197" lon="15.130681780819955"><ele>15.0</ele><time>2026-04-11T13:36:40.999Z</time></trkpt><trkpt lat="36.88092257745741" lon="15.130648178406004"><ele>15.0</ele><time>2026-04-11T13:36:41.999Z</time></trkpt><trkpt lat="36.88076073369322" lon="15.130615057323658"><ele>15.0</ele><time>2026-04-11T13:36:42.999Z</time></trkpt><trkpt lat="36.880595344836195" lon="15.13056484535443"><ele>15.0</ele><time>2026-04-11T13:36:43.999Z</time></trkpt><trkpt lat="36.88042991983325" lon="15.130501700021203"><ele>15.0</ele><time>2026-04-11T13:36:44.999Z</time></trkpt><trkpt lat="36.88026168271469" lon="15.130426700720797"><ele>13.666666666666666</ele><time>2026-04-11T13:36:45.999Z</time></trkpt><trkpt lat="36.880097212338455" lon="15.130348732456838"><ele>12.333333333333332</ele><time>2026-04-11T13:36:46.999Z</time></trkpt><trkpt lat="36.879958475674" lon="15.130276787220865"><ele>11.0</ele><time>2026-04-11T13:36:47.999Z</time></trkpt><trkpt lat="36.87983609794682" lon="15.13021437591682"><ele>11.0</ele><time>2026-04-11T13:36:48.999Z</time></trkpt><trkpt lat="36.87972278622737" lon="15.130154520628013"><ele>11.0</ele><time>2026-04-11T13:36:49.999Z</time></trkpt><trkpt lat="36.87960790710317" lon="15.130080074071802"><ele>11.0</ele><time>2026-04-11T13:36:50.999Z</time></trkpt><trkpt lat="36.879501816074246" lon="15.129962349273464"><ele>11.0</ele><time>2026-04-11T13:36:51.999Z</time></trkpt><trkpt lat="36.879404557848716" lon="15.129804828892487"><ele>10.0</ele><time>2026-04-11T13:36:52.999Z</time></trkpt><trkpt lat="36.8793030802183" lon="15.129614742746465"><ele>9.0</ele><time>2026-04-11T13:36:53.999Z</time></trkpt><trkpt lat="36.87920479228024" lon="15.129414430765394"><ele>8.0</ele><time>2026-04-11T13:36:54.999Z</time></trkpt><trkpt lat="36.87912394332248" lon="15.129200775472558"><ele>8.333333333333332</ele><time>2026-04-11T13:36:55.999Z</time></trkpt><trkpt lat="36.879062242474696" lon="15.128992501809194"><ele>8.666666666666666</ele><time>2026-04-11T13:36:56.999Z</time></trkpt><trkpt lat="36.8790130459582" lon="15.128810545646578"><ele>9.0</ele><time>2026-04-11T13:36:57.999Z</time></trkpt><trkpt lat="36.8789608952924" lon="15.128653675713332"><ele>9.0</ele><time>2026-04-11T13:36:58.999Z</time></trkpt><trkpt lat="36.87889305420394" lon="15.128518741582708"><ele>9.0</ele><time>2026-04-11T13:36:59.999Z</time></trkpt><trkpt lat="36.87879504267003" lon="15.128398780202605"><ele>9.0</ele><time>2026-04-11T13:37:00.999Z</time></trkpt><trkpt lat="36.87866435771296" lon="15.128303467963844"><ele>9.0</ele><time>2026-04-11T13:37:01.999Z</time></trkpt><trkpt lat="36.8785005099344" lon="15.128208354813458"><ele>9.0</ele><time>2026-04-11T13:37:02.999Z</time></trkpt><trkpt lat="36.87833675590186" lon="15.128080956511216"><ele>9.0</ele><time>2026-04-11T13:37:03.999Z</time></trkpt><trkpt lat="36.87816966279382" lon="15.127946296552793"><ele>9.0</ele><time>2026-04-11T13:37:04.999Z</time></trkpt><trkpt lat="36.877998659703316" lon="15.127800874649054"><ele>9.0</ele><time>2026-04-11T13:37:05.999Z</time></trkpt><trkpt lat="36.87784006563971" lon="15.127668656579793"><ele>9.0</ele><time>2026-04-11T13:37:06.999Z</time></trkpt><trkpt lat="36.87769389499588" lon="15.127544043051104"><ele>9.0</ele><time>2026-04-11T13:37:07.999Z</time></trkpt><trkpt lat="36.87755329232318" lon="15.12744047513445"><ele>8.666666666666666</ele><time>2026-04-11T13:37:08.999Z</time></trkpt><trkpt lat="36.87740455302042" lon="15.127367183721203"><ele>8.333333333333332</ele><time>2026-04-11T13:37:09.999Z</time></trkpt><trkpt lat="36.87723089781373" lon="15.12731583416731"><ele>8.0</ele><time>2026-04-11T13:37:10.999Z</time></trkpt><trkpt lat="36.87703442265371" lon="15.127289976746004"><ele>8.0</ele><time>2026-04-11T13:37:11.999Z</time></trkpt><trkpt lat="36.87681929541738" lon="15.127272241953916"><ele>8.0</ele><time>2026-04-11T13:37:12.999Z</time></trkpt><trkpt lat="36.87660300181439" lon="15.127247902718345"><ele>8.0</ele><time>2026-04-11T13:37:13.999Z</time></trkpt><trkpt lat="36.87638240036836" lon="15.127221457129743"><ele>8.0</ele><time>2026-04-11T13:37:14.999Z</time></trkpt><trkpt lat="36.87616541957864" lon="15.127196606029388"><ele>8.0</ele><time>2026-04-11T13:37:15.999Z</time></trkpt><trkpt lat="36.87595362815241" lon="15.127171240076047"><ele>8.0</ele><time>2026-04-11T13:37:16.999Z</time></trkpt><trkpt lat="36.87575588744079" lon="15.127147074065391"><ele>8.0</ele><time>2026-04-11T13:37:17.999Z</time></trkpt><trkpt lat="36.87557077032817" lon="15.127127133625338"><ele>8.0</ele><time>2026-04-11T13:37:18.999Z</time></trkpt><trkpt lat="36.87538687231436" lon="15.127109872206725"><ele>8.0</ele><time>2026-04-11T13:37:19.999Z</time></trkpt><trkpt lat="36.87521289678319" lon="15.127089990705876"><ele>8.0</ele><time>2026-04-11T13:37:20.999Z</time></trkpt><trkpt lat="36.87505330536749" lon="15.127055516829802"><ele>8.0</ele><time>2026-04-11T13:37:21.999Z</time></trkpt><trkpt lat="36.87489857231551" lon="15.127003517854545"><ele>8.0</ele><time>2026-04-11T13:37:22.999Z</time></trkpt><trkpt lat="36.87475582418688" lon="15.126908295355662"><ele>8.0</ele><time>2026-04-11T13:37:23.999Z</time></trkpt><trkpt lat="36.874624615708576" lon="15.126782822385533"><ele>8.0</ele><time>2026-04-11T13:37:24.999Z</time></trkpt><trkpt lat="36.8745035856636" lon="15.126635798594634"><ele>8.0</ele><time>2026-04-11T13:37:25.999Z</time></trkpt><trkpt lat="36.874390495021714" lon="15.126508812582856"><ele>8.5</ele><time>2026-04-11T13:37:26.999Z</time></trkpt><trkpt lat="36.874278279488145" lon="15.126403143313677"><ele>9.0</ele><time>2026-04-11T13:37:27.999Z</time></trkpt><trkpt lat="36.874158204379675" lon="15.12632985665662"><ele>9.5</ele><time>2026-04-11T13:37:28.999Z</time></trkpt><trkpt lat="36.87403655987187" lon="15.126299549811655"><ele>10.0</ele><time>2026-04-11T13:37:30Z</time></trkpt><trkpt lat="36.87390670543523" lon="15.126324958848203"><ele>10.0</ele><time>2026-04-11T13:37:31Z</time></trkpt><trkpt lat="36.873773439524676" lon="15.126387344623152"><ele>10.0</ele><time>2026-04-11T13:37:32Z</time></trkpt><trkpt lat="36.87363392522465" lon="15.126486028375972"><ele>10.0</ele><time>2026-04-11T13:37:33Z</time></trkpt><trkpt lat="36.87347908562859" lon="15.126592781892551"><ele>11.333333333333334</ele><time>2026-04-11T13:37:34Z</time></trkpt><trkpt lat="36.87333562839569" lon="15.126687378512658"><ele>12.666666666666668</ele><time>2026-04-11T13:37:35Z</time></trkpt><trkpt lat="36.87318243726245" lon="15.126768207797403"><ele>14.0</ele><time>2026-04-11T13:37:36Z</time></trkpt><trkpt lat="36.873003834933094" lon="15.12680595741618"><ele>14.0</ele><time>2026-04-11T13:37:37Z</time></trkpt><trkpt lat="36.872830147731506" lon="15.126888385484838"><ele>14.0</ele><time>2026-04-11T13:37:38Z</time></trkpt><trkpt lat="36.87266019937548" lon="15.126966136977076"><ele>14.0</ele><time>2026-04-11T13:37:39Z</time></trkpt><trkpt lat="36.87250580321697" lon="15.127031885424563"><ele>14.5</ele><time>2026-04-11T13:37:40Z</time></trkpt><trkpt lat="36.8723704086273" lon="15.1271071406739"><ele>15.0</ele><time>2026-04-11T13:37:41Z</time></trkpt><trkpt lat="36.8722495604287" lon="15.127184282474829"><ele>15.5</ele><time>2026-04-11T13:37:42Z</time></trkpt><trkpt lat="36.87214939487313" lon="15.127275185821667"><ele>16.0</ele><time>2026-04-11T13:37:43Z</time></trkpt><trkpt lat="36.87205213593675" lon="15.127347417861445"><ele>15.999999999999998</ele><time>2026-04-11T13:37:44Z</time></trkpt><trkpt lat="36.87195728950567" lon="15.127393604308843"><ele>16.0</ele><time>2026-04-11T13:37:45Z</time></trkpt><trkpt lat="36.871887301685405" lon="15.127461817314797"><ele>16.0</ele><time>2026-04-11T13:37:46Z</time></trkpt><trkpt lat="36.87180331129912" lon="15.12748888948733"><ele>16.0</ele><time>2026-04-11T13:37:47Z</time></trkpt><trkpt lat="36.87172717262821" lon="15.127467057280699"><ele>15.999999999999998</ele><time>2026-04-11T13:37:48Z</time></trkpt><trkpt lat="36.87165340606522" lon="15.127411588636637"><ele>16.0</ele><time>2026-04-11T13:37:49Z</time></trkpt><trkpt lat="36.871591571386126" lon="15.127331013951837"><ele>16.166666666666664</ele><time>2026-04-11T13:37:50Z</time></trkpt><trkpt lat="36.871530593719356" lon="15.127277914046967"><ele>16.333333333333332</ele><time>2026-04-11T13:37:51Z</time></trkpt><trkpt lat="36.87146040342768" lon="15.127263376828838"><ele>16.5</ele><time>2026-04-11T13:37:52Z</time></trkpt><trkpt lat="36.87139064438632" lon="15.127255706159934"><ele>16.666666666666668</ele><time>2026-04-11T13:37:53Z</time></trkpt><trkpt lat="36.87132361552754" lon="15.127323370311807"><ele>16.833333333333336</ele><time>2026-04-11T13:37:54Z</time></trkpt><trkpt lat="36.87125781620429" lon="15.12737910502005"><ele>17.0</ele><time>2026-04-11T13:37:56Z</time></trkpt><trkpt lat="36.87112635912133" lon="15.127248872575978"><ele>17.0</ele><time>2026-04-11T13:37:58Z</time></trkpt><trkpt lat="36.87108027193982" lon="15.12715997362892"><ele>17.0</ele><time>2026-04-11T13:38:00Z</time></trkpt><trkpt lat="36.87102325875097" lon="15.127062636596923"><ele>17.0</ele><time>2026-04-11T13:38:03Z</time></trkpt><trkpt lat="36.8709921994248" lon="15.126979378046329"><ele>17.0</ele><time>2026-04-11T13:38:04Z</time></trkpt><trkpt lat="36.870951246918565" lon="15.126883159990774"><ele>17.0</ele><time>2026-04-11T13:38:05Z</time></trkpt><trkpt lat="36.8709048692056" lon="15.126776840059595"><ele>17.0</ele><time>2026-04-11T13:38:06Z</time></trkpt><trkpt lat="36.87083083161714" lon="15.12666796665041"><ele>17.5</ele><time>2026-04-11T13:38:07Z</time></trkpt><trkpt lat="36.87073730911358" lon="15.126555624511973"><ele>18.0</ele><time>2026-04-11T13:38:08Z</time></trkpt><trkpt lat="36.87063989350557" lon="15.126446705637035"><ele>18.5</ele><time>2026-04-11T13:38:09Z</time></trkpt><trkpt lat="36.870532007809686" lon="15.126342874058004"><ele>19.0</ele><time>2026-04-11T13:38:10Z</time></trkpt><trkpt lat="36.87042441459314" lon="15.126248738422618"><ele>19.0</ele><time>2026-04-11T13:38:11Z</time></trkpt><trkpt lat="36.87032460896142" lon="15.126158765551859"><ele>19.0</ele><time>2026-04-11T13:38:12Z</time></trkpt><trkpt lat="36.870224110373286" lon="15.12606692761047"><ele>19.0</ele><time>2026-04-11T13:38:13Z</time></trkpt><trkpt lat="36.87011669327822" lon="15.12597934405705"><ele>19.0</ele><time>2026-04-11T13:38:14Z</time></trkpt><trkpt lat="36.87000292653138" lon="15.125900779247834"><ele>19.0</ele><time>2026-04-11T13:38:15Z</time></trkpt><trkpt lat="36.869897645454806" lon="15.125836575510908"><ele>19.0</ele><time>2026-04-11T13:38:16Z</time></trkpt><trkpt lat="36.86980177744121" lon="15.125772766829524"><ele>19.0</ele><time>2026-04-11T13:38:17Z</time></trkpt><trkpt lat="36.86971634215896" lon="15.125709197114439"><ele>19.0</ele><time>2026-04-11T13:38:18Z</time></trkpt><trkpt lat="36.869631711328715" lon="15.12565056392132"><ele>19.0</ele><time>2026-04-11T13:38:19Z</time></trkpt><trkpt lat="36.86954775569174" lon="15.125589144560674"><ele>19.0</ele><time>2026-04-11T13:38:20Z</time></trkpt><trkpt lat="36.86943228930841" lon="15.125549625521838"><ele>19.0</ele><time>2026-04-11T13:38:21Z</time></trkpt><trkpt lat="36.86933565692449" lon="15.125495723219158"><ele>19.0</ele><time>2026-04-11T13:38:22Z</time></trkpt><trkpt lat="36.869252755890294" lon="15.125444026676156"><ele>19.0</ele><time>2026-04-11T13:38:23Z</time></trkpt><trkpt lat="36.86917907199654" lon="15.125397434046729"><ele>19.0</ele><time>2026-04-11T13:38:24Z</time></trkpt><trkpt lat="36.86911149386915" lon="15.125352200920279"><ele>18.4</ele><time>2026-04-11T13:38:25Z</time></trkpt><trkpt lat="36.86901401680849" lon="15.125319267180815"><ele>17.799999999999997</ele><time>2026-04-11T13:38:27Z</time></trkpt><trkpt lat="36.86893609982137" lon="15.12538003702629"><ele>17.200000000000003</ele><time>2026-04-11T13:38:29Z</time></trkpt><trkpt lat="36.86891122892579" lon="15.125483170712958"><ele>16.6</ele><time>2026-04-11T13:38:30Z</time></trkpt><trkpt lat="36.86886398183717" lon="15.12558979539176"><ele>16.0</ele><time>2026-04-11T13:38:32Z</time></trkpt><trkpt lat="36.86877236430552" lon="15.125625380050682"><ele>16.0</ele><time>2026-04-11T13:38:38Z</time></trkpt><trkpt lat="36.86861973762754" lon="15.125521286292553"><ele>16.0</ele><time>2026-04-11T13:38:40Z</time></trkpt><trkpt lat="36.868501272400785" lon="15.12544536161557"><ele>16.0</ele><time>2026-04-11T13:38:41Z</time></trkpt><trkpt lat="36.86838536288359" lon="15.125374436089203"><ele>16.0</ele><time>2026-04-11T13:38:42Z</time></trkpt><trkpt lat="36.868279506634345" lon="15.125309989308256"><ele>16.0</ele><time>2026-04-11T13:38:43Z</time></trkpt><trkpt lat="36.8681833770978" lon="15.125258448440542"><ele>16.0</ele><time>2026-04-11T13:38:43.999Z</time></trkpt><trkpt lat="36.86809677391648" lon="15.125204684548933"><ele>16.0</ele><time>2026-04-11T13:38:44.999Z</time></trkpt><trkpt lat="36.868002857909545" lon="15.125142436316713"><ele>16.0</ele><time>2026-04-11T13:38:45.999Z</time></trkpt><trkpt lat="36.86791412510214" lon="15.125084243743512"><ele>16.0</ele><time>2026-04-11T13:38:46.999Z</time></trkpt><trkpt lat="36.867832333354954" lon="15.125032162055081"><ele>16.0</ele><time>2026-04-11T13:38:47.999Z</time></trkpt><trkpt lat="36.86776221721299" lon="15.124986886845623"><ele>16.0</ele><time>2026-04-11T13:38:48.999Z</time></trkpt><trkpt lat="36.8676650064038" lon="15.124972966690724"><ele>16.0</ele><time>2026-04-11T13:38:50.999Z</time></trkpt><trkpt lat="36.867603768196794" lon="15.125101850016943"><ele>16.0</ele><time>2026-04-11T13:38:52.999Z</time></trkpt><trkpt lat="36.86758987205574" lon="15.125202156010856"><ele>16.0</ele><time>2026-04-11T13:38:53.999Z</time></trkpt><trkpt lat="36.867525577274925" lon="15.12525692129522"><ele>15.666666666666666</ele><time>2026-04-11T13:38:54.999Z</time></trkpt><trkpt lat="36.867494949979346" lon="15.125347101583872"><ele>15.333333333333332</ele><time>2026-04-11T13:38:55.999Z</time></trkpt><trkpt lat="36.86746624771115" lon="15.125431613792696"><ele>15.0</ele><time>2026-04-11T13:38:56.999Z</time></trkpt><trkpt lat="36.86743653734565" lon="15.125516034984047"><ele>14.666666666666668</ele><time>2026-04-11T13:38:57.999Z</time></trkpt><trkpt lat="36.86738773179669" lon="15.125643494633504"><ele>14.333333333333334</ele><time>2026-04-11T13:38:59.999Z</time></trkpt><trkpt lat="36.86734205325503" lon="15.125712466757316"><ele>14.0</ele><time>2026-04-11T13:39:01.999Z</time></trkpt><trkpt lat="36.867248262083734" lon="15.125628506746434"><ele>14.0</ele><time>2026-04-11T13:39:04.999Z</time></trkpt><trkpt lat="36.8671669952633" lon="15.12557999600606"><ele>13.999999999999998</ele><time>2026-04-11T13:39:05.999Z</time></trkpt><trkpt lat="36.86708160307954" lon="15.125523335202814"><ele>13.999999999999998</ele><time>2026-04-11T13:39:06.999Z</time></trkpt><trkpt lat="36.86698193711995" lon="15.125457203543215"><ele>14.0</ele><time>2026-04-11T13:39:07.999Z</time></trkpt><trkpt lat="36.86686483239277" lon="15.125380336924149"><ele>14.0</ele><time>2026-04-11T13:39:08.999Z</time></trkpt><trkpt lat="36.86675705326537" lon="15.1253107058562"><ele>13.799999999999999</ele><time>2026-04-11T13:39:09.999Z</time></trkpt><trkpt lat="36.866662869182754" lon="15.125249857947002"><ele>13.599999999999998</ele><time>2026-04-11T13:39:10.999Z</time></trkpt><trkpt lat="36.86657543651021" lon="15.125193371815056"><ele>13.4</ele><time>2026-04-11T13:39:11.999Z</time></trkpt><trkpt lat="36.866492956215204" lon="15.12513789922186"><ele>13.2</ele><time>2026-04-11T13:39:12.999Z</time></trkpt><trkpt lat="36.866416984175196" lon="15.125086405797164"><ele>13.0</ele><time>2026-04-11T13:39:13.999Z</time></trkpt><trkpt lat="36.86633553974565" lon="15.125031203035183"><ele>13.0</ele><time>2026-04-11T13:39:14.999Z</time></trkpt><trkpt lat="36.866256969656575" lon="15.124988601355314"><ele>13.0</ele><time>2026-04-11T13:39:15.999Z</time></trkpt><trkpt lat="36.86618663082295" lon="15.124962123814573"><ele>13.0</ele><time>2026-04-11T13:39:16.999Z</time></trkpt><trkpt lat="36.86611743712688" lon="15.124955227038283"><ele>13.0</ele><time>2026-04-11T13:39:17.999Z</time></trkpt><trkpt lat="36.86605586663068" lon="15.124986599988263"><ele>13.0</ele><time>2026-04-11T13:39:18.999Z</time></trkpt><trkpt lat="36.86598904094993" lon="15.12500901507709"><ele>13.0</ele><time>2026-04-11T13:39:19.999Z</time></trkpt><trkpt lat="36.86591991653273" lon="15.125056042075588"><ele>13.0</ele><time>2026-04-11T13:39:20.999Z</time></trkpt><trkpt lat="36.8658610539925" lon="15.125099754543829"><ele>13.2</ele><time>2026-04-11T13:39:21.999Z</time></trkpt><trkpt lat="36.86576333570423" lon="15.125165217572807"><ele>13.4</ele><time>2026-04-11T13:39:23.999Z</time></trkpt><trkpt lat="36.86569646254558" lon="15.125212061699841"><ele>13.599999999999998</ele><time>2026-04-11T13:39:25.999Z</time></trkpt><trkpt lat="36.86563324738856" lon="15.125034335176382"><ele>13.799999999999999</ele><time>2026-04-11T13:39:28.999Z</time></trkpt><trkpt lat="36.86559945330679" lon="15.124934180368635"><ele>14.0</ele><time>2026-04-11T13:39:29.999Z</time></trkpt><trkpt lat="36.865566123038455" lon="15.124835400049383"><ele>14.000000000000002</ele><time>2026-04-11T13:39:30.999Z</time></trkpt><trkpt lat="36.865530558373315" lon="15.124729997793281"><ele>14.0</ele><time>2026-04-11T13:39:31.999Z</time></trkpt><trkpt lat="36.86549934119026" lon="15.124637480015632"><ele>14.0</ele><time>2026-04-11T13:39:32.999Z</time></trkpt><trkpt lat="36.86547391165268" lon="15.124563712666571"><ele>14.0</ele><time>2026-04-11T13:39:33.999Z</time></trkpt><trkpt lat="36.865446433637324" lon="15.12448606030888"><ele>14.000000000000002</ele><time>2026-04-11T13:39:35Z</time></trkpt><trkpt lat="36.865396132483475" lon="15.124404298773285"><ele>14.0</ele><time>2026-04-11T13:39:36Z</time></trkpt><trkpt lat="36.865359911416924" lon="15.124300263925175"><ele>14.000000000000002</ele><time>2026-04-11T13:39:37Z</time></trkpt><trkpt lat="36.86532591781177" lon="15.124198887451437"><ele>14.0</ele><time>2026-04-11T13:39:38Z</time></trkpt><trkpt lat="36.86528703473114" lon="15.124095498440376"><ele>14.0</ele><time>2026-04-11T13:39:39Z</time></trkpt><trkpt lat="36.86524218190146" lon="15.123997761970024"><ele>14.0</ele><time>2026-04-11T13:39:40Z</time></trkpt><trkpt lat="36.86519504232183" lon="15.123913302406324"><ele>14.000000000000002</ele><time>2026-04-11T13:39:41Z</time></trkpt><trkpt lat="36.86515955626065" lon="15.123837203241367"><ele>14.0</ele><time>2026-04-11T13:39:42Z</time></trkpt><trkpt lat="36.865101355290406" lon="15.123726899730704"><ele>13.333333333333334</ele><time>2026-04-11T13:39:44Z</time></trkpt><trkpt lat="36.865019888897365" lon="15.123665660848134"><ele>12.666666666666668</ele><time>2026-04-11T13:39:46Z</time></trkpt><trkpt lat="36.8649611983197" lon="15.123634418657927"><ele>12.0</ele><time>2026-04-11T13:39:47Z</time></trkpt><trkpt lat="36.864893368416226" lon="15.123592117006433"><ele>11.333333333333334</ele><time>2026-04-11T13:39:48Z</time></trkpt><trkpt lat="36.86481156564127" lon="15.12355674823274"><ele>10.666666666666668</ele><time>2026-04-11T13:39:49Z</time></trkpt><trkpt lat="36.86474512927652" lon="15.123508875332805"><ele>10.0</ele><time>2026-04-11T13:39:50Z</time></trkpt><trkpt lat="36.86467826344092" lon="15.12346612542788"><ele>10.0</ele><time>2026-04-11T13:39:51Z</time></trkpt><trkpt lat="36.864610776112976" lon="15.123411915851534"><ele>10.0</ele><time>2026-04-11T13:39:52Z</time></trkpt><trkpt lat="36.86454038369246" lon="15.123351116744823"><ele>10.0</ele><time>2026-04-11T13:39:53Z</time></trkpt><trkpt lat="36.8644711230501" lon="15.123299261274049"><ele>10.0</ele><time>2026-04-11T13:39:54Z</time></trkpt><trkpt lat="36.86439111129442" lon="15.12323849440226"><ele>10.0</ele><time>2026-04-11T13:39:56Z</time></trkpt><trkpt lat="36.864252888282145" lon="15.123331321837915"><ele>9.75</ele><time>2026-04-11T13:39:58Z</time></trkpt><trkpt lat="36.864182459900015" lon="15.123382051858739"><ele>9.5</ele><time>2026-04-11T13:40:00Z</time></trkpt><trkpt lat="36.86401640762278" lon="15.123186248709555"><ele>9.25</ele><time>2026-04-11T13:40:04Z</time></trkpt><trkpt lat="36.8639540260459" lon="15.123125850103854"><ele>9.0</ele><time>2026-04-11T13:40:05Z</time></trkpt><trkpt lat="36.863893571719245" lon="15.123071132058755"><ele>9.0</ele><time>2026-04-11T13:40:07Z</time></trkpt><trkpt lat="36.863799929121" lon="15.123147576059582"><ele>9.0</ele><time>2026-04-11T13:40:10Z</time></trkpt><trkpt lat="36.86378002673557" lon="15.123225716535728"><ele>9.0</ele><time>2026-04-11T13:40:11Z</time></trkpt><trkpt lat="36.863729360171945" lon="15.123325358657866"><ele>9.0</ele><time>2026-04-11T13:40:13Z</time></trkpt><trkpt lat="36.863662791636635" lon="15.123376774282658"><ele>9.0</ele><time>2026-04-11T13:40:19Z</time></trkpt><trkpt lat="36.8635560140342" lon="15.123243901076334"><ele>9.4</ele><time>2026-04-11T13:40:21Z</time></trkpt><trkpt lat="36.86349343597431" lon="15.12316214629246"><ele>9.8</ele><time>2026-04-11T13:40:22Z</time></trkpt><trkpt lat="36.86342485925589" lon="15.123078520424347"><ele>10.200000000000001</ele><time>2026-04-11T13:40:23Z</time></trkpt><trkpt lat="36.86335354932392" lon="15.122995485657162"><ele>10.600000000000001</ele><time>2026-04-11T13:40:24Z</time></trkpt><trkpt lat="36.863279322201706" lon="15.122905679595613"><ele>11.0</ele><time>2026-04-11T13:40:25Z</time></trkpt><trkpt lat="36.86321920277887" lon="15.122825845506066"><ele>11.0</ele><time>2026-04-11T13:40:26Z</time></trkpt><trkpt lat="36.8631611690403" lon="15.122758004259524"><ele>11.0</ele><time>2026-04-11T13:40:27Z</time></trkpt><trkpt lat="36.863105288563055" lon="15.122694135154916"><ele>11.0</ele><time>2026-04-11T13:40:28Z</time></trkpt><trkpt lat="36.863048665461804" lon="15.122625715545524"><ele>11.0</ele><time>2026-04-11T13:40:29Z</time></trkpt><trkpt lat="36.862992915462996" lon="15.122552744604068"><ele>11.0</ele><time>2026-04-11T13:40:30Z</time></trkpt><trkpt lat="36.862939388816855" lon="15.122482880755875"><ele>11.0</ele><time>2026-04-11T13:40:31Z</time></trkpt><trkpt lat="36.86287296101298" lon="15.122395316429621"><ele>11.5</ele><time>2026-04-11T13:40:32Z</time></trkpt><trkpt lat="36.86278184389464" lon="15.122283272619427"><ele>12.0</ele><time>2026-04-11T13:40:33Z</time></trkpt><trkpt lat="36.86267837456759" lon="15.122149654983012"><ele>12.5</ele><time>2026-04-11T13:40:34Z</time></trkpt><trkpt lat="36.86258627174741" lon="15.122017867172374"><ele>13.0</ele><time>2026-04-11T13:40:35Z</time></trkpt><trkpt lat="36.86249106753425" lon="15.121884153668027"><ele>13.0</ele><time>2026-04-11T13:40:36Z</time></trkpt><trkpt lat="36.86237765716802" lon="15.121743493741368"><ele>13.0</ele><time>2026-04-11T13:40:37Z</time></trkpt><trkpt lat="36.86226531120138" lon="15.121594146401263"><ele>13.0</ele><time>2026-04-11T13:40:38Z</time></trkpt><trkpt lat="36.862147593163954" lon="15.1214488825359"><ele>12.666666666666666</ele><time>2026-04-11T13:40:39Z</time></trkpt><trkpt lat="36.86203395959192" lon="15.12131416036099"><ele>12.333333333333332</ele><time>2026-04-11T13:40:40Z</time></trkpt><trkpt lat="36.86192086824285" lon="15.121171018548687"><ele>12.0</ele><time>2026-04-11T13:40:41Z</time></trkpt><trkpt lat="36.86181483324557" lon="15.121008893985238"><ele>11.333333333333334</ele><time>2026-04-11T13:40:42Z</time></trkpt><trkpt lat="36.86170710626574" lon="15.120823321092743"><ele>10.666666666666668</ele><time>2026-04-11T13:40:43Z</time></trkpt><trkpt lat="36.86159917549121" lon="15.120630366685091"><ele>10.0</ele><time>2026-04-11T13:40:44Z</time></trkpt><trkpt lat="36.861492860220984" lon="15.120429211176024"><ele>9.0</ele><time>2026-04-11T13:40:45Z</time></trkpt><trkpt lat="36.86138967596324" lon="15.120224813635687"><ele>8.0</ele><time>2026-04-11T13:40:46Z</time></trkpt><trkpt lat="36.86129494304548" lon="15.120034246272724"><ele>7.0</ele><time>2026-04-11T13:40:47Z</time></trkpt><trkpt lat="36.86120639036529" lon="15.119859808855322"><ele>6.5</ele><time>2026-04-11T13:40:47.999Z</time></trkpt><trkpt lat="36.86112597704802" lon="15.11969954478712"><ele>6.0</ele><time>2026-04-11T13:40:48.999Z</time></trkpt><trkpt lat="36.86105657482593" lon="15.119560572822229"><ele>5.5</ele><time>2026-04-11T13:40:49.999Z</time></trkpt><trkpt lat="36.86099664614352" lon="15.119443937339987"><ele>5.0</ele><time>2026-04-11T13:40:50.999Z</time></trkpt><trkpt lat="36.86093844238197" lon="15.11933320773521"><ele>6.0</ele><time>2026-04-11T13:40:51.999Z</time></trkpt><trkpt lat="36.86087892787228" lon="15.119226869178453"><ele>7.0</ele><time>2026-04-11T13:40:52.999Z</time></trkpt><trkpt lat="36.860817160149935" lon="15.119129911146132"><ele>8.0</ele><time>2026-04-11T13:40:53.999Z</time></trkpt><trkpt lat="36.860762404083765" lon="15.11901872567058"><ele>9.0</ele><time>2026-04-11T13:40:54.999Z</time></trkpt><trkpt lat="36.860709534660344" lon="15.118878091687016"><ele>10.0</ele><time>2026-04-11T13:40:55.999Z</time></trkpt><trkpt lat="36.86063712096033" lon="15.118740154312244"><ele>10.75</ele><time>2026-04-11T13:40:56.999Z</time></trkpt><trkpt lat="36.86054748265336" lon="15.118612210623633"><ele>11.5</ele><time>2026-04-11T13:40:57.999Z</time></trkpt><trkpt lat="36.860449638772" lon="15.118489780741776"><ele>12.25</ele><time>2026-04-11T13:40:58.999Z</time></trkpt><trkpt lat="36.8603522422802" lon="15.118385555424366"><ele>13.0</ele><time>2026-04-11T13:40:59.999Z</time></trkpt><trkpt lat="36.86024725712043" lon="15.118288060437981"><ele>13.0</ele><time>2026-04-11T13:41:00.999Z</time></trkpt><trkpt lat="36.86013208316386" lon="15.118201075952552"><ele>13.0</ele><time>2026-04-11T13:41:01.999Z</time></trkpt><trkpt lat="36.860013121398055" lon="15.118119660120362"><ele>13.0</ele><time>2026-04-11T13:41:02.999Z</time></trkpt><trkpt lat="36.85989463420519" lon="15.118033120927077"><ele>13.0</ele><time>2026-04-11T13:41:03.999Z</time></trkpt><trkpt lat="36.85978404799092" lon="15.117949783925308"><ele>13.0</ele><time>2026-04-11T13:41:04.999Z</time></trkpt><trkpt lat="36.85967916401091" lon="15.117873905309958"><ele>13.0</ele><time>2026-04-11T13:41:05.999Z</time></trkpt><trkpt lat="36.8595775613083" lon="15.117800780094733"><ele>13.0</ele><time>2026-04-11T13:41:06.999Z</time></trkpt><trkpt lat="36.859482127832614" lon="15.117732992716336"><ele>13.0</ele><time>2026-04-11T13:41:07.999Z</time></trkpt><trkpt lat="36.85939346779338" lon="15.117666370903619"><ele>13.0</ele><time>2026-04-11T13:41:08.999Z</time></trkpt><trkpt lat="36.859310494680315" lon="15.117600316527888"><ele>13.0</ele><time>2026-04-11T13:41:09.999Z</time></trkpt><trkpt lat="36.85922735135779" lon="15.117524593067753"><ele>13.0</ele><time>2026-04-11T13:41:10.999Z</time></trkpt><trkpt lat="36.85913530408664" lon="15.117432849146594"><ele>13.0</ele><time>2026-04-11T13:41:11.999Z</time></trkpt><trkpt lat="36.859034127250325" lon="15.117345758352434"><ele>13.0</ele><time>2026-04-11T13:41:12.999Z</time></trkpt><trkpt lat="36.85893033416977" lon="15.117272219176819"><ele>12.5</ele><time>2026-04-11T13:41:13.999Z</time></trkpt><trkpt lat="36.858831051146325" lon="15.117219581614389"><ele>12.0</ele><time>2026-04-11T13:41:14.999Z</time></trkpt><trkpt lat="36.858737814635774" lon="15.117140395288208"><ele>11.5</ele><time>2026-04-11T13:41:15.999Z</time></trkpt><trkpt lat="36.85862617416568" lon="15.117069680271575"><ele>11.0</ele><time>2026-04-11T13:41:16.999Z</time></trkpt><trkpt lat="36.85848572681365" lon="15.116989951705728"><ele>10.25</ele><time>2026-04-11T13:41:17.999Z</time></trkpt><trkpt lat="36.858362557575575" lon="15.116918210536298"><ele>9.5</ele><time>2026-04-11T13:41:18.999Z</time></trkpt><trkpt lat="36.85824547675581" lon="15.116831315014686"><ele>8.75</ele><time>2026-04-11T13:41:19.999Z</time></trkpt><trkpt lat="36.85811228835106" lon="15.116729634065948"><ele>8.0</ele><time>2026-04-11T13:41:20.999Z</time></trkpt><trkpt lat="36.8580005677849" lon="15.11664889641987"><ele>8.0</ele><time>2026-04-11T13:41:21.999Z</time></trkpt><trkpt lat="36.857901529500424" lon="15.116579921044018"><ele>8.0</ele><time>2026-04-11T13:41:22.999Z</time></trkpt><trkpt lat="36.85780350489628" lon="15.116514191646747"><ele>8.0</ele><time>2026-04-11T13:41:23.999Z</time></trkpt><trkpt lat="36.857703826659495" lon="15.11644172238507"><ele>8.0</ele><time>2026-04-11T13:41:24.999Z</time></trkpt><trkpt lat="36.85760370218072" lon="15.116369077030297"><ele>8.0</ele><time>2026-04-11T13:41:25.999Z</time></trkpt><trkpt lat="36.85750305976359" lon="15.116294509243511"><ele>8.0</ele><time>2026-04-11T13:41:26.999Z</time></trkpt><trkpt lat="36.85740005151811" lon="15.116215012331523"><ele>8.0</ele><time>2026-04-11T13:41:27.999Z</time></trkpt><trkpt lat="36.85730064212763" lon="15.116123004927687"><ele>8.0</ele><time>2026-04-11T13:41:28.999Z</time></trkpt><trkpt lat="36.8571936165653" lon="15.116045537684627"><ele>8.0</ele><time>2026-04-11T13:41:29.999Z</time></trkpt><trkpt lat="36.857079486161915" lon="15.11598726831827"><ele>8.0</ele><time>2026-04-11T13:41:30.999Z</time></trkpt><trkpt lat="36.8569796644894" lon="15.11592267369193"><ele>8.0</ele><time>2026-04-11T13:41:31.999Z</time></trkpt><trkpt lat="36.856877430502394" lon="15.115848548726861"><ele>8.0</ele><time>2026-04-11T13:41:32.999Z</time></trkpt><trkpt lat="36.856766088655334" lon="15.115773082416567"><ele>8.0</ele><time>2026-04-11T13:41:33.999Z</time></trkpt><trkpt lat="36.85665330478905" lon="15.115689714479682"><ele>8.0</ele><time>2026-04-11T13:41:34.999Z</time></trkpt><trkpt lat="36.856543129319476" lon="15.1155981632736"><ele>8.0</ele><time>2026-04-11T13:41:35.999Z</time></trkpt><trkpt lat="36.85642969181298" lon="15.115510141436408"><ele>8.0</ele><time>2026-04-11T13:41:36.999Z</time></trkpt><trkpt lat="36.85631235772423" lon="15.115425080209711"><ele>8.0</ele><time>2026-04-11T13:41:37.999Z</time></trkpt><trkpt lat="36.85619228594435" lon="15.11533628670394"><ele>8.0</ele><time>2026-04-11T13:41:38.999Z</time></trkpt><trkpt lat="36.856075256741946" lon="15.115249897380187"><ele>8.0</ele><time>2026-04-11T13:41:39.999Z</time></trkpt><trkpt lat="36.85596595893754" lon="15.115170730466575"><ele>8.0</ele><time>2026-04-11T13:41:41Z</time></trkpt><trkpt lat="36.85586001474395" lon="15.115101491625103"><ele>7.6000000000000005</ele><time>2026-04-11T13:41:42Z</time></trkpt><trkpt lat="36.85576276032306" lon="15.115034059624678"><ele>7.200000000000001</ele><time>2026-04-11T13:41:43Z</time></trkpt><trkpt lat="36.855669882642694" lon="15.114967207496788"><ele>6.8</ele><time>2026-04-11T13:41:44Z</time></trkpt><trkpt lat="36.85558032504201" lon="15.114902625356322"><ele>6.4</ele><time>2026-04-11T13:41:45Z</time></trkpt><trkpt lat="36.85549061179728" lon="15.114840365705255"><ele>6.0</ele><time>2026-04-11T13:41:46Z</time></trkpt><trkpt lat="36.85539591717694" lon="15.114777505256786"><ele>6.0</ele><time>2026-04-11T13:41:47Z</time></trkpt><trkpt lat="36.85530108336948" lon="15.114712630716955"><ele>6.0</ele><time>2026-04-11T13:41:48Z</time></trkpt><trkpt lat="36.855194471314434" lon="15.114640310128333"><ele>6.0</ele><time>2026-04-11T13:41:49Z</time></trkpt><trkpt lat="36.855082456963004" lon="15.114568219620981"><ele>6.0</ele><time>2026-04-11T13:41:50Z</time></trkpt><trkpt lat="36.8549741486181" lon="15.114491496137274"><ele>6.4</ele><time>2026-04-11T13:41:51Z</time></trkpt><trkpt lat="36.854869667132256" lon="15.114413710071085"><ele>6.8</ele><time>2026-04-11T13:41:52Z</time></trkpt><trkpt lat="36.854792206747405" lon="15.114352572726855"><ele>7.200000000000001</ele><time>2026-04-11T13:41:53Z</time></trkpt><trkpt lat="36.854704007755444" lon="15.114290675540119"><ele>7.6000000000000005</ele><time>2026-04-11T13:41:54Z</time></trkpt><trkpt lat="36.85460795105973" lon="15.114239555785858"><ele>8.0</ele><time>2026-04-11T13:41:55Z</time></trkpt><trkpt lat="36.8545194809472" lon="15.1141769319912"><ele>7.999999999999999</ele><time>2026-04-11T13:41:56Z</time></trkpt><trkpt lat="36.854448059490245" lon="15.114101624422785"><ele>8.0</ele><time>2026-04-11T13:41:57Z</time></trkpt><trkpt lat="36.85438409819297" lon="15.114030311629639"><ele>8.0</ele><time>2026-04-11T13:41:58Z</time></trkpt><trkpt lat="36.8543341368303" lon="15.113965404202242"><ele>8.0</ele><time>2026-04-11T13:41:59Z</time></trkpt><trkpt lat="36.8542799148487" lon="15.1139051649141"><ele>7.999999999999999</ele><time>2026-04-11T13:42:00Z</time></trkpt><trkpt lat="36.85423775384091" lon="15.11383869988878"><ele>8.0</ele><time>2026-04-11T13:42:01Z</time></trkpt><trkpt lat="36.854330284151466" lon="15.113632621380004"><ele>8.4</ele><time>2026-04-11T13:42:03Z</time></trkpt><trkpt lat="36.8543729749202" lon="15.113516863405032"><ele>8.8</ele><time>2026-04-11T13:42:04Z</time></trkpt><trkpt lat="36.85443592613099" lon="15.113412681776547"><ele>9.2</ele><time>2026-04-11T13:42:05Z</time></trkpt><trkpt lat="36.8544917697891" lon="15.113306143528552"><ele>9.6</ele><time>2026-04-11T13:42:06Z</time></trkpt><trkpt lat="36.85455642594308" lon="15.113182415268213"><ele>10.0</ele><time>2026-04-11T13:42:07Z</time></trkpt><trkpt lat="36.854625737429785" lon="15.113058700168608"><ele>11.0</ele><time>2026-04-11T13:42:08Z</time></trkpt><trkpt lat="36.854697189773646" lon="15.112930327805863"><ele>12.0</ele><time>2026-04-11T13:42:09Z</time></trkpt><trkpt lat="36.854761974184065" lon="15.112798315849753"><ele>13.0</ele><time>2026-04-11T13:42:10Z</time></trkpt><trkpt lat="36.85481901522044" lon="15.11266400124091"><ele>14.0</ele><time>2026-04-11T13:42:11Z</time></trkpt><trkpt lat="36.85487832873473" lon="15.11253606588998"><ele>14.0</ele><time>2026-04-11T13:42:12Z</time></trkpt><trkpt lat="36.854940898703084" lon="15.112409042605748"><ele>14.0</ele><time>2026-04-11T13:42:13Z</time></trkpt><trkpt lat="36.85500422285249" lon="15.112282862550865"><ele>14.0</ele><time>2026-04-11T13:42:14Z</time></trkpt><trkpt lat="36.85506300048989" lon="15.112154736384745"><ele>14.0</ele><time>2026-04-11T13:42:15Z</time></trkpt><trkpt lat="36.8551237840361" lon="15.112028671707941"><ele>14.0</ele><time>2026-04-11T13:42:16Z</time></trkpt><trkpt lat="36.85519249306324" lon="15.11189369169914"><ele>14.0</ele><time>2026-04-11T13:42:17Z</time></trkpt><trkpt lat="36.855260863430786" lon="15.111748854197094"><ele>14.0</ele><time>2026-04-11T13:42:18Z</time></trkpt><trkpt lat="36.85533511603183" lon="15.111601492000672"><ele>14.0</ele><time>2026-04-11T13:42:19Z</time></trkpt><trkpt lat="36.85540130335247" lon="15.111451210199224"><ele>14.5</ele><time>2026-04-11T13:42:20Z</time></trkpt><trkpt lat="36.85546232721687" lon="15.111317510042793"><ele>15.0</ele><time>2026-04-11T13:42:21Z</time></trkpt><trkpt lat="36.85552930842022" lon="15.111183598103352"><ele>15.5</ele><time>2026-04-11T13:42:22Z</time></trkpt><trkpt lat="36.85559888233569" lon="15.111045070251054"><ele>16.0</ele><time>2026-04-11T13:42:23Z</time></trkpt><trkpt lat="36.85565965223281" lon="15.110918946546077"><ele>16.0</ele><time>2026-04-11T13:42:24Z</time></trkpt><trkpt lat="36.85572032696902" lon="15.110807784949333"><ele>16.0</ele><time>2026-04-11T13:42:25Z</time></trkpt><trkpt lat="36.85581144556806" lon="15.11069762854414"><ele>16.0</ele><time>2026-04-11T13:42:26Z</time></trkpt><trkpt lat="36.85592121251835" lon="15.110582371186602"><ele>16.0</ele><time>2026-04-11T13:42:27Z</time></trkpt><trkpt lat="36.85602967725332" lon="15.110480176395157"><ele>16.400000000000002</ele><time>2026-04-11T13:42:28Z</time></trkpt><trkpt lat="36.856125284124325" lon="15.110388312674987"><ele>16.8</ele><time>2026-04-11T13:42:29Z</time></trkpt><trkpt lat="36.856208891784675" lon="15.11030611480254"><ele>17.200000000000003</ele><time>2026-04-11T13:42:30Z</time></trkpt><trkpt lat="36.85628489346624" lon="15.11023051249641"><ele>17.6</ele><time>2026-04-11T13:42:31Z</time></trkpt><trkpt lat="36.856351125427324" lon="15.110163023957945"><ele>18.0</ele><time>2026-04-11T13:42:32Z</time></trkpt><trkpt lat="36.856411105900456" lon="15.110107330647498"><ele>18.0</ele><time>2026-04-11T13:42:33Z</time></trkpt><trkpt lat="36.85649363951598" lon="15.110035039174647"><ele>18.0</ele><time>2026-04-11T13:42:35Z</time></trkpt><trkpt lat="36.85655480260374" lon="15.109960695789999"><ele>18.0</ele><time>2026-04-11T13:42:37Z</time></trkpt><trkpt lat="36.856602004125996" lon="15.109891760120162"><ele>18.0</ele><time>2026-04-11T13:42:39Z</time></trkpt><trkpt lat="36.856592955357236" lon="15.109775682824928"><ele>18.0</ele><time>2026-04-11T13:42:43Z</time></trkpt><trkpt lat="36.85650843971256" lon="15.10969582187798"><ele>18.0</ele><time>2026-04-11T13:42:45Z</time></trkpt><trkpt lat="36.85643580918447" lon="15.109635620738453"><ele>18.0</ele><time>2026-04-11T13:42:47Z</time></trkpt><trkpt lat="36.856351006013355" lon="15.10968126981184"><ele>18.0</ele><time>2026-04-11T13:42:50Z</time></trkpt><trkpt lat="36.85628450230758" lon="15.109765112695994"><ele>18.0</ele><time>2026-04-11T13:42:51.999Z</time></trkpt><trkpt lat="36.85619516029872" lon="15.10978909549139"><ele>18.0</ele><time>2026-04-11T13:42:54.999Z</time></trkpt><trkpt lat="36.85613349096092" lon="15.109726326916782"><ele>18.0</ele><time>2026-04-11T13:42:55.999Z</time></trkpt><trkpt lat="36.856048389886354" lon="15.109649441564752"><ele>18.0</ele><time>2026-04-11T13:42:56.999Z</time></trkpt><trkpt lat="36.855957104817605" lon="15.109579691870822"><ele>18.0</ele><time>2026-04-11T13:42:57.999Z</time></trkpt><trkpt lat="36.85587550903125" lon="15.109518771704554"><ele>18.0</ele><time>2026-04-11T13:42:58.999Z</time></trkpt><trkpt lat="36.85578410203179" lon="15.10947085160535"><ele>18.0</ele><time>2026-04-11T13:42:59.999Z</time></trkpt><trkpt lat="36.85569315599417" lon="15.109408090854481"><ele>18.0</ele><time>2026-04-11T13:43:00.999Z</time></trkpt><trkpt lat="36.85561179110824" lon="15.109367716708366"><ele>17.833333333333332</ele><time>2026-04-11T13:43:01.999Z</time></trkpt><trkpt lat="36.85554232664903" lon="15.109333247754266"><ele>17.666666666666668</ele><time>2026-04-11T13:43:02.999Z</time></trkpt><trkpt lat="36.85546894414632" lon="15.109298027473395"><ele>17.5</ele><time>2026-04-11T13:43:03.999Z</time></trkpt><trkpt lat="36.85538859165835" lon="15.109266347547408"><ele>17.333333333333336</ele><time>2026-04-11T13:43:04.999Z</time></trkpt><trkpt lat="36.85529826492147" lon="15.109234727487774"><ele>17.166666666666668</ele><time>2026-04-11T13:43:05.999Z</time></trkpt><trkpt lat="36.85522173354221" lon="15.10920424495423"><ele>17.0</ele><time>2026-04-11T13:43:06.999Z</time></trkpt><trkpt lat="36.85517546093405" lon="15.109139074322018"><ele>17.0</ele><time>2026-04-11T13:43:07.999Z</time></trkpt><trkpt lat="36.85513084882757" lon="15.109075446978142"><ele>17.0</ele><time>2026-04-11T13:43:08.999Z</time></trkpt><trkpt lat="36.85506653537233" lon="15.109016584372759"><ele>17.0</ele><time>2026-04-11T13:43:09.999Z</time></trkpt><trkpt lat="36.85499792414625" lon="15.108962823671392"><ele>17.0</ele><time>2026-04-11T13:43:10.999Z</time></trkpt><trkpt lat="36.85477843761965" lon="15.10917188163139"><ele>15.5</ele><time>2026-04-11T13:43:11.999Z</time></trkpt><trkpt lat="36.85468964023213" lon="15.109149313075738"><ele>14.0</ele><time>2026-04-11T13:43:12.999Z</time></trkpt><trkpt lat="36.85460130201501" lon="15.10913068122031"><ele>12.5</ele><time>2026-04-11T13:43:13.999Z</time></trkpt><trkpt lat="36.85453721763339" lon="15.108894791113864"><ele>11.0</ele><time>2026-04-11T13:43:14.999Z</time></trkpt><trkpt lat="36.85445062510821" lon="15.108876821603104"><ele>10.8</ele><time>2026-04-11T13:43:15.999Z</time></trkpt><trkpt lat="36.85435947902913" lon="15.108856999705585"><ele>10.600000000000001</ele><time>2026-04-11T13:43:16.999Z</time></trkpt><trkpt lat="36.85426644895387" lon="15.108835731003408"><ele>10.4</ele><time>2026-04-11T13:43:17.999Z</time></trkpt><trkpt lat="36.85415427782035" lon="15.108811345158292"><ele>10.2</ele><time>2026-04-11T13:43:18.999Z</time></trkpt><trkpt lat="36.85409259447654" lon="15.108787549059254"><ele>10.0</ele><time>2026-04-11T13:43:19.999Z</time></trkpt><trkpt lat="36.85399244874499" lon="15.108742979108593"><ele>10.0</ele><time>2026-04-11T13:43:20.999Z</time></trkpt><trkpt lat="36.853824613238714" lon="15.108927105108753"><ele>10.0</ele><time>2026-04-11T13:43:21.999Z</time></trkpt><trkpt lat="36.853723591188064" lon="15.108902292551921"><ele>10.0</ele><time>2026-04-11T13:43:22.999Z</time></trkpt><trkpt lat="36.85362206028465" lon="15.108873842585334"><ele>10.0</ele><time>2026-04-11T13:43:23.999Z</time></trkpt><trkpt lat="36.85351449592055" lon="15.108938871992851"><ele>12.4</ele><time>2026-04-11T13:43:24.999Z</time></trkpt><trkpt lat="36.8534267315465" lon="15.108909950598273"><ele>14.8</ele><time>2026-04-11T13:43:25.999Z</time></trkpt><trkpt lat="36.85333852917898" lon="15.108871766917655"><ele>17.200000000000003</ele><time>2026-04-11T13:43:26.999Z</time></trkpt><trkpt lat="36.853244709779325" lon="15.108829379732073"><ele>19.6</ele><time>2026-04-11T13:43:27.999Z</time></trkpt><trkpt lat="36.853142767390544" lon="15.108782800946328"><ele>22.0</ele><time>2026-04-11T13:43:28.999Z</time></trkpt><trkpt lat="36.853037463280465" lon="15.108726175662817"><ele>22.0</ele><time>2026-04-11T13:43:29.999Z</time></trkpt><trkpt lat="36.85293275676876" lon="15.10865587587596"><ele>22.0</ele><time>2026-04-11T13:43:30.999Z</time></trkpt><trkpt lat="36.852834369268166" lon="15.108585207219212"><ele>22.0</ele><time>2026-04-11T13:43:31.999Z</time></trkpt><trkpt lat="36.852736018043494" lon="15.108510967279225"><ele>22.0</ele><time>2026-04-11T13:43:32.999Z</time></trkpt><trkpt lat="36.85264272052551" lon="15.108437367774071"><ele>22.8</ele><time>2026-04-11T13:43:33.999Z</time></trkpt><trkpt lat="36.852553010552874" lon="15.108362593491664"><ele>23.6</ele><time>2026-04-11T13:43:34.999Z</time></trkpt><trkpt lat="36.85246356741959" lon="15.10828700075137"><ele>24.400000000000002</ele><time>2026-04-11T13:43:35.999Z</time></trkpt><trkpt lat="36.85237330176156" lon="15.108208086678781"><ele>25.200000000000003</ele><time>2026-04-11T13:43:36.999Z</time></trkpt><trkpt lat="36.85227952865532" lon="15.108121589501652"><ele>26.0</ele><time>2026-04-11T13:43:37.999Z</time></trkpt><trkpt lat="36.85220059875733" lon="15.108047701992133"><ele>26.0</ele><time>2026-04-11T13:43:38.999Z</time></trkpt><trkpt lat="36.85211404679544" lon="15.107994341980381"><ele>26.0</ele><time>2026-04-11T13:43:39.999Z</time></trkpt><trkpt lat="36.8520254310721" lon="15.107978860896802"><ele>26.0</ele><time>2026-04-11T13:43:40.999Z</time></trkpt><trkpt lat="36.851978776832624" lon="15.107693075257275"><ele>26.0</ele><time>2026-04-11T13:43:41.999Z</time></trkpt><trkpt lat="36.85188626219151" lon="15.107614923805476"><ele>26.0</ele><time>2026-04-11T13:43:42.999Z</time></trkpt><trkpt lat="36.85179739434161" lon="15.107534874647095"><ele>26.0</ele><time>2026-04-11T13:43:43.999Z</time></trkpt><trkpt lat="36.85167830015678" lon="15.107504277686985"><ele>26.0</ele><time>2026-04-11T13:43:44.999Z</time></trkpt><trkpt lat="36.85159723947111" lon="15.107432365755656"><ele>26.0</ele><time>2026-04-11T13:43:45.999Z</time></trkpt><trkpt lat="36.851516012589116" lon="15.107356846094833"><ele>26.0</ele><time>2026-04-11T13:43:47Z</time></trkpt><trkpt lat="36.85143962953785" lon="15.107285448753611"><ele>25.333333333333332</ele><time>2026-04-11T13:43:48Z</time></trkpt><trkpt lat="36.85136662531734" lon="15.107215006246395"><ele>24.666666666666664</ele><time>2026-04-11T13:43:49Z</time></trkpt><trkpt lat="36.85128921704326" lon="15.107142462080583"><ele>24.0</ele><time>2026-04-11T13:43:50Z</time></trkpt><trkpt lat="36.85121442094783" lon="15.107075807972695"><ele>23.333333333333332</ele><time>2026-04-11T13:43:51Z</time></trkpt><trkpt lat="36.85114565254906" lon="15.107016788584417"><ele>22.666666666666664</ele><time>2026-04-11T13:43:52Z</time></trkpt><trkpt lat="36.85108792214492" lon="15.106975296029697"><ele>22.0</ele><time>2026-04-11T13:43:53Z</time></trkpt><trkpt lat="36.851030444537244" lon="15.10693653218654"><ele>20.0</ele><time>2026-04-11T13:43:54Z</time></trkpt><trkpt lat="36.85093720237389" lon="15.106912985757793"><ele>18.0</ele><time>2026-04-11T13:43:56Z</time></trkpt><trkpt lat="36.850851956122725" lon="15.106912901004545"><ele>16.0</ele><time>2026-04-11T13:43:59Z</time></trkpt><trkpt lat="36.8507709577447" lon="15.1069457326144"><ele>14.0</ele><time>2026-04-11T13:44:03Z</time></trkpt><trkpt lat="36.85070458935399" lon="15.106531509627919"><ele>14.000000000000002</ele><time>2026-04-11T13:44:04Z</time></trkpt><trkpt lat="36.85059731051195" lon="15.106439406022838"><ele>14.0</ele><time>2026-04-11T13:44:06Z</time></trkpt><trkpt lat="36.85053384716937" lon="15.106383417791298"><ele>14.0</ele><time>2026-04-11T13:44:07Z</time></trkpt><trkpt lat="36.850473639638786" lon="15.106324223382567"><ele>14.0</ele><time>2026-04-11T13:44:08Z</time></trkpt><trkpt lat="36.85040910574776" lon="15.10626641389879"><ele>14.000000000000002</ele><time>2026-04-11T13:44:09Z</time></trkpt><trkpt lat="36.85034791786025" lon="15.106210218053418"><ele>14.0</ele><time>2026-04-11T13:44:10Z</time></trkpt><trkpt lat="36.85028698143474" lon="15.106152627917808"><ele>14.000000000000002</ele><time>2026-04-11T13:44:11Z</time></trkpt><trkpt lat="36.850217223980664" lon="15.106091438697895"><ele>14.0</ele><time>2026-04-11T13:44:12Z</time></trkpt><trkpt lat="36.850151991613366" lon="15.106028099915035"><ele>14.0</ele><time>2026-04-11T13:44:13Z</time></trkpt><trkpt lat="36.850079706784605" lon="15.105968972400728"><ele>14.0</ele><time>2026-04-11T13:44:14Z</time></trkpt><trkpt lat="36.85001379171628" lon="15.105904767381888"><ele>14.000000000000002</ele><time>2026-04-11T13:44:15Z</time></trkpt><trkpt lat="36.849944723078494" lon="15.105842624411913"><ele>14.0</ele><time>2026-04-11T13:44:16Z</time></trkpt><trkpt lat="36.84987597350578" lon="15.105777308280567"><ele>13.399999999999999</ele><time>2026-04-11T13:44:17Z</time></trkpt><trkpt lat="36.84980709579257" lon="15.105714520768776"><ele>12.799999999999999</ele><time>2026-04-11T13:44:18Z</time></trkpt><trkpt lat="36.84973612969894" lon="15.105650463156119"><ele>12.2</ele><time>2026-04-11T13:44:19Z</time></trkpt><trkpt lat="36.84966432593864" lon="15.105584465353468"><ele>11.600000000000001</ele><time>2026-04-11T13:44:20Z</time></trkpt><trkpt lat="36.849586794038366" lon="15.105516381470576"><ele>11.0</ele><time>2026-04-11T13:44:21Z</time></trkpt><trkpt lat="36.84950575048529" lon="15.105438326461115"><ele>11.0</ele><time>2026-04-11T13:44:22Z</time></trkpt><trkpt lat="36.84941996807501" lon="15.105358386879006"><ele>11.0</ele><time>2026-04-11T13:44:23Z</time></trkpt><trkpt lat="36.84933556194472" lon="15.105277600441024"><ele>11.0</ele><time>2026-04-11T13:44:24Z</time></trkpt><trkpt lat="36.849251665013625" lon="15.105198388521693"><ele>11.0</ele><time>2026-04-11T13:44:25Z</time></trkpt><trkpt lat="36.849173723491674" lon="15.105132879142733"><ele>11.0</ele><time>2026-04-11T13:44:26Z</time></trkpt><trkpt lat="36.84909360207028" lon="15.105060570703966"><ele>11.5</ele><time>2026-04-11T13:44:27Z</time></trkpt><trkpt lat="36.84900496042087" lon="15.104982470807313"><ele>12.0</ele><time>2026-04-11T13:44:28Z</time></trkpt><trkpt lat="36.848914768823434" lon="15.104900228790129"><ele>12.5</ele><time>2026-04-11T13:44:29Z</time></trkpt><trkpt lat="36.84882229217075" lon="15.104817102031927"><ele>13.0</ele><time>2026-04-11T13:44:30Z</time></trkpt><trkpt lat="36.84872837436447" lon="15.1047285330759"><ele>13.75</ele><time>2026-04-11T13:44:31Z</time></trkpt><trkpt lat="36.8486286687171" lon="15.104642284135071"><ele>14.5</ele><time>2026-04-11T13:44:32Z</time></trkpt><trkpt lat="36.848524175970695" lon="15.104551118299145"><ele>15.25</ele><time>2026-04-11T13:44:33Z</time></trkpt><trkpt lat="36.84842441907374" lon="15.104457025367028"><ele>16.0</ele><time>2026-04-11T13:44:34Z</time></trkpt><trkpt lat="36.84832249165434" lon="15.104371930316175"><ele>18.75</ele><time>2026-04-11T13:44:35Z</time></trkpt><trkpt lat="36.848225560371084" lon="15.10428393471931"><ele>21.5</ele><time>2026-04-11T13:44:36Z</time></trkpt><trkpt lat="36.848131863596855" lon="15.104194587291255"><ele>24.25</ele><time>2026-04-11T13:44:37Z</time></trkpt><trkpt lat="36.848035661285124" lon="15.104108398029306"><ele>27.0</ele><time>2026-04-11T13:44:38Z</time></trkpt><trkpt lat="36.847944404666656" lon="15.104027388360104"><ele>27.400000000000002</ele><time>2026-04-11T13:44:39Z</time></trkpt><trkpt lat="36.84785384750475" lon="15.10394599496808"><ele>27.800000000000004</ele><time>2026-04-11T13:44:40Z</time></trkpt><trkpt lat="36.847761190596415" lon="15.10386166685118"><ele>28.2</ele><time>2026-04-11T13:44:41Z</time></trkpt><trkpt lat="36.84766827132857" lon="15.10377548028797"><ele>28.6</ele><time>2026-04-11T13:44:42Z</time></trkpt><trkpt lat="36.847583379458364" lon="15.10369774571063"><ele>29.0</ele><time>2026-04-11T13:44:43Z</time></trkpt><trkpt lat="36.84749746166269" lon="15.103622811854857"><ele>29.0</ele><time>2026-04-11T13:44:44Z</time></trkpt><trkpt lat="36.84740802274088" lon="15.103543380717396"><ele>29.0</ele><time>2026-04-11T13:44:45Z</time></trkpt><trkpt lat="36.84731177602537" lon="15.103458087351665"><ele>29.0</ele><time>2026-04-11T13:44:46Z</time></trkpt><trkpt lat="36.84722357316676" lon="15.103382194110106"><ele>29.0</ele><time>2026-04-11T13:44:47Z</time></trkpt><trkpt lat="36.84714366090163" lon="15.103313494787319"><ele>29.0</ele><time>2026-04-11T13:44:48Z</time></trkpt><trkpt lat="36.84706301061042" lon="15.103235359947588"><ele>29.0</ele><time>2026-04-11T13:44:49Z</time></trkpt><trkpt lat="36.846992447972035" lon="15.103168796125871"><ele>29.0</ele><time>2026-04-11T13:44:50Z</time></trkpt><trkpt lat="36.84692029395028" lon="15.103092643458977"><ele>29.0</ele><time>2026-04-11T13:44:51Z</time></trkpt><trkpt lat="36.84685069845079" lon="15.1030111994044"><ele>29.0</ele><time>2026-04-11T13:44:52Z</time></trkpt><trkpt lat="36.8467832803819" lon="15.102932938914444"><ele>29.0</ele><time>2026-04-11T13:44:53Z</time></trkpt><trkpt lat="36.846720912920304" lon="15.102852401160739"><ele>28.0</ele><time>2026-04-11T13:44:53.999Z</time></trkpt><trkpt lat="36.846654331249894" lon="15.10276304505545"><ele>27.0</ele><time>2026-04-11T13:44:54.999Z</time></trkpt><trkpt lat="36.84658483149244" lon="15.102662203003655"><ele>26.0</ele><time>2026-04-11T13:44:55.999Z</time></trkpt><trkpt lat="36.846515854133806" lon="15.102556270227486"><ele>25.0</ele><time>2026-04-11T13:44:56.999Z</time></trkpt><trkpt lat="36.846452573977096" lon="15.102441687068382"><ele>24.0</ele><time>2026-04-11T13:44:57.999Z</time></trkpt><trkpt lat="36.84639352357461" lon="15.10233368718608"><ele>23.799999999999997</ele><time>2026-04-11T13:44:58.999Z</time></trkpt><trkpt lat="36.846344617854996" lon="15.102225762022782"><ele>23.599999999999998</ele><time>2026-04-11T13:44:59.999Z</time></trkpt><trkpt lat="36.84629672964613" lon="15.102116176664374"><ele>23.4</ele><time>2026-04-11T13:45:00.999Z</time></trkpt><trkpt lat="36.84624388161583" lon="15.101996489302067"><ele>23.2</ele><time>2026-04-11T13:45:01.999Z</time></trkpt><trkpt lat="36.846206974616116" lon="15.101875884440798"><ele>23.0</ele><time>2026-04-11T13:45:02.999Z</time></trkpt><trkpt lat="36.84615976065323" lon="15.101751824330885"><ele>23.0</ele><time>2026-04-11T13:45:03.999Z</time></trkpt><trkpt lat="36.84611902427404" lon="15.101626136989553"><ele>23.0</ele><time>2026-04-11T13:45:04.999Z</time></trkpt><trkpt lat="36.84608210169465" lon="15.101494607404055"><ele>23.0</ele><time>2026-04-11T13:45:05.999Z</time></trkpt><trkpt lat="36.84604554558854" lon="15.101372656386694"><ele>23.0</ele><time>2026-04-11T13:45:06.999Z</time></trkpt><trkpt lat="36.846008950995106" lon="15.101259695473022"><ele>23.0</ele><time>2026-04-11T13:45:07.999Z</time></trkpt><trkpt lat="36.84597232803676" lon="15.101147442106829"><ele>21.2</ele><time>2026-04-11T13:45:08.999Z</time></trkpt><trkpt lat="36.84593636360753" lon="15.1010213584676"><ele>19.4</ele><time>2026-04-11T13:45:09.999Z</time></trkpt><trkpt lat="36.845894908478165" lon="15.100895149361998"><ele>17.599999999999998</ele><time>2026-04-11T13:45:10.999Z</time></trkpt><trkpt lat="36.84585226191716" lon="15.100772490129089"><ele>15.799999999999999</ele><time>2026-04-11T13:45:11.999Z</time></trkpt><trkpt lat="36.84581589240797" lon="15.100654836324063"><ele>14.0</ele><time>2026-04-11T13:45:12.999Z</time></trkpt><trkpt lat="36.84578383299549" lon="15.100544675760002"><ele>13.6</ele><time>2026-04-11T13:45:13.999Z</time></trkpt><trkpt lat="36.845750677905144" lon="15.100431426219567"><ele>13.2</ele><time>2026-04-11T13:45:14.999Z</time></trkpt><trkpt lat="36.84571386037573" lon="15.100313776630935"><ele>12.799999999999999</ele><time>2026-04-11T13:45:15.999Z</time></trkpt><trkpt lat="36.84567352903512" lon="15.100188577356434"><ele>12.399999999999999</ele><time>2026-04-11T13:45:16.999Z</time></trkpt><trkpt lat="36.84563535369396" lon="15.100066491189743"><ele>12.0</ele><time>2026-04-11T13:45:17.999Z</time></trkpt><trkpt lat="36.84559572689608" lon="15.099947048393634"><ele>12.2</ele><time>2026-04-11T13:45:18.999Z</time></trkpt><trkpt lat="36.845556077510416" lon="15.099825444516211"><ele>12.399999999999999</ele><time>2026-04-11T13:45:19.999Z</time></trkpt><trkpt lat="36.8455205892479" lon="15.09970066221917"><ele>12.600000000000001</ele><time>2026-04-11T13:45:20.999Z</time></trkpt><trkpt lat="36.845484977300075" lon="15.099578967536006"><ele>12.8</ele><time>2026-04-11T13:45:21.999Z</time></trkpt><trkpt lat="36.845443203741006" lon="15.0994550086222"><ele>13.0</ele><time>2026-04-11T13:45:22.999Z</time></trkpt><trkpt lat="36.84540346687287" lon="15.09933182162179"><ele>13.0</ele><time>2026-04-11T13:45:23.999Z</time></trkpt><trkpt lat="36.84536522584095" lon="15.099211776145331"><ele>13.0</ele><time>2026-04-11T13:45:24.999Z</time></trkpt><trkpt lat="36.84533088841324" lon="15.099099673242184"><ele>13.0</ele><time>2026-04-11T13:45:25.999Z</time></trkpt><trkpt lat="36.84529157709605" lon="15.098989681061996"><ele>13.0</ele><time>2026-04-11T13:45:26.999Z</time></trkpt><trkpt lat="36.84525800786223" lon="15.098877920842355"><ele>13.0</ele><time>2026-04-11T13:45:27.999Z</time></trkpt><trkpt lat="36.84522417819648" lon="15.098759763202088"><ele>13.2</ele><time>2026-04-11T13:45:28.999Z</time></trkpt><trkpt lat="36.84519096605674" lon="15.098644594250432"><ele>13.4</ele><time>2026-04-11T13:45:29.999Z</time></trkpt><trkpt lat="36.84516426596736" lon="15.098523824447067"><ele>13.599999999999998</ele><time>2026-04-11T13:45:30.999Z</time></trkpt><trkpt lat="36.84514228256316" lon="15.09840832044395"><ele>13.799999999999999</ele><time>2026-04-11T13:45:31.999Z</time></trkpt><trkpt lat="36.84512333509037" lon="15.098295053566078"><ele>14.0</ele><time>2026-04-11T13:45:32.999Z</time></trkpt><trkpt lat="36.845102781004805" lon="15.09818166080158"><ele>14.2</ele><time>2026-04-11T13:45:33.999Z</time></trkpt><trkpt lat="36.84508793282279" lon="15.098057123309959"><ele>14.399999999999999</ele><time>2026-04-11T13:45:34.999Z</time></trkpt><trkpt lat="36.84507655137218" lon="15.097931358667699"><ele>14.6</ele><time>2026-04-11T13:45:35.999Z</time></trkpt><trkpt lat="36.8450692876191" lon="15.097809737353943"><ele>14.8</ele><time>2026-04-11T13:45:36.999Z</time></trkpt><trkpt lat="36.845065805472856" lon="15.09768905887004"><ele>15.0</ele><time>2026-04-11T13:45:37.999Z</time></trkpt><trkpt lat="36.84506231001275" lon="15.097570554208994"><ele>15.0</ele><time>2026-04-11T13:45:38.999Z</time></trkpt><trkpt lat="36.84506741186017" lon="15.09744557676915"><ele>15.0</ele><time>2026-04-11T13:45:39.999Z</time></trkpt><trkpt lat="36.84507437460643" lon="15.097324002001821"><ele>15.0</ele><time>2026-04-11T13:45:40.999Z</time></trkpt><trkpt lat="36.84508492695408" lon="15.097202197198081"><ele>15.0</ele><time>2026-04-11T13:45:41.999Z</time></trkpt><trkpt lat="36.845092649753425" lon="15.09708152865377"><ele>15.0</ele><time>2026-04-11T13:45:42.999Z</time></trkpt><trkpt lat="36.845107996661746" lon="15.096961766527052"><ele>14.4</ele><time>2026-04-11T13:45:43.999Z</time></trkpt><trkpt lat="36.84512431901778" lon="15.096840168862427"><ele>13.8</ele><time>2026-04-11T13:45:44.999Z</time></trkpt><trkpt lat="36.84514597682929" lon="15.096723101740285"><ele>13.2</ele><time>2026-04-11T13:45:45.999Z</time></trkpt><trkpt lat="36.84517449314292" lon="15.096599045580104"><ele>12.6</ele><time>2026-04-11T13:45:46.999Z</time></trkpt><trkpt lat="36.8451988319588" lon="15.096478811097429"><ele>12.0</ele><time>2026-04-11T13:45:47.999Z</time></trkpt><trkpt lat="36.84522102957168" lon="15.096365042644228"><ele>15.5</ele><time>2026-04-11T13:45:48.999Z</time></trkpt><trkpt lat="36.8452423977843" lon="15.096247348555556"><ele>19.0</ele><time>2026-04-11T13:45:49.999Z</time></trkpt><trkpt lat="36.84526260027043" lon="15.096135076188872"><ele>22.5</ele><time>2026-04-11T13:45:50.999Z</time></trkpt><trkpt lat="36.845282732983044" lon="15.096043184820221"><ele>26.0</ele><time>2026-04-11T13:45:51.999Z</time></trkpt><trkpt lat="36.84547378280544" lon="15.096013369797287"><ele>26.0</ele><time>2026-04-11T13:45:53Z</time></trkpt><trkpt lat="36.845486825431514" lon="15.095881480156345"><ele>26.0</ele><time>2026-04-11T13:45:54Z</time></trkpt><trkpt lat="36.84549078915861" lon="15.095784909452215"><ele>26.0</ele><time>2026-04-11T13:45:56Z</time></trkpt><trkpt lat="36.84541350190859" lon="15.095682279351257"><ele>26.0</ele><time>2026-04-11T13:45:58Z</time></trkpt><trkpt lat="36.84529927298821" lon="15.09570411473278"><ele>26.0</ele><time>2026-04-11T13:45:59Z</time></trkpt><trkpt lat="36.84522248942123" lon="15.095674769190842"><ele>25.0</ele><time>2026-04-11T13:46:01Z</time></trkpt><trkpt lat="36.845148620543625" lon="15.095642763410286"><ele>24.0</ele><time>2026-04-11T13:46:03Z</time></trkpt><trkpt lat="36.84508452397716" lon="15.095605691867204"><ele>23.0</ele><time>2026-04-11T13:46:05Z</time></trkpt><trkpt lat="36.845005483839905" lon="15.095593252627008"><ele>22.0</ele><time>2026-04-11T13:46:07Z</time></trkpt><trkpt lat="36.844931109554764" lon="15.09546069971702"><ele>21.0</ele><time>2026-04-11T13:46:09Z</time></trkpt><trkpt lat="36.84482818676238" lon="15.095388126937312"><ele>18.6</ele><time>2026-04-11T13:46:11Z</time></trkpt><trkpt lat="36.84470981990113" lon="15.095353868164672"><ele>16.200000000000003</ele><time>2026-04-11T13:46:13Z</time></trkpt><trkpt lat="36.84463060669286" lon="15.095338814186393"><ele>13.8</ele><time>2026-04-11T13:46:14Z</time></trkpt><trkpt lat="36.84454167375212" lon="15.09530799163457"><ele>11.4</ele><time>2026-04-11T13:46:15Z</time></trkpt><trkpt lat="36.84445287602854" lon="15.09527935682376"><ele>9.0</ele><time>2026-04-11T13:46:16Z</time></trkpt><trkpt lat="36.844376572808244" lon="15.095259603856494"><ele>8.333333333333334</ele><time>2026-04-11T13:46:17Z</time></trkpt><trkpt lat="36.84429206988967" lon="15.095235092659633"><ele>7.666666666666667</ele><time>2026-04-11T13:46:18Z</time></trkpt><trkpt lat="36.84420240709768" lon="15.095209575331724"><ele>7.0</ele><time>2026-04-11T13:46:19Z</time></trkpt><trkpt lat="36.84411800181383" lon="15.095190467155323"><ele>6.333333333333334</ele><time>2026-04-11T13:46:20Z</time></trkpt><trkpt lat="36.844034518912295" lon="15.095166315414145"><ele>5.666666666666667</ele><time>2026-04-11T13:46:21Z</time></trkpt><trkpt lat="36.84394709623351" lon="15.095140663418663"><ele>5.0</ele><time>2026-04-11T13:46:22Z</time></trkpt><trkpt lat="36.8438578945028" lon="15.095118312013714"><ele>5.0</ele><time>2026-04-11T13:46:23Z</time></trkpt><trkpt lat="36.843769898134184" lon="15.095097985501297"><ele>5.0</ele><time>2026-04-11T13:46:24Z</time></trkpt><trkpt lat="36.84367875357658" lon="15.095076162801147"><ele>5.0</ele><time>2026-04-11T13:46:25Z</time></trkpt><trkpt lat="36.84358994633539" lon="15.095054907403679"><ele>5.0</ele><time>2026-04-11T13:46:26Z</time></trkpt><trkpt lat="36.84351470885231" lon="15.095036255993701"><ele>5.0</ele><time>2026-04-11T13:46:27Z</time></trkpt><trkpt lat="36.843439902543786" lon="15.095011613255382"><ele>5.0</ele><time>2026-04-11T13:46:28Z</time></trkpt><trkpt lat="36.84335198443794" lon="15.094989420227098"><ele>5.0</ele><time>2026-04-11T13:46:29Z</time></trkpt><trkpt lat="36.84326753171589" lon="15.094971162175547"><ele>5.0</ele><time>2026-04-11T13:46:30Z</time></trkpt><trkpt lat="36.8431829962824" lon="15.094948089552222"><ele>5.0</ele><time>2026-04-11T13:46:31Z</time></trkpt><trkpt lat="36.84309554497589" lon="15.094920369910362"><ele>5.0</ele><time>2026-04-11T13:46:32Z</time></trkpt><trkpt lat="36.84301070725456" lon="15.094895025248602"><ele>5.0</ele><time>2026-04-11T13:46:33Z</time></trkpt><trkpt lat="36.84291864666082" lon="15.094865961634595"><ele>5.0</ele><time>2026-04-11T13:46:34Z</time></trkpt><trkpt lat="36.8428333299655" lon="15.094835676183042"><ele>5.166666666666667</ele><time>2026-04-11T13:46:35Z</time></trkpt><trkpt lat="36.8427491354151" lon="15.094806587508172"><ele>5.333333333333334</ele><time>2026-04-11T13:46:36Z</time></trkpt><trkpt lat="36.84266375455578" lon="15.094777351334836"><ele>5.5</ele><time>2026-04-11T13:46:37Z</time></trkpt><trkpt lat="36.842597304817325" lon="15.094762002938989"><ele>5.666666666666667</ele><time>2026-04-11T13:46:38Z</time></trkpt><trkpt lat="36.84253019038048" lon="15.094757285782238"><ele>5.833333333333333</ele><time>2026-04-11T13:46:39Z</time></trkpt><trkpt lat="36.842411313503575" lon="15.094730150794165"><ele>6.0</ele><time>2026-04-11T13:46:41Z</time></trkpt><trkpt lat="36.84234384154545" lon="15.094686650088107"><ele>6.0</ele><time>2026-04-11T13:46:42Z</time></trkpt><trkpt lat="36.8422743985415" lon="15.094623186910201"><ele>6.0</ele><time>2026-04-11T13:46:43Z</time></trkpt><trkpt lat="36.84219700789861" lon="15.094570532287358"><ele>6.0</ele><time>2026-04-11T13:46:44Z</time></trkpt><trkpt lat="36.84211431836192" lon="15.094524437688722"><ele>6.0</ele><time>2026-04-11T13:46:45Z</time></trkpt><trkpt lat="36.84205473968187" lon="15.094496149886117"><ele>6.0</ele><time>2026-04-11T13:46:46Z</time></trkpt><trkpt lat="36.841953163233526" lon="15.094459737079138"><ele>6.0</ele><time>2026-04-11T13:46:48Z</time></trkpt><trkpt lat="36.84189053430788" lon="15.094446271238436"><ele>6.0</ele><time>2026-04-11T13:46:50Z</time></trkpt><trkpt lat="36.84186345139919" lon="15.094363780129884"><ele>6.0</ele><time>2026-04-11T13:46:53Z</time></trkpt><trkpt lat="36.84189931772899" lon="15.094240435082941"><ele>6.0</ele><time>2026-04-11T13:46:55Z</time></trkpt><trkpt lat="36.84193823929774" lon="15.094141342879869"><ele>6.0</ele><time>2026-04-11T13:46:57Z</time></trkpt><trkpt lat="36.84197232662322" lon="15.093996764086317"><ele>6.0</ele><time>2026-04-11T13:46:58.999Z</time></trkpt><trkpt lat="36.84199571605627" lon="15.093867747724202"><ele>6.0</ele><time>2026-04-11T13:47:00.999Z</time></trkpt><trkpt lat="36.84201261013733" lon="15.093758645798632"><ele>6.0</ele><time>2026-04-11T13:47:02.999Z</time></trkpt><trkpt lat="36.84200051587544" lon="15.093666322226607"><ele>6.0</ele><time>2026-04-11T13:47:05.999Z</time></trkpt><trkpt lat="36.84195136091584" lon="15.093582216842893"><ele>6.0</ele><time>2026-04-11T13:47:08.999Z</time></trkpt><trkpt lat="36.841938896102164" lon="15.09350116831423"><ele>6.0</ele><time>2026-04-11T13:47:12.999Z</time></trkpt><trkpt lat="36.84201494951971" lon="15.093486994209758"><ele>6.0</ele><time>2026-04-11T13:47:15.999Z</time></trkpt><trkpt lat="36.84208452544556" lon="15.093445476981264"><ele>6.0</ele><time>2026-04-11T13:47:19.999Z</time></trkpt><trkpt lat="36.84208884438892" lon="15.093300480337753"><ele>6.0</ele><time>2026-04-11T13:47:21.999Z</time></trkpt><trkpt lat="36.84209517684463" lon="15.093215361467694"><ele>6.0</ele><time>2026-04-11T13:47:22.999Z</time></trkpt><trkpt lat="36.842112677299454" lon="15.093129031668626"><ele>6.0</ele><time>2026-04-11T13:47:23.999Z</time></trkpt><trkpt lat="36.84212841581933" lon="15.09303661943214"><ele>6.0</ele><time>2026-04-11T13:47:24.999Z</time></trkpt><trkpt lat="36.84214331062846" lon="15.092957294510047"><ele>6.0</ele><time>2026-04-11T13:47:25.999Z</time></trkpt><trkpt lat="36.842161242501504" lon="15.092873340781061"><ele>6.0</ele><time>2026-04-11T13:47:26.999Z</time></trkpt><trkpt lat="36.84217661244305" lon="15.092784361548105"><ele>6.0</ele><time>2026-04-11T13:47:27.999Z</time></trkpt><trkpt lat="36.84219239043806" lon="15.092688002702799"><ele>6.0</ele><time>2026-04-11T13:47:28.999Z</time></trkpt><trkpt lat="36.84220758632893" lon="15.092583426612848"><ele>6.0</ele><time>2026-04-11T13:47:29.999Z</time></trkpt><trkpt lat="36.84222316369455" lon="15.092475390042656"><ele>6.0</ele><time>2026-04-11T13:47:30.999Z</time></trkpt><trkpt lat="36.84223300611822" lon="15.092380576600505"><ele>6.0</ele><time>2026-04-11T13:47:31.999Z</time></trkpt><trkpt lat="36.84224648861074" lon="15.092280542974056"><ele>6.0</ele><time>2026-04-11T13:47:32.999Z</time></trkpt><trkpt lat="36.842261492007594" lon="15.092177285143029"><ele>6.0</ele><time>2026-04-11T13:47:33.999Z</time></trkpt><trkpt lat="36.84227227087487" lon="15.092071269729251"><ele>6.0</ele><time>2026-04-11T13:47:34.999Z</time></trkpt><trkpt lat="36.84228474500097" lon="15.091965415280523"><ele>6.0</ele><time>2026-04-11T13:47:35.999Z</time></trkpt><trkpt lat="36.84229335841509" lon="15.091874790589715"><ele>6.0</ele><time>2026-04-11T13:47:36.999Z</time></trkpt><trkpt lat="36.84230273778743" lon="15.091780961521518"><ele>6.0</ele><time>2026-04-11T13:47:37.999Z</time></trkpt><trkpt lat="36.84232447648551" lon="15.091603992306664"><ele>6.0</ele><time>2026-04-11T13:47:39.999Z</time></trkpt><trkpt lat="36.84235389766678" lon="15.09147499415048"><ele>6.0</ele><time>2026-04-11T13:47:40.999Z</time></trkpt><trkpt lat="36.842370640190815" lon="15.091374102868206"><ele>6.0</ele><time>2026-04-11T13:47:41.999Z</time></trkpt><trkpt lat="36.84238468801877" lon="15.09127911901535"><ele>6.0</ele><time>2026-04-11T13:47:42.999Z</time></trkpt><trkpt lat="36.84239637427832" lon="15.091188228985189"><ele>6.0</ele><time>2026-04-11T13:47:43.999Z</time></trkpt><trkpt lat="36.84240512491185" lon="15.091090782595094"><ele>6.0</ele><time>2026-04-11T13:47:44.999Z</time></trkpt><trkpt lat="36.84241534820557" lon="15.090985892846504"><ele>6.0</ele><time>2026-04-11T13:47:45.999Z</time></trkpt><trkpt lat="36.84242069142775" lon="15.090875849923297"><ele>6.0</ele><time>2026-04-11T13:47:46.999Z</time></trkpt><trkpt lat="36.84241771737026" lon="15.090777538527313"><ele>6.0</ele><time>2026-04-11T13:47:47.999Z</time></trkpt><trkpt lat="36.842418247447604" lon="15.090694863472606"><ele>6.0</ele><time>2026-04-11T13:47:48.999Z</time></trkpt><trkpt lat="36.84243904962833" lon="15.090567837812712"><ele>6.0</ele><time>2026-04-11T13:47:50.999Z</time></trkpt><trkpt lat="36.842486790403875" lon="15.090444439915812"><ele>6.0</ele><time>2026-04-11T13:47:52.999Z</time></trkpt><trkpt lat="36.84253400897382" lon="15.09032301758152"><ele>6.285714285714285</ele><time>2026-04-11T13:47:54.999Z</time></trkpt><trkpt lat="36.84256097444201" lon="15.090246143897678"><ele>6.571428571428571</ele><time>2026-04-11T13:47:56.999Z</time></trkpt><trkpt lat="36.84259099452508" lon="15.090175856675328"><ele>6.857142857142857</ele><time>2026-04-11T13:48:00Z</time></trkpt><trkpt lat="36.842656737879885" lon="15.090161539301565"><ele>7.142857142857142</ele><time>2026-04-11T13:48:42Z</time></trkpt><trkpt lat="36.842731040836426" lon="15.090166036701111"><ele>7.428571428571428</ele><time>2026-04-11T13:48:46Z</time></trkpt><trkpt lat="36.84279945872602" lon="15.090168265470695"><ele>7.7142857142857135</ele><time>2026-04-11T13:48:50Z</time></trkpt><trkpt lat="36.84285526039702" lon="15.09009333916589"><ele>8.0</ele><time>2026-04-11T13:48:55Z</time></trkpt><trkpt lat="36.8428576808084" lon="15.089997280616956"><ele>8.166666666666666</ele><time>2026-04-11T13:48:57Z</time></trkpt><trkpt lat="36.842847716559135" lon="15.089910571233244"><ele>8.333333333333332</ele><time>2026-04-11T13:48:59Z</time></trkpt><trkpt lat="36.84284278443423" lon="15.089811173488743"><ele>8.5</ele><time>2026-04-11T13:58:10.999Z</time></trkpt><trkpt lat="36.8428769830557" lon="15.089734543905646"><ele>8.666666666666666</ele><time>2026-04-11T13:58:12.999Z</time></trkpt><trkpt lat="36.84291466284044" lon="15.08966948952194"><ele>8.833333333333334</ele><time>2026-04-11T13:58:14.999Z</time></trkpt><trkpt lat="36.84298711151824" lon="15.08966236317486"><ele>9.0</ele><time>2026-04-11T13:58:16.999Z</time></trkpt><trkpt lat="36.843072396193826" lon="15.089716898204138"><ele>9.0</ele><time>2026-04-11T13:58:19.999Z</time></trkpt><trkpt lat="36.84313313817718" lon="15.089748753761857"><ele>9.0</ele><time>2026-04-11T13:58:20.999Z</time></trkpt><trkpt lat="36.84322931559117" lon="15.08981211146288"><ele>9.0</ele><time>2026-04-11T13:58:21.999Z</time></trkpt><trkpt lat="36.84334346478073" lon="15.089893722781811"><ele>9.0</ele><time>2026-04-11T13:58:22.999Z</time></trkpt><trkpt lat="36.843430651108214" lon="15.089962519817751"><ele>9.0</ele><time>2026-04-11T13:58:23.999Z</time></trkpt><trkpt lat="36.84350113722492" lon="15.090016003066362"><ele>9.0</ele><time>2026-04-11T13:58:24.999Z</time></trkpt><trkpt lat="36.84355904359426" lon="15.090065585660259"><ele>9.0</ele><time>2026-04-11T13:58:25.999Z</time></trkpt><trkpt lat="36.843622130436465" lon="15.090131530656548"><ele>9.0</ele><time>2026-04-11T13:58:27Z</time></trkpt><trkpt lat="36.84369628809507" lon="15.090194585411396"><ele>9.0</ele><time>2026-04-11T13:58:28Z</time></trkpt><trkpt lat="36.84376282407219" lon="15.090251734538624"><ele>9.0</ele><time>2026-04-11T13:58:29Z</time></trkpt><trkpt lat="36.84381598764494" lon="15.090300932801412"><ele>9.0</ele><time>2026-04-11T13:58:30Z</time></trkpt><trkpt lat="36.84389589802452" lon="15.090359826368694"><ele>9.0</ele><time>2026-04-11T13:58:32Z</time></trkpt><trkpt lat="36.84397781191842" lon="15.090327911208318"><ele>9.0</ele><time>2026-04-11T13:58:35Z</time></trkpt><trkpt lat="36.8440109598832" lon="15.090167164518492"><ele>9.0</ele><time>2026-04-11T13:58:37Z</time></trkpt><trkpt lat="36.84402438486625" lon="15.090005003318655"><ele>9.0</ele><time>2026-04-11T13:58:38Z</time></trkpt><trkpt lat="36.84403730840516" lon="15.08984148449345"><ele>8.75</ele><time>2026-04-11T13:58:39Z</time></trkpt><trkpt lat="36.8440574400492" lon="15.08967828167695"><ele>8.5</ele><time>2026-04-11T13:58:40Z</time></trkpt><trkpt lat="36.844078656170566" lon="15.089529670063861"><ele>8.25</ele><time>2026-04-11T13:58:41Z</time></trkpt><trkpt lat="36.84409515340021" lon="15.089384606786261"><ele>8.0</ele><time>2026-04-11T13:58:42Z</time></trkpt><trkpt lat="36.84411183536115" lon="15.089241305877609"><ele>8.0</ele><time>2026-04-11T13:58:43Z</time></trkpt><trkpt lat="36.84413183069055" lon="15.089095598670012"><ele>8.0</ele><time>2026-04-11T13:58:44Z</time></trkpt><trkpt lat="36.84415112966179" lon="15.088940576345156"><ele>8.0</ele><time>2026-04-11T13:58:45Z</time></trkpt><trkpt lat="36.84417082595216" lon="15.08879699402164"><ele>8.0</ele><time>2026-04-11T13:58:46Z</time></trkpt><trkpt lat="36.84418612138639" lon="15.088656468638343"><ele>8.0</ele><time>2026-04-11T13:58:47Z</time></trkpt><trkpt lat="36.84420553067326" lon="15.08850481613093"><ele>8.0</ele><time>2026-04-11T13:58:48Z</time></trkpt><trkpt lat="36.844225996717064" lon="15.088346594430211"><ele>8.0</ele><time>2026-04-11T13:58:49Z</time></trkpt><trkpt lat="36.84424650752566" lon="15.088205736466772"><ele>8.0</ele><time>2026-04-11T13:58:50Z</time></trkpt><trkpt lat="36.84426515190351" lon="15.088056331764486"><ele>8.0</ele><time>2026-04-11T13:58:51Z</time></trkpt><trkpt lat="36.844274192872284" lon="15.087902058088915"><ele>8.0</ele><time>2026-04-11T13:58:52Z</time></trkpt><trkpt lat="36.84429890280399" lon="15.087745736431597"><ele>8.0</ele><time>2026-04-11T13:58:53Z</time></trkpt><trkpt lat="36.8443162344337" lon="15.087585803354283"><ele>8.0</ele><time>2026-04-11T13:58:54Z</time></trkpt><trkpt lat="36.84433703606426" lon="15.087419453375658"><ele>7.75</ele><time>2026-04-11T13:58:55Z</time></trkpt><trkpt lat="36.84436524412119" lon="15.08724094983666"><ele>7.5</ele><time>2026-04-11T13:58:56Z</time></trkpt><trkpt lat="36.84438374127023" lon="15.087066461600454"><ele>7.25</ele><time>2026-04-11T13:58:57Z</time></trkpt><trkpt lat="36.84439876600068" lon="15.086925533880088"><ele>7.0</ele><time>2026-04-11T13:58:58Z</time></trkpt><trkpt lat="36.844409338354076" lon="15.086800391911643"><ele>7.000000000000001</ele><time>2026-04-11T13:58:59Z</time></trkpt><trkpt lat="36.844421527235454" lon="15.086671450156588"><ele>7.0</ele><time>2026-04-11T13:59:00Z</time></trkpt><trkpt lat="36.8444385389571" lon="15.08656076261623"><ele>7.0</ele><time>2026-04-11T13:59:01Z</time></trkpt><trkpt lat="36.84444975766159" lon="15.086464961789819"><ele>7.0</ele><time>2026-04-11T13:59:02Z</time></trkpt><trkpt lat="36.84446090628259" lon="15.086376090285043"><ele>7.000000000000001</ele><time>2026-04-11T13:59:03Z</time></trkpt><trkpt lat="36.844483469834465" lon="15.08626979776396"><ele>7.0</ele><time>2026-04-11T13:59:05Z</time></trkpt><trkpt lat="36.8445513190464" lon="15.086213199444805"><ele>7.0</ele><time>2026-04-11T13:59:07Z</time></trkpt><trkpt lat="36.84463065066797" lon="15.086219858806723"><ele>6.999999999999999</ele><time>2026-04-11T13:59:08Z</time></trkpt><trkpt lat="36.84472237329984" lon="15.086237679248367"><ele>6.999999999999999</ele><time>2026-04-11T13:59:09Z</time></trkpt><trkpt lat="36.84482932187573" lon="15.086247619710022"><ele>7.0</ele><time>2026-04-11T13:59:10Z</time></trkpt><trkpt lat="36.84494883036185" lon="15.086258960310664"><ele>7.0</ele><time>2026-04-11T13:59:11Z</time></trkpt><trkpt lat="36.84505484817448" lon="15.086263269843071"><ele>7.199999999999999</ele><time>2026-04-11T13:59:12Z</time></trkpt><trkpt lat="36.84515954770245" lon="15.08627494338466"><ele>7.3999999999999995</ele><time>2026-04-11T13:59:13Z</time></trkpt><trkpt lat="36.84525213641356" lon="15.086284214465932"><ele>7.6000000000000005</ele><time>2026-04-11T13:59:14Z</time></trkpt><trkpt lat="36.845336485816624" lon="15.086294220970737"><ele>7.800000000000001</ele><time>2026-04-11T13:59:15Z</time></trkpt><trkpt lat="36.84542010721741" lon="15.086301408024669"><ele>8.0</ele><time>2026-04-11T13:59:16Z</time></trkpt><trkpt lat="36.84551976838513" lon="15.08631187581705"><ele>8.0</ele><time>2026-04-11T13:59:17Z</time></trkpt><trkpt lat="36.84562216267762" lon="15.086321229172473"><ele>8.0</ele><time>2026-04-11T13:59:18Z</time></trkpt><trkpt lat="36.84572261660083" lon="15.086331509020537"><ele>8.0</ele><time>2026-04-11T13:59:19Z</time></trkpt><trkpt lat="36.84580513313442" lon="15.086345803157839"><ele>8.0</ele><time>2026-04-11T13:59:20Z</time></trkpt><trkpt lat="36.84590138663293" lon="15.086370625518805"><ele>8.0</ele><time>2026-04-11T13:59:21Z</time></trkpt><trkpt lat="36.84601260423561" lon="15.086381200089988"><ele>8.0</ele><time>2026-04-11T13:59:22Z</time></trkpt><trkpt lat="36.84613229472021" lon="15.086386002435965"><ele>8.0</ele><time>2026-04-11T13:59:23Z</time></trkpt><trkpt lat="36.84623578778951" lon="15.08638988235978"><ele>8.0</ele><time>2026-04-11T13:59:24Z</time></trkpt><trkpt lat="36.846326094054575" lon="15.086393044207451"><ele>8.0</ele><time>2026-04-11T13:59:25Z</time></trkpt><trkpt lat="36.84641898116818" lon="15.086403522316584"><ele>8.0</ele><time>2026-04-11T13:59:26Z</time></trkpt><trkpt lat="36.84649828119938" lon="15.086413942963027"><ele>7.999999999999999</ele><time>2026-04-11T13:59:27Z</time></trkpt><trkpt lat="36.84656377766109" lon="15.08642439180077"><ele>8.0</ele><time>2026-04-11T13:59:28Z</time></trkpt><trkpt lat="36.84664211484135" lon="15.086440669164054"><ele>8.0</ele><time>2026-04-11T13:59:28.999Z</time></trkpt><trkpt lat="36.84673359616842" lon="15.086456090519869"><ele>8.0</ele><time>2026-04-11T13:59:29.999Z</time></trkpt><trkpt lat="36.8468242025179" lon="15.086475074203282"><ele>7.999999999999999</ele><time>2026-04-11T13:59:30.999Z</time></trkpt><trkpt lat="36.84691261202682" lon="15.086488028462119"><ele>8.0</ele><time>2026-04-11T13:59:31.999Z</time></trkpt><trkpt lat="36.846995579644" lon="15.086506360855187"><ele>9.166666666666666</ele><time>2026-04-11T13:59:32.999Z</time></trkpt><trkpt lat="36.847081525910255" lon="15.086526499616866"><ele>10.333333333333332</ele><time>2026-04-11T13:59:33.999Z</time></trkpt><trkpt lat="36.847167677220725" lon="15.086540282349366"><ele>11.5</ele><time>2026-04-11T13:59:34.999Z</time></trkpt><trkpt lat="36.847252242354266" lon="15.086538884930464"><ele>12.666666666666666</ele><time>2026-04-11T13:59:35.999Z</time></trkpt><trkpt lat="36.84734950511115" lon="15.08652189895908"><ele>13.833333333333334</ele><time>2026-04-11T13:59:36.999Z</time></trkpt><trkpt lat="36.84743264294967" lon="15.086510791635284"><ele>15.0</ele><time>2026-04-11T13:59:37.999Z</time></trkpt><trkpt lat="36.84753590968918" lon="15.086498674822247"><ele>15.0</ele><time>2026-04-11T13:59:39.999Z</time></trkpt><trkpt lat="36.847609495530115" lon="15.086486280493986"><ele>15.0</ele><time>2026-04-11T13:59:41.999Z</time></trkpt><trkpt lat="36.84770957108847" lon="15.086535080925321"><ele>15.0</ele><time>2026-04-11T13:59:43.999Z</time></trkpt><trkpt lat="36.84784035081911" lon="15.08662328613994"><ele>15.0</ele><time>2026-04-11T13:59:45.999Z</time></trkpt><trkpt lat="36.84794816060664" lon="15.086663356352048"><ele>15.0</ele><time>2026-04-11T13:59:46.999Z</time></trkpt><trkpt lat="36.84806637074188" lon="15.086710479846365"><ele>16.6</ele><time>2026-04-11T13:59:47.999Z</time></trkpt><trkpt lat="36.84818184796205" lon="15.086762228637463"><ele>18.2</ele><time>2026-04-11T13:59:48.999Z</time></trkpt><trkpt lat="36.84827581276481" lon="15.08680214401501"><ele>19.799999999999997</ele><time>2026-04-11T13:59:49.999Z</time></trkpt><trkpt lat="36.848367564001165" lon="15.086831603625924"><ele>21.4</ele><time>2026-04-11T13:59:50.999Z</time></trkpt><trkpt lat="36.8484500332888" lon="15.086854534728026"><ele>23.0</ele><time>2026-04-11T13:59:51.999Z</time></trkpt><trkpt lat="36.848514652151145" lon="15.08685935871809"><ele>26.0</ele><time>2026-04-11T13:59:52.999Z</time></trkpt><trkpt lat="36.848628964963666" lon="15.086800341220096"><ele>29.0</ele><time>2026-04-11T13:59:54.999Z</time></trkpt><trkpt lat="36.84869957258038" lon="15.08671817292684"><ele>32.0</ele><time>2026-04-11T13:59:55.999Z</time></trkpt><trkpt lat="36.84876930424777" lon="15.086610542914752"><ele>35.0</ele><time>2026-04-11T13:59:56.999Z</time></trkpt><trkpt lat="36.84885198962851" lon="15.086447258582798"><ele>35.0</ele><time>2026-04-11T13:59:57.999Z</time></trkpt><trkpt lat="36.84888865365987" lon="15.086270855751314"><ele>35.0</ele><time>2026-04-11T13:59:58.999Z</time></trkpt><trkpt lat="36.848932563034545" lon="15.086096347226452"><ele>35.0</ele><time>2026-04-11T13:59:59.999Z</time></trkpt><trkpt lat="36.84898651287795" lon="15.085962713050055"><ele>35.0</ele><time>2026-04-11T14:00:00.999Z</time></trkpt><trkpt lat="36.84903373021977" lon="15.085877050413357"><ele>35.0</ele><time>2026-04-11T14:00:01.999Z</time></trkpt><trkpt lat="36.849105306176305" lon="15.08581549130886"><ele>35.0</ele><time>2026-04-11T14:00:02.999Z</time></trkpt><trkpt lat="36.84920427263146" lon="15.085786602091677"><ele>35.0</ele><time>2026-04-11T14:00:03.999Z</time></trkpt><trkpt lat="36.84930897744138" lon="15.085804425977704"><ele>35.0</ele><time>2026-04-11T14:00:04.999Z</time></trkpt><trkpt lat="36.84944354038749" lon="15.085844094025747"><ele>35.0</ele><time>2026-04-11T14:00:05.999Z</time></trkpt><trkpt lat="36.849587264684466" lon="15.085889423882195"><ele>34.33333333333333</ele><time>2026-04-11T14:00:06.999Z</time></trkpt><trkpt lat="36.84973561799913" lon="15.08593395462464"><ele>33.666666666666664</ele><time>2026-04-11T14:00:07.999Z</time></trkpt><trkpt lat="36.84988823349518" lon="15.085982436832182"><ele>33.0</ele><time>2026-04-11T14:00:08.999Z</time></trkpt><trkpt lat="36.85002729300872" lon="15.086024108335625"><ele>33.75</ele><time>2026-04-11T14:00:09.999Z</time></trkpt><trkpt lat="36.85015991594341" lon="15.08606459958092"><ele>34.5</ele><time>2026-04-11T14:00:10.999Z</time></trkpt><trkpt lat="36.85028307992938" lon="15.086102923069548"><ele>35.25</ele><time>2026-04-11T14:00:11.999Z</time></trkpt><trkpt lat="36.85040252106482" lon="15.086130630256616"><ele>36.0</ele><time>2026-04-11T14:00:12.999Z</time></trkpt><trkpt lat="36.850510751593035" lon="15.08615713359288"><ele>36.0</ele><time>2026-04-11T14:00:13.999Z</time></trkpt><trkpt lat="36.85061854198056" lon="15.086183123168732"><ele>36.0</ele><time>2026-04-11T14:00:14.999Z</time></trkpt><trkpt lat="36.85072916621024" lon="15.086216421896264"><ele>36.0</ele><time>2026-04-11T14:00:15.999Z</time></trkpt><trkpt lat="36.85082197049081" lon="15.086243045906956"><ele>36.0</ele><time>2026-04-11T14:00:16.999Z</time></trkpt><trkpt lat="36.85089475970771" lon="15.086268343360786"><ele>36.0</ele><time>2026-04-11T14:00:17.999Z</time></trkpt><trkpt lat="36.8509560966408" lon="15.086310223470258"><ele>36.833333333333336</ele><time>2026-04-11T14:00:18.999Z</time></trkpt><trkpt lat="36.85103368632663" lon="15.086373465465819"><ele>37.666666666666664</ele><time>2026-04-11T14:00:19.999Z</time></trkpt><trkpt lat="36.85111219288463" lon="15.08645007426326"><ele>38.5</ele><time>2026-04-11T14:00:20.999Z</time></trkpt><trkpt lat="36.851166255687424" lon="15.086514161671765"><ele>39.33333333333333</ele><time>2026-04-11T14:00:21.999Z</time></trkpt><trkpt lat="36.85121161655315" lon="15.0865689897879"><ele>40.166666666666664</ele><time>2026-04-11T14:00:22.999Z</time></trkpt><trkpt lat="36.85129204228924" lon="15.086587576257992"><ele>41.0</ele><time>2026-04-11T14:00:24.999Z</time></trkpt><trkpt lat="36.851347217965966" lon="15.0865420502845"><ele>41.0</ele><time>2026-04-11T14:00:25.999Z</time></trkpt><trkpt lat="36.85139445974533" lon="15.086432753415366"><ele>41.0</ele><time>2026-04-11T14:00:26.999Z</time></trkpt><trkpt lat="36.851435293421055" lon="15.086324091670885"><ele>41.0</ele><time>2026-04-11T14:00:27.999Z</time></trkpt><trkpt lat="36.85145412041939" lon="15.08616802623396"><ele>41.0</ele><time>2026-04-11T14:00:28.999Z</time></trkpt><trkpt lat="36.851481735595094" lon="15.085999647954733"><ele>41.0</ele><time>2026-04-11T14:00:29.999Z</time></trkpt><trkpt lat="36.85148405375683" lon="15.085856510652976"><ele>41.0</ele><time>2026-04-11T14:00:30.999Z</time></trkpt><trkpt lat="36.851502130421856" lon="15.08574021313843"><ele>41.0</ele><time>2026-04-11T14:00:31.999Z</time></trkpt><trkpt lat="36.8515145176003" lon="15.085648050583773"><ele>41.0</ele><time>2026-04-11T14:00:33Z</time></trkpt><trkpt lat="36.85151307033879" lon="15.085568122985839"><ele>41.0</ele><time>2026-04-11T14:00:34Z</time></trkpt><trkpt lat="36.85146603881462" lon="15.085508794446158"><ele>41.0</ele><time>2026-04-11T14:00:36Z</time></trkpt><trkpt lat="36.85137921895033" lon="15.085479075832128"><ele>40.4</ele><time>2026-04-11T14:00:38Z</time></trkpt><trkpt lat="36.85130824822099" lon="15.085437085362463"><ele>39.8</ele><time>2026-04-11T14:00:39Z</time></trkpt><trkpt lat="36.85119157317275" lon="15.08540953935668"><ele>39.199999999999996</ele><time>2026-04-11T14:00:40Z</time></trkpt><trkpt lat="36.85107430174984" lon="15.085385874577373"><ele>38.599999999999994</ele><time>2026-04-11T14:00:41Z</time></trkpt><trkpt lat="36.85094749224629" lon="15.085355464516205"><ele>38.0</ele><time>2026-04-11T14:00:42Z</time></trkpt><trkpt lat="36.85083121515762" lon="15.085323954929454"><ele>37.0</ele><time>2026-04-11T14:00:43Z</time></trkpt><trkpt lat="36.85073342077198" lon="15.085307430955266"><ele>36.0</ele><time>2026-04-11T14:00:44Z</time></trkpt><trkpt lat="36.85063884601807" lon="15.085288091527952"><ele>35.0</ele><time>2026-04-11T14:00:45Z</time></trkpt><trkpt lat="36.85053507433857" lon="15.085281399308082"><ele>34.0</ele><time>2026-04-11T14:00:46Z</time></trkpt><trkpt lat="36.8504454686807" lon="15.085261125913219"><ele>33.0</ele><time>2026-04-11T14:00:47Z</time></trkpt><trkpt lat="36.850361116474446" lon="15.085244176617802"><ele>33.0</ele><time>2026-04-11T14:00:48Z</time></trkpt><trkpt lat="36.85028363289683" lon="15.085229912968549"><ele>33.0</ele><time>2026-04-11T14:00:49Z</time></trkpt><trkpt lat="36.85022025809658" lon="15.08519619179702"><ele>33.0</ele><time>2026-04-11T14:00:50Z</time></trkpt><trkpt lat="36.850125103281776" lon="15.085183002710487"><ele>33.0</ele><time>2026-04-11T14:00:52Z</time></trkpt><trkpt lat="36.85009127596717" lon="15.085091732265695"><ele>33.0</ele><time>2026-04-11T14:00:54Z</time></trkpt><trkpt lat="36.850099286384406" lon="15.085000957189347"><ele>33.0</ele><time>2026-04-11T14:00:55Z</time></trkpt><trkpt lat="36.85010838290988" lon="15.084863420886801"><ele>31.2</ele><time>2026-04-11T14:00:56Z</time></trkpt><trkpt lat="36.85009780827719" lon="15.084707501618588"><ele>29.4</ele><time>2026-04-11T14:00:57Z</time></trkpt><trkpt lat="36.850094142009645" lon="15.084578457997491"><ele>27.599999999999998</ele><time>2026-04-11T14:00:58Z</time></trkpt><trkpt lat="36.85008959267199" lon="15.084471368534194"><ele>25.799999999999997</ele><time>2026-04-11T14:00:59Z</time></trkpt><trkpt lat="36.85008711116815" lon="15.084379221794801"><ele>24.0</ele><time>2026-04-11T14:01:00Z</time></trkpt><trkpt lat="36.85008975722583" lon="15.084297210116189"><ele>24.0</ele><time>2026-04-11T14:01:01Z</time></trkpt><trkpt lat="36.85008979639598" lon="15.084218092552671"><ele>24.0</ele><time>2026-04-11T14:01:02Z</time></trkpt><trkpt lat="36.85007055308945" lon="15.084138158093273"><ele>24.0</ele><time>2026-04-11T14:01:03Z</time></trkpt><trkpt lat="36.84997008475936" lon="15.08401743633396"><ele>24.0</ele><time>2026-04-11T14:01:05Z</time></trkpt><trkpt lat="36.84991450980027" lon="15.083975527666368"><ele>24.0</ele><time>2026-04-11T14:01:06Z</time></trkpt><trkpt lat="36.84986093429541" lon="15.083921180042376"><ele>24.0</ele><time>2026-04-11T14:01:08Z</time></trkpt><trkpt lat="36.849812612285874" lon="15.083832492875736"><ele>22.333333333333332</ele><time>2026-04-11T14:01:14Z</time></trkpt><trkpt lat="36.84975253392872" lon="15.083739397572916"><ele>20.666666666666664</ele><time>2026-04-11T14:01:17Z</time></trkpt><trkpt lat="36.849899860591684" lon="15.083468368792648"><ele>19.0</ele><time>2026-04-11T14:01:19.999Z</time></trkpt><trkpt lat="36.84993994250636" lon="15.083345159685553"><ele>18.166666666666664</ele><time>2026-04-11T14:01:21.999Z</time></trkpt><trkpt lat="36.849959553478584" lon="15.083255918352858"><ele>17.333333333333332</ele><time>2026-04-11T14:01:23.999Z</time></trkpt><trkpt lat="36.84997336571186" lon="15.083158874993433"><ele>16.5</ele><time>2026-04-11T14:01:25.999Z</time></trkpt><trkpt lat="36.84998756997195" lon="15.083039644675743"><ele>15.666666666666668</ele><time>2026-04-11T14:01:27.999Z</time></trkpt><trkpt lat="36.84999079272297" lon="15.082959073502357"><ele>14.833333333333334</ele><time>2026-04-11T14:01:29.999Z</time></trkpt><trkpt lat="36.849975308591524" lon="15.082864475472292"><ele>14.0</ele><time>2026-04-11T14:01:32.999Z</time></trkpt><trkpt lat="36.850044133757535" lon="15.082792953041295"><ele>16.0</ele><time>2026-04-11T14:01:34.999Z</time></trkpt><trkpt lat="36.85014195076836" lon="15.082748219746206"><ele>18.0</ele><time>2026-04-11T14:01:35.999Z</time></trkpt><trkpt lat="36.85020737168021" lon="15.082697423922253"><ele>20.0</ele><time>2026-04-11T14:01:36.999Z</time></trkpt><trkpt lat="36.85029651065009" lon="15.08261675459477"><ele>22.0</ele><time>2026-04-11T14:01:38.999Z</time></trkpt><trkpt lat="36.8503332664043" lon="15.082492690891819"><ele>24.0</ele><time>2026-04-11T14:01:40.999Z</time></trkpt><trkpt lat="36.85028263049551" lon="15.0824143392337"><ele>24.0</ele><time>2026-04-11T14:01:41.999Z</time></trkpt><trkpt lat="36.85020936660188" lon="15.082323090644907"><ele>24.0</ele><time>2026-04-11T14:01:42.999Z</time></trkpt><trkpt lat="36.85012695585879" lon="15.0821874568432"><ele>24.0</ele><time>2026-04-11T14:01:43.999Z</time></trkpt><trkpt lat="36.85004774591721" lon="15.082047705846657"><ele>24.0</ele><time>2026-04-11T14:01:44.999Z</time></trkpt><trkpt lat="36.84997818343453" lon="15.081892903410504"><ele>21.8</ele><time>2026-04-11T14:01:45.999Z</time></trkpt><trkpt lat="36.84989456435934" lon="15.081780718561037"><ele>19.599999999999998</ele><time>2026-04-11T14:01:46.999Z</time></trkpt><trkpt lat="36.84983624340964" lon="15.081676349526349"><ele>17.4</ele><time>2026-04-11T14:01:47.999Z</time></trkpt><trkpt lat="36.84979515575122" lon="15.081592046959198"><ele>15.2</ele><time>2026-04-11T14:01:48.999Z</time></trkpt><trkpt lat="36.84976803286439" lon="15.08151655635486"><ele>13.0</ele><time>2026-04-11T14:01:49.999Z</time></trkpt><trkpt lat="36.84975397174613" lon="15.08138318251508"><ele>12.75</ele><time>2026-04-11T14:01:51.999Z</time></trkpt><trkpt lat="36.84975259377493" lon="15.081275671365203"><ele>12.5</ele><time>2026-04-11T14:01:54.999Z</time></trkpt><trkpt lat="36.849723336993236" lon="15.081093177203154"><ele>12.25</ele><time>2026-04-11T14:02:01.999Z</time></trkpt><trkpt lat="36.84952364460275" lon="15.081049768444702"><ele>12.0</ele><time>2026-04-11T14:02:03.999Z</time></trkpt><trkpt lat="36.84944433321457" lon="15.08099863478589"><ele>12.0</ele><time>2026-04-11T14:02:05.999Z</time></trkpt><trkpt lat="36.84935670123135" lon="15.080939863121221"><ele>12.0</ele><time>2026-04-11T14:02:07.999Z</time></trkpt><trkpt lat="36.849270183304085" lon="15.080886892843907"><ele>12.0</ele><time>2026-04-11T14:02:09.999Z</time></trkpt><trkpt lat="36.8491791697344" lon="15.080828998957546"><ele>12.0</ele><time>2026-04-11T14:02:11.999Z</time></trkpt><trkpt lat="36.849099680041206" lon="15.080783032604304"><ele>12.0</ele><time>2026-04-11T14:02:13.999Z</time></trkpt><trkpt lat="36.84899026991665" lon="15.080730588356838"><ele>11.4</ele><time>2026-04-11T14:02:15.999Z</time></trkpt><trkpt lat="36.84888571355098" lon="15.080681573485291"><ele>10.799999999999999</ele><time>2026-04-11T14:02:17.999Z</time></trkpt><trkpt lat="36.84879209659212" lon="15.08063000470845"><ele>10.2</ele><time>2026-04-11T14:02:19.999Z</time></trkpt><trkpt lat="36.848701516580675" lon="15.080597160412495"><ele>9.6</ele><time>2026-04-11T14:02:21.999Z</time></trkpt><trkpt lat="36.84859586764676" lon="15.080567306467088"><ele>9.0</ele><time>2026-04-11T14:02:23.999Z</time></trkpt><trkpt lat="36.848482684294666" lon="15.080537933282757"><ele>8.75</ele><time>2026-04-11T14:02:25.999Z</time></trkpt><trkpt lat="36.84844271848508" lon="15.080225045929923"><ele>8.5</ele><time>2026-04-11T14:02:26.999Z</time></trkpt><trkpt lat="36.84837370474265" lon="15.0802175691162"><ele>8.25</ele><time>2026-04-11T14:02:27.999Z</time></trkpt><trkpt lat="36.84825633843325" lon="15.080204394243015"><ele>8.0</ele><time>2026-04-11T14:02:29.999Z</time></trkpt><trkpt lat="36.84815690549336" lon="15.0801935306985"><ele>7.999999999999999</ele><time>2026-04-11T14:02:31.999Z</time></trkpt><trkpt lat="36.8480856022954" lon="15.080200068401961"><ele>8.0</ele><time>2026-04-11T14:02:34.999Z</time></trkpt><trkpt lat="36.848001526036974" lon="15.080155969441359"><ele>8.0</ele><time>2026-04-11T14:02:37.999Z</time></trkpt><trkpt lat="36.84793196803902" lon="15.080109521616055"><ele>8.0</ele><time>2026-04-11T14:02:39Z</time></trkpt><trkpt lat="36.847852060211835" lon="15.080070361625499"><ele>7.999999999999999</ele><time>2026-04-11T14:02:40Z</time></trkpt><trkpt lat="36.847789936440485" lon="15.080018145478354"><ele>8.0</ele><time>2026-04-11T14:02:41Z</time></trkpt><trkpt lat="36.84773432390814" lon="15.079929007468403"><ele>8.200000000000001</ele><time>2026-04-11T14:02:42Z</time></trkpt><trkpt lat="36.84769017288476" lon="15.079811417703146"><ele>8.4</ele><time>2026-04-11T14:02:43Z</time></trkpt><trkpt lat="36.84766623085798" lon="15.079681567149121"><ele>8.600000000000001</ele><time>2026-04-11T14:02:44Z</time></trkpt><trkpt lat="36.847653343885156" lon="15.079547991149331"><ele>8.8</ele><time>2026-04-11T14:02:45Z</time></trkpt><trkpt lat="36.84763727297634" lon="15.079447363907654"><ele>9.0</ele><time>2026-04-11T14:02:46Z</time></trkpt><trkpt lat="36.847608235715036" lon="15.07936445352293"><ele>9.0</ele><time>2026-04-11T14:02:47Z</time></trkpt><trkpt lat="36.84753174196523" lon="15.079258890709461"><ele>9.0</ele><time>2026-04-11T14:02:49Z</time></trkpt><trkpt lat="36.84746201013593" lon="15.079225357792547"><ele>9.0</ele><time>2026-04-11T14:02:51Z</time></trkpt><trkpt lat="36.847396689487816" lon="15.079233079165688"><ele>9.0</ele><time>2026-04-11T14:03:06Z</time></trkpt><trkpt lat="36.84735631543652" lon="15.079459628793876"><ele>9.0</ele><time>2026-04-11T14:03:09Z</time></trkpt><trkpt lat="36.847350699819216" lon="15.079619858724907"><ele>9.0</ele><time>2026-04-11T14:03:10Z</time></trkpt><trkpt lat="36.84735772907377" lon="15.079754125727806"><ele>9.0</ele><time>2026-04-11T14:03:11Z</time></trkpt><trkpt lat="36.84735734753887" lon="15.079870681801333"><ele>9.0</ele><time>2026-04-11T14:03:12Z</time></trkpt><trkpt lat="36.847349336891796" lon="15.079997621700876"><ele>9.0</ele><time>2026-04-11T14:03:13Z</time></trkpt><trkpt lat="36.8473325645022" lon="15.080119001950989"><ele>9.0</ele><time>2026-04-11T14:03:14Z</time></trkpt><trkpt lat="36.84732068663857" lon="15.080198163124289"><ele>9.0</ele><time>2026-04-11T14:03:15Z</time></trkpt><trkpt lat="36.84718725463393" lon="15.08030734300767"><ele>9.0</ele><time>2026-04-11T14:03:19Z</time></trkpt><trkpt lat="36.84709902079057" lon="15.08039693381032"><ele>9.0</ele><time>2026-04-11T14:03:20Z</time></trkpt><trkpt lat="36.84704570113257" lon="15.080502897114235"><ele>9.0</ele><time>2026-04-11T14:03:21Z</time></trkpt><trkpt lat="36.846953421161466" lon="15.080554333145836"><ele>9.0</ele><time>2026-04-11T14:03:22Z</time></trkpt><trkpt lat="36.846844393236864" lon="15.080522994355906"><ele>9.0</ele><time>2026-04-11T14:03:23Z</time></trkpt><trkpt lat="36.84672917164188" lon="15.080548474066132"><ele>9.0</ele><time>2026-04-11T14:03:24Z</time></trkpt><trkpt lat="36.84657228751864" lon="15.080545687417041"><ele>9.0</ele><time>2026-04-11T14:03:24.999Z</time></trkpt><trkpt lat="36.846390599568075" lon="15.080525458862608"><ele>8.666666666666666</ele><time>2026-04-11T14:03:25.999Z</time></trkpt><trkpt lat="36.846202890240086" lon="15.080480629874572"><ele>8.333333333333332</ele><time>2026-04-11T14:03:26.999Z</time></trkpt><trkpt lat="36.84599553842697" lon="15.080442695743477"><ele>8.0</ele><time>2026-04-11T14:03:27.999Z</time></trkpt><trkpt lat="36.84577806792718" lon="15.08041937068202"><ele>9.0</ele><time>2026-04-11T14:03:28.999Z</time></trkpt><trkpt lat="36.84555231220149" lon="15.080400678414318"><ele>10.0</ele><time>2026-04-11T14:03:29.999Z</time></trkpt><trkpt lat="36.84532088747658" lon="15.080374680540375"><ele>10.0</ele><time>2026-04-11T14:03:30.999Z</time></trkpt><trkpt lat="36.84508902169049" lon="15.08035021392923"><ele>10.0</ele><time>2026-04-11T14:03:31.999Z</time></trkpt><trkpt lat="36.844853899272415" lon="15.080329835876128"><ele>10.0</ele><time>2026-04-11T14:03:32.999Z</time></trkpt><trkpt lat="36.844618127417434" lon="15.080326543703496"><ele>10.0</ele><time>2026-04-11T14:03:33.999Z</time></trkpt><trkpt lat="36.84436887000413" lon="15.080319214096967"><ele>10.0</ele><time>2026-04-11T14:03:34.999Z</time></trkpt><trkpt lat="36.844113249865835" lon="15.080354851255546"><ele>10.0</ele><time>2026-04-11T14:03:35.999Z</time></trkpt><trkpt lat="36.84385801487875" lon="15.080412491768316"><ele>10.0</ele><time>2026-04-11T14:03:36.999Z</time></trkpt><trkpt lat="36.843599005006624" lon="15.08048742280138"><ele>10.0</ele><time>2026-04-11T14:03:37.999Z</time></trkpt><trkpt lat="36.843344533543146" lon="15.080571705270883"><ele>9.5</ele><time>2026-04-11T14:03:38.999Z</time></trkpt><trkpt lat="36.84309444918754" lon="15.080673821284543"><ele>9.0</ele><time>2026-04-11T14:03:39.999Z</time></trkpt><trkpt lat="36.842841234834545" lon="15.080752405214938"><ele>9.0</ele><time>2026-04-11T14:03:40.999Z</time></trkpt><trkpt lat="36.84260299558102" lon="15.080826504194702"><ele>9.0</ele><time>2026-04-11T14:03:41.999Z</time></trkpt><trkpt lat="36.842373979121874" lon="15.080900946650788"><ele>9.0</ele><time>2026-04-11T14:03:42.999Z</time></trkpt><trkpt lat="36.842145946563726" lon="15.080976222181917"><ele>9.0</ele><time>2026-04-11T14:03:43.999Z</time></trkpt><trkpt lat="36.84192241466162" lon="15.081067181568393"><ele>9.0</ele><time>2026-04-11T14:03:44.999Z</time></trkpt><trkpt lat="36.841690656617125" lon="15.081161039525519"><ele>9.0</ele><time>2026-04-11T14:03:45.999Z</time></trkpt><trkpt lat="36.841465166019056" lon="15.081301459948259"><ele>9.0</ele><time>2026-04-11T14:03:46.999Z</time></trkpt><trkpt lat="36.84124781284556" lon="15.081474932007199"><ele>9.0</ele><time>2026-04-11T14:03:47.999Z</time></trkpt><trkpt lat="36.841033843638705" lon="15.081653578159251"><ele>9.5</ele><time>2026-04-11T14:03:48.999Z</time></trkpt><trkpt lat="36.840823953884076" lon="15.081848616332042"><ele>10.0</ele><time>2026-04-11T14:03:49.999Z</time></trkpt><trkpt lat="36.840608229103985" lon="15.082036231653586"><ele>10.0</ele><time>2026-04-11T14:03:50.999Z</time></trkpt><trkpt lat="36.840405749130824" lon="15.082240677112596"><ele>10.0</ele><time>2026-04-11T14:03:51.999Z</time></trkpt><trkpt lat="36.8402049704056" lon="15.082443404845773"><ele>9.5</ele><time>2026-04-11T14:03:52.999Z</time></trkpt><trkpt lat="36.840003278230355" lon="15.082647117381162"><ele>9.0</ele><time>2026-04-11T14:03:53.999Z</time></trkpt><trkpt lat="36.83980086805631" lon="15.082849779206892"><ele>9.0</ele><time>2026-04-11T14:03:54.999Z</time></trkpt><trkpt lat="36.83961142299402" lon="15.083041725900904"><ele>9.0</ele><time>2026-04-11T14:03:55.999Z</time></trkpt><trkpt lat="36.839432303436574" lon="15.083222574449177"><ele>9.666666666666666</ele><time>2026-04-11T14:03:56.999Z</time></trkpt><trkpt lat="36.839260325916214" lon="15.083396211996936"><ele>10.333333333333332</ele><time>2026-04-11T14:03:57.999Z</time></trkpt><trkpt lat="36.83908991648403" lon="15.083567948726616"><ele>11.0</ele><time>2026-04-11T14:03:58.999Z</time></trkpt><trkpt lat="36.838925717515195" lon="15.08373334310843"><ele>11.0</ele><time>2026-04-11T14:03:59.999Z</time></trkpt><trkpt lat="36.83877032318336" lon="15.083889868828965"><ele>11.0</ele><time>2026-04-11T14:04:00.999Z</time></trkpt><trkpt lat="36.838612647541346" lon="15.0840486924799"><ele>11.0</ele><time>2026-04-11T14:04:01.999Z</time></trkpt><trkpt lat="36.838450120251814" lon="15.084211108155824"><ele>11.0</ele><time>2026-04-11T14:04:02.999Z</time></trkpt><trkpt lat="36.83829483689145" lon="15.084368140260707"><ele>11.0</ele><time>2026-04-11T14:04:03.999Z</time></trkpt><trkpt lat="36.83813885111319" lon="15.08449626459728"><ele>11.0</ele><time>2026-04-11T14:04:04.999Z</time></trkpt><trkpt lat="36.83797866930089" lon="15.084612638230208"><ele>11.0</ele><time>2026-04-11T14:04:05.999Z</time></trkpt><trkpt lat="36.837812301397925" lon="15.084734415960478"><ele>11.0</ele><time>2026-04-11T14:04:06.999Z</time></trkpt><trkpt lat="36.837632993002046" lon="15.084818439901099"><ele>11.0</ele><time>2026-04-11T14:04:07.999Z</time></trkpt><trkpt lat="36.83745033462936" lon="15.084896454651712"><ele>12.0</ele><time>2026-04-11T14:04:08.999Z</time></trkpt><trkpt lat="36.83726498491175" lon="15.084959128855044"><ele>13.0</ele><time>2026-04-11T14:04:09.999Z</time></trkpt><trkpt lat="36.83708485028791" lon="15.084996880678608"><ele>14.0</ele><time>2026-04-11T14:04:10.999Z</time></trkpt><trkpt lat="36.83690938954518" lon="15.085020144473232"><ele>15.666666666666668</ele><time>2026-04-11T14:04:11.999Z</time></trkpt><trkpt lat="36.8367360051695" lon="15.085034083861416"><ele>17.333333333333332</ele><time>2026-04-11T14:04:12.999Z</time></trkpt><trkpt lat="36.83655340669874" lon="15.08503483240386"><ele>19.0</ele><time>2026-04-11T14:04:13.999Z</time></trkpt><trkpt lat="36.836373512768034" lon="15.085033867097163"><ele>19.0</ele><time>2026-04-11T14:04:14.999Z</time></trkpt><trkpt lat="36.83619568724826" lon="15.085020333063976"><ele>19.0</ele><time>2026-04-11T14:04:15.999Z</time></trkpt><trkpt lat="36.8360266417158" lon="15.08497378145873"><ele>19.0</ele><time>2026-04-11T14:04:16.999Z</time></trkpt><trkpt lat="36.83585942409669" lon="15.08491438271435"><ele>21.666666666666664</ele><time>2026-04-11T14:04:17.999Z</time></trkpt><trkpt lat="36.835692004903756" lon="15.084848654641986"><ele>24.333333333333332</ele><time>2026-04-11T14:04:18.999Z</time></trkpt><trkpt lat="36.83553097558822" lon="15.084779897381488"><ele>27.0</ele><time>2026-04-11T14:04:19.999Z</time></trkpt><trkpt lat="36.83537240813901" lon="15.084706247817719"><ele>27.0</ele><time>2026-04-11T14:04:20.999Z</time></trkpt><trkpt lat="36.8352084853484" lon="15.084624500207577"><ele>27.0</ele><time>2026-04-11T14:04:21.999Z</time></trkpt><trkpt lat="36.83504780061146" lon="15.084526824938056"><ele>27.0</ele><time>2026-04-11T14:04:22.999Z</time></trkpt><trkpt lat="36.83489069419658" lon="15.08443242962222"><ele>26.333333333333336</ele><time>2026-04-11T14:04:23.999Z</time></trkpt><trkpt lat="36.834732263364266" lon="15.084360642399588"><ele>25.666666666666668</ele><time>2026-04-11T14:04:24.999Z</time></trkpt><trkpt lat="36.83456637707879" lon="15.084253689418112"><ele>25.0</ele><time>2026-04-11T14:04:25.999Z</time></trkpt><trkpt lat="36.83440715346402" lon="15.084149581728349"><ele>26.333333333333336</ele><time>2026-04-11T14:04:26.999Z</time></trkpt><trkpt lat="36.83425318047645" lon="15.084050528630764"><ele>27.666666666666664</ele><time>2026-04-11T14:04:27.999Z</time></trkpt><trkpt lat="36.83409366332796" lon="15.08395998361452"><ele>29.0</ele><time>2026-04-11T14:04:28.999Z</time></trkpt><trkpt lat="36.833933301792776" lon="15.083871580030335"><ele>29.0</ele><time>2026-04-11T14:04:29.999Z</time></trkpt><trkpt lat="36.833767442273356" lon="15.083785710785842"><ele>29.0</ele><time>2026-04-11T14:04:30.999Z</time></trkpt><trkpt lat="36.833597106456246" lon="15.083711288204428"><ele>29.0</ele><time>2026-04-11T14:04:31.999Z</time></trkpt><trkpt lat="36.83342819262141" lon="15.083645501009608"><ele>28.333333333333332</ele><time>2026-04-11T14:04:32.999Z</time></trkpt><trkpt lat="36.83325705348826" lon="15.083591501853073"><ele>27.666666666666664</ele><time>2026-04-11T14:04:33.999Z</time></trkpt><trkpt lat="36.833083681563856" lon="15.083528669904517"><ele>27.0</ele><time>2026-04-11T14:04:34.999Z</time></trkpt><trkpt lat="36.832906347034715" lon="15.083461576913498"><ele>27.0</ele><time>2026-04-11T14:04:35.999Z</time></trkpt><trkpt lat="36.832717991718674" lon="15.083405904930448"><ele>27.0</ele><time>2026-04-11T14:04:36.999Z</time></trkpt><trkpt lat="36.83254173706125" lon="15.083372609504112"><ele>27.0</ele><time>2026-04-11T14:04:37.999Z</time></trkpt><trkpt lat="36.83236850730359" lon="15.083349819910607"><ele>27.0</ele><time>2026-04-11T14:04:38.999Z</time></trkpt><trkpt lat="36.83219088521037" lon="15.083330960765272"><ele>27.0</ele><time>2026-04-11T14:04:39.999Z</time></trkpt><trkpt lat="36.832010316198804" lon="15.083313883199688"><ele>27.0</ele><time>2026-04-11T14:04:40.999Z</time></trkpt><trkpt lat="36.83181806304171" lon="15.083306530551834"><ele>26.333333333333336</ele><time>2026-04-11T14:04:41.999Z</time></trkpt><trkpt lat="36.83162245437195" lon="15.083299776874178"><ele>25.666666666666668</ele><time>2026-04-11T14:04:42.999Z</time></trkpt><trkpt lat="36.83142679472401" lon="15.083294753596094"><ele>25.0</ele><time>2026-04-11T14:04:43.999Z</time></trkpt><trkpt lat="36.831223264958616" lon="15.083290677698301"><ele>25.0</ele><time>2026-04-11T14:04:45Z</time></trkpt><trkpt lat="36.831026091506466" lon="15.083289416133322"><ele>25.0</ele><time>2026-04-11T14:04:46Z</time></trkpt><trkpt lat="36.830824734662855" lon="15.083282442281401"><ele>25.0</ele><time>2026-04-11T14:04:47Z</time></trkpt><trkpt lat="36.83064809203318" lon="15.083279272212337"><ele>24.25</ele><time>2026-04-11T14:04:48Z</time></trkpt><trkpt lat="36.83048448153887" lon="15.083273087027097"><ele>23.5</ele><time>2026-04-11T14:04:49Z</time></trkpt><trkpt lat="36.83034013706338" lon="15.083269296823714"><ele>22.75</ele><time>2026-04-11T14:04:50Z</time></trkpt><trkpt lat="36.83020080234215" lon="15.083266926836501"><ele>22.0</ele><time>2026-04-11T14:04:51Z</time></trkpt><trkpt lat="36.83006630170083" lon="15.0832651396787"><ele>21.6</ele><time>2026-04-11T14:04:52Z</time></trkpt><trkpt lat="36.82994413934347" lon="15.083269392020725"><ele>21.200000000000003</ele><time>2026-04-11T14:04:53Z</time></trkpt><trkpt lat="36.829834100673104" lon="15.083276396319864"><ele>20.8</ele><time>2026-04-11T14:04:54Z</time></trkpt><trkpt lat="36.82972971250998" lon="15.08328122362241"><ele>20.4</ele><time>2026-04-11T14:04:55Z</time></trkpt><trkpt lat="36.82963574185626" lon="15.0832885126886"><ele>20.0</ele><time>2026-04-11T14:04:56Z</time></trkpt><trkpt lat="36.82955541604388" lon="15.083296833385837"><ele>20.0</ele><time>2026-04-11T14:04:57Z</time></trkpt><trkpt lat="36.82946798041425" lon="15.083306496903344"><ele>20.0</ele><time>2026-04-11T14:04:59Z</time></trkpt><trkpt lat="36.829410311676114" lon="15.083381120604717"><ele>20.0</ele><time>2026-04-11T14:05:03Z</time></trkpt><trkpt lat="36.82934520019422" lon="15.083379601563589"><ele>20.0</ele><time>2026-04-11T14:05:08Z</time></trkpt><trkpt lat="36.829223605555086" lon="15.083341626874107"><ele>20.0</ele><time>2026-04-11T14:05:10Z</time></trkpt><trkpt lat="36.82909316162006" lon="15.083353235492856"><ele>21.0</ele><time>2026-04-11T14:05:12Z</time></trkpt><trkpt lat="36.82901757687045" lon="15.083362640577246"><ele>22.0</ele><time>2026-04-11T14:05:13Z</time></trkpt><trkpt lat="36.82889879378472" lon="15.083388553650066"><ele>23.0</ele><time>2026-04-11T14:05:15Z</time></trkpt><trkpt lat="36.828809586902" lon="15.083426479561908"><ele>24.0</ele><time>2026-04-11T14:05:17Z</time></trkpt><trkpt lat="36.82875877447833" lon="15.083560009030688"><ele>25.0</ele><time>2026-04-11T14:05:19Z</time></trkpt><trkpt lat="36.828748387358424" lon="15.083665126680588"><ele>25.000000000000004</ele><time>2026-04-11T14:05:20Z</time></trkpt><trkpt lat="36.82873975186384" lon="15.083768000651112"><ele>25.0</ele><time>2026-04-11T14:05:21Z</time></trkpt><trkpt lat="36.828725943433895" lon="15.083846613290325"><ele>25.0</ele><time>2026-04-11T14:05:22Z</time></trkpt><trkpt lat="36.82870298043739" lon="15.083979248721906"><ele>25.0</ele><time>2026-04-11T14:05:24Z</time></trkpt><trkpt lat="36.828686670589235" lon="15.084055816214038"><ele>25.000000000000004</ele><time>2026-04-11T14:05:25Z</time></trkpt><trkpt lat="36.82866272666235" lon="15.084187228035127"><ele>25.0</ele><time>2026-04-11T14:05:27Z</time></trkpt><trkpt lat="36.828636728908585" lon="15.084287982233736"><ele>25.000000000000004</ele><time>2026-04-11T14:05:30Z</time></trkpt><trkpt lat="36.82857674784033" lon="15.084322267809524"><ele>25.0</ele><time>2026-04-11T14:05:32Z</time></trkpt><trkpt lat="36.828480334799586" lon="15.084272764579822"><ele>25.0</ele><time>2026-04-11T14:05:34Z</time></trkpt><trkpt lat="36.828406374425256" lon="15.084234577428534"><ele>25.0</ele><time>2026-04-11T14:05:34.999Z</time></trkpt><trkpt lat="36.828318053659956" lon="15.08419658399994"><ele>25.000000000000004</ele><time>2026-04-11T14:05:35.999Z</time></trkpt><trkpt lat="36.82822167456281" lon="15.084161119222685"><ele>25.0</ele><time>2026-04-11T14:05:36.999Z</time></trkpt><trkpt lat="36.828124698408686" lon="15.084130513834946"><ele>25.0</ele><time>2026-04-11T14:05:37.999Z</time></trkpt><trkpt lat="36.82803567858056" lon="15.084095719602255"><ele>25.0</ele><time>2026-04-11T14:05:38.999Z</time></trkpt><trkpt lat="36.827943717034024" lon="15.084066273008705"><ele>25.0</ele><time>2026-04-11T14:05:39.999Z</time></trkpt><trkpt lat="36.82785000099323" lon="15.084031680321443"><ele>25.0</ele><time>2026-04-11T14:05:40.999Z</time></trkpt><trkpt lat="36.827742726572176" lon="15.08399503892526"><ele>25.0</ele><time>2026-04-11T14:05:41.999Z</time></trkpt><trkpt lat="36.82762497528338" lon="15.08396901398332"><ele>25.0</ele><time>2026-04-11T14:05:42.999Z</time></trkpt><trkpt lat="36.82751724500109" lon="15.083939207557954"><ele>25.0</ele><time>2026-04-11T14:05:43.999Z</time></trkpt><trkpt lat="36.827407919760816" lon="15.083906186442432"><ele>25.0</ele><time>2026-04-11T14:05:44.999Z</time></trkpt><trkpt lat="36.827292155052206" lon="15.08387880849505"><ele>25.0</ele><time>2026-04-11T14:05:45.999Z</time></trkpt><trkpt lat="36.827179356318155" lon="15.083859643866031"><ele>25.0</ele><time>2026-04-11T14:05:46.999Z</time></trkpt><trkpt lat="36.82707414573463" lon="15.083833958273551"><ele>25.0</ele><time>2026-04-11T14:05:47.999Z</time></trkpt><trkpt lat="36.82697190885441" lon="15.08381579503741"><ele>25.0</ele><time>2026-04-11T14:05:48.999Z</time></trkpt><trkpt lat="36.82687087832532" lon="15.083799063372135"><ele>25.0</ele><time>2026-04-11T14:05:49.999Z</time></trkpt><trkpt lat="36.8267728925464" lon="15.083764238648556"><ele>25.0</ele><time>2026-04-11T14:05:50.999Z</time></trkpt><trkpt lat="36.826680572853554" lon="15.083767186466806"><ele>25.2</ele><time>2026-04-11T14:05:51.999Z</time></trkpt><trkpt lat="36.826584768004984" lon="15.083755102680216"><ele>25.4</ele><time>2026-04-11T14:05:52.999Z</time></trkpt><trkpt lat="36.8264944937016" lon="15.083734062147608"><ele>25.6</ele><time>2026-04-11T14:05:53.999Z</time></trkpt><trkpt lat="36.82640224565697" lon="15.083746512252441"><ele>25.8</ele><time>2026-04-11T14:05:54.999Z</time></trkpt><trkpt lat="36.82631312730125" lon="15.083723402042839"><ele>26.0</ele><time>2026-04-11T14:05:55.999Z</time></trkpt><trkpt lat="36.82622935640583" lon="15.083740263093075"><ele>25.999999999999996</ele><time>2026-04-11T14:05:56.999Z</time></trkpt><trkpt lat="36.82615471262298" lon="15.083734526816306"><ele>26.0</ele><time>2026-04-11T14:05:57.999Z</time></trkpt><trkpt lat="36.82609008870334" lon="15.083730089739307"><ele>26.0</ele><time>2026-04-11T14:05:58.999Z</time></trkpt><trkpt lat="36.82597951587209" lon="15.08373268810237"><ele>26.0</ele><time>2026-04-11T14:06:00.999Z</time></trkpt><trkpt lat="36.82590898448222" lon="15.083797180430249"><ele>25.999999999999996</ele><time>2026-04-11T14:06:01.999Z</time></trkpt><trkpt lat="36.825866913985415" lon="15.083857440794272"><ele>26.0</ele><time>2026-04-11T14:06:02.999Z</time></trkpt><trkpt lat="36.82579330282649" lon="15.083923894837143"><ele>26.166666666666664</ele><time>2026-04-11T14:06:04.999Z</time></trkpt><trkpt lat="36.82571863686323" lon="15.083906490586848"><ele>26.333333333333332</ele><time>2026-04-11T14:06:06.999Z</time></trkpt><trkpt lat="36.825661054440104" lon="15.083853681136185"><ele>26.5</ele><time>2026-04-11T14:06:07.999Z</time></trkpt><trkpt lat="36.82561117521144" lon="15.083801401508468"><ele>26.666666666666664</ele><time>2026-04-11T14:06:08.999Z</time></trkpt><trkpt lat="36.8255637212989" lon="15.083744937749977"><ele>26.833333333333332</ele><time>2026-04-11T14:06:09.999Z</time></trkpt><trkpt lat="36.82546641316851" lon="15.08366150815733"><ele>27.0</ele><time>2026-04-11T14:06:11.999Z</time></trkpt><trkpt lat="36.82539397822246" lon="15.083675181743757"><ele>27.0</ele><time>2026-04-11T14:06:12.999Z</time></trkpt><trkpt lat="36.82530088112006" lon="15.083646335847735"><ele>27.0</ele><time>2026-04-11T14:06:14.999Z</time></trkpt><trkpt lat="36.825237338735135" lon="15.083640081386545"><ele>27.0</ele><time>2026-04-11T14:06:17.999Z</time></trkpt><trkpt lat="36.825146460656484" lon="15.083637896085843"><ele>27.0</ele><time>2026-04-11T14:06:20.999Z</time></trkpt><trkpt lat="36.82505397319304" lon="15.083635729304827"><ele>27.0</ele><time>2026-04-11T14:06:22.999Z</time></trkpt><trkpt lat="36.82496872722622" lon="15.08363619530755"><ele>27.0</ele><time>2026-04-11T14:06:24.999Z</time></trkpt><trkpt lat="36.82486533315969" lon="15.083641969011605"><ele>27.0</ele><time>2026-04-11T14:06:26.999Z</time></trkpt><trkpt lat="36.82476387790923" lon="15.083642935764601"><ele>27.000000000000004</ele><time>2026-04-11T14:06:28.999Z</time></trkpt><trkpt lat="36.82464016232436" lon="15.083642303817738"><ele>27.000000000000004</ele><time>2026-04-11T14:06:30.999Z</time></trkpt><trkpt lat="36.82455462902322" lon="15.083641866907648"><ele>27.0</ele><time>2026-04-11T14:06:31.999Z</time></trkpt><trkpt lat="36.82446353623183" lon="15.083640377112854"><ele>27.0</ele><time>2026-04-11T14:06:32.999Z</time></trkpt><trkpt lat="36.8243715276876" lon="15.083638576292019"><ele>27.0</ele><time>2026-04-11T14:06:33.999Z</time></trkpt><trkpt lat="36.82427982126652" lon="15.083636782681214"><ele>27.000000000000004</ele><time>2026-04-11T14:06:34.999Z</time></trkpt><trkpt lat="36.824189711064136" lon="15.083637648600876"><ele>27.000000000000004</ele><time>2026-04-11T14:06:35.999Z</time></trkpt><trkpt lat="36.82407878219298" lon="15.083636308516354"><ele>27.0</ele><time>2026-04-11T14:06:36.999Z</time></trkpt><trkpt lat="36.823968639733955" lon="15.08361523510899"><ele>27.0</ele><time>2026-04-11T14:06:37.999Z</time></trkpt><trkpt lat="36.823871323791806" lon="15.083620514776241"><ele>27.0</ele><time>2026-04-11T14:06:38.999Z</time></trkpt><trkpt lat="36.82375958955005" lon="15.083626835750495"><ele>27.000000000000004</ele><time>2026-04-11T14:06:39.999Z</time></trkpt><trkpt lat="36.82365289376794" lon="15.08361729528761"><ele>27.000000000000004</ele><time>2026-04-11T14:06:40.999Z</time></trkpt><trkpt lat="36.823571319687375" lon="15.08360010357353"><ele>27.0</ele><time>2026-04-11T14:06:41.999Z</time></trkpt><trkpt lat="36.82347664646382" lon="15.08359722844827"><ele>27.0</ele><time>2026-04-11T14:06:42.999Z</time></trkpt><trkpt lat="36.82336571519751" lon="15.083599188729714"><ele>27.0</ele><time>2026-04-11T14:06:43.999Z</time></trkpt><trkpt lat="36.82324040158464" lon="15.083581212204265"><ele>27.000000000000004</ele><time>2026-04-11T14:06:44.999Z</time></trkpt><trkpt lat="36.82314130964576" lon="15.083565759770407"><ele>27.000000000000004</ele><time>2026-04-11T14:06:45.999Z</time></trkpt><trkpt lat="36.82304345174292" lon="15.083560882410463"><ele>27.0</ele><time>2026-04-11T14:06:46.999Z</time></trkpt><trkpt lat="36.82292981172041" lon="15.083558301149944"><ele>27.0</ele><time>2026-04-11T14:06:47.999Z</time></trkpt><trkpt lat="36.822808339816746" lon="15.083549878888848"><ele>27.0</ele><time>2026-04-11T14:06:48.999Z</time></trkpt><trkpt lat="36.82271051878465" lon="15.083536888844339"><ele>27.0</ele><time>2026-04-11T14:06:49.999Z</time></trkpt><trkpt lat="36.82262674202482" lon="15.083529973640772"><ele>27.0</ele><time>2026-04-11T14:06:51Z</time></trkpt><trkpt lat="36.822559842716885" lon="15.083524451556482"><ele>27.0</ele><time>2026-04-11T14:06:52Z</time></trkpt><trkpt lat="36.82248363484612" lon="15.083510291828162"><ele>27.0</ele><time>2026-04-11T14:06:53Z</time></trkpt><trkpt lat="36.82240142963434" lon="15.083491174183"><ele>27.0</ele><time>2026-04-11T14:06:54Z</time></trkpt><trkpt lat="36.82233970953636" lon="15.083474519965794"><ele>27.142857142857142</ele><time>2026-04-11T14:06:55Z</time></trkpt><trkpt lat="36.82226849250703" lon="15.083484839513735"><ele>27.285714285714285</ele><time>2026-04-11T14:06:56Z</time></trkpt><trkpt lat="36.8221873942952" lon="15.08349659087728"><ele>27.42857142857143</ele><time>2026-04-11T14:06:57Z</time></trkpt><trkpt lat="36.8221642832106" lon="15.08357060207914"><ele>27.57142857142857</ele><time>2026-04-11T14:06:58Z</time></trkpt><trkpt lat="36.822094999756054" lon="15.083604542855133"><ele>27.714285714285715</ele><time>2026-04-11T14:06:59Z</time></trkpt><trkpt lat="36.822029138334955" lon="15.083636807193923"><ele>27.857142857142858</ele><time>2026-04-11T14:07:00Z</time></trkpt><trkpt lat="36.82195931371417" lon="15.083671013062995"><ele>28.0</ele><time>2026-04-11T14:07:01Z</time></trkpt><trkpt lat="36.82188243265843" lon="15.083686963501822"><ele>27.5</ele><time>2026-04-11T14:07:02Z</time></trkpt><trkpt lat="36.821658925017786" lon="15.083973968053954"><ele>27.0</ele><time>2026-04-11T14:07:04Z</time></trkpt><trkpt lat="36.82150719727554" lon="15.082845563904886"><ele>27.0</ele><time>2026-04-11T14:07:05Z</time></trkpt><trkpt lat="36.821428619241196" lon="15.082834185254065"><ele>27.0</ele><time>2026-04-11T14:07:06Z</time></trkpt><trkpt lat="36.82133697909943" lon="15.082800707192789"><ele>27.0</ele><time>2026-04-11T14:07:07Z</time></trkpt><trkpt lat="36.82124336337263" lon="15.082804931253268"><ele>27.0</ele><time>2026-04-11T14:07:08Z</time></trkpt><trkpt lat="36.82115514186593" lon="15.082809131481428"><ele>27.0</ele><time>2026-04-11T14:07:09Z</time></trkpt><trkpt lat="36.82107083711164" lon="15.08281314523276"><ele>27.0</ele><time>2026-04-11T14:07:10Z</time></trkpt><trkpt lat="36.82098327267845" lon="15.082817314178337"><ele>27.0</ele><time>2026-04-11T14:07:11Z</time></trkpt><trkpt lat="36.820894445042434" lon="15.082821543267162"><ele>27.0</ele><time>2026-04-11T14:07:12Z</time></trkpt><trkpt lat="36.820810818104434" lon="15.082825524748365"><ele>27.0</ele><time>2026-04-11T14:07:13Z</time></trkpt><trkpt lat="36.82073117652621" lon="15.08282931648428"><ele>27.0</ele><time>2026-04-11T14:07:14Z</time></trkpt><trkpt lat="36.820653243182186" lon="15.082833026893491"><ele>27.0</ele><time>2026-04-11T14:07:15Z</time></trkpt><trkpt lat="36.820577001114216" lon="15.082836656782614"><ele>27.0</ele><time>2026-04-11T14:07:16Z</time></trkpt><trkpt lat="36.82045115369117" lon="15.082842648383107"><ele>27.0</ele><time>2026-04-11T14:07:18Z</time></trkpt><trkpt lat="36.82033300432109" lon="15.082848273480204"><ele>27.0</ele><time>2026-04-11T14:07:20Z</time></trkpt><trkpt lat="36.820260936128776" lon="15.082851704648162"><ele>27.0</ele><time>2026-04-11T14:07:21Z</time></trkpt><trkpt lat="36.8201813624821" lon="15.082855493154387"><ele>27.0</ele><time>2026-04-11T14:07:22Z</time></trkpt><trkpt lat="36.82010537421308" lon="15.082859110957045"><ele>27.0</ele><time>2026-04-11T14:07:23Z</time></trkpt><trkpt lat="36.820038728976336" lon="15.082862283938958"><ele>27.0</ele><time>2026-04-11T14:07:24Z</time></trkpt><trkpt lat="36.81992779260433" lon="15.08286756562387"><ele>27.0</ele><time>2026-04-11T14:07:26Z</time></trkpt><trkpt lat="36.819826187538666" lon="15.082872403044332"><ele>27.0</ele><time>2026-04-11T14:07:28Z</time></trkpt><trkpt lat="36.81971443218971" lon="15.08287772372074"><ele>27.0</ele><time>2026-04-11T14:07:30Z</time></trkpt><trkpt lat="36.81965096147" lon="15.082880745565115"><ele>27.0</ele><time>2026-04-11T14:07:31Z</time></trkpt><trkpt lat="36.819585356394136" lon="15.08288386902602"><ele>27.0</ele><time>2026-04-11T14:07:32Z</time></trkpt><trkpt lat="36.81951759718128" lon="15.082887095043144"><ele>27.0</ele><time>2026-04-11T14:07:33Z</time></trkpt><trkpt lat="36.819396141216565" lon="15.082892878874649"><ele>27.200000000000003</ele><time>2026-04-11T14:07:35Z</time></trkpt><trkpt lat="36.81929202003752" lon="15.082897836086435"><ele>27.400000000000002</ele><time>2026-04-11T14:07:37Z</time></trkpt><trkpt lat="36.8191768750337" lon="15.082903318129977"><ele>27.599999999999998</ele><time>2026-04-11T14:07:39Z</time></trkpt><trkpt lat="36.819109134959156" lon="15.082905084921832"><ele>27.799999999999997</ele><time>2026-04-11T14:07:40Z</time></trkpt><trkpt lat="36.81899720241868" lon="15.082908015628245"><ele>28.0</ele><time>2026-04-11T14:07:42Z</time></trkpt><trkpt lat="36.81889160592655" lon="15.082910885560608"><ele>28.0</ele><time>2026-04-11T14:07:44Z</time></trkpt><trkpt lat="36.81882751904988" lon="15.08291288028726"><ele>27.999999999999996</ele><time>2026-04-11T14:07:45Z</time></trkpt><trkpt lat="36.81871762574729" lon="15.082917530021286"><ele>27.999999999999996</ele><time>2026-04-11T14:07:47Z</time></trkpt><trkpt lat="36.81862388478053" lon="15.0829214963225"><ele>28.0</ele><time>2026-04-11T14:07:48.999Z</time></trkpt><trkpt lat="36.8185162943709" lon="15.082926102267662"><ele>28.0</ele><time>2026-04-11T14:07:50.999Z</time></trkpt><trkpt lat="36.818416453128165" lon="15.082930808984484"><ele>27.799999999999997</ele><time>2026-04-11T14:07:52.999Z</time></trkpt><trkpt lat="36.81830364049099" lon="15.082936707273477"><ele>27.599999999999998</ele><time>2026-04-11T14:07:54.999Z</time></trkpt><trkpt lat="36.81819868330401" lon="15.082942783541329"><ele>27.400000000000002</ele><time>2026-04-11T14:07:56.999Z</time></trkpt><trkpt lat="36.81808609941873" lon="15.082949301343481"><ele>27.200000000000003</ele><time>2026-04-11T14:07:58.999Z</time></trkpt><trkpt lat="36.81798637369061" lon="15.082953968077515"><ele>27.0</ele><time>2026-04-11T14:08:00.999Z</time></trkpt><trkpt lat="36.81791189223523" lon="15.082956963169998"><ele>27.0</ele><time>2026-04-11T14:08:02.999Z</time></trkpt><trkpt lat="36.81783924975455" lon="15.082959884315972"><ele>27.000000000000004</ele><time>2026-04-11T14:08:05.999Z</time></trkpt><trkpt lat="36.81777173616369" lon="15.082962599213825"><ele>27.000000000000004</ele><time>2026-04-11T14:08:08.999Z</time></trkpt><trkpt lat="36.81770676541939" lon="15.083157560595192"><ele>27.0</ele><time>2026-04-11T14:08:10.999Z</time></trkpt><trkpt lat="36.81761778817681" lon="15.083164276413282"><ele>27.0</ele><time>2026-04-11T14:08:12.999Z</time></trkpt><trkpt lat="36.81755203311615" lon="15.083159913184742"><ele>26.857142857142858</ele><time>2026-04-11T14:08:13.999Z</time></trkpt><trkpt lat="36.81748067475602" lon="15.083166919442272"><ele>26.714285714285715</ele><time>2026-04-11T14:08:14.999Z</time></trkpt><trkpt lat="36.81741019954895" lon="15.083173465662462"><ele>26.57142857142857</ele><time>2026-04-11T14:08:15.999Z</time></trkpt><trkpt lat="36.81733892782565" lon="15.083174272841516"><ele>26.42857142857143</ele><time>2026-04-11T14:08:16.999Z</time></trkpt><trkpt lat="36.81726377478997" lon="15.08317856020891"><ele>26.28571428571429</ele><time>2026-04-11T14:08:17.999Z</time></trkpt><trkpt lat="36.81718486119749" lon="15.083185407137613"><ele>26.142857142857142</ele><time>2026-04-11T14:08:18.999Z</time></trkpt><trkpt lat="36.8171122083874" lon="15.083194311941545"><ele>26.0</ele><time>2026-04-11T14:08:19.999Z</time></trkpt><trkpt lat="36.817035294441034" lon="15.083194559135066"><ele>25.999999999999996</ele><time>2026-04-11T14:08:20.999Z</time></trkpt><trkpt lat="36.81694740164859" lon="15.083196326374766"><ele>26.0</ele><time>2026-04-11T14:08:21.999Z</time></trkpt><trkpt lat="36.816859386365685" lon="15.083205330309411"><ele>26.0</ele><time>2026-04-11T14:08:22.999Z</time></trkpt><trkpt lat="36.81676937850407" lon="15.083210901458731"><ele>26.0</ele><time>2026-04-11T14:08:23.999Z</time></trkpt><trkpt lat="36.8166822253204" lon="15.083218415730276"><ele>25.999999999999996</ele><time>2026-04-11T14:08:24.999Z</time></trkpt><trkpt lat="36.8165888850619" lon="15.08322535696565"><ele>26.0</ele><time>2026-04-11T14:08:25.999Z</time></trkpt><trkpt lat="36.81650112428623" lon="15.08322716762894"><ele>25.833333333333332</ele><time>2026-04-11T14:08:26.999Z</time></trkpt><trkpt lat="36.81640607971153" lon="15.083231327891431"><ele>25.666666666666664</ele><time>2026-04-11T14:08:27.999Z</time></trkpt><trkpt lat="36.8163202776149" lon="15.083230767326375"><ele>25.5</ele><time>2026-04-11T14:08:28.999Z</time></trkpt><trkpt lat="36.81624634366827" lon="15.083237294684606"><ele>25.333333333333336</ele><time>2026-04-11T14:08:29.999Z</time></trkpt><trkpt lat="36.81616031218601" lon="15.083242672128547"><ele>25.166666666666668</ele><time>2026-04-11T14:08:30.999Z</time></trkpt><trkpt lat="36.816068969922" lon="15.08324762862557"><ele>25.0</ele><time>2026-04-11T14:08:31.999Z</time></trkpt><trkpt lat="36.8159760632174" lon="15.083256218818011"><ele>25.0</ele><time>2026-04-11T14:08:32.999Z</time></trkpt><trkpt lat="36.815879930113965" lon="15.08325998344954"><ele>25.0</ele><time>2026-04-11T14:08:33.999Z</time></trkpt><trkpt lat="36.815782843196175" lon="15.08326570042159"><ele>25.0</ele><time>2026-04-11T14:08:34.999Z</time></trkpt><trkpt lat="36.81568670410186" lon="15.083271244280061"><ele>25.0</ele><time>2026-04-11T14:08:35.999Z</time></trkpt><trkpt lat="36.815590964865414" lon="15.083274095265962"><ele>25.0</ele><time>2026-04-11T14:08:36.999Z</time></trkpt><trkpt lat="36.81549154430235" lon="15.083274895085397"><ele>24.8</ele><time>2026-04-11T14:08:37.999Z</time></trkpt><trkpt lat="36.815393227381925" lon="15.083279253583871"><ele>24.6</ele><time>2026-04-11T14:08:38.999Z</time></trkpt><trkpt lat="36.81529205589693" lon="15.083281038686756"><ele>24.4</ele><time>2026-04-11T14:08:39.999Z</time></trkpt><trkpt lat="36.81520134492017" lon="15.083284718214344"><ele>24.2</ele><time>2026-04-11T14:08:40.999Z</time></trkpt><trkpt lat="36.815102477043254" lon="15.083291828005672"><ele>24.0</ele><time>2026-04-11T14:08:41.999Z</time></trkpt><trkpt lat="36.815012646562884" lon="15.08329236319959"><ele>23.666666666666668</ele><time>2026-04-11T14:08:42.999Z</time></trkpt><trkpt lat="36.81492804900017" lon="15.08329696080888"><ele>23.333333333333332</ele><time>2026-04-11T14:08:43.999Z</time></trkpt><trkpt lat="36.8148443955457" lon="15.083303546158325"><ele>23.0</ele><time>2026-04-11T14:08:44.999Z</time></trkpt><trkpt lat="36.81475695895839" lon="15.083314112695707"><ele>22.666666666666664</ele><time>2026-04-11T14:08:45.999Z</time></trkpt><trkpt lat="36.814671542247176" lon="15.083321605114328"><ele>22.333333333333332</ele><time>2026-04-11T14:08:46.999Z</time></trkpt><trkpt lat="36.81459249717673" lon="15.083326728994068"><ele>22.0</ele><time>2026-04-11T14:08:47.999Z</time></trkpt><trkpt lat="36.814527553971814" lon="15.083332539133579"><ele>22.0</ele><time>2026-04-11T14:08:48.999Z</time></trkpt><trkpt lat="36.81441569670938" lon="15.083347390854541"><ele>22.0</ele><time>2026-04-11T14:08:50.999Z</time></trkpt><trkpt lat="36.8143023873649" lon="15.083351237366177"><ele>22.0</ele><time>2026-04-11T14:08:52.999Z</time></trkpt><trkpt lat="36.81423856122107" lon="15.08335502463831"><ele>22.0</ele><time>2026-04-11T14:08:53.999Z</time></trkpt><trkpt lat="36.81416851783352" lon="15.08335786073144"><ele>22.0</ele><time>2026-04-11T14:08:54.999Z</time></trkpt><trkpt lat="36.81410454645016" lon="15.083358916598876"><ele>22.0</ele><time>2026-04-11T14:08:56Z</time></trkpt><trkpt lat="36.813997846928885" lon="15.083148887960725"><ele>21.6</ele><time>2026-04-11T14:08:58Z</time></trkpt><trkpt lat="36.81389100621444" lon="15.083153612971877"><ele>21.200000000000003</ele><time>2026-04-11T14:09:00Z</time></trkpt><trkpt lat="36.81378497036561" lon="15.083157931628124"><ele>20.8</ele><time>2026-04-11T14:09:02Z</time></trkpt><trkpt lat="36.81368515113769" lon="15.08316153792389"><ele>20.4</ele><time>2026-04-11T14:09:04Z</time></trkpt><trkpt lat="36.81359720298854" lon="15.083164715337972"><ele>20.0</ele><time>2026-04-11T14:09:06Z</time></trkpt><trkpt lat="36.81349968590933" lon="15.08316823846405"><ele>20.2</ele><time>2026-04-11T14:09:08Z</time></trkpt><trkpt lat="36.81339604082444" lon="15.083171982981545"><ele>20.4</ele><time>2026-04-11T14:09:10Z</time></trkpt><trkpt lat="36.81329271972406" lon="15.083174966560003"><ele>20.6</ele><time>2026-04-11T14:09:12Z</time></trkpt><trkpt lat="36.81316694672707" lon="15.083174966558698"><ele>20.8</ele><time>2026-04-11T14:09:14Z</time></trkpt><trkpt lat="36.81310369610072" lon="15.083174966557982"><ele>21.0</ele><time>2026-04-11T14:09:15Z</time></trkpt><trkpt lat="36.812996723526744" lon="15.083174966557984"><ele>21.0</ele><time>2026-04-11T14:09:17Z</time></trkpt><trkpt lat="36.81289773198442" lon="15.083174966556783"><ele>21.0</ele><time>2026-04-11T14:09:19Z</time></trkpt><trkpt lat="36.81281696388523" lon="15.083174028835572"><ele>21.0</ele><time>2026-04-11T14:09:21Z</time></trkpt><trkpt lat="36.812750187774704" lon="15.083173689209076"><ele>21.0</ele><time>2026-04-11T14:09:23Z</time></trkpt><trkpt lat="36.81267576426183" lon="15.083172880573505"><ele>21.0</ele><time>2026-04-11T14:09:25Z</time></trkpt><trkpt lat="36.81258279531602" lon="15.083171836843938"><ele>21.0</ele><time>2026-04-11T14:09:27Z</time></trkpt><trkpt lat="36.81249602237246" lon="15.083170673599918"><ele>21.5</ele><time>2026-04-11T14:09:29Z</time></trkpt><trkpt lat="36.81241466707232" lon="15.08316813452297"><ele>22.0</ele><time>2026-04-11T14:09:31Z</time></trkpt><trkpt lat="36.81232990879271" lon="15.083165489242797"><ele>22.5</ele><time>2026-04-11T14:09:33Z</time></trkpt><trkpt lat="36.81224546996728" lon="15.083162853934446"><ele>23.0</ele><time>2026-04-11T14:09:35Z</time></trkpt><trkpt lat="36.81217265959168" lon="15.083160581545227"><ele>23.5</ele><time>2026-04-11T14:09:37Z</time></trkpt><trkpt lat="36.812104003020174" lon="15.083158189700002"><ele>24.0</ele><time>2026-04-11T14:09:39Z</time></trkpt><trkpt lat="36.812001348949636" lon="15.083153163866681"><ele>24.0</ele><time>2026-04-11T14:09:41Z</time></trkpt><trkpt lat="36.81189386061062" lon="15.083147901353612"><ele>24.0</ele><time>2026-04-11T14:09:43Z</time></trkpt><trkpt lat="36.81178758684588" lon="15.083142698306943"><ele>24.0</ele><time>2026-04-11T14:09:45Z</time></trkpt><trkpt lat="36.81169039075146" lon="15.083136627102746"><ele>24.0</ele><time>2026-04-11T14:09:47Z</time></trkpt><trkpt lat="36.811586516401206" lon="15.083129660553222"><ele>24.0</ele><time>2026-04-11T14:09:49Z</time></trkpt><trkpt lat="36.81147409540926" lon="15.083121456220173"><ele>24.0</ele><time>2026-04-11T14:09:51Z</time></trkpt><trkpt lat="36.81136908833802" lon="15.083113630922217"><ele>24.0</ele><time>2026-04-11T14:09:53Z</time></trkpt><trkpt lat="36.811253843654974" lon="15.083102576341611"><ele>24.0</ele><time>2026-04-11T14:09:55Z</time></trkpt><trkpt lat="36.81115979744112" lon="15.083093214726466"><ele>24.0</ele><time>2026-04-11T14:09:56.999Z</time></trkpt><trkpt lat="36.81105408574191" lon="15.083080674523346"><ele>24.0</ele><time>2026-04-11T14:09:58.999Z</time></trkpt><trkpt lat="36.810991334166424" lon="15.083073230521725"><ele>23.5</ele><time>2026-04-11T14:09:59.999Z</time></trkpt><trkpt lat="36.81086264376489" lon="15.083056667652961"><ele>23.0</ele><time>2026-04-11T14:10:01.999Z</time></trkpt><trkpt lat="36.8107923366552" lon="15.083047549526304"><ele>22.5</ele><time>2026-04-11T14:10:02.999Z</time></trkpt><trkpt lat="36.810729398672414" lon="15.083039387106728"><ele>22.0</ele><time>2026-04-11T14:10:03.999Z</time></trkpt><trkpt lat="36.81065928330288" lon="15.083030293840492"><ele>21.5</ele><time>2026-04-11T14:10:04.999Z</time></trkpt><trkpt lat="36.810582732320206" lon="15.083020365950032"><ele>21.0</ele><time>2026-04-11T14:10:05.999Z</time></trkpt><trkpt lat="36.81050319034398" lon="15.083010050153574"><ele>21.0</ele><time>2026-04-11T14:10:06.999Z</time></trkpt><trkpt lat="36.810418725284116" lon="15.082999095870457"><ele>21.0</ele><time>2026-04-11T14:10:07.999Z</time></trkpt><trkpt lat="36.810331689410575" lon="15.082987808200881"><ele>21.0</ele><time>2026-04-11T14:10:08.999Z</time></trkpt><trkpt lat="36.81024845855515" lon="15.082977013993613"><ele>21.0</ele><time>2026-04-11T14:10:09.999Z</time></trkpt><trkpt lat="36.81011694390487" lon="15.08347004168893"><ele>20.8</ele><time>2026-04-11T14:10:10.999Z</time></trkpt><trkpt lat="36.810021251315064" lon="15.083470016941396"><ele>20.6</ele><time>2026-04-11T14:10:11.999Z</time></trkpt><trkpt lat="36.809933992184206" lon="15.083467298133113"><ele>20.4</ele><time>2026-04-11T14:10:12.999Z</time></trkpt><trkpt lat="36.809853229242336" lon="15.083460959546082"><ele>20.2</ele><time>2026-04-11T14:10:13.999Z</time></trkpt><trkpt lat="36.8097943600031" lon="15.083273114106113"><ele>20.0</ele><time>2026-04-11T14:10:14.999Z</time></trkpt><trkpt lat="36.8097127390445" lon="15.08325937677274"><ele>20.0</ele><time>2026-04-11T14:10:15.999Z</time></trkpt><trkpt lat="36.809641648432894" lon="15.083245563791683"><ele>20.0</ele><time>2026-04-11T14:10:16.999Z</time></trkpt><trkpt lat="36.809575577443496" lon="15.083231377154512"><ele>20.0</ele><time>2026-04-11T14:10:17.999Z</time></trkpt><trkpt lat="36.80951308315787" lon="15.083215396791548"><ele>20.0</ele><time>2026-04-11T14:10:18.999Z</time></trkpt><trkpt lat="36.80944594441807" lon="15.083194777198287"><ele>20.0</ele><time>2026-04-11T14:10:19.999Z</time></trkpt><trkpt lat="36.809380519731185" lon="15.083173122909129"><ele>20.0</ele><time>2026-04-11T14:10:20.999Z</time></trkpt><trkpt lat="36.80931931670541" lon="15.083152569286245"><ele>20.0</ele><time>2026-04-11T14:10:21.999Z</time></trkpt><trkpt lat="36.80920877049984" lon="15.083114566393412"><ele>19.666666666666668</ele><time>2026-04-11T14:10:23.999Z</time></trkpt><trkpt lat="36.809147062705314" lon="15.083093336519884"><ele>19.333333333333336</ele><time>2026-04-11T14:10:24.999Z</time></trkpt><trkpt lat="36.80907775633775" lon="15.083069492374833"><ele>19.0</ele><time>2026-04-11T14:10:25.999Z</time></trkpt><trkpt lat="36.809010194614274" lon="15.08304624853849"><ele>18.666666666666668</ele><time>2026-04-11T14:10:26.999Z</time></trkpt><trkpt lat="36.80891672860988" lon="15.083014092575016"><ele>18.333333333333332</ele><time>2026-04-11T14:10:28.999Z</time></trkpt><trkpt lat="36.808784044165314" lon="15.082968443916691"><ele>18.0</ele><time>2026-04-11T14:10:30.999Z</time></trkpt><trkpt lat="36.80871342569303" lon="15.082944148360948"><ele>18.000000000000004</ele><time>2026-04-11T14:10:31.999Z</time></trkpt><trkpt lat="36.808646853228645" lon="15.082921244699932"><ele>18.0</ele><time>2026-04-11T14:10:32.999Z</time></trkpt><trkpt lat="36.80858184913279" lon="15.082898880863011"><ele>18.0</ele><time>2026-04-11T14:10:33.999Z</time></trkpt><trkpt lat="36.80851688154372" lon="15.082876529501458"><ele>18.0</ele><time>2026-04-11T14:10:34.999Z</time></trkpt><trkpt lat="36.80845089122037" lon="15.082853826190002"><ele>18.0</ele><time>2026-04-11T14:10:35.999Z</time></trkpt><trkpt lat="36.80838545777875" lon="15.082831353519351"><ele>18.000000000000004</ele><time>2026-04-11T14:10:36.999Z</time></trkpt><trkpt lat="36.808321773259614" lon="15.082809800865116"><ele>18.0</ele><time>2026-04-11T14:10:37.999Z</time></trkpt><trkpt lat="36.80819679113387" lon="15.082767503327382"><ele>17.28571428571429</ele><time>2026-04-11T14:10:39.999Z</time></trkpt><trkpt lat="36.808133630419256" lon="15.082746127925743"><ele>16.571428571428573</ele><time>2026-04-11T14:10:40.999Z</time></trkpt><trkpt lat="36.80807118737084" lon="15.082726179064425"><ele>15.857142857142858</ele><time>2026-04-11T14:10:41.999Z</time></trkpt><trkpt lat="36.8079954834599" lon="15.08270281528551"><ele>15.142857142857144</ele><time>2026-04-11T14:10:43.999Z</time></trkpt><trkpt lat="36.80793089883418" lon="15.08268313166495"><ele>14.42857142857143</ele><time>2026-04-11T14:11:04Z</time></trkpt><trkpt lat="36.80786366582569" lon="15.082665463720934"><ele>13.714285714285714</ele><time>2026-04-11T14:11:05Z</time></trkpt><trkpt lat="36.80778460504823" lon="15.082649422286552"><ele>13.0</ele><time>2026-04-11T14:11:06Z</time></trkpt><trkpt lat="36.80770046616458" lon="15.082635152674392"><ele>13.166666666666666</ele><time>2026-04-11T14:11:07Z</time></trkpt><trkpt lat="36.80761481934874" lon="15.082624067400191"><ele>13.333333333333332</ele><time>2026-04-11T14:11:08Z</time></trkpt><trkpt lat="36.80753023948469" lon="15.082616451266954"><ele>13.5</ele><time>2026-04-11T14:11:09Z</time></trkpt><trkpt lat="36.80745993168009" lon="15.082610976061119"><ele>13.666666666666668</ele><time>2026-04-11T14:11:10Z</time></trkpt><trkpt lat="36.80738946380414" lon="15.082606143134116"><ele>13.833333333333334</ele><time>2026-04-11T14:11:11Z</time></trkpt><trkpt lat="36.807322231803816" lon="15.08260160497178"><ele>14.0</ele><time>2026-04-11T14:11:12Z</time></trkpt><trkpt lat="36.80724243715116" lon="15.082597220048886"><ele>14.0</ele><time>2026-04-11T14:11:13Z</time></trkpt><trkpt lat="36.80717024847294" lon="15.082593794786161"><ele>13.999999999999998</ele><time>2026-04-11T14:11:14Z</time></trkpt><trkpt lat="36.80706847584323" lon="15.082592578048352"><ele>13.999999999999998</ele><time>2026-04-11T14:11:15Z</time></trkpt><trkpt lat="36.806965560707454" lon="15.082596471722205"><ele>14.0</ele><time>2026-04-11T14:11:16Z</time></trkpt><trkpt lat="36.80687225564408" lon="15.082600921151807"><ele>14.0</ele><time>2026-04-11T14:11:17Z</time></trkpt><trkpt lat="36.80676908556314" lon="15.082615877582727"><ele>14.666666666666668</ele><time>2026-04-11T14:11:18Z</time></trkpt><trkpt lat="36.8066879771615" lon="15.08262919719654"><ele>15.333333333333334</ele><time>2026-04-11T14:11:19Z</time></trkpt><trkpt lat="36.80659803369915" lon="15.082670279652008"><ele>16.0</ele><time>2026-04-11T14:11:20Z</time></trkpt><trkpt lat="36.80652669965331" lon="15.082719546885652"><ele>16.666666666666668</ele><time>2026-04-11T14:11:21Z</time></trkpt><trkpt lat="36.80647970856386" lon="15.08278296513267"><ele>17.333333333333332</ele><time>2026-04-11T14:11:22Z</time></trkpt><trkpt lat="36.80648017430506" lon="15.082873405897349"><ele>18.0</ele><time>2026-04-11T14:11:23Z</time></trkpt><trkpt lat="36.80643377490902" lon="15.083036824282432"><ele>18.0</ele><time>2026-04-11T14:11:24Z</time></trkpt><trkpt lat="36.80632254179393" lon="15.083119469193694"><ele>18.0</ele><time>2026-04-11T14:11:25Z</time></trkpt><trkpt lat="36.80625944705593" lon="15.083125338628514"><ele>18.0</ele><time>2026-04-11T14:11:26Z</time></trkpt><trkpt lat="36.8061091266427" lon="15.083128369303026"><ele>18.0</ele><time>2026-04-11T14:11:27Z</time></trkpt><trkpt lat="36.80601644839494" lon="15.08310277315909"><ele>18.0</ele><time>2026-04-11T14:11:28Z</time></trkpt><trkpt lat="36.80595058377306" lon="15.083079459677377"><ele>17.8</ele><time>2026-04-11T14:11:29Z</time></trkpt><trkpt lat="36.80582439881528" lon="15.08303042936342"><ele>17.6</ele><time>2026-04-11T14:11:31Z</time></trkpt><trkpt lat="36.80576285257826" lon="15.08300533083038"><ele>17.4</ele><time>2026-04-11T14:11:32Z</time></trkpt><trkpt lat="36.80568889270379" lon="15.08297188474006"><ele>17.2</ele><time>2026-04-11T14:11:33Z</time></trkpt><trkpt lat="36.8056261906623" lon="15.082944239743904"><ele>17.0</ele><time>2026-04-11T14:11:34Z</time></trkpt><trkpt lat="36.80551198183801" lon="15.082895145028532"><ele>16.999999999999996</ele><time>2026-04-11T14:11:36Z</time></trkpt><trkpt lat="36.80544786892299" lon="15.082868289162157"><ele>17.0</ele><time>2026-04-11T14:11:37Z</time></trkpt><trkpt lat="36.805382248653885" lon="15.082842175669292"><ele>17.0</ele><time>2026-04-11T14:11:38Z</time></trkpt><trkpt lat="36.80531783773867" lon="15.08281899488824"><ele>17.0</ele><time>2026-04-11T14:11:39Z</time></trkpt><trkpt lat="36.80524724476397" lon="15.082795877051415"><ele>17.0</ele><time>2026-04-11T14:11:40Z</time></trkpt><trkpt lat="36.805174922233924" lon="15.082772195702027"><ele>16.999999999999996</ele><time>2026-04-11T14:11:41Z</time></trkpt><trkpt lat="36.80508368700468" lon="15.082753592650816"><ele>17.0</ele><time>2026-04-11T14:11:43Z</time></trkpt><trkpt lat="36.80501316677736" lon="15.082758086862002"><ele>17.0</ele><time>2026-04-11T14:11:45Z</time></trkpt><trkpt lat="36.80492190928097" lon="15.08276332467653"><ele>17.0</ele><time>2026-04-11T14:11:47Z</time></trkpt><trkpt lat="36.80484352693407" lon="15.0827761021583"><ele>17.0</ele><time>2026-04-11T14:11:49Z</time></trkpt><trkpt lat="36.80474247224288" lon="15.082786573761984"><ele>17.0</ele><time>2026-04-11T14:11:51Z</time></trkpt><trkpt lat="36.80481446876346" lon="15.082795042752293"><ele>17.0</ele><time>2026-04-11T14:11:52Z</time></trkpt><trkpt lat="36.80452001870148" lon="15.082100277133497"><ele>16.8</ele><time>2026-04-11T14:11:55Z</time></trkpt><trkpt lat="36.8044171800064" lon="15.082045487034605"><ele>16.6</ele><time>2026-04-11T14:11:57Z</time></trkpt><trkpt lat="36.804314633523354" lon="15.08199807261013"><ele>16.400000000000002</ele><time>2026-04-11T14:11:59Z</time></trkpt><trkpt lat="36.804227774524584" lon="15.081951951489998"><ele>16.2</ele><time>2026-04-11T14:12:01Z</time></trkpt><trkpt lat="36.80415124074438" lon="15.081898829055989"><ele>16.0</ele><time>2026-04-11T14:12:03Z</time></trkpt><trkpt lat="36.80407501892953" lon="15.081862229074625"><ele>16.0</ele><time>2026-04-11T14:12:05Z</time></trkpt><trkpt lat="36.80399208599493" lon="15.081831772308357"><ele>16.0</ele><time>2026-04-11T14:12:06.999Z</time></trkpt><trkpt lat="36.8038946783936" lon="15.08179637600913"><ele>16.0</ele><time>2026-04-11T14:12:08.999Z</time></trkpt><trkpt lat="36.80379643651448" lon="15.081743435781988"><ele>16.0</ele><time>2026-04-11T14:12:10.999Z</time></trkpt><trkpt lat="36.80368857988573" lon="15.081688992628214"><ele>16.0</ele><time>2026-04-11T14:12:12.999Z</time></trkpt><trkpt lat="36.80359969654212" lon="15.081642461790349"><ele>16.2</ele><time>2026-04-11T14:12:14.999Z</time></trkpt><trkpt lat="36.80351223301095" lon="15.081592459928926"><ele>16.400000000000002</ele><time>2026-04-11T14:12:16.999Z</time></trkpt><trkpt lat="36.803425464556454" lon="15.081546088560449"><ele>16.6</ele><time>2026-04-11T14:12:18.999Z</time></trkpt><trkpt lat="36.80334398506421" lon="15.081501515041058"><ele>16.8</ele><time>2026-04-11T14:12:20.999Z</time></trkpt><trkpt lat="36.80325876277721" lon="15.081452352801696"><ele>17.0</ele><time>2026-04-11T14:12:22.999Z</time></trkpt><trkpt lat="36.803189226683614" lon="15.081389435023288"><ele>17.0</ele><time>2026-04-11T14:12:24.999Z</time></trkpt><trkpt lat="36.80320855118233" lon="15.081097660587435"><ele>17.0</ele><time>2026-04-11T14:12:26.999Z</time></trkpt><trkpt lat="36.80313313974264" lon="15.081059646971003"><ele>17.0</ele><time>2026-04-11T14:12:29.999Z</time></trkpt><trkpt lat="36.80305415147361" lon="15.081019830405914"><ele>17.0</ele><time>2026-04-11T14:12:50.999Z</time></trkpt><trkpt lat="36.80297197716689" lon="15.080977137328162"><ele>16.999999999999996</ele><time>2026-04-11T14:12:53.999Z</time></trkpt><trkpt lat="36.80290176725002" lon="15.080940213186267"><ele>17.0</ele><time>2026-04-11T14:12:56.999Z</time></trkpt><trkpt lat="36.80283714990699" lon="15.08090513738652"><ele>17.0</ele><time>2026-04-11T14:12:59.999Z</time></trkpt><trkpt lat="36.802776621128636" lon="15.080871993597095"><ele>17.0</ele><time>2026-04-11T14:13:01.999Z</time></trkpt><trkpt lat="36.802716313188164" lon="15.080838970765642"><ele>17.0</ele><time>2026-04-11T14:13:03.999Z</time></trkpt><trkpt lat="36.80264691587164" lon="15.080800970834694"><ele>16.999999999999996</ele><time>2026-04-11T14:13:05.999Z</time></trkpt><trkpt lat="36.80258741480399" lon="15.080767194467624"><ele>17.0</ele><time>2026-04-11T14:13:08Z</time></trkpt><trkpt lat="36.80251711402698" lon="15.080727186034265"><ele>17.142857142857142</ele><time>2026-04-11T14:13:10Z</time></trkpt><trkpt lat="36.80244919358098" lon="15.080688532278014"><ele>17.285714285714285</ele><time>2026-04-11T14:13:12Z</time></trkpt><trkpt lat="36.802386308233295" lon="15.08065274399909"><ele>17.42857142857143</ele><time>2026-04-11T14:13:14Z</time></trkpt><trkpt lat="36.80232598570955" lon="15.080618414236252"><ele>17.57142857142857</ele><time>2026-04-11T14:13:16Z</time></trkpt><trkpt lat="36.80225275346532" lon="15.080576499052022"><ele>17.714285714285715</ele><time>2026-04-11T14:13:18Z</time></trkpt><trkpt lat="36.80218204664523" lon="15.080535176276882"><ele>17.857142857142858</ele><time>2026-04-11T14:13:20Z</time></trkpt><trkpt lat="36.80211991374216" lon="15.080498864246854"><ele>18.0</ele><time>2026-04-11T14:13:22Z</time></trkpt><trkpt lat="36.802053301264124" lon="15.080459934274302"><ele>18.000000000000004</ele><time>2026-04-11T14:13:25Z</time></trkpt><trkpt lat="36.80198048181694" lon="15.080417376789972"><ele>18.0</ele><time>2026-04-11T14:14:59.999Z</time></trkpt><trkpt lat="36.801922849535146" lon="15.080383695060666"><ele>18.0</ele><time>2026-04-11T14:15:02.999Z</time></trkpt><trkpt lat="36.80186120435077" lon="15.080347668058206"><ele>18.0</ele><time>2026-04-11T14:15:07.999Z</time></trkpt><trkpt lat="36.801802638139456" lon="15.08031391002531"><ele>18.0</ele><time>2026-04-11T14:15:14Z</time></trkpt><trkpt lat="36.80174223158589" lon="15.080279226194506"><ele>18.000000000000004</ele><time>2026-04-11T14:15:18Z</time></trkpt><trkpt lat="36.80167395205224" lon="15.080240021918831"><ele>18.0</ele><time>2026-04-11T14:15:21Z</time></trkpt><trkpt lat="36.80161216846781" lon="15.080204547402621"><ele>18.2</ele><time>2026-04-11T14:15:23Z</time></trkpt><trkpt lat="36.801549987717245" lon="15.080168844873642"><ele>18.4</ele><time>2026-04-11T14:15:25Z</time></trkpt><trkpt lat="36.801457181271914" lon="15.080115557921406"><ele>18.599999999999998</ele><time>2026-04-11T14:15:27Z</time></trkpt><trkpt lat="36.80136751918947" lon="15.080064076255555"><ele>18.8</ele><time>2026-04-11T14:15:29Z</time></trkpt><trkpt lat="36.80128427603614" lon="15.080016280274984"><ele>19.0</ele><time>2026-04-11T14:15:31Z</time></trkpt><trkpt lat="36.801184915004434" lon="15.079959229791756"><ele>19.0</ele><time>2026-04-11T14:15:33Z</time></trkpt><trkpt lat="36.801081936959356" lon="15.079899836068416"><ele>19.0</ele><time>2026-04-11T14:15:35Z</time></trkpt><trkpt lat="36.80097883067849" lon="15.079840167016439"><ele>19.0</ele><time>2026-04-11T14:15:37Z</time></trkpt><trkpt lat="36.80088503074503" lon="15.079785883716877"><ele>19.0</ele><time>2026-04-11T14:15:39Z</time></trkpt><trkpt lat="36.80080175948238" lon="15.079737693492037"><ele>19.0</ele><time>2026-04-11T14:15:41Z</time></trkpt><trkpt lat="36.800730305119345" lon="15.079696341856355"><ele>19.0</ele><time>2026-04-11T14:15:43Z</time></trkpt><trkpt lat="36.80065813059926" lon="15.07965457347706"><ele>19.0</ele><time>2026-04-11T14:15:45Z</time></trkpt><trkpt lat="36.80059753789802" lon="15.079619697049624"><ele>19.0</ele><time>2026-04-11T14:15:47Z</time></trkpt><trkpt lat="36.80054012297751" lon="15.079586702860357"><ele>19.0</ele><time>2026-04-11T14:15:49Z</time></trkpt><trkpt lat="36.80046140215795" lon="15.07954129570006"><ele>19.0</ele><time>2026-04-11T14:15:51Z</time></trkpt><trkpt lat="36.800345856579" lon="15.079474320624005"><ele>19.0</ele><time>2026-04-11T14:15:53Z</time></trkpt><trkpt lat="36.80025073812798" lon="15.079419185983001"><ele>19.25</ele><time>2026-04-11T14:15:55Z</time></trkpt><trkpt lat="36.80015245582738" lon="15.079362217433015"><ele>19.5</ele><time>2026-04-11T14:15:57Z</time></trkpt><trkpt lat="36.80004548308108" lon="15.079300211529045"><ele>19.75</ele><time>2026-04-11T14:15:59Z</time></trkpt><trkpt lat="36.799940142220336" lon="15.079239151597836"><ele>20.0</ele><time>2026-04-11T14:16:01Z</time></trkpt><trkpt lat="36.799840225764335" lon="15.079180971699149"><ele>20.0</ele><time>2026-04-11T14:16:03Z</time></trkpt><trkpt lat="36.79974373530328" lon="15.079124791819014"><ele>20.0</ele><time>2026-04-11T14:16:05Z</time></trkpt><trkpt lat="36.799642325509865" lon="15.07906574769988"><ele>20.0</ele><time>2026-04-11T14:16:07Z</time></trkpt><trkpt lat="36.79954149366755" lon="15.079007040102077"><ele>20.0</ele><time>2026-04-11T14:16:09Z</time></trkpt><trkpt lat="36.79945860891602" lon="15.078958781913983"><ele>20.0</ele><time>2026-04-11T14:16:11Z</time></trkpt><trkpt lat="36.799365376116555" lon="15.078904498807134"><ele>20.0</ele><time>2026-04-11T14:16:13Z</time></trkpt><trkpt lat="36.799259879657455" lon="15.078843075298387"><ele>20.0</ele><time>2026-04-11T14:16:14.999Z</time></trkpt><trkpt lat="36.79915392762105" lon="15.078781386551613"><ele>20.0</ele><time>2026-04-11T14:16:16.999Z</time></trkpt><trkpt lat="36.79905961798698" lon="15.078726476382728"><ele>20.0</ele><time>2026-04-11T14:16:18.999Z</time></trkpt><trkpt lat="36.79896938069544" lon="15.078673937308356"><ele>20.0</ele><time>2026-04-11T14:16:20.999Z</time></trkpt><trkpt lat="36.79886262692813" lon="15.078611781805947"><ele>20.0</ele><time>2026-04-11T14:16:22.999Z</time></trkpt><trkpt lat="36.79877573073912" lon="15.07856118800745"><ele>20.0</ele><time>2026-04-11T14:16:24.999Z</time></trkpt><trkpt lat="36.798674448618634" lon="15.078502269080042"><ele>20.0</ele><time>2026-04-11T14:16:26.999Z</time></trkpt><trkpt lat="36.79858951567449" lon="15.078452983663812"><ele>20.0</ele><time>2026-04-11T14:16:28.999Z</time></trkpt><trkpt lat="36.79850641086532" lon="15.078404759062503"><ele>20.0</ele><time>2026-04-11T14:16:30.999Z</time></trkpt><trkpt lat="36.79840259526159" lon="15.078344516271375"><ele>20.0</ele><time>2026-04-11T14:16:32.999Z</time></trkpt><trkpt lat="36.79830193273797" lon="15.078286103204906"><ele>20.0</ele><time>2026-04-11T14:16:34.999Z</time></trkpt><trkpt lat="36.798241372493855" lon="15.078250960901599"><ele>20.0</ele><time>2026-04-11T14:16:35.999Z</time></trkpt><trkpt lat="36.79817912130921" lon="15.07821483739955"><ele>20.0</ele><time>2026-04-11T14:16:36.999Z</time></trkpt><trkpt lat="36.79811169667554" lon="15.078175711799053"><ele>20.0</ele><time>2026-04-11T14:16:37.999Z</time></trkpt><trkpt lat="36.79804402206983" lon="15.07813644114362"><ele>20.0</ele><time>2026-04-11T14:16:38.999Z</time></trkpt><trkpt lat="36.79798202878549" lon="15.078100467310644"><ele>20.0</ele><time>2026-04-11T14:16:39.999Z</time></trkpt><trkpt lat="36.79792470319181" lon="15.078067202077186"><ele>20.0</ele><time>2026-04-11T14:16:40.999Z</time></trkpt><trkpt lat="36.79786720653715" lon="15.078033837504329"><ele>20.0</ele><time>2026-04-11T14:16:41.999Z</time></trkpt><trkpt lat="36.797806084632455" lon="15.077998369325744"><ele>20.0</ele><time>2026-04-11T14:16:42.999Z</time></trkpt><trkpt lat="36.79774558088737" lon="15.0779632598194"><ele>20.0</ele><time>2026-04-11T14:16:43.999Z</time></trkpt><trkpt lat="36.797681916394424" lon="15.077926239245254"><ele>20.0</ele><time>2026-04-11T14:16:44.999Z</time></trkpt><trkpt lat="36.79761141688625" lon="15.077885215730586"><ele>20.0</ele><time>2026-04-11T14:16:45.999Z</time></trkpt><trkpt lat="36.79754226691905" lon="15.077844977494179"><ele>20.142857142857142</ele><time>2026-04-11T14:16:46.999Z</time></trkpt><trkpt lat="36.797469932868275" lon="15.077802886470172"><ele>20.285714285714285</ele><time>2026-04-11T14:16:47.999Z</time></trkpt><trkpt lat="36.79740451769449" lon="15.077764821509508"><ele>20.42857142857143</ele><time>2026-04-11T14:16:48.999Z</time></trkpt><trkpt lat="36.79734038988914" lon="15.077727505680777"><ele>20.57142857142857</ele><time>2026-04-11T14:16:49.999Z</time></trkpt><trkpt lat="36.79727381697417" lon="15.07768876702827"><ele>20.714285714285715</ele><time>2026-04-11T14:16:50.999Z</time></trkpt><trkpt lat="36.79720578896402" lon="15.077649181673047"><ele>20.857142857142858</ele><time>2026-04-11T14:16:51.999Z</time></trkpt><trkpt lat="36.79714267459916" lon="15.077612455522647"><ele>21.0</ele><time>2026-04-11T14:16:52.999Z</time></trkpt><trkpt lat="36.79707956053009" lon="15.077576020547342"><ele>21.0</ele><time>2026-04-11T14:16:53.999Z</time></trkpt><trkpt lat="36.797014138818525" lon="15.07753850087115"><ele>21.0</ele><time>2026-04-11T14:16:54.999Z</time></trkpt><trkpt lat="36.796951853583465" lon="15.077502780049896"><ele>21.0</ele><time>2026-04-11T14:16:55.999Z</time></trkpt><trkpt lat="36.79688642279078" lon="15.077465255146615"><ele>21.0</ele><time>2026-04-11T14:16:56.999Z</time></trkpt><trkpt lat="36.79682596279739" lon="15.07743058105272"><ele>21.0</ele><time>2026-04-11T14:16:57.999Z</time></trkpt><trkpt lat="36.79676308744923" lon="15.077394521761201"><ele>21.0</ele><time>2026-04-11T14:16:58.999Z</time></trkpt><trkpt lat="36.79670130682745" lon="15.077359090302647"><ele>21.0</ele><time>2026-04-11T14:16:59.999Z</time></trkpt><trkpt lat="36.796638766698486" lon="15.077323216502736"><ele>21.142857142857142</ele><time>2026-04-11T14:17:00.999Z</time></trkpt><trkpt lat="36.79657261716355" lon="15.077284607959612"><ele>21.285714285714285</ele><time>2026-04-11T14:17:01.999Z</time></trkpt><trkpt lat="36.796504728238716" lon="15.077244984265555"><ele>21.42857142857143</ele><time>2026-04-11T14:17:02.999Z</time></trkpt><trkpt lat="36.79644563188117" lon="15.077210492475766"><ele>21.57142857142857</ele><time>2026-04-11T14:17:03.999Z</time></trkpt><trkpt lat="36.79638705227918" lon="15.077176302138293"><ele>21.714285714285715</ele><time>2026-04-11T14:17:04.999Z</time></trkpt><trkpt lat="36.796324265138196" lon="15.077139656142455"><ele>21.857142857142858</ele><time>2026-04-11T14:17:05.999Z</time></trkpt><trkpt lat="36.796261358493624" lon="15.077102940360025"><ele>22.0</ele><time>2026-04-11T14:17:06.999Z</time></trkpt><trkpt lat="36.79619686187197" lon="15.077065296618304"><ele>22.0</ele><time>2026-04-11T14:17:07.999Z</time></trkpt><trkpt lat="36.79613219264927" lon="15.077027552132005"><ele>22.0</ele><time>2026-04-11T14:17:08.999Z</time></trkpt><trkpt lat="36.79607058539381" lon="15.076991761547657"><ele>22.0</ele><time>2026-04-11T14:17:09.999Z</time></trkpt><trkpt lat="36.79596161376868" lon="15.076928906880575"><ele>22.0</ele><time>2026-04-11T14:17:11.999Z</time></trkpt><trkpt lat="36.79585026174577" lon="15.076864678037586"><ele>22.0</ele><time>2026-04-11T14:17:13.999Z</time></trkpt><trkpt lat="36.79578697599551" lon="15.076828174245522"><ele>22.0</ele><time>2026-04-11T14:17:14.999Z</time></trkpt><trkpt lat="36.795729341924556" lon="15.076794930588683"><ele>22.0</ele><time>2026-04-11T14:17:15.999Z</time></trkpt><trkpt lat="36.795663464672295" lon="15.076756694697469"><ele>22.0</ele><time>2026-04-11T14:17:16.999Z</time></trkpt><trkpt lat="36.795605655117676" lon="15.076723204231968"><ele>22.0</ele><time>2026-04-11T14:17:18Z</time></trkpt><trkpt lat="36.795501949091175" lon="15.076663124801216"><ele>22.0</ele><time>2026-04-11T14:17:20Z</time></trkpt><trkpt lat="36.795396235247175" lon="15.076601882231335"><ele>22.0</ele><time>2026-04-11T14:17:22Z</time></trkpt><trkpt lat="36.79530357559739" lon="15.076548202304323"><ele>22.200000000000003</ele><time>2026-04-11T14:17:24Z</time></trkpt><trkpt lat="36.795201262693084" lon="15.076488632265134"><ele>22.4</ele><time>2026-04-11T14:17:26Z</time></trkpt><trkpt lat="36.79511236110083" lon="15.076436887960027"><ele>22.6</ele><time>2026-04-11T14:17:28Z</time></trkpt><trkpt lat="36.79504363703798" lon="15.07639688782683"><ele>22.799999999999997</ele><time>2026-04-11T14:17:30Z</time></trkpt><trkpt lat="36.794970258764955" lon="15.076354178720411"><ele>23.0</ele><time>2026-04-11T14:17:33Z</time></trkpt><trkpt lat="36.79489060826133" lon="15.07630781893999"><ele>23.4</ele><time>2026-04-11T14:24:21Z</time></trkpt><trkpt lat="36.79481003322755" lon="15.076260921043282"><ele>23.799999999999997</ele><time>2026-04-11T14:24:23Z</time></trkpt><trkpt lat="36.79472460246263" lon="15.076211196906645"><ele>24.2</ele><time>2026-04-11T14:24:25Z</time></trkpt><trkpt lat="36.794649675277675" lon="15.076167586284384"><ele>24.6</ele><time>2026-04-11T14:24:27Z</time></trkpt><trkpt lat="36.79456272784393" lon="15.076117216258485"><ele>25.0</ele><time>2026-04-11T14:24:29Z</time></trkpt><trkpt lat="36.794471982841266" lon="15.076064653626325"><ele>25.0</ele><time>2026-04-11T14:24:31Z</time></trkpt><trkpt lat="36.794370683259395" lon="15.076005977414727"><ele>25.0</ele><time>2026-04-11T14:24:33Z</time></trkpt><trkpt lat="36.79426624927766" lon="15.075945485654007"><ele>25.0</ele><time>2026-04-11T14:24:35Z</time></trkpt><trkpt lat="36.79415977396715" lon="15.075883811481473"><ele>25.0</ele><time>2026-04-11T14:24:37Z</time></trkpt><trkpt lat="36.79405066772231" lon="15.075820613385593"><ele>25.0</ele><time>2026-04-11T14:24:39Z</time></trkpt><trkpt lat="36.79396158301037" lon="15.075769012447605"><ele>25.0</ele><time>2026-04-11T14:24:41Z</time></trkpt><trkpt lat="36.793882019433056" lon="15.075722926475315"><ele>25.0</ele><time>2026-04-11T14:24:42.999Z</time></trkpt><trkpt lat="36.7937763768488" lon="15.075661734672943"><ele>25.0</ele><time>2026-04-11T14:24:44.999Z</time></trkpt><trkpt lat="36.79367744450994" lon="15.075604429628543"><ele>25.0</ele><time>2026-04-11T14:24:46.999Z</time></trkpt><trkpt lat="36.793578845340875" lon="15.07554731758884"><ele>25.2</ele><time>2026-04-11T14:24:48.999Z</time></trkpt><trkpt lat="36.793472319023046" lon="15.075485651806561"><ele>25.4</ele><time>2026-04-11T14:24:50.999Z</time></trkpt><trkpt lat="36.79335320579687" lon="15.075416717610402"><ele>25.6</ele><time>2026-04-11T14:24:52.999Z</time></trkpt><trkpt lat="36.79328463331158" lon="15.075377021448258"><ele>25.8</ele><time>2026-04-11T14:24:53.999Z</time></trkpt><trkpt lat="36.79322670968191" lon="15.075343900655003"><ele>26.0</ele><time>2026-04-11T14:24:54.999Z</time></trkpt><trkpt lat="36.793167112370895" lon="15.075309854238984"><ele>26.0</ele><time>2026-04-11T14:24:55.999Z</time></trkpt><trkpt lat="36.793078845182606" lon="15.075263158682954"><ele>26.0</ele><time>2026-04-11T14:24:57.999Z</time></trkpt><trkpt lat="36.79299246755298" lon="15.075221028142526"><ele>26.0</ele><time>2026-04-11T14:24:59.999Z</time></trkpt><trkpt lat="36.79290732934262" lon="15.075181023511151"><ele>26.0</ele><time>2026-04-11T14:25:01.999Z</time></trkpt><trkpt lat="36.79281315714299" lon="15.07514310526569"><ele>26.0</ele><time>2026-04-11T14:25:03.999Z</time></trkpt><trkpt lat="36.79268664197678" lon="15.075096071224097"><ele>25.666666666666664</ele><time>2026-04-11T14:25:05.999Z</time></trkpt><trkpt lat="36.7926100192804" lon="15.075069972112995"><ele>25.333333333333332</ele><time>2026-04-11T14:25:06.999Z</time></trkpt><trkpt lat="36.79253592685393" lon="15.075046244828464"><ele>25.0</ele><time>2026-04-11T14:25:07.999Z</time></trkpt><trkpt lat="36.79246209569524" lon="15.075024847597176"><ele>24.666666666666664</ele><time>2026-04-11T14:25:08.999Z</time></trkpt><trkpt lat="36.79232662572813" lon="15.07499046921898"><ele>24.333333333333332</ele><time>2026-04-11T14:25:10.999Z</time></trkpt><trkpt lat="36.79224883343287" lon="15.074972556452192"><ele>24.0</ele><time>2026-04-11T14:25:11.999Z</time></trkpt><trkpt lat="36.792179029108155" lon="15.074958673237532"><ele>24.0</ele><time>2026-04-11T14:25:12.999Z</time></trkpt><trkpt lat="36.79206334379172" lon="15.07494056314411"><ele>24.0</ele><time>2026-04-11T14:25:14.999Z</time></trkpt><trkpt lat="36.79193164804367" lon="15.074926329776249"><ele>24.0</ele><time>2026-04-11T14:25:16.999Z</time></trkpt><trkpt lat="36.791860622266945" lon="15.074921088559295"><ele>24.0</ele><time>2026-04-11T14:25:17.999Z</time></trkpt><trkpt lat="36.79177685475385" lon="15.074917228932172"><ele>24.0</ele><time>2026-04-11T14:25:18.999Z</time></trkpt><trkpt lat="36.79170638718368" lon="15.074915715310004"><ele>23.833333333333332</ele><time>2026-04-11T14:25:19.999Z</time></trkpt><trkpt lat="36.79163298791374" lon="15.074915471662212"><ele>23.666666666666668</ele><time>2026-04-11T14:25:20.999Z</time></trkpt><trkpt lat="36.79155198627179" lon="15.074916659030865"><ele>23.5</ele><time>2026-04-11T14:25:21.999Z</time></trkpt><trkpt lat="36.79146474175198" lon="15.074920330574146"><ele>23.333333333333336</ele><time>2026-04-11T14:25:22.999Z</time></trkpt><trkpt lat="36.79139349217623" lon="15.074925293930315"><ele>23.166666666666668</ele><time>2026-04-11T14:25:23.999Z</time></trkpt><trkpt lat="36.79130754352014" lon="15.074932675432244"><ele>23.0</ele><time>2026-04-11T14:25:24.999Z</time></trkpt><trkpt lat="36.79121804075071" lon="15.074944415511512"><ele>23.0</ele><time>2026-04-11T14:25:25.999Z</time></trkpt><trkpt lat="36.79114031543218" lon="15.074956756392604"><ele>23.0</ele><time>2026-04-11T14:25:26.999Z</time></trkpt><trkpt lat="36.79105943475056" lon="15.074971806463184"><ele>23.0</ele><time>2026-04-11T14:25:27.999Z</time></trkpt><trkpt lat="36.790988371673215" lon="15.074985652153016"><ele>23.0</ele><time>2026-04-11T14:25:28.999Z</time></trkpt><trkpt lat="36.790922104675715" lon="15.074999863474932"><ele>23.0</ele><time>2026-04-11T14:25:29.999Z</time></trkpt><trkpt lat="36.79080355191682" lon="15.075030923157582"><ele>23.0</ele><time>2026-04-11T14:25:31.999Z</time></trkpt><trkpt lat="36.79073985781524" lon="15.075049997372856"><ele>22.333333333333336</ele><time>2026-04-11T14:25:32.999Z</time></trkpt><trkpt lat="36.79063270130913" lon="15.075083777824025"><ele>21.666666666666668</ele><time>2026-04-11T14:25:34.999Z</time></trkpt><trkpt lat="36.79057040084103" lon="15.075105117730374"><ele>21.0</ele><time>2026-04-11T14:25:35.999Z</time></trkpt><trkpt lat="36.79050272636629" lon="15.075129835165477"><ele>20.333333333333332</ele><time>2026-04-11T14:25:36.999Z</time></trkpt><trkpt lat="36.79043364660053" lon="15.075157122067234"><ele>19.666666666666664</ele><time>2026-04-11T14:25:37.999Z</time></trkpt><trkpt lat="36.790355801573014" lon="15.0751903286826"><ele>19.0</ele><time>2026-04-11T14:25:38.999Z</time></trkpt><trkpt lat="36.790292859500234" lon="15.075217821163632"><ele>19.0</ele><time>2026-04-11T14:25:39.999Z</time></trkpt><trkpt lat="36.7902244604218" lon="15.075250725909223"><ele>19.0</ele><time>2026-04-11T14:25:40.999Z</time></trkpt><trkpt lat="36.79015464089505" lon="15.075286533046235"><ele>19.0</ele><time>2026-04-11T14:25:42Z</time></trkpt><trkpt lat="36.79005226033705" lon="15.075344090282446"><ele>19.0</ele><time>2026-04-11T14:25:44Z</time></trkpt><trkpt lat="36.789982830683755" lon="15.0753857821853"><ele>19.0</ele><time>2026-04-11T14:25:45Z</time></trkpt><trkpt lat="36.78991427769348" lon="15.075427764874082"><ele>19.0</ele><time>2026-04-11T14:25:46Z</time></trkpt><trkpt lat="36.78984151098839" lon="15.075473912750404"><ele>19.142857142857142</ele><time>2026-04-11T14:25:47Z</time></trkpt><trkpt lat="36.789785050919285" lon="15.075512397385745"><ele>19.28571428571429</ele><time>2026-04-11T14:25:48Z</time></trkpt><trkpt lat="36.789715875484674" lon="15.075561107611424"><ele>19.42857142857143</ele><time>2026-04-11T14:25:49Z</time></trkpt><trkpt lat="36.78965652835359" lon="15.0756046556013"><ele>19.57142857142857</ele><time>2026-04-11T14:25:50Z</time></trkpt><trkpt lat="36.78959591462713" lon="15.075649133038937"><ele>19.714285714285715</ele><time>2026-04-11T14:25:51Z</time></trkpt><trkpt lat="36.78952704613228" lon="15.075701694695773"><ele>19.857142857142858</ele><time>2026-04-11T14:25:52Z</time></trkpt><trkpt lat="36.78946272467262" lon="15.075752074973375"><ele>20.0</ele><time>2026-04-11T14:25:53Z</time></trkpt><trkpt lat="36.78940680111423" lon="15.075795877526208"><ele>19.333333333333336</ele><time>2026-04-11T14:25:54Z</time></trkpt><trkpt lat="36.78934744451427" lon="15.075842369037266"><ele>18.666666666666668</ele><time>2026-04-11T14:25:55Z</time></trkpt><trkpt lat="36.78928348318" lon="15.075892467240749"><ele>18.0</ele><time>2026-04-11T14:25:56Z</time></trkpt><trkpt lat="36.789219835309325" lon="15.075942208196453"><ele>17.333333333333332</ele><time>2026-04-11T14:25:57Z</time></trkpt><trkpt lat="36.78915790450542" lon="15.075990542095738"><ele>16.666666666666664</ele><time>2026-04-11T14:25:58Z</time></trkpt><trkpt lat="36.789099518708554" lon="15.076036109285798"><ele>16.0</ele><time>2026-04-11T14:25:59Z</time></trkpt><trkpt lat="36.789001822529094" lon="15.076112356257388"><ele>15.999999999999998</ele><time>2026-04-11T14:26:01Z</time></trkpt><trkpt lat="36.78894442054453" lon="15.076157691543914"><ele>16.0</ele><time>2026-04-11T14:26:02Z</time></trkpt><trkpt lat="36.78888732372834" lon="15.076202786028308"><ele>16.0</ele><time>2026-04-11T14:26:03Z</time></trkpt><trkpt lat="36.78877651488757" lon="15.07629039410334"><ele>16.0</ele><time>2026-04-11T14:26:05Z</time></trkpt><trkpt lat="36.7887172634126" lon="15.076337283512592"><ele>15.999999999999998</ele><time>2026-04-11T14:26:06Z</time></trkpt><trkpt lat="36.788662545471034" lon="15.076380542313052"><ele>16.0</ele><time>2026-04-11T14:26:07Z</time></trkpt><trkpt lat="36.78860545130272" lon="15.076425430140018"><ele>15.999999999999998</ele><time>2026-04-11T14:26:08Z</time></trkpt><trkpt lat="36.788551779514954" lon="15.076467627264966"><ele>16.0</ele><time>2026-04-11T14:26:09Z</time></trkpt><trkpt lat="36.78849539327806" lon="15.076511958512576"><ele>16.0</ele><time>2026-04-11T14:26:10Z</time></trkpt><trkpt lat="36.788435287587106" lon="15.076559214021927"><ele>16.0</ele><time>2026-04-11T14:26:11Z</time></trkpt><trkpt lat="36.78838130748018" lon="15.076601653556812"><ele>15.999999999999998</ele><time>2026-04-11T14:26:12Z</time></trkpt><trkpt lat="36.788282566947295" lon="15.076679284050407"><ele>16.0</ele><time>2026-04-11T14:26:14Z</time></trkpt><trkpt lat="36.78816680360811" lon="15.076770330097316"><ele>16.142857142857142</ele><time>2026-04-11T14:26:16Z</time></trkpt><trkpt lat="36.788106612843066" lon="15.076817700705735"><ele>16.285714285714285</ele><time>2026-04-11T14:26:17Z</time></trkpt><trkpt lat="36.78804086578747" lon="15.076869444148326"><ele>16.428571428571427</ele><time>2026-04-11T14:26:18Z</time></trkpt><trkpt lat="36.78798219747344" lon="15.07691561658123"><ele>16.57142857142857</ele><time>2026-04-11T14:26:19Z</time></trkpt><trkpt lat="36.78792584830693" lon="15.076959963826539"><ele>16.714285714285715</ele><time>2026-04-11T14:26:20Z</time></trkpt><trkpt lat="36.78787182369771" lon="15.07700248162214"><ele>16.857142857142854</ele><time>2026-04-11T14:26:21Z</time></trkpt><trkpt lat="36.78781244050113" lon="15.077049216661743"><ele>17.0</ele><time>2026-04-11T14:26:22Z</time></trkpt><trkpt lat="36.78775582279607" lon="15.077093775246185"><ele>18.2</ele><time>2026-04-11T14:26:23Z</time></trkpt><trkpt lat="36.78765268070033" lon="15.077174948897564"><ele>19.4</ele><time>2026-04-11T14:26:25Z</time></trkpt><trkpt lat="36.78759578225754" lon="15.07721972841755"><ele>20.599999999999998</ele><time>2026-04-11T14:26:26Z</time></trkpt><trkpt lat="36.78754230102342" lon="15.077261818577204"><ele>21.799999999999997</ele><time>2026-04-11T14:26:27Z</time></trkpt><trkpt lat="36.78744777347107" lon="15.077336037139796"><ele>23.0</ele><time>2026-04-11T14:26:29Z</time></trkpt><trkpt lat="36.78735605681333" lon="15.077408042156694"><ele>18.5</ele><time>2026-04-11T14:26:31Z</time></trkpt><trkpt lat="36.787294844169175" lon="15.077456099030334"><ele>14.0</ele><time>2026-04-11T14:26:34Z</time></trkpt><trkpt lat="36.78766045341537" lon="15.07773131161619"><ele>13.399999999999999</ele><time>2026-04-11T14:26:58.999Z</time></trkpt><trkpt lat="36.78775507866554" lon="15.077639584238879"><ele>12.799999999999999</ele><time>2026-04-11T14:27:00.999Z</time></trkpt><trkpt lat="36.78784434535035" lon="15.077557872519451"><ele>12.2</ele><time>2026-04-11T14:27:02.999Z</time></trkpt><trkpt lat="36.78792875897456" lon="15.07749178179867"><ele>11.600000000000001</ele><time>2026-04-11T14:27:04.999Z</time></trkpt><trkpt lat="36.78802679336724" lon="15.077439733679858"><ele>11.0</ele><time>2026-04-11T14:27:06.999Z</time></trkpt><trkpt lat="36.788095742535695" lon="15.077401055702696"><ele>12.200000000000001</ele><time>2026-04-11T14:27:08.999Z</time></trkpt><trkpt lat="36.788188411357275" lon="15.077342119568236"><ele>13.4</ele><time>2026-04-11T14:27:10.999Z</time></trkpt><trkpt lat="36.78826278244914" lon="15.07727798384728"><ele>14.6</ele><time>2026-04-11T14:27:12.999Z</time></trkpt><trkpt lat="36.788325104478" lon="15.077204810972058"><ele>15.8</ele><time>2026-04-11T14:27:14.999Z</time></trkpt><trkpt lat="36.78839908344789" lon="15.077174178882641"><ele>17.0</ele><time>2026-04-11T14:27:16.999Z</time></trkpt><trkpt lat="36.7884972890151" lon="15.077194498221145"><ele>16.333333333333336</ele><time>2026-04-11T14:27:18.999Z</time></trkpt><trkpt lat="36.788561757360355" lon="15.07722661065616"><ele>15.666666666666668</ele><time>2026-04-11T14:27:19.999Z</time></trkpt><trkpt lat="36.78867930288889" lon="15.077257085622524"><ele>15.0</ele><time>2026-04-11T14:27:21.999Z</time></trkpt><trkpt lat="36.78875237404815" lon="15.077279072811566"><ele>14.333333333333332</ele><time>2026-04-11T14:27:22.999Z</time></trkpt><trkpt lat="36.788822971519" lon="15.077298761687457"><ele>13.666666666666666</ele><time>2026-04-11T14:27:23.999Z</time></trkpt><trkpt lat="36.78889351082769" lon="15.07731476299639"><ele>13.0</ele><time>2026-04-11T14:27:24.999Z</time></trkpt><trkpt lat="36.788968842642575" lon="15.077336157823046"><ele>12.999999999999998</ele><time>2026-04-11T14:27:25.999Z</time></trkpt><trkpt lat="36.78903638315727" lon="15.077346259661812"><ele>13.0</ele><time>2026-04-11T14:27:26.999Z</time></trkpt><trkpt lat="36.78911238725564" lon="15.077374410149105"><ele>13.0</ele><time>2026-04-11T14:27:27.999Z</time></trkpt><trkpt lat="36.78918786199308" lon="15.077388956757417"><ele>13.0</ele><time>2026-04-11T14:27:28.999Z</time></trkpt><trkpt lat="36.789289672951035" lon="15.07741344611425"><ele>12.999999999999998</ele><time>2026-04-11T14:27:30.999Z</time></trkpt><trkpt lat="36.78936730307779" lon="15.077420945291076"><ele>13.0</ele><time>2026-04-11T14:27:32.999Z</time></trkpt><trkpt lat="36.789412209036875" lon="15.077362600661862"><ele>13.0</ele><time>2026-04-11T14:27:34.999Z</time></trkpt><trkpt lat="36.78944351851753" lon="15.077215375318657"><ele>13.0</ele><time>2026-04-11T14:27:36.999Z</time></trkpt><trkpt lat="36.78947819237728" lon="15.07710703535701"><ele>13.0</ele><time>2026-04-11T14:27:37.999Z</time></trkpt><trkpt lat="36.7895115311053" lon="15.076992034397383"><ele>13.0</ele><time>2026-04-11T14:27:38.999Z</time></trkpt><trkpt lat="36.789540951577514" lon="15.076888004243202"><ele>13.0</ele><time>2026-04-11T14:27:39.999Z</time></trkpt><trkpt lat="36.78956713064481" lon="15.076799803944086"><ele>13.0</ele><time>2026-04-11T14:27:40.999Z</time></trkpt><trkpt lat="36.78961862355623" lon="15.07667147560026"><ele>13.0</ele><time>2026-04-11T14:27:42.999Z</time></trkpt><trkpt lat="36.78965824177967" lon="15.07654553414457"><ele>13.0</ele><time>2026-04-11T14:27:44.999Z</time></trkpt><trkpt lat="36.78969030316929" lon="15.076451884906703"><ele>13.0</ele><time>2026-04-11T14:27:46.999Z</time></trkpt><trkpt lat="36.78962665085921" lon="15.076412945049158"><ele>13.0</ele><time>2026-04-11T14:27:52Z</time></trkpt><trkpt lat="36.78956508442712" lon="15.076534561470627"><ele>13.4</ele><time>2026-04-11T14:27:54Z</time></trkpt><trkpt lat="36.78946281033809" lon="15.076531654859627"><ele>13.8</ele><time>2026-04-11T14:27:56Z</time></trkpt><trkpt lat="36.78939613483856" lon="15.076503129514796"><ele>14.2</ele><time>2026-04-11T14:27:57Z</time></trkpt><trkpt lat="36.78929859720486" lon="15.076448291607859"><ele>14.6</ele><time>2026-04-11T14:27:59Z</time></trkpt><trkpt lat="36.7892089961622" lon="15.07650469026929"><ele>15.0</ele><time>2026-04-11T14:28:01Z</time></trkpt><trkpt lat="36.789153632867084" lon="15.076560252930072"><ele>15.166666666666666</ele><time>2026-04-11T14:28:02Z</time></trkpt><trkpt lat="36.78909992044711" lon="15.07660987734933"><ele>15.333333333333332</ele><time>2026-04-11T14:28:03Z</time></trkpt><trkpt lat="36.789011170509376" lon="15.076665753387237"><ele>15.5</ele><time>2026-04-11T14:28:05Z</time></trkpt><trkpt lat="36.78894390905631" lon="15.076645790023585"><ele>15.666666666666666</ele><time>2026-04-11T14:28:07Z</time></trkpt><trkpt lat="36.78888717892297" lon="15.076564864822497"><ele>15.833333333333332</ele><time>2026-04-11T14:28:09Z</time></trkpt><trkpt lat="36.78885022555891" lon="15.076497747407235"><ele>16.0</ele><time>2026-04-11T14:28:10Z</time></trkpt><trkpt lat="36.78880694838055" lon="15.076380246634459"><ele>16.0</ele><time>2026-04-11T14:28:11Z</time></trkpt><trkpt lat="36.788768227914964" lon="15.07631018760524"><ele>16.0</ele><time>2026-04-11T14:28:12Z</time></trkpt><trkpt lat="36.788745615841215" lon="15.076195957771066"><ele>16.0</ele><time>2026-04-11T14:28:14Z</time></trkpt><trkpt lat="36.78878258043259" lon="15.076016782901016"><ele>16.0</ele><time>2026-04-11T14:28:16Z</time></trkpt><trkpt lat="36.788807002744655" lon="15.075899527025808"><ele>16.0</ele><time>2026-04-11T14:28:17Z</time></trkpt><trkpt lat="36.788829435518736" lon="15.075818773956328"><ele>16.2</ele><time>2026-04-11T14:28:18Z</time></trkpt><trkpt lat="36.78883462291195" lon="15.075689154712997"><ele>16.400000000000002</ele><time>2026-04-11T14:28:20Z</time></trkpt><trkpt lat="36.788837486256924" lon="15.075595532401868"><ele>16.6</ele><time>2026-04-11T14:28:21Z</time></trkpt><trkpt lat="36.78882721089015" lon="15.075514312691343"><ele>16.8</ele><time>2026-04-11T14:28:22Z</time></trkpt><trkpt lat="36.78878100706752" lon="15.075394463601794"><ele>17.0</ele><time>2026-04-11T14:28:24Z</time></trkpt><trkpt lat="36.78869254096703" lon="15.075303236715044"><ele>17.0</ele><time>2026-04-11T14:28:26Z</time></trkpt><trkpt lat="36.78863023027584" lon="15.075241063961577"><ele>17.0</ele><time>2026-04-11T14:28:27Z</time></trkpt><trkpt lat="36.788538052665196" lon="15.075169892427926"><ele>17.0</ele><time>2026-04-11T14:28:29Z</time></trkpt><trkpt lat="36.788449576954385" lon="15.075126760918637"><ele>17.0</ele><time>2026-04-11T14:28:31Z</time></trkpt><trkpt lat="36.78831760910693" lon="15.075071215445966"><ele>17.0</ele><time>2026-04-11T14:28:33Z</time></trkpt><trkpt lat="36.78823876006262" lon="15.075050392347842"><ele>18.0</ele><time>2026-04-11T14:28:34Z</time></trkpt><trkpt lat="36.78817302209037" lon="15.075040008419272"><ele>19.0</ele><time>2026-04-11T14:28:35Z</time></trkpt><trkpt lat="36.788076425118604" lon="15.075054508966444"><ele>20.0</ele><time>2026-04-11T14:28:37Z</time></trkpt><trkpt lat="36.78799034656083" lon="15.075169416926453"><ele>21.0</ele><time>2026-04-11T14:28:39Z</time></trkpt><trkpt lat="36.78792460411311" lon="15.0752197134331"><ele>22.0</ele><time>2026-04-11T14:28:40Z</time></trkpt><trkpt lat="36.7878615153383" lon="15.075229679324032"><ele>23.0</ele><time>2026-04-11T14:28:41Z</time></trkpt><trkpt lat="36.787792726439555" lon="15.075304178007402"><ele>23.0</ele><time>2026-04-11T14:28:43Z</time></trkpt><trkpt lat="36.78776454311754" lon="15.075399294468399"><ele>23.0</ele><time>2026-04-11T14:28:44Z</time></trkpt><trkpt lat="36.78772641700137" lon="15.075517999570591"><ele>23.0</ele><time>2026-04-11T14:28:45Z</time></trkpt><trkpt lat="36.78769368418725" lon="15.075632518549837"><ele>23.0</ele><time>2026-04-11T14:28:46Z</time></trkpt><trkpt lat="36.787671739378546" lon="15.075734404881098"><ele>23.0</ele><time>2026-04-11T14:28:47Z</time></trkpt><trkpt lat="36.78767246324513" lon="15.075837239893142"><ele>23.0</ele><time>2026-04-11T14:28:49Z</time></trkpt><trkpt lat="36.78775649762863" lon="15.075905119230933"><ele>22.833333333333336</ele><time>2026-04-11T14:28:50.999Z</time></trkpt><trkpt lat="36.78785055609872" lon="15.07596228780772"><ele>22.666666666666668</ele><time>2026-04-11T14:28:51.999Z</time></trkpt><trkpt lat="36.787928172583" lon="15.076002115210825"><ele>22.5</ele><time>2026-04-11T14:28:52.999Z</time></trkpt><trkpt lat="36.78799249034432" lon="15.076029431628383"><ele>22.333333333333332</ele><time>2026-04-11T14:28:53.999Z</time></trkpt><trkpt lat="36.78805110129523" lon="15.076064584101479"><ele>22.166666666666664</ele><time>2026-04-11T14:28:54.999Z</time></trkpt><trkpt lat="36.788113641469685" lon="15.07609556708316"><ele>22.0</ele><time>2026-04-11T14:28:55.999Z</time></trkpt><trkpt lat="36.7881972909796" lon="15.076190773654092"><ele>22.0</ele><time>2026-04-11T14:28:57.999Z</time></trkpt><trkpt lat="36.788164471146096" lon="15.076323664969962"><ele>22.0</ele><time>2026-04-11T14:28:59.999Z</time></trkpt><trkpt lat="36.78814581747634" lon="15.076407207049074"><ele>22.0</ele><time>2026-04-11T14:29:06.999Z</time></trkpt><trkpt lat="36.78813134630646" lon="15.076486089469132"><ele>22.0</ele><time>2026-04-11T14:29:36.999Z</time></trkpt><trkpt lat="36.78812754426095" lon="15.076602488608163"><ele>22.0</ele><time>2026-04-11T14:29:42.999Z</time></trkpt><trkpt lat="36.788170043594334" lon="15.076667390096574"><ele>22.0</ele><time>2026-04-11T14:29:50.999Z</time></trkpt><trkpt lat="36.78807231760039" lon="15.076884026582936"><ele>22.333333333333332</ele><time>2026-04-11T14:39:18Z</time></trkpt><trkpt lat="36.78794268867307" lon="15.076975106905458"><ele>22.666666666666668</ele><time>2026-04-11T14:39:19Z</time></trkpt><trkpt lat="36.787784620231875" lon="15.077084518998518"><ele>23.0</ele><time>2026-04-11T14:39:20Z</time></trkpt><trkpt lat="36.78762568585549" lon="15.07721271666434"><ele>23.0</ele><time>2026-04-11T14:39:21Z</time></trkpt><trkpt lat="36.78744374614436" lon="15.07733919977022"><ele>23.0</ele><time>2026-04-11T14:39:22Z</time></trkpt><trkpt lat="36.78727043724863" lon="15.077495140576735"><ele>23.0</ele><time>2026-04-11T14:39:23Z</time></trkpt><trkpt lat="36.787085197494385" lon="15.077632304178133"><ele>21.666666666666668</ele><time>2026-04-11T14:39:24Z</time></trkpt><trkpt lat="36.78691111122649" lon="15.077768766835558"><ele>20.333333333333332</ele><time>2026-04-11T14:39:25Z</time></trkpt><trkpt lat="36.786747831009635" lon="15.077900737594302"><ele>19.0</ele><time>2026-04-11T14:39:26Z</time></trkpt><trkpt lat="36.78658605716558" lon="15.078032410025006"><ele>19.0</ele><time>2026-04-11T14:39:27Z</time></trkpt><trkpt lat="36.78642299511293" lon="15.078160202088153"><ele>19.0</ele><time>2026-04-11T14:39:28Z</time></trkpt><trkpt lat="36.78626442617206" lon="15.078288141174644"><ele>19.0</ele><time>2026-04-11T14:39:29Z</time></trkpt><trkpt lat="36.78609990545052" lon="15.078394223829848"><ele>16.666666666666664</ele><time>2026-04-11T14:39:29.999Z</time></trkpt><trkpt lat="36.785942966865555" lon="15.078517433354525"><ele>14.333333333333332</ele><time>2026-04-11T14:39:30.999Z</time></trkpt><trkpt lat="36.78578512644632" lon="15.078638889921097"><ele>12.0</ele><time>2026-04-11T14:39:31.999Z</time></trkpt><trkpt lat="36.785622431015234" lon="15.078758571731354"><ele>12.0</ele><time>2026-04-11T14:39:32.999Z</time></trkpt><trkpt lat="36.785457204004445" lon="15.07887834744064"><ele>12.0</ele><time>2026-04-11T14:39:33.999Z</time></trkpt><trkpt lat="36.78528557393196" lon="15.078998583720164"><ele>12.0</ele><time>2026-04-11T14:39:34.999Z</time></trkpt><trkpt lat="36.78511184394484" lon="15.079129178262702"><ele>10.666666666666666</ele><time>2026-04-11T14:39:35.999Z</time></trkpt><trkpt lat="36.784921855275634" lon="15.079240252548374"><ele>9.333333333333332</ele><time>2026-04-11T14:39:36.999Z</time></trkpt><trkpt lat="36.784722005949526" lon="15.079328476894153"><ele>8.0</ele><time>2026-04-11T14:39:37.999Z</time></trkpt><trkpt lat="36.78452648360971" lon="15.079449718883197"><ele>7.5</ele><time>2026-04-11T14:39:38.999Z</time></trkpt><trkpt lat="36.78431956911479" lon="15.079544536793607"><ele>7.0</ele><time>2026-04-11T14:39:39.999Z</time></trkpt><trkpt lat="36.78409905855072" lon="15.079634731299528"><ele>7.0</ele><time>2026-04-11T14:39:40.999Z</time></trkpt><trkpt lat="36.7838780620215" lon="15.079715652866495"><ele>7.0</ele><time>2026-04-11T14:39:41.999Z</time></trkpt><trkpt lat="36.78365759513657" lon="15.079789026517492"><ele>8.5</ele><time>2026-04-11T14:39:42.999Z</time></trkpt><trkpt lat="36.78343717441463" lon="15.07986081111054"><ele>10.0</ele><time>2026-04-11T14:39:43.999Z</time></trkpt><trkpt lat="36.783214637526484" lon="15.07991696732248"><ele>9.0</ele><time>2026-04-11T14:39:44.999Z</time></trkpt><trkpt lat="36.78298846146488" lon="15.079944354987813"><ele>8.0</ele><time>2026-04-11T14:39:45.999Z</time></trkpt><trkpt lat="36.78276702166555" lon="15.079984010306857"><ele>8.0</ele><time>2026-04-11T14:39:46.999Z</time></trkpt><trkpt lat="36.78254412325349" lon="15.080016086492732"><ele>8.0</ele><time>2026-04-11T14:39:47.999Z</time></trkpt><trkpt lat="36.782322108197214" lon="15.080038711242645"><ele>8.0</ele><time>2026-04-11T14:39:48.999Z</time></trkpt><trkpt lat="36.782100711632474" lon="15.080052952987101"><ele>8.0</ele><time>2026-04-11T14:39:49.999Z</time></trkpt><trkpt lat="36.78188006087845" lon="15.080077168639267"><ele>8.0</ele><time>2026-04-11T14:39:50.999Z</time></trkpt><trkpt lat="36.78166023265983" lon="15.080078600269733"><ele>8.0</ele><time>2026-04-11T14:39:51.999Z</time></trkpt><trkpt lat="36.78145130242108" lon="15.080050203290755"><ele>8.0</ele><time>2026-04-11T14:39:52.999Z</time></trkpt><trkpt lat="36.78124300428408" lon="15.080034671802398"><ele>8.0</ele><time>2026-04-11T14:39:53.999Z</time></trkpt><trkpt lat="36.78103954411657" lon="15.080011569110736"><ele>8.0</ele><time>2026-04-11T14:39:54.999Z</time></trkpt><trkpt lat="36.780835771713186" lon="15.079982176576538"><ele>8.0</ele><time>2026-04-11T14:39:55.999Z</time></trkpt><trkpt lat="36.78063908375539" lon="15.079947310944329"><ele>8.0</ele><time>2026-04-11T14:39:56.999Z</time></trkpt><trkpt lat="36.78044168528681" lon="15.07990738981225"><ele>8.0</ele><time>2026-04-11T14:39:57.999Z</time></trkpt><trkpt lat="36.780240346226414" lon="15.079866549544619"><ele>9.666666666666666</ele><time>2026-04-11T14:39:58.999Z</time></trkpt><trkpt lat="36.78003601938913" lon="15.079823110664796"><ele>11.333333333333332</ele><time>2026-04-11T14:39:59.999Z</time></trkpt><trkpt lat="36.7798276384908" lon="15.079797705444305"><ele>13.0</ele><time>2026-04-11T14:40:00.999Z</time></trkpt><trkpt lat="36.77962180688216" lon="15.079750820778612"><ele>13.0</ele><time>2026-04-11T14:40:01.999Z</time></trkpt><trkpt lat="36.7794151332282" lon="15.079711130945519"><ele>13.0</ele><time>2026-04-11T14:40:02.999Z</time></trkpt><trkpt lat="36.779209566088625" lon="15.079649029268245"><ele>13.0</ele><time>2026-04-11T14:40:03.999Z</time></trkpt><trkpt lat="36.77900038759163" lon="15.079603351695937"><ele>13.333333333333332</ele><time>2026-04-11T14:40:04.999Z</time></trkpt><trkpt lat="36.77879052307534" lon="15.079558201872162"><ele>13.666666666666668</ele><time>2026-04-11T14:40:05.999Z</time></trkpt><trkpt lat="36.77857819359316" lon="15.07952885582187"><ele>14.0</ele><time>2026-04-11T14:40:06.999Z</time></trkpt><trkpt lat="36.778373847205145" lon="15.079468815070145"><ele>14.0</ele><time>2026-04-11T14:40:07.999Z</time></trkpt><trkpt lat="36.77817031718705" lon="15.079425816604365"><ele>14.0</ele><time>2026-04-11T14:40:08.999Z</time></trkpt><trkpt lat="36.77796081365668" lon="15.079380063432684"><ele>14.0</ele><time>2026-04-11T14:40:09.999Z</time></trkpt><trkpt lat="36.77774803485056" lon="15.07935359368843"><ele>14.333333333333334</ele><time>2026-04-11T14:40:10.999Z</time></trkpt><trkpt lat="36.77753619805752" lon="15.079299878540452"><ele>14.666666666666668</ele><time>2026-04-11T14:40:11.999Z</time></trkpt><trkpt lat="36.7773225170623" lon="15.079248006727653"><ele>15.0</ele><time>2026-04-11T14:40:12.999Z</time></trkpt><trkpt lat="36.77710675772802" lon="15.07919555380854"><ele>15.0</ele><time>2026-04-11T14:40:13.999Z</time></trkpt><trkpt lat="36.77689104679897" lon="15.079139440974952"><ele>15.0</ele><time>2026-04-11T14:40:14.999Z</time></trkpt><trkpt lat="36.77667632857791" lon="15.079080022382776"><ele>15.0</ele><time>2026-04-11T14:40:15.999Z</time></trkpt><trkpt lat="36.77646270829834" lon="15.0790189436894"><ele>15.666666666666668</ele><time>2026-04-11T14:40:16.999Z</time></trkpt><trkpt lat="36.77625742675908" lon="15.07893106348699"><ele>16.333333333333336</ele><time>2026-04-11T14:40:17.999Z</time></trkpt><trkpt lat="36.776048892164404" lon="15.07885811304623"><ele>17.0</ele><time>2026-04-11T14:40:18.999Z</time></trkpt><trkpt lat="36.77583855100602" lon="15.078797016646895"><ele>17.0</ele><time>2026-04-11T14:40:19.999Z</time></trkpt><trkpt lat="36.775633124749035" lon="15.078719691104656"><ele>17.0</ele><time>2026-04-11T14:40:20.999Z</time></trkpt><trkpt lat="36.77543700621357" lon="15.078618740733116"><ele>17.0</ele><time>2026-04-11T14:40:21.999Z</time></trkpt><trkpt lat="36.77523782289338" lon="15.0785371034503"><ele>16.0</ele><time>2026-04-11T14:40:22.999Z</time></trkpt><trkpt lat="36.77503909910386" lon="15.078451922562362"><ele>15.0</ele><time>2026-04-11T14:40:24Z</time></trkpt><trkpt lat="36.77483382067029" lon="15.078360259279055"><ele>14.0</ele><time>2026-04-11T14:40:25Z</time></trkpt><trkpt lat="36.77461927644492" lon="15.078284984016225"><ele>13.0</ele><time>2026-04-11T14:40:26Z</time></trkpt><trkpt lat="36.77440894652866" lon="15.078187537862213"><ele>12.0</ele><time>2026-04-11T14:40:27Z</time></trkpt><trkpt lat="36.774199900660506" lon="15.078090515584037"><ele>11.0</ele><time>2026-04-11T14:40:28Z</time></trkpt><trkpt lat="36.77398774807181" lon="15.07799233079849"><ele>10.0</ele><time>2026-04-11T14:40:29Z</time></trkpt><trkpt lat="36.77377625708921" lon="15.077899199609972"><ele>9.0</ele><time>2026-04-11T14:40:30Z</time></trkpt><trkpt lat="36.77356274594816" lon="15.077808293244603"><ele>10.0</ele><time>2026-04-11T14:40:31Z</time></trkpt><trkpt lat="36.77334198456609" lon="15.077711424167527"><ele>11.0</ele><time>2026-04-11T14:40:32Z</time></trkpt><trkpt lat="36.77312878492542" lon="15.077610618303904"><ele>11.0</ele><time>2026-04-11T14:40:33Z</time></trkpt><trkpt lat="36.772919979265936" lon="15.077515890623333"><ele>11.0</ele><time>2026-04-11T14:40:34Z</time></trkpt><trkpt lat="36.77270210050903" lon="15.077423481664423"><ele>10.0</ele><time>2026-04-11T14:40:35Z</time></trkpt><trkpt lat="36.77248449741036" lon="15.077334159970896"><ele>9.0</ele><time>2026-04-11T14:40:36Z</time></trkpt><trkpt lat="36.77225839946422" lon="15.07725730799927"><ele>9.0</ele><time>2026-04-11T14:40:37Z</time></trkpt><trkpt lat="36.772017411583406" lon="15.07719308768214"><ele>9.0</ele><time>2026-04-11T14:40:38Z</time></trkpt><trkpt lat="36.77177434280625" lon="15.077142153452089"><ele>8.5</ele><time>2026-04-11T14:40:39Z</time></trkpt><trkpt lat="36.771535766427" lon="15.07709885248202"><ele>8.0</ele><time>2026-04-11T14:40:40Z</time></trkpt><trkpt lat="36.77130817916647" lon="15.076998963552827"><ele>8.0</ele><time>2026-04-11T14:40:41Z</time></trkpt><trkpt lat="36.77107321633003" lon="15.076986558674685"><ele>8.0</ele><time>2026-04-11T14:40:42Z</time></trkpt><trkpt lat="36.77083314259352" lon="15.077001966246272"><ele>7.0</ele><time>2026-04-11T14:40:43Z</time></trkpt><trkpt lat="36.770593791016815" lon="15.077021013261255"><ele>6.0</ele><time>2026-04-11T14:40:44Z</time></trkpt><trkpt lat="36.770355809411" lon="15.077058650646029"><ele>5.5</ele><time>2026-04-11T14:40:45Z</time></trkpt><trkpt lat="36.77010641142658" lon="15.077129043632738"><ele>5.0</ele><time>2026-04-11T14:40:46Z</time></trkpt><trkpt lat="36.76985262537076" lon="15.077205748220553"><ele>5.0</ele><time>2026-04-11T14:40:47Z</time></trkpt><trkpt lat="36.76959868094484" lon="15.077300399257524"><ele>5.0</ele><time>2026-04-11T14:40:48Z</time></trkpt><trkpt lat="36.76934200660422" lon="15.07739226331704"><ele>5.5</ele><time>2026-04-11T14:40:49Z</time></trkpt><trkpt lat="36.76907838796889" lon="15.077503693131932"><ele>6.0</ele><time>2026-04-11T14:40:50Z</time></trkpt><trkpt lat="36.76882027392035" lon="15.07760215324925"><ele>6.0</ele><time>2026-04-11T14:40:51Z</time></trkpt><trkpt lat="36.768552828795784" lon="15.077706912673252"><ele>6.0</ele><time>2026-04-11T14:40:52Z</time></trkpt><trkpt lat="36.76827861953069" lon="15.077806140326196"><ele>6.0</ele><time>2026-04-11T14:40:53Z</time></trkpt><trkpt lat="36.76800850362604" lon="15.077908105500116"><ele>6.0</ele><time>2026-04-11T14:40:54Z</time></trkpt><trkpt lat="36.76773463445478" lon="15.07801020938887"><ele>5.0</ele><time>2026-04-11T14:40:55Z</time></trkpt><trkpt lat="36.76746281470274" lon="15.078109780838998"><ele>4.0</ele><time>2026-04-11T14:40:56Z</time></trkpt><trkpt lat="36.76718126411819" lon="15.078242832105788"><ele>4.5</ele><time>2026-04-11T14:40:57Z</time></trkpt><trkpt lat="36.76690836352357" lon="15.07834693090251"><ele>5.0</ele><time>2026-04-11T14:40:58Z</time></trkpt><trkpt lat="36.766632723164335" lon="15.078457074051258"><ele>6.0</ele><time>2026-04-11T14:40:59Z</time></trkpt><trkpt lat="36.76636466292907" lon="15.078568511850067"><ele>7.0</ele><time>2026-04-11T14:41:00Z</time></trkpt><trkpt lat="36.76611246752563" lon="15.078678724071073"><ele>7.0</ele><time>2026-04-11T14:41:01Z</time></trkpt><trkpt lat="36.76587468842951" lon="15.0787829770879"><ele>7.0</ele><time>2026-04-11T14:41:02Z</time></trkpt><trkpt lat="36.76564303531244" lon="15.078873407135132"><ele>7.0</ele><time>2026-04-11T14:41:03Z</time></trkpt><trkpt lat="36.765408690872256" lon="15.07896292440311"><ele>7.0</ele><time>2026-04-11T14:41:04Z</time></trkpt><trkpt lat="36.765172551085705" lon="15.079058531560074"><ele>9.5</ele><time>2026-04-11T14:41:05Z</time></trkpt><trkpt lat="36.76494155180024" lon="15.079146621506641"><ele>12.0</ele><time>2026-04-11T14:41:06Z</time></trkpt><trkpt lat="36.76471857923769" lon="15.079247925562324"><ele>12.0</ele><time>2026-04-11T14:41:07Z</time></trkpt><trkpt lat="36.764495358453765" lon="15.079333697565104"><ele>12.0</ele><time>2026-04-11T14:41:08Z</time></trkpt><trkpt lat="36.76426779120037" lon="15.079424079822887"><ele>12.5</ele><time>2026-04-11T14:41:09Z</time></trkpt><trkpt lat="36.764037870573475" lon="15.07951324290349"><ele>13.0</ele><time>2026-04-11T14:41:10Z</time></trkpt><trkpt lat="36.76380413584867" lon="15.079603842671757"><ele>13.0</ele><time>2026-04-11T14:41:11Z</time></trkpt><trkpt lat="36.76357264979215" lon="15.079696457796848"><ele>13.0</ele><time>2026-04-11T14:41:12Z</time></trkpt><trkpt lat="36.76333673897894" lon="15.079793032501922"><ele>15.0</ele><time>2026-04-11T14:41:13Z</time></trkpt><trkpt lat="36.76309245373719" lon="15.079887974029052"><ele>17.0</ele><time>2026-04-11T14:41:14Z</time></trkpt><trkpt lat="36.76285046494075" lon="15.079980617845132"><ele>20.0</ele><time>2026-04-11T14:41:15Z</time></trkpt><trkpt lat="36.76260336862963" lon="15.080053747814357"><ele>23.0</ele><time>2026-04-11T14:41:16Z</time></trkpt><trkpt lat="36.76235092658615" lon="15.080116858806681"><ele>23.0</ele><time>2026-04-11T14:41:17Z</time></trkpt><trkpt lat="36.76210099170101" lon="15.080188275036589"><ele>23.0</ele><time>2026-04-11T14:41:18Z</time></trkpt><trkpt lat="36.76184204584997" lon="15.080251901874355"><ele>22.0</ele><time>2026-04-11T14:41:19Z</time></trkpt><trkpt lat="36.76158781474667" lon="15.08030793693288"><ele>21.0</ele><time>2026-04-11T14:41:20Z</time></trkpt><trkpt lat="36.76132985340591" lon="15.080348486669914"><ele>21.0</ele><time>2026-04-11T14:41:21Z</time></trkpt><trkpt lat="36.76107156864422" lon="15.080367431166238"><ele>21.0</ele><time>2026-04-11T14:41:22Z</time></trkpt><trkpt lat="36.76082159160856" lon="15.080378169240845"><ele>18.5</ele><time>2026-04-11T14:41:23Z</time></trkpt><trkpt lat="36.760574205933224" lon="15.080394834730765"><ele>16.0</ele><time>2026-04-11T14:41:23.999Z</time></trkpt><trkpt lat="36.76032030956906" lon="15.080409094532184"><ele>15.5</ele><time>2026-04-11T14:41:24.999Z</time></trkpt><trkpt lat="36.76007139215348" lon="15.080415180014684"><ele>15.0</ele><time>2026-04-11T14:41:25.999Z</time></trkpt><trkpt lat="36.759815968197614" lon="15.080416554089075"><ele>15.0</ele><time>2026-04-11T14:41:26.999Z</time></trkpt><trkpt lat="36.75957158558053" lon="15.080417621739693"><ele>15.0</ele><time>2026-04-11T14:41:27.999Z</time></trkpt><trkpt lat="36.7593378429542" lon="15.080420281976739"><ele>13.0</ele><time>2026-04-11T14:41:28.999Z</time></trkpt><trkpt lat="36.75910896016017" lon="15.080423517435323"><ele>11.0</ele><time>2026-04-11T14:41:29.999Z</time></trkpt><trkpt lat="36.75887688027605" lon="15.080429126041572"><ele>11.0</ele><time>2026-04-11T14:41:30.999Z</time></trkpt><trkpt lat="36.75864698521624" lon="15.080435688307194"><ele>11.0</ele><time>2026-04-11T14:41:31.999Z</time></trkpt><trkpt lat="36.75841319627068" lon="15.080442730490947"><ele>12.0</ele><time>2026-04-11T14:41:32.999Z</time></trkpt><trkpt lat="36.75817283908735" lon="15.080450292387859"><ele>13.0</ele><time>2026-04-11T14:41:33.999Z</time></trkpt><trkpt lat="36.757930940653374" lon="15.080460349778429"><ele>15.5</ele><time>2026-04-11T14:41:34.999Z</time></trkpt><trkpt lat="36.75768997219749" lon="15.080440906481423"><ele>18.0</ele><time>2026-04-11T14:41:35.999Z</time></trkpt><trkpt lat="36.757446080773036" lon="15.080446581401413"><ele>18.0</ele><time>2026-04-11T14:41:36.999Z</time></trkpt><trkpt lat="36.75722497137086" lon="15.080471233376478"><ele>18.0</ele><time>2026-04-11T14:41:37.999Z</time></trkpt><trkpt lat="36.757019658391464" lon="15.08045653715053"><ele>18.0</ele><time>2026-04-11T14:41:38.999Z</time></trkpt><trkpt lat="36.756823780338024" lon="15.080461110347326"><ele>18.333333333333332</ele><time>2026-04-11T14:41:39.999Z</time></trkpt><trkpt lat="36.75664090101814" lon="15.080464924777568"><ele>18.666666666666664</ele><time>2026-04-11T14:41:40.999Z</time></trkpt><trkpt lat="36.756450266663805" lon="15.080489084006505"><ele>19.0</ele><time>2026-04-11T14:41:41.999Z</time></trkpt><trkpt lat="36.756256129145314" lon="15.080489305453908"><ele>19.0</ele><time>2026-04-11T14:41:42.999Z</time></trkpt><trkpt lat="36.756062904874646" lon="15.080495295212748"><ele>19.0</ele><time>2026-04-11T14:41:43.999Z</time></trkpt><trkpt lat="36.75588393543268" lon="15.08050156773597"><ele>19.0</ele><time>2026-04-11T14:41:44.999Z</time></trkpt><trkpt lat="36.75571442688778" lon="15.080505723059568"><ele>18.333333333333332</ele><time>2026-04-11T14:41:45.999Z</time></trkpt><trkpt lat="36.75553609038142" lon="15.080510719997879"><ele>17.666666666666668</ele><time>2026-04-11T14:41:46.999Z</time></trkpt><trkpt lat="36.75535727130404" lon="15.080514703326296"><ele>17.0</ele><time>2026-04-11T14:41:47.999Z</time></trkpt><trkpt lat="36.7551695549849" lon="15.080498864298018"><ele>18.666666666666668</ele><time>2026-04-11T14:41:48.999Z</time></trkpt><trkpt lat="36.75498210045303" lon="15.08050354205287"><ele>20.333333333333332</ele><time>2026-04-11T14:41:49.999Z</time></trkpt><trkpt lat="36.754787759992965" lon="15.080508427910559"><ele>22.0</ele><time>2026-04-11T14:41:50.999Z</time></trkpt><trkpt lat="36.754592139232145" lon="15.080513345956833"><ele>22.0</ele><time>2026-04-11T14:41:51.999Z</time></trkpt><trkpt lat="36.7543970492037" lon="15.080518289176725"><ele>22.0</ele><time>2026-04-11T14:41:52.999Z</time></trkpt><trkpt lat="36.754206538106814" lon="15.080523189591199"><ele>22.0</ele><time>2026-04-11T14:41:53.999Z</time></trkpt><trkpt lat="36.754019024348224" lon="15.08052792808916"><ele>22.333333333333332</ele><time>2026-04-11T14:41:54.999Z</time></trkpt><trkpt lat="36.75384300353606" lon="15.080532340343646"><ele>22.666666666666668</ele><time>2026-04-11T14:41:55.999Z</time></trkpt><trkpt lat="36.753672634593826" lon="15.080536816350326"><ele>23.0</ele><time>2026-04-11T14:41:56.999Z</time></trkpt><trkpt lat="36.753509812727835" lon="15.080541229849345"><ele>22.333333333333336</ele><time>2026-04-11T14:41:57.999Z</time></trkpt><trkpt lat="36.75336206218274" lon="15.080545236104719"><ele>21.666666666666668</ele><time>2026-04-11T14:41:58.999Z</time></trkpt><trkpt lat="36.753191898777814" lon="15.080549848606466"><ele>21.0</ele><time>2026-04-11T14:41:59.999Z</time></trkpt><trkpt lat="36.7530165304806" lon="15.080568889995117"><ele>21.0</ele><time>2026-04-11T14:42:00.999Z</time></trkpt><trkpt lat="36.75283429464412" lon="15.080574154016926"><ele>21.0</ele><time>2026-04-11T14:42:01.999Z</time></trkpt><trkpt lat="36.75264817120636" lon="15.080580729076457"><ele>21.0</ele><time>2026-04-11T14:42:02.999Z</time></trkpt><trkpt lat="36.75245352123183" lon="15.080587091920997"><ele>21.0</ele><time>2026-04-11T14:42:03.999Z</time></trkpt><trkpt lat="36.75225577860116" lon="15.080574845366067"><ele>21.0</ele><time>2026-04-11T14:42:04.999Z</time></trkpt><trkpt lat="36.75205442698859" lon="15.080580279736568"><ele>21.0</ele><time>2026-04-11T14:42:05.999Z</time></trkpt><trkpt lat="36.75186104249797" lon="15.080585499078257"><ele>20.333333333333332</ele><time>2026-04-11T14:42:06.999Z</time></trkpt><trkpt lat="36.751678642699545" lon="15.080590421950175"><ele>19.666666666666664</ele><time>2026-04-11T14:42:07.999Z</time></trkpt><trkpt lat="36.751509184040756" lon="15.080610919065716"><ele>19.0</ele><time>2026-04-11T14:42:08.999Z</time></trkpt><trkpt lat="36.75133733888806" lon="15.08061026017495"><ele>19.0</ele><time>2026-04-11T14:42:09.999Z</time></trkpt><trkpt lat="36.75115502533469" lon="15.080617732947905"><ele>19.0</ele><time>2026-04-11T14:42:10.999Z</time></trkpt><trkpt lat="36.75096356968798" lon="15.08062512126049"><ele>19.0</ele><time>2026-04-11T14:42:11.999Z</time></trkpt><trkpt lat="36.75076782776672" lon="15.08063037737045"><ele>18.666666666666664</ele><time>2026-04-11T14:42:12.999Z</time></trkpt><trkpt lat="36.75056428515709" lon="15.080638826081378"><ele>18.333333333333332</ele><time>2026-04-11T14:42:13.999Z</time></trkpt><trkpt lat="36.75037602256613" lon="15.080644553118299"><ele>18.0</ele><time>2026-04-11T14:42:14.999Z</time></trkpt><trkpt lat="36.75019645105948" lon="15.080629447158726"><ele>18.0</ele><time>2026-04-11T14:42:15.999Z</time></trkpt><trkpt lat="36.75001321142819" lon="15.080653440849035"><ele>18.0</ele><time>2026-04-11T14:42:16.999Z</time></trkpt><trkpt lat="36.749839017045524" lon="15.080636635536083"><ele>18.0</ele><time>2026-04-11T14:42:17.999Z</time></trkpt><trkpt lat="36.74965602885942" lon="15.080656536336413"><ele>18.0</ele><time>2026-04-11T14:42:18.999Z</time></trkpt><trkpt lat="36.74946939119" lon="15.080653015065986"><ele>18.0</ele><time>2026-04-11T14:42:19.999Z</time></trkpt><trkpt lat="36.74928891438971" lon="15.08066330157586"><ele>18.0</ele><time>2026-04-11T14:42:20.999Z</time></trkpt><trkpt lat="36.749105858348614" lon="15.080670195277992"><ele>18.333333333333332</ele><time>2026-04-11T14:42:21.999Z</time></trkpt><trkpt lat="36.74892744706341" lon="15.08067598435429"><ele>18.666666666666664</ele><time>2026-04-11T14:42:22.999Z</time></trkpt><trkpt lat="36.74875464143144" lon="15.080680904087458"><ele>19.0</ele><time>2026-04-11T14:42:23.999Z</time></trkpt><trkpt lat="36.748583058271244" lon="15.080683067771151"><ele>19.666666666666664</ele><time>2026-04-11T14:42:24.999Z</time></trkpt><trkpt lat="36.748404082393314" lon="15.080684577152995"><ele>20.333333333333332</ele><time>2026-04-11T14:42:25.999Z</time></trkpt><trkpt lat="36.74822374223828" lon="15.080687817752258"><ele>21.0</ele><time>2026-04-11T14:42:26.999Z</time></trkpt><trkpt lat="36.74804238711497" lon="15.08069189779018"><ele>21.0</ele><time>2026-04-11T14:42:27.999Z</time></trkpt><trkpt lat="36.74785891576131" lon="15.080696167845419"><ele>21.0</ele><time>2026-04-11T14:42:28.999Z</time></trkpt><trkpt lat="36.74767719830989" lon="15.080705307962212"><ele>21.0</ele><time>2026-04-11T14:42:30Z</time></trkpt><trkpt lat="36.747495486451804" lon="15.080713147935137"><ele>21.666666666666668</ele><time>2026-04-11T14:42:31Z</time></trkpt><trkpt lat="36.74730998704358" lon="15.080719034670148"><ele>22.333333333333336</ele><time>2026-04-11T14:42:32Z</time></trkpt><trkpt lat="36.74713173264905" lon="15.080705340377838"><ele>23.0</ele><time>2026-04-11T14:42:33Z</time></trkpt><trkpt lat="36.7469731631656" lon="15.080710120526925"><ele>23.75</ele><time>2026-04-11T14:42:34Z</time></trkpt><trkpt lat="36.7468334108021" lon="15.080714137868572"><ele>24.5</ele><time>2026-04-11T14:42:35Z</time></trkpt><trkpt lat="36.74672162872372" lon="15.080717351174206"><ele>25.25</ele><time>2026-04-11T14:42:36Z</time></trkpt><trkpt lat="36.74662042094249" lon="15.080720260504593"><ele>26.0</ele><time>2026-04-11T14:42:37Z</time></trkpt><trkpt lat="36.74651111397367" lon="15.080742757415706"><ele>26.0</ele><time>2026-04-11T14:42:38Z</time></trkpt><trkpt lat="36.74638265941681" lon="15.080742457211565"><ele>26.0</ele><time>2026-04-11T14:42:39Z</time></trkpt><trkpt lat="36.74625007812924" lon="15.080746720226998"><ele>26.0</ele><time>2026-04-11T14:42:40Z</time></trkpt><trkpt lat="36.74611623778459" lon="15.08075463136286"><ele>26.0</ele><time>2026-04-11T14:42:41Z</time></trkpt><trkpt lat="36.74598328400299" lon="15.080738575734813"><ele>26.5</ele><time>2026-04-11T14:42:42Z</time></trkpt><trkpt lat="36.745847847286576" lon="15.080742469016888"><ele>27.0</ele><time>2026-04-11T14:42:43Z</time></trkpt><trkpt lat="36.74571859401722" lon="15.080760798197508"><ele>27.5</ele><time>2026-04-11T14:42:44Z</time></trkpt><trkpt lat="36.74558789717905" lon="15.080763418505269"><ele>28.0</ele><time>2026-04-11T14:42:45Z</time></trkpt><trkpt lat="36.74543692868184" lon="15.080766688726968"><ele>28.0</ele><time>2026-04-11T14:42:46Z</time></trkpt><trkpt lat="36.7452765025542" lon="15.080770658186742"><ele>28.0</ele><time>2026-04-11T14:42:47Z</time></trkpt><trkpt lat="36.745110877389976" lon="15.080775528221402"><ele>28.0</ele><time>2026-04-11T14:42:48Z</time></trkpt><trkpt lat="36.744943650212754" lon="15.080778441362455"><ele>28.333333333333336</ele><time>2026-04-11T14:42:49Z</time></trkpt><trkpt lat="36.74478197838883" lon="15.080776137608915"><ele>28.666666666666664</ele><time>2026-04-11T14:42:50Z</time></trkpt><trkpt lat="36.744634251392725" lon="15.080773145224606"><ele>29.0</ele><time>2026-04-11T14:42:51Z</time></trkpt><trkpt lat="36.7444879978819" lon="15.080781796822441"><ele>28.0</ele><time>2026-04-11T14:42:52Z</time></trkpt><trkpt lat="36.74433453586261" lon="15.080788487547808"><ele>27.0</ele><time>2026-04-11T14:42:53Z</time></trkpt><trkpt lat="36.744184003699985" lon="15.080787492748234"><ele>26.0</ele><time>2026-04-11T14:42:54Z</time></trkpt><trkpt lat="36.74403569604179" lon="15.08079021763172"><ele>26.0</ele><time>2026-04-11T14:42:55Z</time></trkpt><trkpt lat="36.74389003079982" lon="15.08079341874529"><ele>26.0</ele><time>2026-04-11T14:42:56Z</time></trkpt><trkpt lat="36.743733848008056" lon="15.080795252908883"><ele>26.0</ele><time>2026-04-11T14:42:57Z</time></trkpt><trkpt lat="36.7435676120934" lon="15.080796100173238"><ele>24.666666666666664</ele><time>2026-04-11T14:42:58Z</time></trkpt><trkpt lat="36.7434009254889" lon="15.080803065394056"><ele>23.333333333333332</ele><time>2026-04-11T14:42:59Z</time></trkpt><trkpt lat="36.74323218180122" lon="15.080807993342356"><ele>22.0</ele><time>2026-04-11T14:43:00Z</time></trkpt><trkpt lat="36.74307200408626" lon="15.080814397916589"><ele>22.0</ele><time>2026-04-11T14:43:01Z</time></trkpt><trkpt lat="36.74291862821575" lon="15.08082427504963"><ele>22.0</ele><time>2026-04-11T14:43:02Z</time></trkpt><trkpt lat="36.74276177398982" lon="15.080830103053769"><ele>22.0</ele><time>2026-04-11T14:43:03Z</time></trkpt><trkpt lat="36.742602645775584" lon="15.08083483464402"><ele>21.333333333333332</ele><time>2026-04-11T14:43:04Z</time></trkpt><trkpt lat="36.74244254559334" lon="15.080837896354815"><ele>20.666666666666668</ele><time>2026-04-11T14:43:05Z</time></trkpt><trkpt lat="36.74227895140013" lon="15.08084448335959"><ele>20.0</ele><time>2026-04-11T14:43:06Z</time></trkpt><trkpt lat="36.74211715768831" lon="15.08084744690409"><ele>20.0</ele><time>2026-04-11T14:43:07Z</time></trkpt><trkpt lat="36.74194345535104" lon="15.080849916011546"><ele>20.0</ele><time>2026-04-11T14:43:08Z</time></trkpt><trkpt lat="36.74176247910945" lon="15.080854066397723"><ele>20.0</ele><time>2026-04-11T14:43:09Z</time></trkpt><trkpt lat="36.74158148383184" lon="15.08085762139439"><ele>19.666666666666668</ele><time>2026-04-11T14:43:10Z</time></trkpt><trkpt lat="36.74140453601118" lon="15.080864182504426"><ele>19.333333333333332</ele><time>2026-04-11T14:43:11Z</time></trkpt><trkpt lat="36.7412252195751" lon="15.080871953920894"><ele>19.0</ele><time>2026-04-11T14:43:12Z</time></trkpt><trkpt lat="36.741044417800936" lon="15.080878592052025"><ele>19.666666666666664</ele><time>2026-04-11T14:43:13Z</time></trkpt><trkpt lat="36.74086053666522" lon="15.080882663256482"><ele>20.333333333333332</ele><time>2026-04-11T14:43:14Z</time></trkpt><trkpt lat="36.74066966373657" lon="15.08088721272678"><ele>21.0</ele><time>2026-04-11T14:43:15Z</time></trkpt><trkpt lat="36.7404864278286" lon="15.080892812130841"><ele>21.0</ele><time>2026-04-11T14:43:16Z</time></trkpt><trkpt lat="36.74032117394552" lon="15.080897075029814"><ele>21.0</ele><time>2026-04-11T14:43:17Z</time></trkpt><trkpt lat="36.740165983580205" lon="15.08089868849334"><ele>21.0</ele><time>2026-04-11T14:43:18Z</time></trkpt><trkpt lat="36.74001364372237" lon="15.080903582422504"><ele>20.333333333333332</ele><time>2026-04-11T14:43:19Z</time></trkpt><trkpt lat="36.73985914935" lon="15.080909587116778"><ele>19.666666666666664</ele><time>2026-04-11T14:43:20Z</time></trkpt><trkpt lat="36.73970062986309" lon="15.080908637073824"><ele>19.0</ele><time>2026-04-11T14:43:21Z</time></trkpt><trkpt lat="36.73953291312339" lon="15.080913836067598"><ele>19.666666666666664</ele><time>2026-04-11T14:43:22Z</time></trkpt><trkpt lat="36.739366716138406" lon="15.080918699395678"><ele>20.333333333333332</ele><time>2026-04-11T14:43:23Z</time></trkpt><trkpt lat="36.73919896183896" lon="15.080922044833498"><ele>21.0</ele><time>2026-04-11T14:43:24Z</time></trkpt><trkpt lat="36.739041794506264" lon="15.080928172592131"><ele>21.0</ele><time>2026-04-11T14:43:25Z</time></trkpt><trkpt lat="36.73887131055785" lon="15.080928602335268"><ele>21.0</ele><time>2026-04-11T14:43:26Z</time></trkpt><trkpt lat="36.738690715973505" lon="15.080933433537627"><ele>21.0</ele><time>2026-04-11T14:43:27Z</time></trkpt><trkpt lat="36.73850230283884" lon="15.08093980113327"><ele>21.666666666666668</ele><time>2026-04-11T14:43:28Z</time></trkpt><trkpt lat="36.73832253282544" lon="15.080944376820495"><ele>22.333333333333336</ele><time>2026-04-11T14:43:29Z</time></trkpt><trkpt lat="36.738143455802955" lon="15.08094986500852"><ele>23.0</ele><time>2026-04-11T14:43:30Z</time></trkpt><trkpt lat="36.73796075417399" lon="15.080955404840346"><ele>23.0</ele><time>2026-04-11T14:43:31Z</time></trkpt><trkpt lat="36.73777008677876" lon="15.080957559295248"><ele>23.0</ele><time>2026-04-11T14:43:32Z</time></trkpt><trkpt lat="36.73758102671215" lon="15.080962184614819"><ele>23.0</ele><time>2026-04-11T14:43:33Z</time></trkpt><trkpt lat="36.73739265733351" lon="15.080965516887048"><ele>24.0</ele><time>2026-04-11T14:43:34Z</time></trkpt><trkpt lat="36.73720434722572" lon="15.080971864730918"><ele>25.0</ele><time>2026-04-11T14:43:35Z</time></trkpt><trkpt lat="36.737019730246885" lon="15.080974424939809"><ele>26.0</ele><time>2026-04-11T14:43:35.999Z</time></trkpt><trkpt lat="36.73683396633545" lon="15.080978320687297"><ele>27.0</ele><time>2026-04-11T14:43:36.999Z</time></trkpt><trkpt lat="36.73665459968611" lon="15.080984373388981"><ele>28.0</ele><time>2026-04-11T14:43:37.999Z</time></trkpt><trkpt lat="36.73648712169444" lon="15.080989029516754"><ele>29.0</ele><time>2026-04-11T14:43:38.999Z</time></trkpt><trkpt lat="36.73632373846359" lon="15.080995863896728"><ele>29.0</ele><time>2026-04-11T14:43:39.999Z</time></trkpt><trkpt lat="36.73616139475708" lon="15.081006166248088"><ele>29.0</ele><time>2026-04-11T14:43:40.999Z</time></trkpt><trkpt lat="36.73600823418819" lon="15.081019347474442"><ele>29.0</ele><time>2026-04-11T14:43:41.999Z</time></trkpt><trkpt lat="36.735868535453605" lon="15.081032323739889"><ele>29.799999999999997</ele><time>2026-04-11T14:43:42.999Z</time></trkpt><trkpt lat="36.73574885608874" lon="15.081042786493775"><ele>30.599999999999998</ele><time>2026-04-11T14:43:43.999Z</time></trkpt><trkpt lat="36.73564336958509" lon="15.081048963708234"><ele>31.4</ele><time>2026-04-11T14:43:44.999Z</time></trkpt><trkpt lat="36.735550677070236" lon="15.081053302281068"><ele>32.199999999999996</ele><time>2026-04-11T14:43:45.999Z</time></trkpt><trkpt lat="36.735469857008404" lon="15.081048297560143"><ele>33.0</ele><time>2026-04-11T14:43:46.999Z</time></trkpt><trkpt lat="36.735403394460825" lon="15.081031673223267"><ele>33.0</ele><time>2026-04-11T14:43:47.999Z</time></trkpt><trkpt lat="36.73534300668523" lon="15.081007547316068"><ele>33.0</ele><time>2026-04-11T14:43:48.999Z</time></trkpt><trkpt lat="36.73528554715363" lon="15.080949658281716"><ele>33.0</ele><time>2026-04-11T14:43:49.999Z</time></trkpt><trkpt lat="36.73523522890107" lon="15.080888762153005"><ele>33.0</ele><time>2026-04-11T14:43:50.999Z</time></trkpt><trkpt lat="36.73531396714929" lon="15.080672240345413"><ele>33.0</ele><time>2026-04-11T14:43:51.999Z</time></trkpt><trkpt lat="36.73535640076862" lon="15.0805085675936"><ele>33.25</ele><time>2026-04-11T14:43:52.999Z</time></trkpt><trkpt lat="36.735392185491925" lon="15.080354900492443"><ele>33.5</ele><time>2026-04-11T14:43:53.999Z</time></trkpt><trkpt lat="36.735423516708686" lon="15.080203464205386"><ele>33.75</ele><time>2026-04-11T14:43:54.999Z</time></trkpt><trkpt lat="36.735451099790716" lon="15.080076574320438"><ele>34.0</ele><time>2026-04-11T14:43:55.999Z</time></trkpt><trkpt lat="36.735479068586024" lon="15.079952617007331"><ele>34.25</ele><time>2026-04-11T14:43:56.999Z</time></trkpt><trkpt lat="36.73550631787879" lon="15.07981617078283"><ele>34.5</ele><time>2026-04-11T14:43:57.999Z</time></trkpt><trkpt lat="36.735531055651144" lon="15.079673567228339"><ele>34.75</ele><time>2026-04-11T14:43:58.999Z</time></trkpt><trkpt lat="36.73555806041048" lon="15.079527451432888"><ele>35.0</ele><time>2026-04-11T14:43:59.999Z</time></trkpt><trkpt lat="36.73558368467099" lon="15.07939864758622"><ele>35.0</ele><time>2026-04-11T14:44:00.999Z</time></trkpt><trkpt lat="36.735611526715246" lon="15.079266227156811"><ele>35.0</ele><time>2026-04-11T14:44:01.999Z</time></trkpt><trkpt lat="36.73564205338037" lon="15.079125656573542"><ele>35.0</ele><time>2026-04-11T14:44:02.999Z</time></trkpt><trkpt lat="36.73567265423771" lon="15.07897874111302"><ele>35.0</ele><time>2026-04-11T14:44:03.999Z</time></trkpt><trkpt lat="36.73570646217272" lon="15.078814453578946"><ele>35.25</ele><time>2026-04-11T14:44:04.999Z</time></trkpt><trkpt lat="36.7357374502982" lon="15.078649497632272"><ele>35.5</ele><time>2026-04-11T14:44:05.999Z</time></trkpt><trkpt lat="36.73577145344604" lon="15.078479689804679"><ele>35.75</ele><time>2026-04-11T14:44:06.999Z</time></trkpt><trkpt lat="36.73580684882643" lon="15.07830699478594"><ele>36.0</ele><time>2026-04-11T14:44:07.999Z</time></trkpt><trkpt lat="36.73584821991801" lon="15.07811366145372"><ele>36.333333333333336</ele><time>2026-04-11T14:44:08.999Z</time></trkpt><trkpt lat="36.73588889021605" lon="15.07790822284936"><ele>36.66666666666667</ele><time>2026-04-11T14:44:09.999Z</time></trkpt><trkpt lat="36.735933673483295" lon="15.077688565755935"><ele>37.0</ele><time>2026-04-11T14:44:10.999Z</time></trkpt><trkpt lat="36.735981638943834" lon="15.077462495821967"><ele>36.66666666666667</ele><time>2026-04-11T14:44:11.999Z</time></trkpt><trkpt lat="36.73603201452537" lon="15.077229209891776"><ele>36.333333333333336</ele><time>2026-04-11T14:44:12.999Z</time></trkpt><trkpt lat="36.73608435884722" lon="15.076990468481004"><ele>36.0</ele><time>2026-04-11T14:44:13.999Z</time></trkpt><trkpt lat="36.73613786386435" lon="15.076747725750863"><ele>33.666666666666664</ele><time>2026-04-11T14:44:14.999Z</time></trkpt><trkpt lat="36.73618750511377" lon="15.076509116027646"><ele>31.333333333333332</ele><time>2026-04-11T14:44:15.999Z</time></trkpt><trkpt lat="36.73623293258337" lon="15.076285186004739"><ele>29.0</ele><time>2026-04-11T14:44:16.999Z</time></trkpt><trkpt lat="36.736275953438486" lon="15.076061925899161"><ele>29.0</ele><time>2026-04-11T14:44:17.999Z</time></trkpt><trkpt lat="36.73631933158375" lon="15.075852631266622"><ele>29.0</ele><time>2026-04-11T14:44:18.999Z</time></trkpt><trkpt lat="36.73635683904854" lon="15.075660081915125"><ele>29.0</ele><time>2026-04-11T14:44:19.999Z</time></trkpt><trkpt lat="36.73639448558478" lon="15.075477451647169"><ele>30.0</ele><time>2026-04-11T14:44:20.999Z</time></trkpt><trkpt lat="36.7364333512242" lon="15.075304702238594"><ele>31.0</ele><time>2026-04-11T14:44:21.999Z</time></trkpt><trkpt lat="36.73647105568754" lon="15.075128874251623"><ele>32.0</ele><time>2026-04-11T14:44:22.999Z</time></trkpt><trkpt lat="36.73651281980181" lon="15.074941742834056"><ele>33.0</ele><time>2026-04-11T14:44:23.999Z</time></trkpt><trkpt lat="36.7365528845909" lon="15.074749658282606"><ele>33.666666666666664</ele><time>2026-04-11T14:44:24.999Z</time></trkpt><trkpt lat="36.73659857417936" lon="15.07454401362387"><ele>34.33333333333333</ele><time>2026-04-11T14:44:25.999Z</time></trkpt><trkpt lat="36.73664327993573" lon="15.074334725521945"><ele>35.0</ele><time>2026-04-11T14:44:26.999Z</time></trkpt><trkpt lat="36.73668446951589" lon="15.074113427864562"><ele>35.33333333333333</ele><time>2026-04-11T14:44:27.999Z</time></trkpt><trkpt lat="36.736719879349565" lon="15.073886928297565"><ele>35.666666666666664</ele><time>2026-04-11T14:44:28.999Z</time></trkpt><trkpt lat="36.73674230231611" lon="15.07365354913639"><ele>36.0</ele><time>2026-04-11T14:44:29.999Z</time></trkpt><trkpt lat="36.736748011949466" lon="15.073410327021113"><ele>35.666666666666664</ele><time>2026-04-11T14:44:30.999Z</time></trkpt><trkpt lat="36.736746462571254" lon="15.073159279506186"><ele>35.33333333333333</ele><time>2026-04-11T14:44:31.999Z</time></trkpt><trkpt lat="36.73673827013559" lon="15.072898536200434"><ele>35.0</ele><time>2026-04-11T14:44:32.999Z</time></trkpt><trkpt lat="36.73673499996152" lon="15.072641166510014"><ele>35.0</ele><time>2026-04-11T14:44:33.999Z</time></trkpt><trkpt lat="36.736733127955134" lon="15.072407322894827"><ele>35.0</ele><time>2026-04-11T14:44:34.999Z</time></trkpt><trkpt lat="36.736729027166746" lon="15.072183309597369"><ele>35.0</ele><time>2026-04-11T14:44:36Z</time></trkpt><trkpt lat="36.73672602375536" lon="15.071942507683016"><ele>35.0</ele><time>2026-04-11T14:44:37Z</time></trkpt><trkpt lat="36.73672661063255" lon="15.07171070378286"><ele>35.0</ele><time>2026-04-11T14:44:38Z</time></trkpt><trkpt lat="36.736728840427276" lon="15.071484312533855"><ele>35.0</ele><time>2026-04-11T14:44:39Z</time></trkpt><trkpt lat="36.73674277936653" lon="15.071263875349768"><ele>35.0</ele><time>2026-04-11T14:44:40Z</time></trkpt><trkpt lat="36.73676413872857" lon="15.071067914523868"><ele>35.0</ele><time>2026-04-11T14:44:41Z</time></trkpt><trkpt lat="36.736782000606894" lon="15.070883585961559"><ele>35.0</ele><time>2026-04-11T14:44:42Z</time></trkpt><trkpt lat="36.73679949096658" lon="15.07072090755044"><ele>35.0</ele><time>2026-04-11T14:44:43Z</time></trkpt><trkpt lat="36.736821463392644" lon="15.070568828694254"><ele>35.5</ele><time>2026-04-11T14:44:44Z</time></trkpt><trkpt lat="36.73683988954841" lon="15.070430376602987"><ele>36.0</ele><time>2026-04-11T14:44:45Z</time></trkpt><trkpt lat="36.736858985168716" lon="15.070290123699868"><ele>36.5</ele><time>2026-04-11T14:44:46Z</time></trkpt><trkpt lat="36.736882598096976" lon="15.070140365577018"><ele>37.0</ele><time>2026-04-11T14:44:47Z</time></trkpt><trkpt lat="36.73689947722551" lon="15.06998994471884"><ele>36.25</ele><time>2026-04-11T14:44:48Z</time></trkpt><trkpt lat="36.73691806165948" lon="15.06983407006797"><ele>35.5</ele><time>2026-04-11T14:44:49Z</time></trkpt><trkpt lat="36.73694047253684" lon="15.069676175592235"><ele>34.75</ele><time>2026-04-11T14:44:50Z</time></trkpt><trkpt lat="36.73696488959977" lon="15.069498828421573"><ele>34.0</ele><time>2026-04-11T14:44:51Z</time></trkpt><trkpt lat="36.736991552085826" lon="15.069312598153243"><ele>34.0</ele><time>2026-04-11T14:44:52Z</time></trkpt><trkpt lat="36.73701521165533" lon="15.069124370735457"><ele>34.0</ele><time>2026-04-11T14:44:53Z</time></trkpt><trkpt lat="36.73704689388959" lon="15.068933845153925"><ele>34.0</ele><time>2026-04-11T14:44:54Z</time></trkpt><trkpt lat="36.737072736566425" lon="15.068749820367186"><ele>34.0</ele><time>2026-04-11T14:44:55Z</time></trkpt><trkpt lat="36.737104168812074" lon="15.068586574632876"><ele>34.0</ele><time>2026-04-11T14:44:56Z</time></trkpt><trkpt lat="36.73714124522813" lon="15.068418172822527"><ele>34.0</ele><time>2026-04-11T14:44:57Z</time></trkpt><trkpt lat="36.73720096462373" lon="15.068269619776999"><ele>34.0</ele><time>2026-04-11T14:44:58Z</time></trkpt><trkpt lat="36.73726779822903" lon="15.068072338721235"><ele>34.333333333333336</ele><time>2026-04-11T14:44:59Z</time></trkpt><trkpt lat="36.737351168995154" lon="15.06782098785533"><ele>34.666666666666664</ele><time>2026-04-11T14:45:00Z</time></trkpt><trkpt lat="36.73743125033302" lon="15.067569056544567"><ele>35.0</ele><time>2026-04-11T14:45:01Z</time></trkpt><trkpt lat="36.73751208318121" lon="15.067323215283873"><ele>34.33333333333333</ele><time>2026-04-11T14:45:02Z</time></trkpt><trkpt lat="36.737588677022835" lon="15.06710084981809"><ele>33.666666666666664</ele><time>2026-04-11T14:45:03Z</time></trkpt><trkpt lat="36.737654437223966" lon="15.066896179339256"><ele>33.0</ele><time>2026-04-11T14:45:04Z</time></trkpt><trkpt lat="36.737712114554306" lon="15.066711816845025"><ele>32.4</ele><time>2026-04-11T14:45:05Z</time></trkpt><trkpt lat="36.73775753872466" lon="15.066551564704266"><ele>31.799999999999997</ele><time>2026-04-11T14:45:06Z</time></trkpt><trkpt lat="36.737793962094884" lon="15.06642953833597"><ele>31.2</ele><time>2026-04-11T14:45:07Z</time></trkpt><trkpt lat="36.737829933404186" lon="15.066318213972133"><ele>30.6</ele><time>2026-04-11T14:45:08Z</time></trkpt><trkpt lat="36.73786209747481" lon="15.066226088382413"><ele>30.0</ele><time>2026-04-11T14:45:09Z</time></trkpt><trkpt lat="36.737890780822745" lon="15.066104280265735"><ele>30.0</ele><time>2026-04-11T14:45:11Z</time></trkpt><trkpt lat="36.73781582690672" lon="15.066017377527931"><ele>30.0</ele><time>2026-04-11T14:45:13Z</time></trkpt><trkpt lat="36.73773298155921" lon="15.065924934000895"><ele>30.0</ele><time>2026-04-11T14:45:14Z</time></trkpt><trkpt lat="36.7376310801002" lon="15.065813100062977"><ele>30.0</ele><time>2026-04-11T14:45:15Z</time></trkpt><trkpt lat="36.73752424602073" lon="15.06567639813243"><ele>30.666666666666664</ele><time>2026-04-11T14:45:16Z</time></trkpt><trkpt lat="36.7374028382553" lon="15.065516761686338"><ele>31.333333333333332</ele><time>2026-04-11T14:45:17Z</time></trkpt><trkpt lat="36.73727924432168" lon="15.065353261408527"><ele>32.0</ele><time>2026-04-11T14:45:18Z</time></trkpt><trkpt lat="36.73716404930184" lon="15.065192566437926"><ele>32.0</ele><time>2026-04-11T14:45:19Z</time></trkpt><trkpt lat="36.737040223640065" lon="15.065021596911494"><ele>32.0</ele><time>2026-04-11T14:45:20Z</time></trkpt><trkpt lat="36.73691187420701" lon="15.064831455820006"><ele>32.0</ele><time>2026-04-11T14:45:21Z</time></trkpt><trkpt lat="36.736792934998995" lon="15.064630388373605"><ele>33.33333333333333</ele><time>2026-04-11T14:45:22Z</time></trkpt><trkpt lat="36.73669151746867" lon="15.064447613711927"><ele>34.666666666666664</ele><time>2026-04-11T14:45:23Z</time></trkpt><trkpt lat="36.73660183109158" lon="15.064289870211661"><ele>36.0</ele><time>2026-04-11T14:45:24Z</time></trkpt><trkpt lat="36.736501309823765" lon="15.064139456990306"><ele>36.0</ele><time>2026-04-11T14:45:25Z</time></trkpt><trkpt lat="36.736376414341734" lon="15.063982721430076"><ele>36.0</ele><time>2026-04-11T14:45:26Z</time></trkpt><trkpt lat="36.736229714391925" lon="15.063817462135045"><ele>36.0</ele><time>2026-04-11T14:45:27Z</time></trkpt><trkpt lat="36.736081390999324" lon="15.063650538688258"><ele>36.0</ele><time>2026-04-11T14:45:28Z</time></trkpt><trkpt lat="36.73595048388399" lon="15.063493350456271"><ele>36.0</ele><time>2026-04-11T14:45:29Z</time></trkpt><trkpt lat="36.73583626667078" lon="15.063348799563972"><ele>36.0</ele><time>2026-04-11T14:45:30Z</time></trkpt><trkpt lat="36.73573343762347" lon="15.063221630360944"><ele>36.0</ele><time>2026-04-11T14:45:31Z</time></trkpt><trkpt lat="36.73563419574294" lon="15.06310358017762"><ele>36.0</ele><time>2026-04-11T14:45:32Z</time></trkpt><trkpt lat="36.735542352625494" lon="15.062994959040564"><ele>36.0</ele><time>2026-04-11T14:45:33Z</time></trkpt><trkpt lat="36.735453379973364" lon="15.062889214787498"><ele>36.0</ele><time>2026-04-11T14:45:34Z</time></trkpt><trkpt lat="36.73536421500692" lon="15.062779901925305"><ele>36.0</ele><time>2026-04-11T14:45:35Z</time></trkpt><trkpt lat="36.735274458025906" lon="15.062669154207358"><ele>36.0</ele><time>2026-04-11T14:45:36Z</time></trkpt><trkpt lat="36.73518837087522" lon="15.062564443425291"><ele>36.0</ele><time>2026-04-11T14:45:37Z</time></trkpt><trkpt lat="36.73510386745035" lon="15.062465661274533"><ele>36.0</ele><time>2026-04-11T14:45:38Z</time></trkpt><trkpt lat="36.73502406553925" lon="15.062381961012438"><ele>36.75</ele><time>2026-04-11T14:45:38.999Z</time></trkpt><trkpt lat="36.734939049153084" lon="15.062295206986477"><ele>37.5</ele><time>2026-04-11T14:45:39.999Z</time></trkpt><trkpt lat="36.734847630928435" lon="15.062200797311306"><ele>38.25</ele><time>2026-04-11T14:45:40.999Z</time></trkpt><trkpt lat="36.73475449149107" lon="15.062099358551649"><ele>39.0</ele><time>2026-04-11T14:45:41.999Z</time></trkpt><trkpt lat="36.734659220062746" lon="15.061995476829361"><ele>39.0</ele><time>2026-04-11T14:45:42.999Z</time></trkpt><trkpt lat="36.73456413364255" lon="15.06189064350316"><ele>39.0</ele><time>2026-04-11T14:45:43.999Z</time></trkpt><trkpt lat="36.734461193690215" lon="15.061785066019212"><ele>39.0</ele><time>2026-04-11T14:45:44.999Z</time></trkpt><trkpt lat="36.73434183664983" lon="15.061682520421117"><ele>39.0</ele><time>2026-04-11T14:45:45.999Z</time></trkpt><trkpt lat="36.73421214480585" lon="15.06157919212708"><ele>38.666666666666664</ele><time>2026-04-11T14:45:46.999Z</time></trkpt><trkpt lat="36.73407908014719" lon="15.06147009392894"><ele>38.33333333333333</ele><time>2026-04-11T14:45:47.999Z</time></trkpt><trkpt lat="36.7339462504265" lon="15.06135953657909"><ele>38.0</ele><time>2026-04-11T14:45:48.999Z</time></trkpt><trkpt lat="36.73381441831604" lon="15.061249415200251"><ele>38.0</ele><time>2026-04-11T14:45:49.999Z</time></trkpt><trkpt lat="36.73367474611616" lon="15.0611424978738"><ele>38.0</ele><time>2026-04-11T14:45:50.999Z</time></trkpt><trkpt lat="36.733536638936094" lon="15.061039623519397"><ele>38.0</ele><time>2026-04-11T14:45:51.999Z</time></trkpt><trkpt lat="36.73339924581736" lon="15.060932015601638"><ele>38.5</ele><time>2026-04-11T14:45:52.999Z</time></trkpt><trkpt lat="36.73327456290436" lon="15.060823485201878"><ele>39.0</ele><time>2026-04-11T14:45:53.999Z</time></trkpt><trkpt lat="36.733152908998946" lon="15.06071478868488"><ele>39.5</ele><time>2026-04-11T14:45:54.999Z</time></trkpt><trkpt lat="36.73303613683996" lon="15.060606017279001"><ele>40.0</ele><time>2026-04-11T14:45:55.999Z</time></trkpt><trkpt lat="36.732914495067476" lon="15.06048620547668"><ele>40.0</ele><time>2026-04-11T14:45:56.999Z</time></trkpt><trkpt lat="36.73278580033059" lon="15.060347807481534"><ele>40.0</ele><time>2026-04-11T14:45:57.999Z</time></trkpt><trkpt lat="36.73265925173144" lon="15.060205123553136"><ele>40.0</ele><time>2026-04-11T14:45:58.999Z</time></trkpt><trkpt lat="36.73252360782867" lon="15.06005307524785"><ele>39.333333333333336</ele><time>2026-04-11T14:45:59.999Z</time></trkpt><trkpt lat="36.732385588482046" lon="15.05989650892587"><ele>38.666666666666664</ele><time>2026-04-11T14:46:00.999Z</time></trkpt><trkpt lat="36.73225885174292" lon="15.059752749940197"><ele>38.0</ele><time>2026-04-11T14:46:01.999Z</time></trkpt><trkpt lat="36.73213712579869" lon="15.059619300775193"><ele>38.0</ele><time>2026-04-11T14:46:02.999Z</time></trkpt><trkpt lat="36.73202094599018" lon="15.05949036338784"><ele>38.0</ele><time>2026-04-11T14:46:03.999Z</time></trkpt><trkpt lat="36.73190613677157" lon="15.05936538472191"><ele>38.0</ele><time>2026-04-11T14:46:04.999Z</time></trkpt><trkpt lat="36.73178507126124" lon="15.059234222489911"><ele>37.33333333333333</ele><time>2026-04-11T14:46:05.999Z</time></trkpt><trkpt lat="36.73166623525762" lon="15.059099010808708"><ele>36.666666666666664</ele><time>2026-04-11T14:46:06.999Z</time></trkpt><trkpt lat="36.73154730694134" lon="15.05896382513253"><ele>36.0</ele><time>2026-04-11T14:46:07.999Z</time></trkpt><trkpt lat="36.731423384385764" lon="15.0588287444767"><ele>36.0</ele><time>2026-04-11T14:46:08.999Z</time></trkpt><trkpt lat="36.7312971513694" lon="15.058685951259971"><ele>36.0</ele><time>2026-04-11T14:46:09.999Z</time></trkpt><trkpt lat="36.73117504420509" lon="15.058545103550504"><ele>36.0</ele><time>2026-04-11T14:46:10.999Z</time></trkpt><trkpt lat="36.73105278371521" lon="15.05840907335381"><ele>35.333333333333336</ele><time>2026-04-11T14:46:11.999Z</time></trkpt><trkpt lat="36.7309293577356" lon="15.058272086568191"><ele>34.66666666666667</ele><time>2026-04-11T14:46:12.999Z</time></trkpt><trkpt lat="36.73080175188556" lon="15.058127712643223"><ele>34.0</ele><time>2026-04-11T14:46:13.999Z</time></trkpt><trkpt lat="36.73067705302927" lon="15.05799228141474"><ele>34.0</ele><time>2026-04-11T14:46:14.999Z</time></trkpt><trkpt lat="36.73055547124488" lon="15.057866938733579"><ele>34.0</ele><time>2026-04-11T14:46:15.999Z</time></trkpt><trkpt lat="36.73041727932186" lon="15.05773772177252"><ele>34.0</ele><time>2026-04-11T14:46:16.999Z</time></trkpt><trkpt lat="36.730269741162054" lon="15.057621894989179"><ele>34.0</ele><time>2026-04-11T14:46:17.999Z</time></trkpt><trkpt lat="36.7300942837681" lon="15.057504122257791"><ele>34.0</ele><time>2026-04-11T14:46:18.999Z</time></trkpt><trkpt lat="36.72990226091094" lon="15.057387090925653"><ele>34.0</ele><time>2026-04-11T14:46:19.999Z</time></trkpt><trkpt lat="36.729699053838814" lon="15.057269749610724"><ele>34.0</ele><time>2026-04-11T14:46:20.999Z</time></trkpt><trkpt lat="36.72947569099141" lon="15.057142200434031"><ele>34.0</ele><time>2026-04-11T14:46:21.999Z</time></trkpt><trkpt lat="36.729259385326685" lon="15.05701164035577"><ele>35.0</ele><time>2026-04-11T14:46:22.999Z</time></trkpt><trkpt lat="36.72906527592132" lon="15.056874987836027"><ele>36.0</ele><time>2026-04-11T14:46:23.999Z</time></trkpt><trkpt lat="36.72889061136944" lon="15.056745576562225"><ele>37.0</ele><time>2026-04-11T14:46:24.999Z</time></trkpt><trkpt lat="36.72871711319839" lon="15.056629443403901"><ele>36.333333333333336</ele><time>2026-04-11T14:46:25.999Z</time></trkpt><trkpt lat="36.72854479235261" lon="15.056527224973914"><ele>35.666666666666664</ele><time>2026-04-11T14:46:26.999Z</time></trkpt><trkpt lat="36.72836450561559" lon="15.056433912604424"><ele>35.0</ele><time>2026-04-11T14:46:27.999Z</time></trkpt><trkpt lat="36.728176774992384" lon="15.056348882082254"><ele>35.0</ele><time>2026-04-11T14:46:28.999Z</time></trkpt><trkpt lat="36.72797572833833" lon="15.056268379686335"><ele>35.0</ele><time>2026-04-11T14:46:29.999Z</time></trkpt><trkpt lat="36.727763916863076" lon="15.05619605403615"><ele>35.0</ele><time>2026-04-11T14:46:30.999Z</time></trkpt><trkpt lat="36.727542100665424" lon="15.056127001065574"><ele>34.0</ele><time>2026-04-11T14:46:31.999Z</time></trkpt><trkpt lat="36.727317319369824" lon="15.056050300648877"><ele>33.0</ele><time>2026-04-11T14:46:32.999Z</time></trkpt><trkpt lat="36.727090103032516" lon="15.055965185047025"><ele>32.0</ele><time>2026-04-11T14:46:33.999Z</time></trkpt><trkpt lat="36.72686893508564" lon="15.055869634524873"><ele>31.0</ele><time>2026-04-11T14:46:34.999Z</time></trkpt><trkpt lat="36.72666429207109" lon="15.055776492782647"><ele>31.0</ele><time>2026-04-11T14:46:35.999Z</time></trkpt><trkpt lat="36.72645819523279" lon="15.055688935105858"><ele>31.0</ele><time>2026-04-11T14:46:36.999Z</time></trkpt><trkpt lat="36.726262858828825" lon="15.055608851897718"><ele>31.0</ele><time>2026-04-11T14:46:37.999Z</time></trkpt><trkpt lat="36.72607282123802" lon="15.055531529654182"><ele>32.0</ele><time>2026-04-11T14:46:38.999Z</time></trkpt><trkpt lat="36.72588024230532" lon="15.055452429289744"><ele>33.0</ele><time>2026-04-11T14:46:39.999Z</time></trkpt><trkpt lat="36.72568166385614" lon="15.055369946280033"><ele>34.0</ele><time>2026-04-11T14:46:40.999Z</time></trkpt><trkpt lat="36.72548417083287" lon="15.055285500722173"><ele>34.0</ele><time>2026-04-11T14:46:42Z</time></trkpt><trkpt lat="36.72529955827914" lon="15.055212342093117"><ele>34.0</ele><time>2026-04-11T14:46:43Z</time></trkpt><trkpt lat="36.72512786241605" lon="15.055140196553605"><ele>34.0</ele><time>2026-04-11T14:46:44Z</time></trkpt><trkpt lat="36.72496999199867" lon="15.055073019211099"><ele>34.0</ele><time>2026-04-11T14:46:45Z</time></trkpt><trkpt lat="36.72483114411267" lon="15.05500849945132"><ele>34.0</ele><time>2026-04-11T14:46:46Z</time></trkpt><trkpt lat="36.724702159069146" lon="15.054939652018323"><ele>34.0</ele><time>2026-04-11T14:46:47Z</time></trkpt><trkpt lat="36.72458385477523" lon="15.05485135358243"><ele>34.0</ele><time>2026-04-11T14:46:48Z</time></trkpt><trkpt lat="36.724462448300976" lon="15.054734596086448"><ele>34.0</ele><time>2026-04-11T14:46:49Z</time></trkpt><trkpt lat="36.7243411854525" lon="15.05458274818243"><ele>34.0</ele><time>2026-04-11T14:46:50Z</time></trkpt><trkpt lat="36.72422599080478" lon="15.05440535887234"><ele>34.0</ele><time>2026-04-11T14:46:51Z</time></trkpt><trkpt lat="36.72412128767042" lon="15.054234805571154"><ele>33.25</ele><time>2026-04-11T14:46:52Z</time></trkpt><trkpt lat="36.72403192710802" lon="15.054090037156119"><ele>32.5</ele><time>2026-04-11T14:46:53Z</time></trkpt><trkpt lat="36.72394195033596" lon="15.053964288652327"><ele>31.75</ele><time>2026-04-11T14:46:54Z</time></trkpt><trkpt lat="36.72385219202367" lon="15.053843319857755"><ele>31.0</ele><time>2026-04-11T14:46:55Z</time></trkpt><trkpt lat="36.723765041764885" lon="15.053724716971542"><ele>31.0</ele><time>2026-04-11T14:46:56Z</time></trkpt><trkpt lat="36.72368112799531" lon="15.053608367026435"><ele>31.0</ele><time>2026-04-11T14:46:57Z</time></trkpt><trkpt lat="36.723600645280044" lon="15.053499919949216"><ele>31.0</ele><time>2026-04-11T14:46:58Z</time></trkpt><trkpt lat="36.72352289087326" lon="15.05339644529898"><ele>31.0</ele><time>2026-04-11T14:46:59Z</time></trkpt><trkpt lat="36.72345164210712" lon="15.053302940559806"><ele>30.000000000000004</ele><time>2026-04-11T14:47:00Z</time></trkpt><trkpt lat="36.72339168579414" lon="15.053226289599246"><ele>29.0</ele><time>2026-04-11T14:47:01Z</time></trkpt><trkpt lat="36.723343805848025" lon="15.053167862429353"><ele>28.0</ele><time>2026-04-11T14:47:02Z</time></trkpt><trkpt lat="36.723288770551875" lon="15.053099632995863"><ele>27.0</ele><time>2026-04-11T14:47:04Z</time></trkpt><trkpt lat="36.723247168163994" lon="15.053037719616091"><ele>26.000000000000004</ele><time>2026-04-11T14:47:08Z</time></trkpt><trkpt lat="36.72317340492841" lon="15.05295359252167"><ele>25.0</ele><time>2026-04-11T14:47:23Z</time></trkpt><trkpt lat="36.72310902460535" lon="15.052855551979542"><ele>25.0</ele><time>2026-04-11T14:47:24Z</time></trkpt><trkpt lat="36.72303806424179" lon="15.052759724320632"><ele>25.0</ele><time>2026-04-11T14:47:25Z</time></trkpt><trkpt lat="36.72297810406746" lon="15.052647986619686"><ele>25.0</ele><time>2026-04-11T14:47:26Z</time></trkpt><trkpt lat="36.72287692184444" lon="15.052567452088402"><ele>25.0</ele><time>2026-04-11T14:47:27Z</time></trkpt><trkpt lat="36.72280209629138" lon="15.052469708064772"><ele>25.0</ele><time>2026-04-11T14:47:28Z</time></trkpt><trkpt lat="36.722723304454256" lon="15.052376533822484"><ele>26.0</ele><time>2026-04-11T14:47:29Z</time></trkpt><trkpt lat="36.72263124862554" lon="15.052279200483204"><ele>27.0</ele><time>2026-04-11T14:47:30Z</time></trkpt><trkpt lat="36.722527550145855" lon="15.052160880100564"><ele>28.0</ele><time>2026-04-11T14:47:31Z</time></trkpt><trkpt lat="36.72243365601797" lon="15.052025693581509"><ele>29.0</ele><time>2026-04-11T14:47:32Z</time></trkpt><trkpt lat="36.72234403259123" lon="15.051900393623251"><ele>29.0</ele><time>2026-04-11T14:47:33Z</time></trkpt><trkpt lat="36.72222052306199" lon="15.051763712863742"><ele>29.0</ele><time>2026-04-11T14:47:34Z</time></trkpt><trkpt lat="36.72209620368056" lon="15.051632194643053"><ele>29.0</ele><time>2026-04-11T14:47:35Z</time></trkpt><trkpt lat="36.72197490272544" lon="15.05150941929916"><ele>29.0</ele><time>2026-04-11T14:47:36Z</time></trkpt><trkpt lat="36.72186583937087" lon="15.051395487440036"><ele>29.0</ele><time>2026-04-11T14:47:37Z</time></trkpt><trkpt lat="36.72176068285972" lon="15.05128341671699"><ele>29.0</ele><time>2026-04-11T14:47:38Z</time></trkpt><trkpt lat="36.7216472902661" lon="15.051165347507862"><ele>29.0</ele><time>2026-04-11T14:47:39Z</time></trkpt><trkpt lat="36.721540144163875" lon="15.051049991464616"><ele>29.0</ele><time>2026-04-11T14:47:40Z</time></trkpt><trkpt lat="36.72144071366416" lon="15.050923619780232"><ele>29.0</ele><time>2026-04-11T14:47:41Z</time></trkpt><trkpt lat="36.721345872785605" lon="15.050777397177532"><ele>29.0</ele><time>2026-04-11T14:47:42Z</time></trkpt><trkpt lat="36.72125396538214" lon="15.050622032782364"><ele>29.0</ele><time>2026-04-11T14:47:43Z</time></trkpt><trkpt lat="36.721157407660776" lon="15.05047027200332"><ele>29.0</ele><time>2026-04-11T14:47:44Z</time></trkpt><trkpt lat="36.721053292173146" lon="15.050312871988522"><ele>29.0</ele><time>2026-04-11T14:47:45Z</time></trkpt><trkpt lat="36.72095740733011" lon="15.050152384799894"><ele>29.0</ele><time>2026-04-11T14:47:46Z</time></trkpt><trkpt lat="36.72086242902619" lon="15.04997711566119"><ele>27.666666666666664</ele><time>2026-04-11T14:47:47Z</time></trkpt><trkpt lat="36.72076391158322" lon="15.049792801929543"><ele>26.333333333333336</ele><time>2026-04-11T14:47:48Z</time></trkpt><trkpt lat="36.720655802922835" lon="15.049622144273798"><ele>25.0</ele><time>2026-04-11T14:47:49Z</time></trkpt><trkpt lat="36.72055090576632" lon="15.049445085157197"><ele>25.0</ele><time>2026-04-11T14:47:50Z</time></trkpt><trkpt lat="36.720452043829184" lon="15.049266855884897"><ele>25.0</ele><time>2026-04-11T14:47:51Z</time></trkpt><trkpt lat="36.72034616238938" lon="15.049104564768905"><ele>25.0</ele><time>2026-04-11T14:47:52Z</time></trkpt><trkpt lat="36.72022255975022" lon="15.048951865699783"><ele>25.0</ele><time>2026-04-11T14:47:52.999Z</time></trkpt><trkpt lat="36.720086695184726" lon="15.048803836686188"><ele>25.0</ele><time>2026-04-11T14:47:53.999Z</time></trkpt><trkpt lat="36.71994167366209" lon="15.048654736944727"><ele>25.0</ele><time>2026-04-11T14:47:54.999Z</time></trkpt><trkpt lat="36.71979677949059" lon="15.048510687223317"><ele>25.0</ele><time>2026-04-11T14:47:55.999Z</time></trkpt><trkpt lat="36.719660610310086" lon="15.048377300171886"><ele>25.0</ele><time>2026-04-11T14:47:56.999Z</time></trkpt><trkpt lat="36.71952115727458" lon="15.048245885659849"><ele>25.0</ele><time>2026-04-11T14:47:57.999Z</time></trkpt><trkpt lat="36.71937324840469" lon="15.048121277277309"><ele>24.0</ele><time>2026-04-11T14:47:58.999Z</time></trkpt><trkpt lat="36.719211849695036" lon="15.04800301504893"><ele>23.0</ele><time>2026-04-11T14:47:59.999Z</time></trkpt><trkpt lat="36.719046604011986" lon="15.047884477292337"><ele>22.0</ele><time>2026-04-11T14:48:00.999Z</time></trkpt><trkpt lat="36.71887375528154" lon="15.047770202066522"><ele>22.0</ele><time>2026-04-11T14:48:01.999Z</time></trkpt><trkpt lat="36.718697412830565" lon="15.047659273269208"><ele>22.0</ele><time>2026-04-11T14:48:02.999Z</time></trkpt><trkpt lat="36.71852250667971" lon="15.04755236219279"><ele>22.0</ele><time>2026-04-11T14:48:03.999Z</time></trkpt><trkpt lat="36.71834372474399" lon="15.047446816402179"><ele>22.0</ele><time>2026-04-11T14:48:04.999Z</time></trkpt><trkpt lat="36.718167734851924" lon="15.047340105919092"><ele>22.0</ele><time>2026-04-11T14:48:05.999Z</time></trkpt><trkpt lat="36.71800901359565" lon="15.047238117256036"><ele>22.0</ele><time>2026-04-11T14:48:06.999Z</time></trkpt><trkpt lat="36.717868006783384" lon="15.047134713161949"><ele>22.333333333333332</ele><time>2026-04-11T14:48:07.999Z</time></trkpt><trkpt lat="36.71772823158956" lon="15.0470154968139"><ele>22.666666666666668</ele><time>2026-04-11T14:48:08.999Z</time></trkpt><trkpt lat="36.71759848443511" lon="15.046872527701634"><ele>23.0</ele><time>2026-04-11T14:48:09.999Z</time></trkpt><trkpt lat="36.717474704819814" lon="15.046706568606124"><ele>22.0</ele><time>2026-04-11T14:48:10.999Z</time></trkpt><trkpt lat="36.717363708509076" lon="15.046511589746181"><ele>21.0</ele><time>2026-04-11T14:48:11.999Z</time></trkpt><trkpt lat="36.71727343516834" lon="15.046294547111671"><ele>20.0</ele><time>2026-04-11T14:48:12.999Z</time></trkpt><trkpt lat="36.71720692919329" lon="15.046092585323736"><ele>20.0</ele><time>2026-04-11T14:48:13.999Z</time></trkpt><trkpt lat="36.717141625889035" lon="15.045900018537662"><ele>20.0</ele><time>2026-04-11T14:48:14.999Z</time></trkpt><trkpt lat="36.71704453896026" lon="15.045704604261804"><ele>20.0</ele><time>2026-04-11T14:48:15.999Z</time></trkpt><trkpt lat="36.71692654333788" lon="15.045506051070408"><ele>18.0</ele><time>2026-04-11T14:48:16.999Z</time></trkpt><trkpt lat="36.716799712386425" lon="15.045306914342149"><ele>16.0</ele><time>2026-04-11T14:48:17.999Z</time></trkpt><trkpt lat="36.71668314585367" lon="15.045123307300882"><ele>14.0</ele><time>2026-04-11T14:48:18.999Z</time></trkpt><trkpt lat="36.71657626391905" lon="15.04494643776347"><ele>13.333333333333334</ele><time>2026-04-11T14:48:19.999Z</time></trkpt><trkpt lat="36.716472483339" lon="15.044769632509912"><ele>12.666666666666668</ele><time>2026-04-11T14:48:20.999Z</time></trkpt><trkpt lat="36.71636219366909" lon="15.044564934174904"><ele>12.0</ele><time>2026-04-11T14:48:21.999Z</time></trkpt><trkpt lat="36.71626224417019" lon="15.044348248390895"><ele>11.666666666666666</ele><time>2026-04-11T14:48:22.999Z</time></trkpt><trkpt lat="36.71616921283616" lon="15.044123935556176"><ele>11.333333333333332</ele><time>2026-04-11T14:48:23.999Z</time></trkpt><trkpt lat="36.7160944601743" lon="15.043879885192585"><ele>11.0</ele><time>2026-04-11T14:48:24.999Z</time></trkpt><trkpt lat="36.71602961874188" lon="15.04362631325843"><ele>11.0</ele><time>2026-04-11T14:48:25.999Z</time></trkpt><trkpt lat="36.71598611363634" lon="15.043346758123256"><ele>11.0</ele><time>2026-04-11T14:48:26.999Z</time></trkpt><trkpt lat="36.71593785709528" lon="15.043071941903094"><ele>10.666666666666666</ele><time>2026-04-11T14:48:27.999Z</time></trkpt><trkpt lat="36.71588107096275" lon="15.042806329060296"><ele>10.333333333333334</ele><time>2026-04-11T14:48:28.999Z</time></trkpt><trkpt lat="36.71581909935369" lon="15.042540680612422"><ele>10.0</ele><time>2026-04-11T14:48:29.999Z</time></trkpt><trkpt lat="36.71575246994773" lon="15.042295031678636"><ele>10.0</ele><time>2026-04-11T14:48:30.999Z</time></trkpt><trkpt lat="36.7156822584246" lon="15.042066234627237"><ele>10.0</ele><time>2026-04-11T14:48:31.999Z</time></trkpt><trkpt lat="36.71561437409375" lon="15.041850266994906"><ele>10.0</ele><time>2026-04-11T14:48:32.999Z</time></trkpt><trkpt lat="36.71553495449801" lon="15.041636776901264"><ele>10.0</ele><time>2026-04-11T14:48:33.999Z</time></trkpt><trkpt lat="36.71543327847324" lon="15.041422532627989"><ele>10.0</ele><time>2026-04-11T14:48:34.999Z</time></trkpt><trkpt lat="36.715304098502564" lon="15.041214283729014"><ele>10.0</ele><time>2026-04-11T14:48:35.999Z</time></trkpt><trkpt lat="36.71515836643082" lon="15.041015596112146"><ele>10.0</ele><time>2026-04-11T14:48:36.999Z</time></trkpt><trkpt lat="36.715022350888155" lon="15.04083294507617"><ele>10.0</ele><time>2026-04-11T14:48:37.999Z</time></trkpt><trkpt lat="36.71491009149844" lon="15.04064692721424"><ele>10.0</ele><time>2026-04-11T14:48:38.999Z</time></trkpt><trkpt lat="36.71482440802002" lon="15.040454842834327"><ele>9.666666666666668</ele><time>2026-04-11T14:48:39.999Z</time></trkpt><trkpt lat="36.71476275147749" lon="15.040245188611244"><ele>9.333333333333334</ele><time>2026-04-11T14:48:40.999Z</time></trkpt><trkpt lat="36.71471923531772" lon="15.040012501187913"><ele>9.0</ele><time>2026-04-11T14:48:41.999Z</time></trkpt><trkpt lat="36.71469637951834" lon="15.039800558116802"><ele>8.75</ele><time>2026-04-11T14:48:42.999Z</time></trkpt><trkpt lat="36.714691947362475" lon="15.039606786266818"><ele>8.5</ele><time>2026-04-11T14:48:43.999Z</time></trkpt><trkpt lat="36.71468156379646" lon="15.039428499661673"><ele>8.25</ele><time>2026-04-11T14:48:44.999Z</time></trkpt><trkpt lat="36.714661202588104" lon="15.039249125064607"><ele>8.0</ele><time>2026-04-11T14:48:45.999Z</time></trkpt><trkpt lat="36.71461586782957" lon="15.039055452004408"><ele>8.0</ele><time>2026-04-11T14:48:46.999Z</time></trkpt><trkpt lat="36.714542315062104" lon="15.038850964041973"><ele>8.0</ele><time>2026-04-11T14:48:48Z</time></trkpt><trkpt lat="36.71445394774944" lon="15.038644149224728"><ele>8.0</ele><time>2026-04-11T14:48:49Z</time></trkpt><trkpt lat="36.714348596181374" lon="15.038440310316531"><ele>8.333333333333332</ele><time>2026-04-11T14:48:50Z</time></trkpt><trkpt lat="36.71424482313902" lon="15.038265606510512"><ele>8.666666666666666</ele><time>2026-04-11T14:48:51Z</time></trkpt><trkpt lat="36.71414863572621" lon="15.038103397939931"><ele>9.0</ele><time>2026-04-11T14:48:52Z</time></trkpt><trkpt lat="36.71406809359647" lon="15.037961028218641"><ele>9.0</ele><time>2026-04-11T14:48:53Z</time></trkpt><trkpt lat="36.71400314034822" lon="15.037843533807482"><ele>9.0</ele><time>2026-04-11T14:48:54Z</time></trkpt><trkpt lat="36.71395502699761" lon="15.037743738698229"><ele>9.0</ele><time>2026-04-11T14:48:55Z</time></trkpt><trkpt lat="36.713928557390425" lon="15.037655934807464"><ele>9.0</ele><time>2026-04-11T14:48:56Z</time></trkpt><trkpt lat="36.71394070528025" lon="15.037521776751069"><ele>9.0</ele><time>2026-04-11T14:48:58Z</time></trkpt><trkpt lat="36.71398014460352" lon="15.037458734665714"><ele>8.8</ele><time>2026-04-11T14:48:59Z</time></trkpt><trkpt lat="36.714043072864285" lon="15.037392426897197"><ele>8.600000000000001</ele><time>2026-04-11T14:49:00Z</time></trkpt><trkpt lat="36.714121119928556" lon="15.037325744400277"><ele>8.4</ele><time>2026-04-11T14:49:01Z</time></trkpt><trkpt lat="36.7142089982814" lon="15.037257586954553"><ele>8.200000000000001</ele><time>2026-04-11T14:49:02Z</time></trkpt><trkpt lat="36.71429295737423" lon="15.03719884622719"><ele>8.0</ele><time>2026-04-11T14:49:03Z</time></trkpt><trkpt lat="36.71443300389321" lon="15.03709167330678"><ele>7.25</ele><time>2026-04-11T14:49:04Z</time></trkpt><trkpt lat="36.71455478464343" lon="15.037001194045718"><ele>6.5</ele><time>2026-04-11T14:49:05Z</time></trkpt><trkpt lat="36.714663514782124" lon="15.036919188077123"><ele>5.75</ele><time>2026-04-11T14:49:06Z</time></trkpt><trkpt lat="36.71475878276801" lon="15.036845445640616"><ele>5.0</ele><time>2026-04-11T14:49:07Z</time></trkpt><trkpt lat="36.714845288073725" lon="15.036768698562518"><ele>5.0</ele><time>2026-04-11T14:49:08Z</time></trkpt><trkpt lat="36.71490162391275" lon="15.036684408247444"><ele>5.0</ele><time>2026-04-11T14:49:09Z</time></trkpt><trkpt lat="36.714958933448045" lon="15.036608007590482"><ele>5.0</ele><time>2026-04-11T14:49:10Z</time></trkpt><trkpt lat="36.714984850530925" lon="15.03651488144189"><ele>5.0</ele><time>2026-04-11T14:49:11Z</time></trkpt><trkpt lat="36.71496189772174" lon="15.036403572375987"><ele>5.0</ele><time>2026-04-11T14:49:12Z</time></trkpt><trkpt lat="36.71490555028535" lon="15.036279867254922"><ele>5.333333333333334</ele><time>2026-04-11T14:49:13Z</time></trkpt><trkpt lat="36.71482938725122" lon="15.036103088993574"><ele>5.666666666666667</ele><time>2026-04-11T14:49:14Z</time></trkpt><trkpt lat="36.71474083988447" lon="15.03591881356444"><ele>6.0</ele><time>2026-04-11T14:49:15Z</time></trkpt><trkpt lat="36.714662362839604" lon="15.03570081627895"><ele>5.666666666666667</ele><time>2026-04-11T14:49:16Z</time></trkpt><trkpt lat="36.71457203555831" lon="15.035473298357077"><ele>5.333333333333334</ele><time>2026-04-11T14:49:17Z</time></trkpt><trkpt lat="36.71447735212826" lon="15.035226857063389"><ele>5.0</ele><time>2026-04-11T14:49:18Z</time></trkpt><trkpt lat="36.71439714018263" lon="15.034967293467108"><ele>5.0</ele><time>2026-04-11T14:49:19Z</time></trkpt><trkpt lat="36.714322925606965" lon="15.034708311874134"><ele>5.0</ele><time>2026-04-11T14:49:20Z</time></trkpt><trkpt lat="36.7142553756905" lon="15.034427707052457"><ele>5.0</ele><time>2026-04-11T14:49:21Z</time></trkpt><trkpt lat="36.71420486521969" lon="15.034149876257922"><ele>5.0</ele><time>2026-04-11T14:49:22Z</time></trkpt><trkpt lat="36.71415448135519" lon="15.033874899258985"><ele>4.666666666666667</ele><time>2026-04-11T14:49:23Z</time></trkpt><trkpt lat="36.714109114808906" lon="15.033593249250986"><ele>4.333333333333333</ele><time>2026-04-11T14:49:24Z</time></trkpt><trkpt lat="36.714067693014954" lon="15.033341043397067"><ele>4.0</ele><time>2026-04-11T14:49:25Z</time></trkpt><trkpt lat="36.71402250618857" lon="15.033105683808255"><ele>4.0</ele><time>2026-04-11T14:49:26Z</time></trkpt><trkpt lat="36.71398280491548" lon="15.032879568664047"><ele>4.0</ele><time>2026-04-11T14:49:27Z</time></trkpt><trkpt lat="36.713942327126745" lon="15.032672022115614"><ele>4.0</ele><time>2026-04-11T14:49:28Z</time></trkpt><trkpt lat="36.71390840644684" lon="15.032476098158076"><ele>4.0</ele><time>2026-04-11T14:49:29Z</time></trkpt><trkpt lat="36.713872473236485" lon="15.032262659643136"><ele>4.0</ele><time>2026-04-11T14:49:30Z</time></trkpt><trkpt lat="36.713853414231565" lon="15.032035283276786"><ele>4.0</ele><time>2026-04-11T14:49:31Z</time></trkpt><trkpt lat="36.71384058822162" lon="15.031795793759807"><ele>3.6666666666666665</ele><time>2026-04-11T14:49:32Z</time></trkpt><trkpt lat="36.713843593182766" lon="15.03152875560828"><ele>3.333333333333333</ele><time>2026-04-11T14:49:33Z</time></trkpt><trkpt lat="36.71385844971354" lon="15.031245783757509"><ele>3.0</ele><time>2026-04-11T14:49:34Z</time></trkpt><trkpt lat="36.713880002934445" lon="15.030962377042872"><ele>2.6666666666666665</ele><time>2026-04-11T14:49:35Z</time></trkpt><trkpt lat="36.71389847859338" lon="15.030685004906593"><ele>2.333333333333333</ele><time>2026-04-11T14:49:36Z</time></trkpt><trkpt lat="36.713910052422705" lon="15.030428315591212"><ele>2.0</ele><time>2026-04-11T14:49:37Z</time></trkpt><trkpt lat="36.713923250895135" lon="15.030180591112355"><ele>1.6666666666666665</ele><time>2026-04-11T14:49:38Z</time></trkpt><trkpt lat="36.713941468729196" lon="15.029941660522383"><ele>1.3333333333333333</ele><time>2026-04-11T14:49:39Z</time></trkpt><trkpt lat="36.71396548933936" lon="15.029722767410265"><ele>1.0</ele><time>2026-04-11T14:49:40Z</time></trkpt><trkpt lat="36.71399623485637" lon="15.029495192278612"><ele>1.0</ele><time>2026-04-11T14:49:41Z</time></trkpt><trkpt lat="36.71404245791887" lon="15.029286914560762"><ele>1.0</ele><time>2026-04-11T14:49:42Z</time></trkpt><trkpt lat="36.714095493384505" lon="15.029089303273626"><ele>1.0</ele><time>2026-04-11T14:49:43Z</time></trkpt><trkpt lat="36.71414169628536" lon="15.028933169072513"><ele>1.25</ele><time>2026-04-11T14:49:44Z</time></trkpt><trkpt lat="36.71417019967331" lon="15.028754313099785"><ele>1.5</ele><time>2026-04-11T14:49:45Z</time></trkpt><trkpt lat="36.714169603218714" lon="15.028570261773824"><ele>1.75</ele><time>2026-04-11T14:49:46Z</time></trkpt><trkpt lat="36.71413558024305" lon="15.028384376458659"><ele>2.0</ele><time>2026-04-11T14:49:47Z</time></trkpt><trkpt lat="36.71404312592647" lon="15.028216373985288"><ele>2.0</ele><time>2026-04-11T14:49:48Z</time></trkpt><trkpt lat="36.71394807610976" lon="15.028013603245444"><ele>2.0</ele><time>2026-04-11T14:49:49Z</time></trkpt><trkpt lat="36.71381829087016" lon="15.027792314499987"><ele>2.0</ele><time>2026-04-11T14:49:50Z</time></trkpt><trkpt lat="36.71367605147285" lon="15.027551357874842"><ele>2.0</ele><time>2026-04-11T14:49:51Z</time></trkpt><trkpt lat="36.71353601354035" lon="15.02730623729106"><ele>2.0</ele><time>2026-04-11T14:49:52Z</time></trkpt><trkpt lat="36.71337559109259" lon="15.027038229179384"><ele>2.0</ele><time>2026-04-11T14:49:53Z</time></trkpt><trkpt lat="36.71321895185512" lon="15.026760628457033"><ele>2.0</ele><time>2026-04-11T14:49:54Z</time></trkpt><trkpt lat="36.713074692739696" lon="15.026507559861045"><ele>2.0</ele><time>2026-04-11T14:49:55Z</time></trkpt><trkpt lat="36.71294390896558" lon="15.026275092315746"><ele>2.0</ele><time>2026-04-11T14:49:56Z</time></trkpt><trkpt lat="36.71281368292427" lon="15.02603358047373"><ele>1.6666666666666665</ele><time>2026-04-11T14:49:57Z</time></trkpt><trkpt lat="36.71268512305337" lon="15.025806335723901"><ele>1.3333333333333333</ele><time>2026-04-11T14:49:58Z</time></trkpt><trkpt lat="36.71255797947493" lon="15.025572517453945"><ele>1.0</ele><time>2026-04-11T14:49:59Z</time></trkpt><trkpt lat="36.71242588558442" lon="15.02533361591152"><ele>1.0</ele><time>2026-04-11T14:50:00Z</time></trkpt><trkpt lat="36.712306631659956" lon="15.025103103401799"><ele>1.0</ele><time>2026-04-11T14:50:01Z</time></trkpt><trkpt lat="36.71219323320154" lon="15.024884845467376"><ele>1.0</ele><time>2026-04-11T14:50:02Z</time></trkpt><trkpt lat="36.712094764146975" lon="15.024673026591577"><ele>1.6666666666666665</ele><time>2026-04-11T14:50:02.999Z</time></trkpt><trkpt lat="36.712004802091926" lon="15.024477767165317"><ele>2.3333333333333335</ele><time>2026-04-11T14:50:03.999Z</time></trkpt><trkpt lat="36.71192405258391" lon="15.024272218547493"><ele>3.0</ele><time>2026-04-11T14:50:04.999Z</time></trkpt><trkpt lat="36.711860346710274" lon="15.024028630280045"><ele>3.0</ele><time>2026-04-11T14:50:05.999Z</time></trkpt><trkpt lat="36.71180993259075" lon="15.023758728879553"><ele>3.0</ele><time>2026-04-11T14:50:06.999Z</time></trkpt><trkpt lat="36.71176180875236" lon="15.023470545002805"><ele>2.5</ele><time>2026-04-11T14:50:07.999Z</time></trkpt><trkpt lat="36.71170541437303" lon="15.023180931387103"><ele>2.0</ele><time>2026-04-11T14:50:08.999Z</time></trkpt><trkpt lat="36.71165355703303" lon="15.022912848460473"><ele>2.0</ele><time>2026-04-11T14:50:09.999Z</time></trkpt><trkpt lat="36.71162012680627" lon="15.022665496096181"><ele>2.0</ele><time>2026-04-11T14:50:10.999Z</time></trkpt><trkpt lat="36.71159673159142" lon="15.022439964856956"><ele>2.0</ele><time>2026-04-11T14:50:11.999Z</time></trkpt><trkpt lat="36.71157470464745" lon="15.022232343163012"><ele>2.0</ele><time>2026-04-11T14:50:12.999Z</time></trkpt><trkpt lat="36.71155309595959" lon="15.022044406895498"><ele>2.0</ele><time>2026-04-11T14:50:13.999Z</time></trkpt><trkpt lat="36.711531211718935" lon="15.021868359095945"><ele>2.0</ele><time>2026-04-11T14:50:14.999Z</time></trkpt><trkpt lat="36.71151386452668" lon="15.021700644806664"><ele>2.0</ele><time>2026-04-11T14:50:15.999Z</time></trkpt><trkpt lat="36.711498019875776" lon="15.021528898282083"><ele>2.4000000000000004</ele><time>2026-04-11T14:50:16.999Z</time></trkpt><trkpt lat="36.71149695773863" lon="15.021368954442057"><ele>2.8000000000000003</ele><time>2026-04-11T14:50:17.999Z</time></trkpt><trkpt lat="36.71147204961031" lon="15.021233285960367"><ele>3.2</ele><time>2026-04-11T14:50:18.999Z</time></trkpt><trkpt lat="36.71142071339361" lon="15.021124086193021"><ele>3.6</ele><time>2026-04-11T14:50:19.999Z</time></trkpt><trkpt lat="36.71134004106547" lon="15.021074578838991"><ele>4.0</ele><time>2026-04-11T14:50:20.999Z</time></trkpt><trkpt lat="36.71127632440598" lon="15.021053355373017"><ele>4.0</ele><time>2026-04-11T14:50:21.999Z</time></trkpt><trkpt lat="36.711192061771506" lon="15.02099689559715"><ele>4.0</ele><time>2026-04-11T14:50:22.999Z</time></trkpt><trkpt lat="36.71099084887713" lon="15.02105707843552"><ele>4.0</ele><time>2026-04-11T14:50:23.999Z</time></trkpt><trkpt lat="36.71081540045215" lon="15.020981745225644"><ele>3.6666666666666665</ele><time>2026-04-11T14:50:24.999Z</time></trkpt><trkpt lat="36.71062572059666" lon="15.020930914343056"><ele>3.333333333333333</ele><time>2026-04-11T14:50:25.999Z</time></trkpt><trkpt lat="36.7103960525634" lon="15.020850044118218"><ele>3.0</ele><time>2026-04-11T14:50:26.999Z</time></trkpt><trkpt lat="36.71016966333152" lon="15.020772446508813"><ele>3.0</ele><time>2026-04-11T14:50:27.999Z</time></trkpt><trkpt lat="36.709964319759514" lon="15.020685410686648"><ele>3.0</ele><time>2026-04-11T14:50:28.999Z</time></trkpt><trkpt lat="36.70973200341648" lon="15.020604815187829"><ele>3.0</ele><time>2026-04-11T14:50:29.999Z</time></trkpt><trkpt lat="36.70950824551634" lon="15.020527947965832"><ele>3.0</ele><time>2026-04-11T14:50:30.999Z</time></trkpt><trkpt lat="36.70929527037945" lon="15.020450103602558"><ele>3.0</ele><time>2026-04-11T14:50:31.999Z</time></trkpt><trkpt lat="36.70908443069978" lon="15.02036986475932"><ele>3.0</ele><time>2026-04-11T14:50:32.999Z</time></trkpt><trkpt lat="36.70888183961602" lon="15.0202909908615"><ele>3.0</ele><time>2026-04-11T14:50:33.999Z</time></trkpt><trkpt lat="36.708698417625925" lon="15.020217607668021"><ele>2.6666666666666665</ele><time>2026-04-11T14:50:34.999Z</time></trkpt><trkpt lat="36.70852527958422" lon="15.020154121546929"><ele>2.333333333333333</ele><time>2026-04-11T14:50:35.999Z</time></trkpt><trkpt lat="36.708381022163685" lon="15.020105418601503"><ele>2.0</ele><time>2026-04-11T14:50:36.999Z</time></trkpt><trkpt lat="36.70823547946143" lon="15.020033368497142"><ele>2.0</ele><time>2026-04-11T14:50:37.999Z</time></trkpt><trkpt lat="36.708127015543276" lon="15.019946166761759"><ele>2.0</ele><time>2026-04-11T14:50:38.999Z</time></trkpt><trkpt lat="36.70800351560021" lon="15.019827470843882"><ele>2.0</ele><time>2026-04-11T14:50:39.999Z</time></trkpt><trkpt lat="36.70787757135213" lon="15.019673056089234"><ele>2.0</ele><time>2026-04-11T14:50:40.999Z</time></trkpt><trkpt lat="36.70778780293999" lon="15.019529557257208"><ele>2.0</ele><time>2026-04-11T14:50:41.999Z</time></trkpt><trkpt lat="36.707692190728885" lon="15.019382186996664"><ele>2.0</ele><time>2026-04-11T14:50:42.999Z</time></trkpt><trkpt lat="36.707632085776034" lon="15.019199156972885"><ele>2.0</ele><time>2026-04-11T14:50:43.999Z</time></trkpt><trkpt lat="36.70755945144591" lon="15.018953762651481"><ele>2.0</ele><time>2026-04-11T14:50:44.999Z</time></trkpt><trkpt lat="36.70748792019802" lon="15.018701263283372"><ele>2.0</ele><time>2026-04-11T14:50:45.999Z</time></trkpt><trkpt lat="36.70740984100034" lon="15.01844224360779"><ele>2.5</ele><time>2026-04-11T14:50:46.999Z</time></trkpt><trkpt lat="36.707324234946554" lon="15.018173349473763"><ele>3.0</ele><time>2026-04-11T14:50:47.999Z</time></trkpt><trkpt lat="36.707231872949535" lon="15.017894097547762"><ele>3.0</ele><time>2026-04-11T14:50:48.999Z</time></trkpt><trkpt lat="36.70714780162577" lon="15.017597759527742"><ele>3.0</ele><time>2026-04-11T14:50:49.999Z</time></trkpt><trkpt lat="36.707059163587935" lon="15.017309391107844"><ele>2.5</ele><time>2026-04-11T14:50:50.999Z</time></trkpt><trkpt lat="36.7069700450159" lon="15.01701630727445"><ele>2.0</ele><time>2026-04-11T14:50:51.999Z</time></trkpt><trkpt lat="36.70688211309923" lon="15.016729022459712"><ele>2.5</ele><time>2026-04-11T14:50:52.999Z</time></trkpt><trkpt lat="36.706791526389736" lon="15.016458631110849"><ele>3.0</ele><time>2026-04-11T14:50:54Z</time></trkpt><trkpt lat="36.70670796446255" lon="15.016206156845987"><ele>3.0</ele><time>2026-04-11T14:50:55Z</time></trkpt><trkpt lat="36.70663251565717" lon="15.015972068552564"><ele>3.0</ele><time>2026-04-11T14:50:56Z</time></trkpt><trkpt lat="36.706557701942344" lon="15.015751869411126"><ele>3.0</ele><time>2026-04-11T14:50:57Z</time></trkpt><trkpt lat="36.706487342577994" lon="15.015521405534201"><ele>3.0</ele><time>2026-04-11T14:50:58Z</time></trkpt><trkpt lat="36.70641217659133" lon="15.015290595980577"><ele>3.0</ele><time>2026-04-11T14:50:59Z</time></trkpt><trkpt lat="36.70633730494716" lon="15.015065889771943"><ele>3.0</ele><time>2026-04-11T14:51:00Z</time></trkpt><trkpt lat="36.70626933717641" lon="15.014852164103996"><ele>3.0</ele><time>2026-04-11T14:51:01Z</time></trkpt><trkpt lat="36.70619951711022" lon="15.014652745809538"><ele>3.0</ele><time>2026-04-11T14:51:02Z</time></trkpt><trkpt lat="36.70612887437522" lon="15.01445997924696"><ele>3.0</ele><time>2026-04-11T14:51:03Z</time></trkpt><trkpt lat="36.70606621260897" lon="15.014253966040572"><ele>2.6666666666666665</ele><time>2026-04-11T14:51:04Z</time></trkpt><trkpt lat="36.70601213057586" lon="15.014037047277931"><ele>2.333333333333333</ele><time>2026-04-11T14:51:05Z</time></trkpt><trkpt lat="36.70596948295641" lon="15.013883983502573"><ele>2.0</ele><time>2026-04-11T14:51:06Z</time></trkpt><trkpt lat="36.70596091203787" lon="15.013654697386581"><ele>2.0</ele><time>2026-04-11T14:51:07Z</time></trkpt><trkpt lat="36.70595635280702" lon="15.013441122059406"><ele>2.0</ele><time>2026-04-11T14:51:08Z</time></trkpt><trkpt lat="36.70594725466917" lon="15.0132478961211"><ele>2.0</ele><time>2026-04-11T14:51:09Z</time></trkpt><trkpt lat="36.70593631761738" lon="15.013067227465836"><ele>2.0</ele><time>2026-04-11T14:51:10Z</time></trkpt><trkpt lat="36.70593031907502" lon="15.012891368273136"><ele>2.0</ele><time>2026-04-11T14:51:11Z</time></trkpt><trkpt lat="36.705929411900954" lon="15.012710077531999"><ele>2.0</ele><time>2026-04-11T14:51:12Z</time></trkpt><trkpt lat="36.70594059834023" lon="15.012525603658405"><ele>2.0</ele><time>2026-04-11T14:51:13Z</time></trkpt><trkpt lat="36.70597046321981" lon="15.012336370472292"><ele>2.0</ele><time>2026-04-11T14:51:14Z</time></trkpt><trkpt lat="36.706015024379056" lon="15.012145849915496"><ele>2.0</ele><time>2026-04-11T14:51:15Z</time></trkpt><trkpt lat="36.70605684593888" lon="15.011955744785375"><ele>2.0</ele><time>2026-04-11T14:51:16Z</time></trkpt><trkpt lat="36.706089309020044" lon="15.011784288753576"><ele>2.25</ele><time>2026-04-11T14:51:17Z</time></trkpt><trkpt lat="36.706124802425464" lon="15.011620614943089"><ele>2.5</ele><time>2026-04-11T14:51:18Z</time></trkpt><trkpt lat="36.70616888963059" lon="15.011447235412678"><ele>2.75</ele><time>2026-04-11T14:51:19Z</time></trkpt><trkpt lat="36.7062157250159" lon="15.011263695960263"><ele>3.0</ele><time>2026-04-11T14:51:20Z</time></trkpt><trkpt lat="36.706258493991506" lon="15.011074914421823"><ele>3.0</ele><time>2026-04-11T14:51:21Z</time></trkpt><trkpt lat="36.70629592540255" lon="15.010893601946355"><ele>3.0</ele><time>2026-04-11T14:51:22Z</time></trkpt><trkpt lat="36.706332977536" lon="15.010718681776343"><ele>3.0</ele><time>2026-04-11T14:51:23Z</time></trkpt><trkpt lat="36.70636937834928" lon="15.010543427284528"><ele>3.0</ele><time>2026-04-11T14:51:24Z</time></trkpt><trkpt lat="36.70640979173698" lon="15.010367905624555"><ele>3.0</ele><time>2026-04-11T14:51:25Z</time></trkpt><trkpt lat="36.706455968089436" lon="15.010193487158128"><ele>3.0</ele><time>2026-04-11T14:51:26Z</time></trkpt><trkpt lat="36.70651418884497" lon="15.010019935507824"><ele>3.0</ele><time>2026-04-11T14:51:27Z</time></trkpt><trkpt lat="36.70658601367089" lon="15.009842883872796"><ele>2.6666666666666665</ele><time>2026-04-11T14:51:28Z</time></trkpt><trkpt lat="36.70666532521284" lon="15.00966236341926"><ele>2.333333333333333</ele><time>2026-04-11T14:51:29Z</time></trkpt><trkpt lat="36.706746173352926" lon="15.009486292005654"><ele>2.0</ele><time>2026-04-11T14:51:30Z</time></trkpt><trkpt lat="36.706821931256044" lon="15.009312314937599"><ele>2.0</ele><time>2026-04-11T14:51:31Z</time></trkpt><trkpt lat="36.706894225398734" lon="15.009150058847405"><ele>2.0</ele><time>2026-04-11T14:51:32Z</time></trkpt><trkpt lat="36.706960953854136" lon="15.008999865529056"><ele>2.0</ele><time>2026-04-11T14:51:33Z</time></trkpt><trkpt lat="36.70702713199571" lon="15.008860869573647"><ele>2.0</ele><time>2026-04-11T14:51:34Z</time></trkpt><trkpt lat="36.70709283679334" lon="15.00871343617172"><ele>2.0</ele><time>2026-04-11T14:51:35Z</time></trkpt><trkpt lat="36.70715569552646" lon="15.008554256884347"><ele>2.0</ele><time>2026-04-11T14:51:36Z</time></trkpt><trkpt lat="36.70720416358986" lon="15.008395460351474"><ele>2.0</ele><time>2026-04-11T14:51:37Z</time></trkpt><trkpt lat="36.70723593613588" lon="15.008247752689932"><ele>2.0</ele><time>2026-04-11T14:51:38Z</time></trkpt><trkpt lat="36.707266270548374" lon="15.008098408946214"><ele>1.75</ele><time>2026-04-11T14:51:39Z</time></trkpt><trkpt lat="36.70729975938751" lon="15.00794597799635"><ele>1.5</ele><time>2026-04-11T14:51:40Z</time></trkpt><trkpt lat="36.707329723540134" lon="15.007791785853732"><ele>1.25</ele><time>2026-04-11T14:51:41Z</time></trkpt><trkpt lat="36.707353542487795" lon="15.007634233867"><ele>1.0</ele><time>2026-04-11T14:51:42Z</time></trkpt><trkpt lat="36.70737298124574" lon="15.007477529966911"><ele>1.5</ele><time>2026-04-11T14:51:43Z</time></trkpt><trkpt lat="36.70738477656186" lon="15.007315553465236"><ele>2.0</ele><time>2026-04-11T14:51:44Z</time></trkpt><trkpt lat="36.70739710656592" lon="15.007142776421562"><ele>2.5</ele><time>2026-04-11T14:51:45Z</time></trkpt><trkpt lat="36.70740558814254" lon="15.006929121049843"><ele>3.0</ele><time>2026-04-11T14:51:46Z</time></trkpt><trkpt lat="36.70742196597015" lon="15.006704954819824"><ele>2.6666666666666665</ele><time>2026-04-11T14:51:47Z</time></trkpt><trkpt lat="36.70744365949151" lon="15.006463882706823"><ele>2.333333333333333</ele><time>2026-04-11T14:51:48Z</time></trkpt><trkpt lat="36.70746310865378" lon="15.006213889311022"><ele>2.0</ele><time>2026-04-11T14:51:49Z</time></trkpt><trkpt lat="36.707480054564925" lon="15.005971300884992"><ele>2.0</ele><time>2026-04-11T14:51:50Z</time></trkpt><trkpt lat="36.70749721648636" lon="15.00573387187776"><ele>2.0</ele><time>2026-04-11T14:51:51Z</time></trkpt><trkpt lat="36.707513073075845" lon="15.00548853656386"><ele>2.0</ele><time>2026-04-11T14:51:52Z</time></trkpt><trkpt lat="36.7075283063866" lon="15.005233315293657"><ele>2.0</ele><time>2026-04-11T14:51:53Z</time></trkpt><trkpt lat="36.70754265444687" lon="15.004980081208183"><ele>2.0</ele><time>2026-04-11T14:51:54Z</time></trkpt><trkpt lat="36.70755420188459" lon="15.00470481951027"><ele>2.0</ele><time>2026-04-11T14:51:55Z</time></trkpt><trkpt lat="36.70756750882659" lon="15.004433116817498"><ele>2.0</ele><time>2026-04-11T14:51:56Z</time></trkpt><trkpt lat="36.70758651773938" lon="15.004163480378267"><ele>2.0</ele><time>2026-04-11T14:51:57Z</time></trkpt><trkpt lat="36.70761716258034" lon="15.003916403909583"><ele>2.0</ele><time>2026-04-11T14:51:58Z</time></trkpt><trkpt lat="36.7076447980959" lon="15.003695132501571"><ele>2.333333333333333</ele><time>2026-04-11T14:51:59Z</time></trkpt><trkpt lat="36.70766680194651" lon="15.003490080044074"><ele>2.6666666666666665</ele><time>2026-04-11T14:52:00Z</time></trkpt><trkpt lat="36.70768926324728" lon="15.003300191840678"><ele>3.0</ele><time>2026-04-11T14:52:01Z</time></trkpt><trkpt lat="36.707728882762545" lon="15.003104676313015"><ele>1.6666666666666667</ele><time>2026-04-11T14:52:02Z</time></trkpt><trkpt lat="36.707790422039174" lon="15.00289853373621"><ele>0.33333333333333337</ele><time>2026-04-11T14:52:03Z</time></trkpt><trkpt lat="36.70785829304183" lon="15.002706279968963"><ele>-1.0</ele><time>2026-04-11T14:52:04Z</time></trkpt><trkpt lat="36.70791928285279" lon="15.00253264637372"><ele>-0.5</ele><time>2026-04-11T14:52:05Z</time></trkpt><trkpt lat="36.707972656463255" lon="15.002375828521547"><ele>0.0</ele><time>2026-04-11T14:52:06Z</time></trkpt><trkpt lat="36.708024550750345" lon="15.002209171254348"><ele>0.5</ele><time>2026-04-11T14:52:07Z</time></trkpt><trkpt lat="36.70806152271085" lon="15.002039897921772"><ele>1.0</ele><time>2026-04-11T14:52:08Z</time></trkpt><trkpt lat="36.70808476521875" lon="15.001879391333949"><ele>1.0</ele><time>2026-04-11T14:52:09Z</time></trkpt><trkpt lat="36.70808903875322" lon="15.001728488093267"><ele>1.0</ele><time>2026-04-11T14:52:10Z</time></trkpt><trkpt lat="36.708081979988755" lon="15.001583795375284"><ele>1.0</ele><time>2026-04-11T14:52:11Z</time></trkpt><trkpt lat="36.70806495133586" lon="15.001436894088084"><ele>1.0</ele><time>2026-04-11T14:52:12Z</time></trkpt><trkpt lat="36.708044294122715" lon="15.00130178647942"><ele>0.6000000000000001</ele><time>2026-04-11T14:52:13Z</time></trkpt><trkpt lat="36.70801422462637" lon="15.00117847068934"><ele>0.20000000000000007</ele><time>2026-04-11T14:52:13.999Z</time></trkpt><trkpt lat="36.70797117747656" lon="15.00106778172116"><ele>-0.20000000000000007</ele><time>2026-04-11T14:52:14.999Z</time></trkpt><trkpt lat="36.7079176211996" lon="15.000976272788945"><ele>-0.6000000000000001</ele><time>2026-04-11T14:52:15.999Z</time></trkpt><trkpt lat="36.707867390158285" lon="15.00088952332368"><ele>-1.0</ele><time>2026-04-11T14:52:16.999Z</time></trkpt><trkpt lat="36.70782708099956" lon="15.00081181395393"><ele>-1.2000000000000002</ele><time>2026-04-11T14:52:17.999Z</time></trkpt><trkpt lat="36.707764928064286" lon="15.000694580159983"><ele>-1.4000000000000001</ele><time>2026-04-11T14:52:19.999Z</time></trkpt><trkpt lat="36.70770112676157" lon="15.000585930967839"><ele>-1.6</ele><time>2026-04-11T14:52:21.999Z</time></trkpt><trkpt lat="36.707644914465156" lon="15.000472174470021"><ele>-1.8</ele><time>2026-04-11T14:52:23.999Z</time></trkpt><trkpt lat="36.70758780938333" lon="15.000368703906682"><ele>-2.0</ele><time>2026-04-11T14:52:25.999Z</time></trkpt><trkpt lat="36.70754824452496" lon="15.000298926663296"><ele>-2.25</ele><time>2026-04-11T14:52:27.999Z</time></trkpt><trkpt lat="36.70748200113033" lon="15.000147536721766"><ele>-2.5</ele><time>2026-04-11T14:52:29.999Z</time></trkpt><trkpt lat="36.7074397678125" lon="15.000059388432579"><ele>-2.75</ele><time>2026-04-11T14:52:30.999Z</time></trkpt><trkpt lat="36.707381258353784" lon="14.999944782766214"><ele>-3.0</ele><time>2026-04-11T14:52:31.999Z</time></trkpt><trkpt lat="36.70731707608406" lon="14.999807344030367"><ele>-3.0</ele><time>2026-04-11T14:52:32.999Z</time></trkpt><trkpt lat="36.70723299865738" lon="14.999640969534807"><ele>-3.0</ele><time>2026-04-11T14:52:33.999Z</time></trkpt><trkpt lat="36.70713620269797" lon="14.999453739632845"><ele>-3.0</ele><time>2026-04-11T14:52:34.999Z</time></trkpt><trkpt lat="36.707037704746696" lon="14.999247084457497"><ele>-2.0</ele><time>2026-04-11T14:52:35.999Z</time></trkpt><trkpt lat="36.706932169288635" lon="14.999033079295419"><ele>-1.0</ele><time>2026-04-11T14:52:36.999Z</time></trkpt><trkpt lat="36.70682285530175" lon="14.998820353159681"><ele>0.0</ele><time>2026-04-11T14:52:37.999Z</time></trkpt><trkpt lat="36.70670815743617" lon="14.998596971315406"><ele>0.3333333333333333</ele><time>2026-04-11T14:52:38.999Z</time></trkpt><trkpt lat="36.706594275562615" lon="14.998374256099058"><ele>0.6666666666666666</ele><time>2026-04-11T14:52:39.999Z</time></trkpt><trkpt lat="36.706486477219535" lon="14.998162188691676"><ele>1.0</ele><time>2026-04-11T14:52:40.999Z</time></trkpt><trkpt lat="36.70638485605369" lon="14.99796412958702"><ele>1.3333333333333333</ele><time>2026-04-11T14:52:41.999Z</time></trkpt><trkpt lat="36.70628608431683" lon="14.997778921789118"><ele>1.6666666666666665</ele><time>2026-04-11T14:52:42.999Z</time></trkpt><trkpt lat="36.70619529781649" lon="14.997603962074992"><ele>2.0</ele><time>2026-04-11T14:52:43.999Z</time></trkpt><trkpt lat="36.706114568259935" lon="14.99744388135826"><ele>2.0</ele><time>2026-04-11T14:52:44.999Z</time></trkpt><trkpt lat="36.70603582052828" lon="14.997289660531962"><ele>2.0</ele><time>2026-04-11T14:52:45.999Z</time></trkpt><trkpt lat="36.7059622724326" lon="14.997140482789105"><ele>2.0</ele><time>2026-04-11T14:52:46.999Z</time></trkpt><trkpt lat="36.705902277643396" lon="14.996968460102934"><ele>2.0</ele><time>2026-04-11T14:52:47.999Z</time></trkpt><trkpt lat="36.70585881380613" lon="14.99676385300089"><ele>2.0</ele><time>2026-04-11T14:52:48.999Z</time></trkpt><trkpt lat="36.705836401912045" lon="14.996547965553045"><ele>2.0</ele><time>2026-04-11T14:52:49.999Z</time></trkpt><trkpt lat="36.70583248493177" lon="14.996327388151272"><ele>2.0</ele><time>2026-04-11T14:52:50.999Z</time></trkpt><trkpt lat="36.70583953523586" lon="14.996105947181155"><ele>2.0</ele><time>2026-04-11T14:52:51.999Z</time></trkpt><trkpt lat="36.70585520718513" lon="14.99590454566351"><ele>2.0</ele><time>2026-04-11T14:52:52.999Z</time></trkpt><trkpt lat="36.70589047447905" lon="14.995701534154415"><ele>2.0</ele><time>2026-04-11T14:52:53.999Z</time></trkpt><trkpt lat="36.70594635952617" lon="14.995504390007323"><ele>3.0</ele><time>2026-04-11T14:52:54.999Z</time></trkpt><trkpt lat="36.70600989515744" lon="14.995335638852051"><ele>4.0</ele><time>2026-04-11T14:52:55.999Z</time></trkpt><trkpt lat="36.70609642457959" lon="14.995169859175334"><ele>5.0</ele><time>2026-04-11T14:52:56.999Z</time></trkpt><trkpt lat="36.70620410061058" lon="14.994999555583924"><ele>6.666666666666667</ele><time>2026-04-11T14:52:57.999Z</time></trkpt><trkpt lat="36.7063097714092" lon="14.99481635907166"><ele>8.333333333333334</ele><time>2026-04-11T14:52:58.999Z</time></trkpt><trkpt lat="36.70641363768471" lon="14.994623669385893"><ele>10.0</ele><time>2026-04-11T14:53:00Z</time></trkpt><trkpt lat="36.70652548792298" lon="14.994421752485362"><ele>10.0</ele><time>2026-04-11T14:53:01Z</time></trkpt><trkpt lat="36.70664235118851" lon="14.99421529491941"><ele>10.0</ele><time>2026-04-11T14:53:02Z</time></trkpt><trkpt lat="36.70676267487062" lon="14.993998820364158"><ele>10.0</ele><time>2026-04-11T14:53:03Z</time></trkpt><trkpt lat="36.706881922069634" lon="14.993778925688416"><ele>11.666666666666668</ele><time>2026-04-11T14:53:04Z</time></trkpt><trkpt lat="36.707003819911435" lon="14.993551794610951"><ele>13.333333333333334</ele><time>2026-04-11T14:53:05Z</time></trkpt><trkpt lat="36.707130849156265" lon="14.993318922327862"><ele>15.0</ele><time>2026-04-11T14:53:06Z</time></trkpt><trkpt lat="36.70726146179101" lon="14.993085915052417"><ele>15.0</ele><time>2026-04-11T14:53:07Z</time></trkpt><trkpt lat="36.70738704671352" lon="14.992866519708363"><ele>15.0</ele><time>2026-04-11T14:53:08Z</time></trkpt><trkpt lat="36.70750255685603" lon="14.992663675108336"><ele>15.0</ele><time>2026-04-11T14:53:09Z</time></trkpt><trkpt lat="36.70760674375557" lon="14.992473222518631"><ele>15.333333333333332</ele><time>2026-04-11T14:53:10Z</time></trkpt><trkpt lat="36.70770324933402" lon="14.992292313129273"><ele>15.666666666666666</ele><time>2026-04-11T14:53:11Z</time></trkpt><trkpt lat="36.70779774055972" lon="14.992117422333857"><ele>16.0</ele><time>2026-04-11T14:53:12Z</time></trkpt><trkpt lat="36.70789364510284" lon="14.99194541363757"><ele>15.5</ele><time>2026-04-11T14:53:13Z</time></trkpt><trkpt lat="36.70798189738505" lon="14.991787166035209"><ele>15.0</ele><time>2026-04-11T14:53:14Z</time></trkpt><trkpt lat="36.708068000529664" lon="14.991639236184293"><ele>14.5</ele><time>2026-04-11T14:53:15Z</time></trkpt><trkpt lat="36.70814896218803" lon="14.99150799074919"><ele>14.0</ele><time>2026-04-11T14:53:16Z</time></trkpt><trkpt lat="36.70822211640791" lon="14.991376349385817"><ele>14.666666666666668</ele><time>2026-04-11T14:53:17Z</time></trkpt><trkpt lat="36.708284609007414" lon="14.991256952201741"><ele>15.333333333333334</ele><time>2026-04-11T14:53:18Z</time></trkpt><trkpt lat="36.708341047097" lon="14.99115324816381"><ele>16.0</ele><time>2026-04-11T14:53:19Z</time></trkpt><trkpt lat="36.7083839821836" lon="14.991080195298164"><ele>16.666666666666668</ele><time>2026-04-11T14:53:20Z</time></trkpt><trkpt lat="36.70843556369642" lon="14.990991995195772"><ele>17.333333333333332</ele><time>2026-04-11T14:53:21Z</time></trkpt><trkpt lat="36.70847646933349" lon="14.990924118480867"><ele>18.0</ele><time>2026-04-11T14:53:23Z</time></trkpt><trkpt lat="36.70850469460326" lon="14.990836594907986"><ele>18.0</ele><time>2026-04-11T14:53:26Z</time></trkpt><trkpt lat="36.70851162208917" lon="14.990755772814602"><ele>18.0</ele><time>2026-04-11T14:53:28Z</time></trkpt><trkpt lat="36.70835721707202" lon="14.990676598057894"><ele>18.0</ele><time>2026-04-11T14:53:30Z</time></trkpt><trkpt lat="36.70828817833781" lon="14.990649054568511"><ele>18.0</ele><time>2026-04-11T14:53:31Z</time></trkpt><trkpt lat="36.708204272519886" lon="14.99067451995908"><ele>18.0</ele><time>2026-04-11T14:53:32Z</time></trkpt><trkpt lat="36.70807425405401" lon="14.990646133926559"><ele>18.0</ele><time>2026-04-11T14:53:33Z</time></trkpt><trkpt lat="36.70791434931016" lon="14.990659381992309"><ele>18.0</ele><time>2026-04-11T14:53:34Z</time></trkpt><trkpt lat="36.70774457349396" lon="14.990669317744288"><ele>18.0</ele><time>2026-04-11T14:53:35Z</time></trkpt><trkpt lat="36.707547093882795" lon="14.990677141323715"><ele>18.666666666666668</ele><time>2026-04-11T14:53:36Z</time></trkpt><trkpt lat="36.70734415806761" lon="14.990687753250079"><ele>19.333333333333336</ele><time>2026-04-11T14:53:37Z</time></trkpt><trkpt lat="36.70713362348342" lon="14.99069509293048"><ele>20.0</ele><time>2026-04-11T14:53:38Z</time></trkpt><trkpt lat="36.70689888395699" lon="14.990689853229137"><ele>20.0</ele><time>2026-04-11T14:53:39Z</time></trkpt><trkpt lat="36.70669093949462" lon="14.99068739990523"><ele>20.0</ele><time>2026-04-11T14:53:40Z</time></trkpt><trkpt lat="36.70648542977207" lon="14.990693193583445"><ele>20.0</ele><time>2026-04-11T14:53:41Z</time></trkpt><trkpt lat="36.706286800931764" lon="14.990691444104861"><ele>20.0</ele><time>2026-04-11T14:53:42Z</time></trkpt><trkpt lat="36.70610296606074" lon="14.99068838741516"><ele>20.0</ele><time>2026-04-11T14:53:43Z</time></trkpt><trkpt lat="36.70593691779362" lon="14.99068338769661"><ele>20.0</ele><time>2026-04-11T14:53:44Z</time></trkpt><trkpt lat="36.705780228141656" lon="14.990677812807503"><ele>19.75</ele><time>2026-04-11T14:53:45Z</time></trkpt><trkpt lat="36.705636296314786" lon="14.990674768494317"><ele>19.5</ele><time>2026-04-11T14:53:46Z</time></trkpt><trkpt lat="36.70549991686731" lon="14.99068445245543"><ele>19.25</ele><time>2026-04-11T14:53:47Z</time></trkpt><trkpt lat="36.70537618107071" lon="14.990693604701013"><ele>19.0</ele><time>2026-04-11T14:53:48Z</time></trkpt><trkpt lat="36.7052658831693" lon="14.990695952422929"><ele>19.5</ele><time>2026-04-11T14:53:49Z</time></trkpt><trkpt lat="36.70519318198921" lon="14.990687989463224"><ele>20.0</ele><time>2026-04-11T14:53:50Z</time></trkpt><trkpt lat="36.70510665035897" lon="14.990690575774297"><ele>20.5</ele><time>2026-04-11T14:53:51Z</time></trkpt><trkpt lat="36.70500841922872" lon="14.990691157318755"><ele>21.0</ele><time>2026-04-11T14:53:52Z</time></trkpt><trkpt lat="36.704921935410226" lon="14.990693355168604"><ele>21.5</ele><time>2026-04-11T14:53:53Z</time></trkpt><trkpt lat="36.704842397484605" lon="14.990693442923842"><ele>22.0</ele><time>2026-04-11T14:53:54Z</time></trkpt><trkpt lat="36.704753261205234" lon="14.990697681116623"><ele>22.0</ele><time>2026-04-11T14:53:55Z</time></trkpt><trkpt lat="36.70464656155682" lon="14.990702305565435"><ele>22.0</ele><time>2026-04-11T14:53:56Z</time></trkpt><trkpt lat="36.704558094216" lon="14.990705660111692"><ele>22.0</ele><time>2026-04-11T14:53:57Z</time></trkpt><trkpt lat="36.704492202117265" lon="14.990707872680446"><ele>22.0</ele><time>2026-04-11T14:53:58Z</time></trkpt><trkpt lat="36.70442735491464" lon="14.990713027466896"><ele>22.0</ele><time>2026-04-11T14:53:59Z</time></trkpt><trkpt lat="36.70434369785181" lon="14.990719174078238"><ele>22.0</ele><time>2026-04-11T14:54:00Z</time></trkpt><trkpt lat="36.70426472499042" lon="14.990722391097753"><ele>21.8</ele><time>2026-04-11T14:54:01Z</time></trkpt><trkpt lat="36.7041856543616" lon="14.990722288933892"><ele>21.6</ele><time>2026-04-11T14:54:02Z</time></trkpt><trkpt lat="36.70408809581023" lon="14.99071979821717"><ele>21.400000000000002</ele><time>2026-04-11T14:54:03Z</time></trkpt><trkpt lat="36.70396411328194" lon="14.990719821212023"><ele>21.200000000000003</ele><time>2026-04-11T14:54:04Z</time></trkpt><trkpt lat="36.70384298548624" lon="14.990730625697617"><ele>21.0</ele><time>2026-04-11T14:54:05Z</time></trkpt><trkpt lat="36.70374479561683" lon="14.990737143615956"><ele>21.0</ele><time>2026-04-11T14:54:06Z</time></trkpt><trkpt lat="36.70364647706766" lon="14.990738487269907"><ele>21.0</ele><time>2026-04-11T14:54:07Z</time></trkpt><trkpt lat="36.7035252579258" lon="14.990742444750317"><ele>21.0</ele><time>2026-04-11T14:54:08Z</time></trkpt><trkpt lat="36.70339105274364" lon="14.990746069645796"><ele>21.0</ele><time>2026-04-11T14:54:09Z</time></trkpt><trkpt lat="36.70324410907337" lon="14.990747540474867"><ele>20.0</ele><time>2026-04-11T14:54:10Z</time></trkpt><trkpt lat="36.70309456904788" lon="14.990751613870422"><ele>19.0</ele><time>2026-04-11T14:54:11Z</time></trkpt><trkpt lat="36.70293621380028" lon="14.990734285387319"><ele>18.0</ele><time>2026-04-11T14:54:12Z</time></trkpt><trkpt lat="36.702776486310626" lon="14.990737467011034"><ele>16.666666666666668</ele><time>2026-04-11T14:54:13Z</time></trkpt><trkpt lat="36.70260798633634" lon="14.990740823375488"><ele>15.333333333333334</ele><time>2026-04-11T14:54:14Z</time></trkpt><trkpt lat="36.70242598914789" lon="14.990762576634914"><ele>14.0</ele><time>2026-04-11T14:54:15Z</time></trkpt><trkpt lat="36.70223792291699" lon="14.990767560771456"><ele>14.0</ele><time>2026-04-11T14:54:16Z</time></trkpt><trkpt lat="36.70203794531004" lon="14.990752178069624"><ele>14.0</ele><time>2026-04-11T14:54:17Z</time></trkpt><trkpt lat="36.70182680590222" lon="14.990756383773004"><ele>14.0</ele><time>2026-04-11T14:54:18Z</time></trkpt><trkpt lat="36.70160873256317" lon="14.990760727593988"><ele>11.5</ele><time>2026-04-11T14:54:19Z</time></trkpt><trkpt lat="36.70138255623743" lon="14.990765232819598"><ele>9.0</ele><time>2026-04-11T14:54:20Z</time></trkpt><trkpt lat="36.701158215529496" lon="14.99077007275737"><ele>8.5</ele><time>2026-04-11T14:54:21Z</time></trkpt><trkpt lat="36.700927890347536" lon="14.990793050647206"><ele>8.0</ele><time>2026-04-11T14:54:22Z</time></trkpt><trkpt lat="36.700682917262164" lon="14.990792949166055"><ele>8.0</ele><time>2026-04-11T14:54:23Z</time></trkpt><trkpt lat="36.70044377927432" lon="14.990800617080483"><ele>8.0</ele><time>2026-04-11T14:54:24Z</time></trkpt><trkpt lat="36.70020820390199" lon="14.99080270123833"><ele>8.0</ele><time>2026-04-11T14:54:25Z</time></trkpt><trkpt lat="36.699996308186805" lon="14.990811261094272"><ele>8.0</ele><time>2026-04-11T14:54:26Z</time></trkpt><trkpt lat="36.6998040594298" lon="14.990809816322706"><ele>8.0</ele><time>2026-04-11T14:54:26.999Z</time></trkpt><trkpt lat="36.6996323294968" lon="14.99079590881228"><ele>8.0</ele><time>2026-04-11T14:54:27.999Z</time></trkpt><trkpt lat="36.6994800970906" lon="14.990758966790164"><ele>8.0</ele><time>2026-04-11T14:54:28.999Z</time></trkpt><trkpt lat="36.69932451561784" lon="14.990700188403439"><ele>8.0</ele><time>2026-04-11T14:54:29.999Z</time></trkpt><trkpt lat="36.69916581555214" lon="14.990612797679653"><ele>7.666666666666666</ele><time>2026-04-11T14:54:30.999Z</time></trkpt><trkpt lat="36.69901670268666" lon="14.990504366233933"><ele>7.333333333333334</ele><time>2026-04-11T14:54:31.999Z</time></trkpt><trkpt lat="36.69889065352264" lon="14.990377249808441"><ele>7.0</ele><time>2026-04-11T14:54:32.999Z</time></trkpt><trkpt lat="36.69877970898" lon="14.99023477559443"><ele>7.0</ele><time>2026-04-11T14:54:33.999Z</time></trkpt><trkpt lat="36.698678058405285" lon="14.990069353298303"><ele>7.0</ele><time>2026-04-11T14:54:34.999Z</time></trkpt><trkpt lat="36.698589183808195" lon="14.989892070102277"><ele>7.0</ele><time>2026-04-11T14:54:35.999Z</time></trkpt><trkpt lat="36.6985147233972" lon="14.989703110360502"><ele>7.333333333333334</ele><time>2026-04-11T14:54:36.999Z</time></trkpt><trkpt lat="36.6984492256797" lon="14.989508123051154"><ele>7.666666666666666</ele><time>2026-04-11T14:54:37.999Z</time></trkpt><trkpt lat="36.6983860147459" lon="14.989299060099658"><ele>8.0</ele><time>2026-04-11T14:54:38.999Z</time></trkpt><trkpt lat="36.69832541116148" lon="14.989079571030807"><ele>8.0</ele><time>2026-04-11T14:54:39.999Z</time></trkpt><trkpt lat="36.69826126091183" lon="14.988846000745967"><ele>8.0</ele><time>2026-04-11T14:54:40.999Z</time></trkpt><trkpt lat="36.69819653776946" lon="14.98862814433829"><ele>8.0</ele><time>2026-04-11T14:54:41.999Z</time></trkpt><trkpt lat="36.69813453592295" lon="14.98842694335854"><ele>7.0</ele><time>2026-04-11T14:54:42.999Z</time></trkpt><trkpt lat="36.698073803110006" lon="14.988244276103385"><ele>6.0</ele><time>2026-04-11T14:54:43.999Z</time></trkpt><trkpt lat="36.69801786171146" lon="14.988069463542121"><ele>5.0</ele><time>2026-04-11T14:54:44.999Z</time></trkpt><trkpt lat="36.69797071798952" lon="14.987906753077313"><ele>4.0</ele><time>2026-04-11T14:54:45.999Z</time></trkpt><trkpt lat="36.697928372224084" lon="14.987747701977625"><ele>4.0</ele><time>2026-04-11T14:54:46.999Z</time></trkpt><trkpt lat="36.69789127272586" lon="14.987593351982946"><ele>4.0</ele><time>2026-04-11T14:54:47.999Z</time></trkpt><trkpt lat="36.697858971930295" lon="14.987447105475097"><ele>4.0</ele><time>2026-04-11T14:54:48.999Z</time></trkpt><trkpt lat="36.69783290248248" lon="14.987299433881576"><ele>4.0</ele><time>2026-04-11T14:54:49.999Z</time></trkpt><trkpt lat="36.69781393864066" lon="14.987154969432433"><ele>4.0</ele><time>2026-04-11T14:54:50.999Z</time></trkpt><trkpt lat="36.6977926891034" lon="14.98700857366014"><ele>4.0</ele><time>2026-04-11T14:54:51.999Z</time></trkpt><trkpt lat="36.697763804219555" lon="14.986852831449847"><ele>4.0</ele><time>2026-04-11T14:54:52.999Z</time></trkpt><trkpt lat="36.69773322510619" lon="14.986687366477241"><ele>4.0</ele><time>2026-04-11T14:54:53.999Z</time></trkpt><trkpt lat="36.69770177865289" lon="14.986518852765112"><ele>4.0</ele><time>2026-04-11T14:54:54.999Z</time></trkpt><trkpt lat="36.69767136113159" lon="14.986337882244376"><ele>4.0</ele><time>2026-04-11T14:54:55.999Z</time></trkpt><trkpt lat="36.6976401000177" lon="14.986142370777792"><ele>4.0</ele><time>2026-04-11T14:54:56.999Z</time></trkpt><trkpt lat="36.69761107849912" lon="14.98594458998136"><ele>4.333333333333333</ele><time>2026-04-11T14:54:57.999Z</time></trkpt><trkpt lat="36.69757812406599" lon="14.985741648456655"><ele>4.666666666666667</ele><time>2026-04-11T14:54:58.999Z</time></trkpt><trkpt lat="36.697541064548716" lon="14.985546942871474"><ele>5.0</ele><time>2026-04-11T14:54:59.999Z</time></trkpt><trkpt lat="36.69750310960016" lon="14.985353283677275"><ele>5.0</ele><time>2026-04-11T14:55:00.999Z</time></trkpt><trkpt lat="36.69745994519877" lon="14.9851610294416"><ele>5.0</ele><time>2026-04-11T14:55:01.999Z</time></trkpt><trkpt lat="36.697411323536286" lon="14.984972808487914"><ele>5.0</ele><time>2026-04-11T14:55:02.999Z</time></trkpt><trkpt lat="36.697356055805564" lon="14.984789143744448"><ele>4.666666666666667</ele><time>2026-04-11T14:55:03.999Z</time></trkpt><trkpt lat="36.69729106221698" lon="14.984608109017474"><ele>4.333333333333333</ele><time>2026-04-11T14:55:04.999Z</time></trkpt><trkpt lat="36.69723259230362" lon="14.984434205140072"><ele>4.0</ele><time>2026-04-11T14:55:06Z</time></trkpt><trkpt lat="36.69717271233206" lon="14.984263436803438"><ele>4.0</ele><time>2026-04-11T14:55:07Z</time></trkpt><trkpt lat="36.6971161151639" lon="14.98408382804182"><ele>4.0</ele><time>2026-04-11T14:55:08Z</time></trkpt><trkpt lat="36.69705811673013" lon="14.983912100973605"><ele>4.0</ele><time>2026-04-11T14:55:09Z</time></trkpt><trkpt lat="36.69700465449412" lon="14.983751567985125"><ele>4.0</ele><time>2026-04-11T14:55:10Z</time></trkpt><trkpt lat="36.696952681719715" lon="14.983596486530386"><ele>4.75</ele><time>2026-04-11T14:55:11Z</time></trkpt><trkpt lat="36.69690170141753" lon="14.983441706705618"><ele>5.5</ele><time>2026-04-11T14:55:12Z</time></trkpt><trkpt lat="36.69684628136708" lon="14.983276668254636"><ele>6.25</ele><time>2026-04-11T14:55:13Z</time></trkpt><trkpt lat="36.69679347646757" lon="14.983112873219458"><ele>7.0</ele><time>2026-04-11T14:55:14Z</time></trkpt><trkpt lat="36.696742075663735" lon="14.982958438656649"><ele>7.0</ele><time>2026-04-11T14:55:15Z</time></trkpt><trkpt lat="36.69668628227244" lon="14.982787741053535"><ele>7.0</ele><time>2026-04-11T14:55:16Z</time></trkpt><trkpt lat="36.696624871979495" lon="14.982601054140707"><ele>7.0</ele><time>2026-04-11T14:55:17Z</time></trkpt><trkpt lat="36.69655816795753" lon="14.982402736462138"><ele>6.666666666666667</ele><time>2026-04-11T14:55:18Z</time></trkpt><trkpt lat="36.69648579392335" lon="14.982199218073783"><ele>6.333333333333334</ele><time>2026-04-11T14:55:19Z</time></trkpt><trkpt lat="36.69641082638234" lon="14.981980039828825"><ele>6.0</ele><time>2026-04-11T14:55:20Z</time></trkpt><trkpt lat="36.69633772774745" lon="14.98174742585063"><ele>6.0</ele><time>2026-04-11T14:55:21Z</time></trkpt><trkpt lat="36.69626181600279" lon="14.981505721981833"><ele>6.0</ele><time>2026-04-11T14:55:22Z</time></trkpt><trkpt lat="36.69617861864224" lon="14.981257717158934"><ele>6.0</ele><time>2026-04-11T14:55:23Z</time></trkpt><trkpt lat="36.696090642714154" lon="14.981008271536014"><ele>7.0</ele><time>2026-04-11T14:55:24Z</time></trkpt><trkpt lat="36.69599735436579" lon="14.980757671851457"><ele>8.0</ele><time>2026-04-11T14:55:25Z</time></trkpt><trkpt lat="36.69590131019857" lon="14.9805133073925"><ele>9.0</ele><time>2026-04-11T14:55:26Z</time></trkpt><trkpt lat="36.695810312985" lon="14.980287396705311"><ele>9.0</ele><time>2026-04-11T14:55:27Z</time></trkpt><trkpt lat="36.695721170998986" lon="14.980072245962932"><ele>9.0</ele><time>2026-04-11T14:55:28Z</time></trkpt><trkpt lat="36.69563157780456" lon="14.979850465776892"><ele>9.0</ele><time>2026-04-11T14:55:29Z</time></trkpt><trkpt lat="36.69553693134391" lon="14.979630810288956"><ele>9.333333333333334</ele><time>2026-04-11T14:55:30Z</time></trkpt><trkpt lat="36.69544496997943" lon="14.979423366391899"><ele>9.666666666666668</ele><time>2026-04-11T14:55:31Z</time></trkpt><trkpt lat="36.69536013736324" lon="14.979225609189104"><ele>10.0</ele><time>2026-04-11T14:55:32Z</time></trkpt><trkpt lat="36.695281318999356" lon="14.97902701650687"><ele>9.333333333333334</ele><time>2026-04-11T14:55:33Z</time></trkpt><trkpt lat="36.695205191556845" lon="14.978824919491737"><ele>8.666666666666666</ele><time>2026-04-11T14:55:34Z</time></trkpt><trkpt lat="36.69513505523051" lon="14.97861011784894"><ele>8.0</ele><time>2026-04-11T14:55:35Z</time></trkpt><trkpt lat="36.695073232574735" lon="14.978367706978364"><ele>8.0</ele><time>2026-04-11T14:55:36Z</time></trkpt><trkpt lat="36.69502012734524" lon="14.978111954792388"><ele>8.0</ele><time>2026-04-11T14:55:37Z</time></trkpt><trkpt lat="36.69497186536207" lon="14.977838155505124"><ele>8.0</ele><time>2026-04-11T14:55:38Z</time></trkpt><trkpt lat="36.694901436032126" lon="14.977565905297718"><ele>7.0</ele><time>2026-04-11T14:55:39Z</time></trkpt><trkpt lat="36.6948441914234" lon="14.977279979302805"><ele>6.0</ele><time>2026-04-11T14:55:40Z</time></trkpt><trkpt lat="36.694786079640835" lon="14.976989722058907"><ele>6.0</ele><time>2026-04-11T14:55:41Z</time></trkpt><trkpt lat="36.69472808963224" lon="14.976700072978185"><ele>6.0</ele><time>2026-04-11T14:55:42Z</time></trkpt><trkpt lat="36.694671305961144" lon="14.976416907449998"><ele>6.0</ele><time>2026-04-11T14:55:43Z</time></trkpt><trkpt lat="36.69462755135364" lon="14.976133556030897"><ele>6.0</ele><time>2026-04-11T14:55:44Z</time></trkpt><trkpt lat="36.69456929802791" lon="14.97585201785165"><ele>5.5</ele><time>2026-04-11T14:55:45Z</time></trkpt><trkpt lat="36.694512583011765" lon="14.975566771100842"><ele>5.0</ele><time>2026-04-11T14:55:46Z</time></trkpt><trkpt lat="36.69445842502982" lon="14.975287959438216"><ele>5.0</ele><time>2026-04-11T14:55:47Z</time></trkpt><trkpt lat="36.69440314880374" lon="14.975013175909721"><ele>5.0</ele><time>2026-04-11T14:55:48Z</time></trkpt><trkpt lat="36.69434696424583" lon="14.974738363935503"><ele>5.0</ele><time>2026-04-11T14:55:49Z</time></trkpt><trkpt lat="36.69429345201034" lon="14.974461413634218"><ele>5.0</ele><time>2026-04-11T14:55:50Z</time></trkpt><trkpt lat="36.69423774374567" lon="14.97419480946386"><ele>5.0</ele><time>2026-04-11T14:55:51Z</time></trkpt><trkpt lat="36.69418304070317" lon="14.97392944979248"><ele>5.0</ele><time>2026-04-11T14:55:52Z</time></trkpt><trkpt lat="36.694120463246165" lon="14.973670178516855"><ele>5.0</ele><time>2026-04-11T14:55:53Z</time></trkpt><trkpt lat="36.694082008903365" lon="14.97341488899355"><ele>5.0</ele><time>2026-04-11T14:55:54Z</time></trkpt><trkpt lat="36.69405618783667" lon="14.973164943039427"><ele>5.0</ele><time>2026-04-11T14:55:55Z</time></trkpt><trkpt lat="36.69403903982896" lon="14.972924457769494"><ele>5.0</ele><time>2026-04-11T14:55:56Z</time></trkpt><trkpt lat="36.69405902139614" lon="14.972673174797567"><ele>5.0</ele><time>2026-04-11T14:55:57Z</time></trkpt><trkpt lat="36.69406970098395" lon="14.972436239194195"><ele>5.0</ele><time>2026-04-11T14:55:58Z</time></trkpt><trkpt lat="36.69409003875439" lon="14.972194923600382"><ele>5.0</ele><time>2026-04-11T14:55:59Z</time></trkpt><trkpt lat="36.69412369386122" lon="14.971952274001259"><ele>5.0</ele><time>2026-04-11T14:56:00Z</time></trkpt><trkpt lat="36.69416281916692" lon="14.971695793787188"><ele>4.666666666666667</ele><time>2026-04-11T14:56:01Z</time></trkpt><trkpt lat="36.69419878671316" lon="14.971436722157124"><ele>4.333333333333333</ele><time>2026-04-11T14:56:02Z</time></trkpt><trkpt lat="36.69423128927763" lon="14.97117467076466"><ele>4.0</ele><time>2026-04-11T14:56:03Z</time></trkpt><trkpt lat="36.69426338091342" lon="14.970916850808015"><ele>4.666666666666666</ele><time>2026-04-11T14:56:04Z</time></trkpt><trkpt lat="36.69429231990261" lon="14.970671841315552"><ele>5.333333333333333</ele><time>2026-04-11T14:56:05Z</time></trkpt><trkpt lat="36.694317927516074" lon="14.970449733318382"><ele>6.0</ele><time>2026-04-11T14:56:06Z</time></trkpt><trkpt lat="36.69434162502962" lon="14.970243449601872"><ele>6.0</ele><time>2026-04-11T14:56:07Z</time></trkpt><trkpt lat="36.694361605849984" lon="14.970052640987696"><ele>6.0</ele><time>2026-04-11T14:56:08Z</time></trkpt><trkpt lat="36.6943797397214" lon="14.969872954902872"><ele>6.0</ele><time>2026-04-11T14:56:09Z</time></trkpt><trkpt lat="36.69439376539726" lon="14.969706315133434"><ele>6.0</ele><time>2026-04-11T14:56:10Z</time></trkpt><trkpt lat="36.694406233756666" lon="14.969555015561014"><ele>6.166666666666667</ele><time>2026-04-11T14:56:11Z</time></trkpt><trkpt lat="36.69441709215787" lon="14.969431075843943"><ele>6.333333333333334</ele><time>2026-04-11T14:56:12Z</time></trkpt><trkpt lat="36.69442342759239" lon="14.969337800697106"><ele>6.5</ele><time>2026-04-11T14:56:13Z</time></trkpt><trkpt lat="36.69443085227443" lon="14.969238087896167"><ele>6.666666666666667</ele><time>2026-04-11T14:56:15Z</time></trkpt><trkpt lat="36.69435653808712" lon="14.969220776363949"><ele>6.833333333333334</ele><time>2026-04-11T14:56:22Z</time></trkpt><trkpt lat="36.69427626889534" lon="14.969198968914288"><ele>7.0</ele><time>2026-04-11T14:56:23Z</time></trkpt><trkpt lat="36.694195198401616" lon="14.969191824264636"><ele>7.000000000000001</ele><time>2026-04-11T14:56:25Z</time></trkpt><trkpt lat="36.694127226930135" lon="14.969213926832847"><ele>7.0</ele><time>2026-04-11T14:56:27Z</time></trkpt><trkpt lat="36.69403434249398" lon="14.969205504244037"><ele>7.0</ele><time>2026-04-11T14:56:29Z</time></trkpt><trkpt lat="36.693944321986166" lon="14.969226403434659"><ele>7.0</ele><time>2026-04-11T14:56:31Z</time></trkpt><trkpt lat="36.69385752805506" lon="14.969225439179338"><ele>7.000000000000001</ele><time>2026-04-11T14:56:33Z</time></trkpt><trkpt lat="36.693781439498935" lon="14.969212535868675"><ele>7.0</ele><time>2026-04-11T14:56:34.999Z</time></trkpt><trkpt lat="36.69371380170486" lon="14.969212998399026"><ele>7.000000000000001</ele><time>2026-04-11T14:56:36.999Z</time></trkpt><trkpt lat="36.693624959143946" lon="14.969206701483506"><ele>7.0</ele><time>2026-04-11T14:56:39.999Z</time></trkpt><trkpt lat="36.69354908936579" lon="14.969171225350408"><ele>7.0</ele><time>2026-04-11T14:56:43.999Z</time></trkpt><trkpt lat="36.6934687708448" lon="14.969141509577266"><ele>7.0</ele><time>2026-04-11T14:56:45.999Z</time></trkpt><trkpt lat="36.693414979759346" lon="14.96908581624484"><ele>7.000000000000001</ele><time>2026-04-11T14:56:47.999Z</time></trkpt><trkpt lat="36.69334713392146" lon="14.969042607945754"><ele>7.0</ele><time>2026-04-11T14:56:49.999Z</time></trkpt><trkpt lat="36.693287570069955" lon="14.969004674113455"><ele>7.0</ele><time>2026-04-11T14:56:51.999Z</time></trkpt><trkpt lat="36.69323040233653" lon="14.969085470197472"><ele>6.999999999999999</ele><time>2026-04-11T14:56:52.999Z</time></trkpt><trkpt lat="36.69318186847656" lon="14.96917670813862"><ele>6.999999999999999</ele><time>2026-04-11T14:56:54.999Z</time></trkpt><trkpt lat="36.69316222212485" lon="14.969311944344694"><ele>7.0</ele><time>2026-04-11T14:56:56.999Z</time></trkpt><trkpt lat="36.693120844931165" lon="14.969395559705692"><ele>7.0</ele><time>2026-04-11T14:56:58.999Z</time></trkpt><trkpt lat="36.69315976761274" lon="14.96951800539245"><ele>7.142857142857142</ele><time>2026-04-11T14:57:00.999Z</time></trkpt><trkpt lat="36.69319629683417" lon="14.969631589352417"><ele>7.285714285714286</ele><time>2026-04-11T14:57:02.999Z</time></trkpt><trkpt lat="36.69319928993511" lon="14.969711246379859"><ele>7.428571428571429</ele><time>2026-04-11T14:57:03.999Z</time></trkpt><trkpt lat="36.693174580394505" lon="14.96978689975579"><ele>7.571428571428571</ele><time>2026-04-11T14:57:04.999Z</time></trkpt><trkpt lat="36.69313291648559" lon="14.969863554828073"><ele>7.7142857142857135</ele><time>2026-04-11T14:57:05.999Z</time></trkpt><trkpt lat="36.69309817639179" lon="14.969941532048772"><ele>7.857142857142857</ele><time>2026-04-11T14:57:06.999Z</time></trkpt><trkpt lat="36.69307308632118" lon="14.970019667840038"><ele>8.0</ele><time>2026-04-11T14:57:07.999Z</time></trkpt><trkpt lat="36.69302426879625" lon="14.970132566502103"><ele>7.666666666666666</ele><time>2026-04-11T14:57:09.999Z</time></trkpt><trkpt lat="36.6929714656996" lon="14.970219676952626"><ele>7.333333333333333</ele><time>2026-04-11T14:57:12Z</time></trkpt><trkpt lat="36.69289847442818" lon="14.970220738393751"><ele>7.0</ele><time>2026-04-11T14:57:14Z</time></trkpt><trkpt lat="36.692828840372925" lon="14.97021575903873"><ele>6.666666666666666</ele><time>2026-04-11T14:57:16Z</time></trkpt><trkpt lat="36.692733491701624" lon="14.970236017737987"><ele>6.333333333333333</ele><time>2026-04-11T14:57:19Z</time></trkpt><trkpt lat="36.69268330636423" lon="14.970284804480698"><ele>6.0</ele><time>2026-04-11T14:59:46Z</time></trkpt><trkpt lat="36.692664806250534" lon="14.970364676552219"><ele>6.0</ele><time>2026-04-11T15:10:48Z</time></trkpt><trkpt lat="36.69271961795874" lon="14.97030427277576"><ele>6.0</ele><time>2026-04-11T15:10:53Z</time></trkpt><trkpt lat="36.692812208997054" lon="14.970263617671876"><ele>6.0</ele><time>2026-04-11T15:11:14Z</time></trkpt><trkpt lat="36.69289106904592" lon="14.970265234470029"><ele>6.0</ele><time>2026-04-11T15:11:17Z</time></trkpt><trkpt lat="36.692964048206385" lon="14.97023242824377"><ele>6.0</ele><time>2026-04-11T15:11:20Z</time></trkpt><trkpt lat="36.69300581033474" lon="14.970146077191288"><ele>6.0</ele><time>2026-04-11T15:11:22Z</time></trkpt><trkpt lat="36.69303300133543" lon="14.970061272360507"><ele>6.285714285714285</ele><time>2026-04-11T15:11:24Z</time></trkpt><trkpt lat="36.693059681204375" lon="14.969973148038589"><ele>6.571428571428571</ele><time>2026-04-11T15:11:26Z</time></trkpt><trkpt lat="36.69308504354398" lon="14.969881094329123"><ele>6.857142857142857</ele><time>2026-04-11T15:11:28Z</time></trkpt><trkpt lat="36.693124449267366" lon="14.969798661128587"><ele>7.142857142857142</ele><time>2026-04-11T15:11:31Z</time></trkpt><trkpt lat="36.69315269155732" lon="14.969715348329864"><ele>7.428571428571428</ele><time>2026-04-11T15:11:35Z</time></trkpt><trkpt lat="36.693152534968384" lon="14.969630336356202"><ele>7.7142857142857135</ele><time>2026-04-11T15:11:37Z</time></trkpt><trkpt lat="36.69312970110925" lon="14.969543846161969"><ele>8.0</ele><time>2026-04-11T15:11:39Z</time></trkpt><trkpt lat="36.693093441502015" lon="14.969468962647257"><ele>7.999999999999999</ele><time>2026-04-11T15:11:41Z</time></trkpt><trkpt lat="36.69309795670695" lon="14.96936147253695"><ele>8.0</ele><time>2026-04-11T15:11:44Z</time></trkpt><trkpt lat="36.69312585881191" lon="14.969280026826217"><ele>8.0</ele><time>2026-04-11T15:11:47Z</time></trkpt><trkpt lat="36.69313350735433" lon="14.969165988276446"><ele>8.0</ele><time>2026-04-11T15:11:49Z</time></trkpt><trkpt lat="36.69317143430732" lon="14.96910225935608"><ele>7.999999999999999</ele><time>2026-04-11T15:11:52Z</time></trkpt><trkpt lat="36.69323741962518" lon="14.96909896373836"><ele>8.0</ele><time>2026-04-11T15:12:13Z</time></trkpt><trkpt lat="36.69334027842008" lon="14.9691686099796"><ele>7.999999999999999</ele><time>2026-04-11T15:12:15Z</time></trkpt><trkpt lat="36.69343096750249" lon="14.969178822683007"><ele>8.0</ele><time>2026-04-11T15:12:18Z</time></trkpt><trkpt lat="36.69349759593336" lon="14.969232042446384"><ele>8.0</ele><time>2026-04-11T15:12:21Z</time></trkpt><trkpt lat="36.69355094206318" lon="14.969279112006083"><ele>8.0</ele><time>2026-04-11T15:12:23Z</time></trkpt><trkpt lat="36.69361061096266" lon="14.969251686350187"><ele>7.999999999999999</ele><time>2026-04-11T15:12:27Z</time></trkpt><trkpt lat="36.69370250729062" lon="14.969209521818302"><ele>8.0</ele><time>2026-04-11T15:12:50Z</time></trkpt><trkpt lat="36.69380446093493" lon="14.96920842605068"><ele>7.833333333333333</ele><time>2026-04-11T15:12:52Z</time></trkpt><trkpt lat="36.69388416964693" lon="14.969234435443603"><ele>7.666666666666666</ele><time>2026-04-11T15:12:55Z</time></trkpt><trkpt lat="36.69394557999063" lon="14.969255289357639"><ele>7.5</ele><time>2026-04-11T15:12:58Z</time></trkpt><trkpt lat="36.69401115005455" lon="14.969285958503393"><ele>7.333333333333334</ele><time>2026-04-11T15:13:00Z</time></trkpt><trkpt lat="36.694108144565305" lon="14.969237900137252"><ele>7.166666666666667</ele><time>2026-04-11T15:13:02Z</time></trkpt><trkpt lat="36.69418834036814" lon="14.96921508953079"><ele>7.0</ele><time>2026-04-11T15:13:04Z</time></trkpt><trkpt lat="36.69426581244638" lon="14.969247413635983"><ele>7.0</ele><time>2026-04-11T15:13:07Z</time></trkpt><trkpt lat="36.69432861839494" lon="14.969225603696517"><ele>6.999999999999999</ele><time>2026-04-11T15:13:11Z</time></trkpt><trkpt lat="36.694385933557335" lon="14.96909546904534"><ele>6.999999999999999</ele><time>2026-04-11T15:13:13Z</time></trkpt><trkpt lat="36.69438535788518" lon="14.968958778883984"><ele>7.0</ele><time>2026-04-11T15:13:14Z</time></trkpt><trkpt lat="36.69438178679287" lon="14.968829498573127"><ele>7.0</ele><time>2026-04-11T15:13:15Z</time></trkpt><trkpt lat="36.69438311875378" lon="14.96869233454387"><ele>7.000000000000001</ele><time>2026-04-11T15:13:16Z</time></trkpt><trkpt lat="36.69439033920557" lon="14.968575433016596"><ele>7.0</ele><time>2026-04-11T15:13:17Z</time></trkpt><trkpt lat="36.694398562307605" lon="14.968473238538229"><ele>7.0</ele><time>2026-04-11T15:13:18Z</time></trkpt><trkpt lat="36.694404871409134" lon="14.968368288951575"><ele>7.0</ele><time>2026-04-11T15:13:19Z</time></trkpt><trkpt lat="36.69441208309913" lon="14.968261935232949"><ele>7.000000000000001</ele><time>2026-04-11T15:13:20Z</time></trkpt><trkpt lat="36.69442062494306" lon="14.968148581371532"><ele>7.0</ele><time>2026-04-11T15:13:21Z</time></trkpt><trkpt lat="36.6944323766045" lon="14.968002376275576"><ele>6.666666666666667</ele><time>2026-04-11T15:13:22Z</time></trkpt><trkpt lat="36.69444558768635" lon="14.967813551132503"><ele>6.333333333333334</ele><time>2026-04-11T15:13:23Z</time></trkpt><trkpt lat="36.694460899523975" lon="14.96760994870197"><ele>6.0</ele><time>2026-04-11T15:13:24Z</time></trkpt><trkpt lat="36.69447668255833" lon="14.967392199230098"><ele>6.0</ele><time>2026-04-11T15:13:25Z</time></trkpt><trkpt lat="36.6944927237191" lon="14.967158044501359"><ele>6.0</ele><time>2026-04-11T15:13:26Z</time></trkpt><trkpt lat="36.6945120570787" lon="14.966923644987363"><ele>6.0</ele><time>2026-04-11T15:13:27Z</time></trkpt><trkpt lat="36.69453263642913" lon="14.966686634260242"><ele>5.333333333333333</ele><time>2026-04-11T15:13:28Z</time></trkpt><trkpt lat="36.694551175073975" lon="14.96644545465141"><ele>4.666666666666666</ele><time>2026-04-11T15:13:29Z</time></trkpt><trkpt lat="36.694567090211876" lon="14.966210489026412"><ele>4.0</ele><time>2026-04-11T15:13:30Z</time></trkpt><trkpt lat="36.69458312057469" lon="14.965980061945153"><ele>4.0</ele><time>2026-04-11T15:13:31Z</time></trkpt><trkpt lat="36.69459940284858" lon="14.965744636259231"><ele>4.0</ele><time>2026-04-11T15:13:32Z</time></trkpt><trkpt lat="36.69461855832975" lon="14.965502208501562"><ele>4.0</ele><time>2026-04-11T15:13:33Z</time></trkpt><trkpt lat="36.69463601159174" lon="14.965254403517681"><ele>4.0</ele><time>2026-04-11T15:13:34Z</time></trkpt><trkpt lat="36.694654138384045" lon="14.965002369663354"><ele>4.0</ele><time>2026-04-11T15:13:35Z</time></trkpt><trkpt lat="36.69466999472585" lon="14.964751926309706"><ele>4.0</ele><time>2026-04-11T15:13:36Z</time></trkpt><trkpt lat="36.694684480481186" lon="14.964531692237113"><ele>4.0</ele><time>2026-04-11T15:13:37Z</time></trkpt><trkpt lat="36.6946976731063" lon="14.96431836051187"><ele>4.0</ele><time>2026-04-11T15:13:38Z</time></trkpt><trkpt lat="36.69471088749704" lon="14.964124677863577"><ele>4.0</ele><time>2026-04-11T15:13:39Z</time></trkpt><trkpt lat="36.69472255475871" lon="14.963947602740815"><ele>3.6666666666666665</ele><time>2026-04-11T15:13:40Z</time></trkpt><trkpt lat="36.694737755775165" lon="14.963772707043294"><ele>3.333333333333333</ele><time>2026-04-11T15:13:41Z</time></trkpt><trkpt lat="36.69475353404713" lon="14.963575915372575"><ele>3.0</ele><time>2026-04-11T15:13:42Z</time></trkpt><trkpt lat="36.69477293391563" lon="14.963348683175578"><ele>2.6666666666666665</ele><time>2026-04-11T15:13:43Z</time></trkpt><trkpt lat="36.694794781210064" lon="14.963109267403603"><ele>2.333333333333333</ele><time>2026-04-11T15:13:44Z</time></trkpt><trkpt lat="36.69481224293249" lon="14.962850669073601"><ele>2.0</ele><time>2026-04-11T15:13:45Z</time></trkpt><trkpt lat="36.694825221434364" lon="14.96256889689274"><ele>2.0</ele><time>2026-04-11T15:13:46Z</time></trkpt><trkpt lat="36.69482846876565" lon="14.962320234574252"><ele>2.0</ele><time>2026-04-11T15:13:47Z</time></trkpt><trkpt lat="36.69481821135643" lon="14.962052945160691"><ele>2.0</ele><time>2026-04-11T15:13:48Z</time></trkpt><trkpt lat="36.69480359096084" lon="14.96180607119355"><ele>2.333333333333333</ele><time>2026-04-11T15:13:49Z</time></trkpt><trkpt lat="36.6947891783436" lon="14.961580370670534"><ele>2.6666666666666665</ele><time>2026-04-11T15:13:50Z</time></trkpt><trkpt lat="36.69477623045591" lon="14.961375591754049"><ele>3.0</ele><time>2026-04-11T15:13:51Z</time></trkpt><trkpt lat="36.694765411278425" lon="14.96117963884498"><ele>3.0</ele><time>2026-04-11T15:13:52Z</time></trkpt><trkpt lat="36.69475721951145" lon="14.96099411170131"><ele>3.0</ele><time>2026-04-11T15:13:53Z</time></trkpt><trkpt lat="36.694750747620326" lon="14.960829549146641"><ele>3.0</ele><time>2026-04-11T15:13:54Z</time></trkpt><trkpt lat="36.69474422944165" lon="14.960682939896312"><ele>3.0</ele><time>2026-04-11T15:13:55Z</time></trkpt><trkpt lat="36.69473675512154" lon="14.960566580596982"><ele>3.3333333333333335</ele><time>2026-04-11T15:13:56Z</time></trkpt><trkpt lat="36.69473102368292" lon="14.960483338575218"><ele>3.666666666666667</ele><time>2026-04-11T15:13:57Z</time></trkpt><trkpt lat="36.694721989312185" lon="14.96040080825467"><ele>4.0</ele><time>2026-04-11T15:13:59Z</time></trkpt><trkpt lat="36.69470434685975" lon="14.960317514984691"><ele>4.333333333333334</ele><time>2026-04-11T15:14:04Z</time></trkpt><trkpt lat="36.694735758632035" lon="14.960389440608369"><ele>4.666666666666667</ele><time>2026-04-11T15:14:43Z</time></trkpt><trkpt lat="36.6947361693678" lon="14.960600694402656"><ele>5.0</ele><time>2026-04-11T15:14:45Z</time></trkpt><trkpt lat="36.69474885085329" lon="14.960688222878508"><ele>5.0</ele><time>2026-04-11T15:14:46Z</time></trkpt><trkpt lat="36.69475409077957" lon="14.960787277782613"><ele>5.0</ele><time>2026-04-11T15:14:48Z</time></trkpt><trkpt lat="36.694759093903976" lon="14.960917729588743"><ele>5.0</ele><time>2026-04-11T15:14:51Z</time></trkpt><trkpt lat="36.694762459769294" lon="14.961031274854147"><ele>5.0</ele><time>2026-04-11T15:14:53Z</time></trkpt><trkpt lat="36.69477533093441" lon="14.96117452527608"><ele>5.0</ele><time>2026-04-11T15:14:55Z</time></trkpt><trkpt lat="36.69477278795555" lon="14.961259169045281"><ele>4.666666666666667</ele><time>2026-04-11T15:14:56Z</time></trkpt><trkpt lat="36.694767645619585" lon="14.961376930414293"><ele>4.333333333333334</ele><time>2026-04-11T15:14:58Z</time></trkpt><trkpt lat="36.694766290067264" lon="14.961484045580546"><ele>4.0</ele><time>2026-04-11T15:15:00Z</time></trkpt><trkpt lat="36.6947699692482" lon="14.961576209026777"><ele>3.666666666666667</ele><time>2026-04-11T15:15:02Z</time></trkpt><trkpt lat="36.69477855505304" lon="14.96168986674558"><ele>3.3333333333333335</ele><time>2026-04-11T15:15:05Z</time></trkpt><trkpt lat="36.694783478490024" lon="14.96180896770544"><ele>3.0</ele><time>2026-04-11T15:15:07Z</time></trkpt><trkpt lat="36.69479465826367" lon="14.961902560775627"><ele>2.8333333333333335</ele><time>2026-04-11T15:15:09Z</time></trkpt><trkpt lat="36.69479369356659" lon="14.962010705287884"><ele>2.6666666666666665</ele><time>2026-04-11T15:15:11Z</time></trkpt><trkpt lat="36.69479800478017" lon="14.962133986704897"><ele>2.5</ele><time>2026-04-11T15:15:13Z</time></trkpt><trkpt lat="36.694802071725434" lon="14.962263027216453"><ele>2.333333333333333</ele><time>2026-04-11T15:15:15Z</time></trkpt><trkpt lat="36.69480267377171" lon="14.962347256755967"><ele>2.1666666666666665</ele><time>2026-04-11T15:15:16Z</time></trkpt><trkpt lat="36.69477192913105" lon="14.962427736990442"><ele>2.0</ele><time>2026-04-11T15:15:17Z</time></trkpt><trkpt lat="36.69477035633071" lon="14.96256714532624"><ele>2.0</ele><time>2026-04-11T15:15:19Z</time></trkpt><trkpt lat="36.694765152968884" lon="14.962715969251947"><ele>2.0</ele><time>2026-04-11T15:15:21Z</time></trkpt><trkpt lat="36.69475665343372" lon="14.96287230551864"><ele>2.0</ele><time>2026-04-11T15:15:23Z</time></trkpt><trkpt lat="36.69474659530458" lon="14.96303167213426"><ele>2.0</ele><time>2026-04-11T15:15:25Z</time></trkpt><trkpt lat="36.694741077053955" lon="14.963118266473542"><ele>2.0</ele><time>2026-04-11T15:15:26Z</time></trkpt><trkpt lat="36.694734809387256" lon="14.963211048490145"><ele>2.0</ele><time>2026-04-11T15:15:27Z</time></trkpt><trkpt lat="36.69472700697216" lon="14.96332654982245"><ele>2.0</ele><time>2026-04-11T15:15:28Z</time></trkpt><trkpt lat="36.69471893693901" lon="14.96345105712242"><ele>2.0</ele><time>2026-04-11T15:15:29Z</time></trkpt><trkpt lat="36.69470901787751" lon="14.963598782947399"><ele>2.0</ele><time>2026-04-11T15:15:30Z</time></trkpt><trkpt lat="36.69469811173984" lon="14.963760316666965"><ele>2.0</ele><time>2026-04-11T15:15:31Z</time></trkpt><trkpt lat="36.69468422307266" lon="14.96396602543724"><ele>2.333333333333333</ele><time>2026-04-11T15:15:32Z</time></trkpt><trkpt lat="36.69468428419132" lon="14.964180431308767"><ele>2.6666666666666665</ele><time>2026-04-11T15:15:33Z</time></trkpt><trkpt lat="36.69466646889782" lon="14.964410245025492"><ele>3.0</ele><time>2026-04-11T15:15:34Z</time></trkpt><trkpt lat="36.69464765098874" lon="14.964663041707444"><ele>3.333333333333333</ele><time>2026-04-11T15:15:35Z</time></trkpt><trkpt lat="36.694631245280284" lon="14.964922291428861"><ele>3.6666666666666665</ele><time>2026-04-11T15:15:36Z</time></trkpt><trkpt lat="36.69461256688495" lon="14.965208840336214"><ele>4.0</ele><time>2026-04-11T15:15:37Z</time></trkpt><trkpt lat="36.69459414694384" lon="14.96549696160326"><ele>4.0</ele><time>2026-04-11T15:15:38Z</time></trkpt><trkpt lat="36.69457922703633" lon="14.965707657198749"><ele>4.0</ele><time>2026-04-11T15:15:39Z</time></trkpt><trkpt lat="36.69455592522741" lon="14.965992378361944"><ele>4.0</ele><time>2026-04-11T15:15:40Z</time></trkpt><trkpt lat="36.69453458696484" lon="14.966281067143871"><ele>4.0</ele><time>2026-04-11T15:15:41Z</time></trkpt><trkpt lat="36.69451593391861" lon="14.966570952149988"><ele>4.0</ele><time>2026-04-11T15:15:42Z</time></trkpt><trkpt lat="36.694502604481904" lon="14.966864367844028"><ele>5.0</ele><time>2026-04-11T15:15:43Z</time></trkpt><trkpt lat="36.694477259847154" lon="14.967157307202108"><ele>6.0</ele><time>2026-04-11T15:15:44Z</time></trkpt><trkpt lat="36.69445682625819" lon="14.96745356161751"><ele>6.5</ele><time>2026-04-11T15:15:45Z</time></trkpt><trkpt lat="36.694435980426576" lon="14.967744599347194"><ele>7.0</ele><time>2026-04-11T15:15:46Z</time></trkpt><trkpt lat="36.69441779934605" lon="14.968026668116538"><ele>7.0</ele><time>2026-04-11T15:15:47Z</time></trkpt><trkpt lat="36.694387144703555" lon="14.968305198626139"><ele>7.0</ele><time>2026-04-11T15:15:48Z</time></trkpt><trkpt lat="36.694369204071364" lon="14.968579815297234"><ele>7.0</ele><time>2026-04-11T15:15:49Z</time></trkpt><trkpt lat="36.69435252521864" lon="14.96883662941519"><ele>7.0</ele><time>2026-04-11T15:15:50Z</time></trkpt><trkpt lat="36.694349215064214" lon="14.969074887807443"><ele>7.0</ele><time>2026-04-11T15:15:51Z</time></trkpt><trkpt lat="36.694332684682685" lon="14.96930989279066"><ele>7.0</ele><time>2026-04-11T15:15:52Z</time></trkpt><trkpt lat="36.694313931231925" lon="14.969547201751455"><ele>7.0</ele><time>2026-04-11T15:15:53Z</time></trkpt><trkpt lat="36.6942927009754" lon="14.969786336482219"><ele>7.0</ele><time>2026-04-11T15:15:54Z</time></trkpt><trkpt lat="36.69427328879435" lon="14.970029132789024"><ele>7.0</ele><time>2026-04-11T15:15:55Z</time></trkpt><trkpt lat="36.69424436051411" lon="14.970288117575292"><ele>6.666666666666667</ele><time>2026-04-11T15:15:56Z</time></trkpt><trkpt lat="36.69421348582554" lon="14.970552943439435"><ele>6.333333333333334</ele><time>2026-04-11T15:15:57Z</time></trkpt><trkpt lat="36.694179676700266" lon="14.970813221046953"><ele>6.0</ele><time>2026-04-11T15:15:58Z</time></trkpt><trkpt lat="36.69414636592361" lon="14.971068886390041"><ele>5.666666666666667</ele><time>2026-04-11T15:15:59Z</time></trkpt><trkpt lat="36.69411311312396" lon="14.97132265558376"><ele>5.333333333333334</ele><time>2026-04-11T15:15:59.999Z</time></trkpt><trkpt lat="36.694081364240375" lon="14.97156649987514"><ele>5.0</ele><time>2026-04-11T15:16:00.999Z</time></trkpt><trkpt lat="36.69405184405657" lon="14.971798452284407"><ele>5.0</ele><time>2026-04-11T15:16:01.999Z</time></trkpt><trkpt lat="36.69402032105314" lon="14.972027141915227"><ele>5.0</ele><time>2026-04-11T15:16:02.999Z</time></trkpt><trkpt lat="36.69399332112046" lon="14.972237204922955"><ele>5.0</ele><time>2026-04-11T15:16:03.999Z</time></trkpt><trkpt lat="36.69397342026654" lon="14.972424974334766"><ele>5.0</ele><time>2026-04-11T15:16:04.999Z</time></trkpt><trkpt lat="36.69395785793679" lon="14.972589949935907"><ele>5.0</ele><time>2026-04-11T15:16:06Z</time></trkpt><trkpt lat="36.693947897032835" lon="14.972729388789038"><ele>5.0</ele><time>2026-04-11T15:16:07Z</time></trkpt><trkpt lat="36.69394638043301" lon="14.972847156891335"><ele>5.0</ele><time>2026-04-11T15:16:08Z</time></trkpt><trkpt lat="36.69395982187037" lon="14.97294292869619"><ele>5.0</ele><time>2026-04-11T15:16:09Z</time></trkpt><trkpt lat="36.69395361923441" lon="14.973021608198394"><ele>5.0</ele><time>2026-04-11T15:16:10Z</time></trkpt><trkpt lat="36.69396046425442" lon="14.97312864578142"><ele>5.0</ele><time>2026-04-11T15:16:12Z</time></trkpt><trkpt lat="36.694156770608366" lon="14.973116316759723"><ele>5.0</ele><time>2026-04-11T15:16:13Z</time></trkpt><trkpt lat="36.6942744776145" lon="14.973104820356602"><ele>5.0</ele><time>2026-04-11T15:16:14Z</time></trkpt><trkpt lat="36.69440288417653" lon="14.973082912582232"><ele>4.5</ele><time>2026-04-11T15:16:15Z</time></trkpt><trkpt lat="36.694535708484615" lon="14.973088683725845"><ele>4.0</ele><time>2026-04-11T15:16:16Z</time></trkpt><trkpt lat="36.694655778236786" lon="14.97309764279138"><ele>3.5</ele><time>2026-04-11T15:16:17Z</time></trkpt><trkpt lat="36.69477629255953" lon="14.973086476453595"><ele>3.0</ele><time>2026-04-11T15:16:18Z</time></trkpt><trkpt lat="36.69491314844489" lon="14.973062178338186"><ele>3.0</ele><time>2026-04-11T15:16:19Z</time></trkpt><trkpt lat="36.695058771135095" lon="14.973026474766801"><ele>3.0</ele><time>2026-04-11T15:16:20Z</time></trkpt><trkpt lat="36.69521102120908" lon="14.97299010310106"><ele>3.0</ele><time>2026-04-11T15:16:21Z</time></trkpt><trkpt lat="36.69537301387439" lon="14.972957454077234"><ele>3.75</ele><time>2026-04-11T15:16:22Z</time></trkpt><trkpt lat="36.69553170156837" lon="14.972925279764985"><ele>4.5</ele><time>2026-04-11T15:16:23Z</time></trkpt><trkpt lat="36.695669643086326" lon="14.972898732813128"><ele>5.25</ele><time>2026-04-11T15:16:24Z</time></trkpt><trkpt lat="36.69579146355678" lon="14.972871632287866"><ele>6.0</ele><time>2026-04-11T15:16:25Z</time></trkpt><trkpt lat="36.69590025617156" lon="14.972846855280636"><ele>6.0</ele><time>2026-04-11T15:16:26Z</time></trkpt><trkpt lat="36.696002939721524" lon="14.972826035831295"><ele>6.0</ele><time>2026-04-11T15:16:27Z</time></trkpt><trkpt lat="36.69611555151554" lon="14.97281087017582"><ele>6.0</ele><time>2026-04-11T15:16:28Z</time></trkpt><trkpt lat="36.696239510886144" lon="14.972805045508789"><ele>6.0</ele><time>2026-04-11T15:16:29Z</time></trkpt><trkpt lat="36.69637179140647" lon="14.972809478971785"><ele>7.5</ele><time>2026-04-11T15:16:30Z</time></trkpt><trkpt lat="36.69651086104266" lon="14.972819784472133"><ele>9.0</ele><time>2026-04-11T15:16:31Z</time></trkpt><trkpt lat="36.696640474505706" lon="14.972829199788292"><ele>10.5</ele><time>2026-04-11T15:16:32Z</time></trkpt><trkpt lat="36.696755088254214" lon="14.972829482603128"><ele>12.0</ele><time>2026-04-11T15:16:33Z</time></trkpt><trkpt lat="36.69686122959894" lon="14.972830958183492"><ele>11.75</ele><time>2026-04-11T15:16:34Z</time></trkpt><trkpt lat="36.696970935495465" lon="14.972830244686158"><ele>11.5</ele><time>2026-04-11T15:16:35Z</time></trkpt><trkpt lat="36.69709217485226" lon="14.972827925582266"><ele>11.25</ele><time>2026-04-11T15:16:36Z</time></trkpt><trkpt lat="36.69722113836382" lon="14.972827875415224"><ele>11.0</ele><time>2026-04-11T15:16:37Z</time></trkpt><trkpt lat="36.697356470129336" lon="14.972823885279603"><ele>11.0</ele><time>2026-04-11T15:16:38Z</time></trkpt><trkpt lat="36.697489686305374" lon="14.972837427960384"><ele>11.0</ele><time>2026-04-11T15:16:39Z</time></trkpt><trkpt lat="36.69762556849904" lon="14.972817135821902"><ele>11.0</ele><time>2026-04-11T15:16:40Z</time></trkpt><trkpt lat="36.69776417615178" lon="14.972821176771317"><ele>11.0</ele><time>2026-04-11T15:16:41Z</time></trkpt><trkpt lat="36.69790938936156" lon="14.972818299870768"><ele>10.0</ele><time>2026-04-11T15:16:42Z</time></trkpt><trkpt lat="36.698066422338485" lon="14.972814471187359"><ele>9.0</ele><time>2026-04-11T15:16:43Z</time></trkpt><trkpt lat="36.69823190461123" lon="14.972810651735724"><ele>8.0</ele><time>2026-04-11T15:16:44Z</time></trkpt><trkpt lat="36.69840768954497" lon="14.972810531219922"><ele>8.0</ele><time>2026-04-11T15:16:45Z</time></trkpt><trkpt lat="36.69858151713395" lon="14.972805270536366"><ele>8.0</ele><time>2026-04-11T15:16:46Z</time></trkpt><trkpt lat="36.69874248723298" lon="14.972799663494513"><ele>8.0</ele><time>2026-04-11T15:16:47Z</time></trkpt><trkpt lat="36.69890215159657" lon="14.972795692387239"><ele>9.0</ele><time>2026-04-11T15:16:48Z</time></trkpt><trkpt lat="36.69904646966037" lon="14.972791911809365"><ele>10.0</ele><time>2026-04-11T15:16:49Z</time></trkpt><trkpt lat="36.69918158843771" lon="14.972784551978993"><ele>11.0</ele><time>2026-04-11T15:16:50Z</time></trkpt><trkpt lat="36.6993152537457" lon="14.972774423798406"><ele>12.0</ele><time>2026-04-11T15:16:51Z</time></trkpt><trkpt lat="36.69945570586079" lon="14.972768815986228"><ele>12.75</ele><time>2026-04-11T15:16:52Z</time></trkpt><trkpt lat="36.69959413924637" lon="14.972766937088409"><ele>13.5</ele><time>2026-04-11T15:16:53Z</time></trkpt><trkpt lat="36.69973312580989" lon="14.972766696053574"><ele>14.25</ele><time>2026-04-11T15:16:54Z</time></trkpt><trkpt lat="36.69987086859336" lon="14.972760510194409"><ele>15.0</ele><time>2026-04-11T15:16:55Z</time></trkpt><trkpt lat="36.70000955045826" lon="14.972762717724029"><ele>15.0</ele><time>2026-04-11T15:16:56Z</time></trkpt><trkpt lat="36.70015231403565" lon="14.972763949138209"><ele>15.0</ele><time>2026-04-11T15:16:57Z</time></trkpt><trkpt lat="36.70028215892209" lon="14.972759440806753"><ele>15.0</ele><time>2026-04-11T15:16:58Z</time></trkpt><trkpt lat="36.70039360047132" lon="14.972755747128847"><ele>15.0</ele><time>2026-04-11T15:16:59Z</time></trkpt><trkpt lat="36.70049027765827" lon="14.972756691580969"><ele>15.0</ele><time>2026-04-11T15:17:00Z</time></trkpt><trkpt lat="36.70057925149346" lon="14.972757647101211"><ele>15.0</ele><time>2026-04-11T15:17:01Z</time></trkpt><trkpt lat="36.70067016872362" lon="14.972754648868126"><ele>15.0</ele><time>2026-04-11T15:17:02Z</time></trkpt><trkpt lat="36.700749220456046" lon="14.97274573706231"><ele>15.0</ele><time>2026-04-11T15:17:03Z</time></trkpt><trkpt lat="36.70081408861268" lon="14.972739512839349"><ele>15.0</ele><time>2026-04-11T15:17:04Z</time></trkpt><trkpt lat="36.70088575466339" lon="14.972719810460887"><ele>15.0</ele><time>2026-04-11T15:17:06Z</time></trkpt><trkpt lat="36.700882581703056" lon="14.972486705913921"><ele>15.0</ele><time>2026-04-11T15:17:07Z</time></trkpt><trkpt lat="36.70086737567315" lon="14.972338777420557"><ele>15.0</ele><time>2026-04-11T15:17:08Z</time></trkpt><trkpt lat="36.70084813220839" lon="14.972176009587487"><ele>15.0</ele><time>2026-04-11T15:17:09Z</time></trkpt><trkpt lat="36.700840569136474" lon="14.971992694166385"><ele>15.0</ele><time>2026-04-11T15:17:10Z</time></trkpt><trkpt lat="36.70083806949911" lon="14.971793915640296"><ele>14.666666666666668</ele><time>2026-04-11T15:17:11Z</time></trkpt><trkpt lat="36.700843547867855" lon="14.971577436628849"><ele>14.333333333333334</ele><time>2026-04-11T15:17:12Z</time></trkpt><trkpt lat="36.700848092718914" lon="14.971350868047297"><ele>14.0</ele><time>2026-04-11T15:17:13Z</time></trkpt><trkpt lat="36.70085073968163" lon="14.971128074231686"><ele>14.0</ele><time>2026-04-11T15:17:14Z</time></trkpt><trkpt lat="36.70085000484036" lon="14.970900176901624"><ele>14.0</ele><time>2026-04-11T15:17:15Z</time></trkpt><trkpt lat="36.70085345747716" lon="14.970688867990313"><ele>14.0</ele><time>2026-04-11T15:17:16Z</time></trkpt><trkpt lat="36.70085826759629" lon="14.970502352955867"><ele>14.0</ele><time>2026-04-11T15:17:17Z</time></trkpt><trkpt lat="36.7008631149743" lon="14.97033102114016"><ele>14.0</ele><time>2026-04-11T15:17:18Z</time></trkpt><trkpt lat="36.70086415120424" lon="14.970163021969194"><ele>14.0</ele><time>2026-04-11T15:17:19Z</time></trkpt><trkpt lat="36.700865603333135" lon="14.969980677229966"><ele>14.0</ele><time>2026-04-11T15:17:20Z</time></trkpt><trkpt lat="36.700875882385006" lon="14.969795363681655"><ele>15.25</ele><time>2026-04-11T15:17:21Z</time></trkpt><trkpt lat="36.70089485461993" lon="14.969603557907346"><ele>16.5</ele><time>2026-04-11T15:17:22Z</time></trkpt><trkpt lat="36.700911550730794" lon="14.969433514507346"><ele>17.75</ele><time>2026-04-11T15:17:23Z</time></trkpt><trkpt lat="36.70092777058734" lon="14.969267540245085"><ele>19.0</ele><time>2026-04-11T15:17:24Z</time></trkpt><trkpt lat="36.700948184630995" lon="14.969096352787455"><ele>20.5</ele><time>2026-04-11T15:17:25Z</time></trkpt><trkpt lat="36.70096911123737" lon="14.968919463918157"><ele>22.0</ele><time>2026-04-11T15:17:26Z</time></trkpt><trkpt lat="36.700987230671835" lon="14.96873465203865"><ele>23.5</ele><time>2026-04-11T15:17:27Z</time></trkpt><trkpt lat="36.701006219556916" lon="14.968546665608173"><ele>25.0</ele><time>2026-04-11T15:17:28Z</time></trkpt><trkpt lat="36.70102486927839" lon="14.968372388238253"><ele>24.75</ele><time>2026-04-11T15:17:29Z</time></trkpt><trkpt lat="36.70104472137891" lon="14.968201173809424"><ele>24.5</ele><time>2026-04-11T15:17:30Z</time></trkpt><trkpt lat="36.70106182298329" lon="14.968024225873485"><ele>24.25</ele><time>2026-04-11T15:17:31Z</time></trkpt><trkpt lat="36.7010724580194" lon="14.967844152100596"><ele>24.0</ele><time>2026-04-11T15:17:32Z</time></trkpt><trkpt lat="36.70108365407495" lon="14.96765773982554"><ele>24.25</ele><time>2026-04-11T15:17:33Z</time></trkpt><trkpt lat="36.70108755867846" lon="14.967480395918527"><ele>24.5</ele><time>2026-04-11T15:17:34Z</time></trkpt><trkpt lat="36.70108595802551" lon="14.967319058480633"><ele>24.75</ele><time>2026-04-11T15:17:35Z</time></trkpt><trkpt lat="36.701085984606635" lon="14.967161231132893"><ele>25.0</ele><time>2026-04-11T15:17:36Z</time></trkpt><trkpt lat="36.70108484503687" lon="14.967006063016887"><ele>25.2</ele><time>2026-04-11T15:17:37Z</time></trkpt><trkpt lat="36.701081846917965" lon="14.966851085507159"><ele>25.4</ele><time>2026-04-11T15:17:38Z</time></trkpt><trkpt lat="36.701076122075" lon="14.966704138266659"><ele>25.6</ele><time>2026-04-11T15:17:39Z</time></trkpt><trkpt lat="36.70106685149072" lon="14.966580963385654"><ele>25.8</ele><time>2026-04-11T15:17:40Z</time></trkpt><trkpt lat="36.701076788577765" lon="14.966469172059503"><ele>26.0</ele><time>2026-04-11T15:17:41Z</time></trkpt><trkpt lat="36.701057824081175" lon="14.96636904210669"><ele>25.999999999999996</ele><time>2026-04-11T15:17:42Z</time></trkpt><trkpt lat="36.70106796173546" lon="14.966259101806337"><ele>26.0</ele><time>2026-04-11T15:17:43Z</time></trkpt><trkpt lat="36.701063790140424" lon="14.966159822104519"><ele>26.0</ele><time>2026-04-11T15:17:44Z</time></trkpt><trkpt lat="36.70106191360494" lon="14.966067784447015"><ele>26.0</ele><time>2026-04-11T15:17:45Z</time></trkpt><trkpt lat="36.70106108941939" lon="14.965982368775782"><ele>25.999999999999996</ele><time>2026-04-11T15:17:46Z</time></trkpt><trkpt lat="36.70106820461465" lon="14.965834177207604"><ele>26.0</ele><time>2026-04-11T15:17:48Z</time></trkpt><trkpt lat="36.70107577283002" lon="14.965685772688499"><ele>25.6</ele><time>2026-04-11T15:17:49.999Z</time></trkpt><trkpt lat="36.70108012291173" lon="14.965577401228186"><ele>25.200000000000003</ele><time>2026-04-11T15:17:50.999Z</time></trkpt><trkpt lat="36.701075505668555" lon="14.965454043374086"><ele>24.799999999999997</ele><time>2026-04-11T15:17:51.999Z</time></trkpt><trkpt lat="36.70108139108866" lon="14.965325709788866"><ele>24.4</ele><time>2026-04-11T15:17:52.999Z</time></trkpt><trkpt lat="36.70107348997885" lon="14.965197989085105"><ele>24.0</ele><time>2026-04-11T15:17:53.999Z</time></trkpt><trkpt lat="36.70106596088333" lon="14.965072439660757"><ele>23.799999999999997</ele><time>2026-04-11T15:17:54.999Z</time></trkpt><trkpt lat="36.70106037850719" lon="14.964959695193745"><ele>23.599999999999998</ele><time>2026-04-11T15:17:55.999Z</time></trkpt><trkpt lat="36.70105551061781" lon="14.964848931050836"><ele>23.4</ele><time>2026-04-11T15:17:56.999Z</time></trkpt><trkpt lat="36.70104945586712" lon="14.964752230079204"><ele>23.2</ele><time>2026-04-11T15:17:57.999Z</time></trkpt><trkpt lat="36.70104042335631" lon="14.964662701186317"><ele>23.0</ele><time>2026-04-11T15:17:58.999Z</time></trkpt><trkpt lat="36.70102453143433" lon="14.964513652077056"><ele>23.0</ele><time>2026-04-11T15:18:00.999Z</time></trkpt><trkpt lat="36.70101218461895" lon="14.964367742995538"><ele>23.0</ele><time>2026-04-11T15:18:02.999Z</time></trkpt><trkpt lat="36.70100112792357" lon="14.964231845886564"><ele>23.0</ele><time>2026-04-11T15:18:04.999Z</time></trkpt><trkpt lat="36.70098590524253" lon="14.964060502420756"><ele>23.0</ele><time>2026-04-11T15:18:06.999Z</time></trkpt><trkpt lat="36.70097816526112" lon="14.963954238339225"><ele>22.5</ele><time>2026-04-11T15:18:07.999Z</time></trkpt><trkpt lat="36.700961116598265" lon="14.963865093822516"><ele>22.0</ele><time>2026-04-11T15:18:08.999Z</time></trkpt><trkpt lat="36.70094350248855" lon="14.963783693016032"><ele>21.5</ele><time>2026-04-11T15:18:09.999Z</time></trkpt><trkpt lat="36.70091564186944" lon="14.963635571475677"><ele>21.0</ele><time>2026-04-11T15:18:12Z</time></trkpt><trkpt lat="36.70090199218144" lon="14.963552884392822"><ele>20.5</ele><time>2026-04-11T15:18:13Z</time></trkpt><trkpt lat="36.70088734020565" lon="14.963463540140252"><ele>20.0</ele><time>2026-04-11T15:18:14Z</time></trkpt><trkpt lat="36.70087332407251" lon="14.963369623560787"><ele>19.2</ele><time>2026-04-11T15:18:15Z</time></trkpt><trkpt lat="36.70085827274679" lon="14.963256509752691"><ele>18.4</ele><time>2026-04-11T15:18:16Z</time></trkpt><trkpt lat="36.70083902099734" lon="14.963135611325598"><ele>17.6</ele><time>2026-04-11T15:18:17Z</time></trkpt><trkpt lat="36.70081893025712" lon="14.963007980909728"><ele>16.8</ele><time>2026-04-11T15:18:18Z</time></trkpt><trkpt lat="36.700804873321566" lon="14.962862836784833"><ele>16.0</ele><time>2026-04-11T15:18:19Z</time></trkpt><trkpt lat="36.700797375757276" lon="14.96270290844509"><ele>15.5</ele><time>2026-04-11T15:18:20Z</time></trkpt><trkpt lat="36.70080023305141" lon="14.962524900830593"><ele>15.0</ele><time>2026-04-11T15:18:21Z</time></trkpt><trkpt lat="36.70082585140345" lon="14.962339705064048"><ele>14.5</ele><time>2026-04-11T15:18:22Z</time></trkpt><trkpt lat="36.70085694206593" lon="14.962162354358464"><ele>14.0</ele><time>2026-04-11T15:18:23Z</time></trkpt><trkpt lat="36.70089487051828" lon="14.961972896152668"><ele>14.0</ele><time>2026-04-11T15:18:24Z</time></trkpt><trkpt lat="36.70092853625653" lon="14.961814608811963"><ele>14.0</ele><time>2026-04-11T15:18:25Z</time></trkpt><trkpt lat="36.70097208276164" lon="14.961648765264949"><ele>14.0</ele><time>2026-04-11T15:18:26Z</time></trkpt><trkpt lat="36.70101204294839" lon="14.961473800577577"><ele>14.0</ele><time>2026-04-11T15:18:27Z</time></trkpt><trkpt lat="36.70105920555319" lon="14.96129520468033"><ele>14.25</ele><time>2026-04-11T15:18:28Z</time></trkpt><trkpt lat="36.70110957621264" lon="14.96112548064572"><ele>14.5</ele><time>2026-04-11T15:18:29Z</time></trkpt><trkpt lat="36.70116089451623" lon="14.960968274074709"><ele>14.75</ele><time>2026-04-11T15:18:30Z</time></trkpt><trkpt lat="36.70121136804396" lon="14.960825786593128"><ele>15.0</ele><time>2026-04-11T15:18:31Z</time></trkpt><trkpt lat="36.70126260139248" lon="14.960686053547297"><ele>14.0</ele><time>2026-04-11T15:18:32Z</time></trkpt><trkpt lat="36.70130016368714" lon="14.960562597903952"><ele>13.0</ele><time>2026-04-11T15:18:33Z</time></trkpt><trkpt lat="36.70132359154904" lon="14.96043314030963"><ele>12.0</ele><time>2026-04-11T15:18:34Z</time></trkpt><trkpt lat="36.7013381893174" lon="14.960259807653664"><ele>11.0</ele><time>2026-04-11T15:18:35Z</time></trkpt><trkpt lat="36.701330452738326" lon="14.960056405817713"><ele>9.666666666666666</ele><time>2026-04-11T15:18:36Z</time></trkpt><trkpt lat="36.70130438273504" lon="14.959833243393476"><ele>8.333333333333334</ele><time>2026-04-11T15:18:37Z</time></trkpt><trkpt lat="36.701286114936245" lon="14.959599016213826"><ele>7.0</ele><time>2026-04-11T15:18:38Z</time></trkpt><trkpt lat="36.70125495062429" lon="14.95937357160862"><ele>6.666666666666667</ele><time>2026-04-11T15:18:39Z</time></trkpt><trkpt lat="36.70122098362715" lon="14.959167213206467"><ele>6.333333333333334</ele><time>2026-04-11T15:18:40Z</time></trkpt><trkpt lat="36.70119042557212" lon="14.95896329356115"><ele>6.0</ele><time>2026-04-11T15:18:41Z</time></trkpt><trkpt lat="36.70115789529903" lon="14.958760176535666"><ele>6.0</ele><time>2026-04-11T15:18:42Z</time></trkpt><trkpt lat="36.701123789805" lon="14.95855775818455"><ele>6.0</ele><time>2026-04-11T15:18:43Z</time></trkpt><trkpt lat="36.70108935242654" lon="14.958339685454535"><ele>6.0</ele><time>2026-04-11T15:18:44Z</time></trkpt><trkpt lat="36.701057930228416" lon="14.958128813261885"><ele>6.0</ele><time>2026-04-11T15:18:45Z</time></trkpt><trkpt lat="36.701029563910765" lon="14.957939743532597"><ele>6.0</ele><time>2026-04-11T15:18:46Z</time></trkpt><trkpt lat="36.701003174339235" lon="14.957744031222669"><ele>6.0</ele><time>2026-04-11T15:18:47Z</time></trkpt><trkpt lat="36.70098041941674" lon="14.957546393244186"><ele>5.666666666666667</ele><time>2026-04-11T15:18:48Z</time></trkpt><trkpt lat="36.70095984296461" lon="14.957346495613445"><ele>5.333333333333334</ele><time>2026-04-11T15:18:49Z</time></trkpt><trkpt lat="36.70093898853085" lon="14.957138978573044"><ele>5.0</ele><time>2026-04-11T15:18:50Z</time></trkpt><trkpt lat="36.70091519036843" lon="14.956931525055248"><ele>5.0</ele><time>2026-04-11T15:18:51Z</time></trkpt><trkpt lat="36.70088509485972" lon="14.956727187460183"><ele>5.0</ele><time>2026-04-11T15:18:52Z</time></trkpt><trkpt lat="36.70084650511259" lon="14.956522327967965"><ele>5.0</ele><time>2026-04-11T15:18:53Z</time></trkpt><trkpt lat="36.70080377622525" lon="14.956318121532872"><ele>5.0</ele><time>2026-04-11T15:18:54Z</time></trkpt><trkpt lat="36.70075777742927" lon="14.95612252322064"><ele>5.0</ele><time>2026-04-11T15:18:55Z</time></trkpt><trkpt lat="36.70072423377893" lon="14.955936750422286"><ele>5.0</ele><time>2026-04-11T15:18:56Z</time></trkpt><trkpt lat="36.70069961563183" lon="14.95577110931576"><ele>5.0</ele><time>2026-04-11T15:18:57Z</time></trkpt><trkpt lat="36.700683042127466" lon="14.955649714292283"><ele>5.0</ele><time>2026-04-11T15:18:58Z</time></trkpt><trkpt lat="36.70066312232916" lon="14.955529362752786"><ele>5.0</ele><time>2026-04-11T15:18:59Z</time></trkpt><trkpt lat="36.70064158364853" lon="14.955418599225272"><ele>5.0</ele><time>2026-04-11T15:19:00Z</time></trkpt><trkpt lat="36.70061724265569" lon="14.955328443120932"><ele>5.0</ele><time>2026-04-11T15:19:01Z</time></trkpt><trkpt lat="36.70057830815672" lon="14.955205075460597"><ele>5.0</ele><time>2026-04-11T15:19:03Z</time></trkpt><trkpt lat="36.70053968333683" lon="14.955121807637678"><ele>5.0</ele><time>2026-04-11T15:19:05Z</time></trkpt><trkpt lat="36.70046112098631" lon="14.955050623399547"><ele>5.0</ele><time>2026-04-11T15:19:07Z</time></trkpt><trkpt lat="36.700390618139444" lon="14.95502262626306"><ele>5.0</ele><time>2026-04-11T15:19:08Z</time></trkpt><trkpt lat="36.70031108128165" lon="14.954985399687152"><ele>5.0</ele><time>2026-04-11T15:19:09Z</time></trkpt><trkpt lat="36.7002287347314" lon="14.95495796762032"><ele>5.0</ele><time>2026-04-11T15:19:10Z</time></trkpt><trkpt lat="36.700117067680665" lon="14.954931690329062"><ele>4.75</ele><time>2026-04-11T15:19:11Z</time></trkpt><trkpt lat="36.699980369883704" lon="14.9548847080345"><ele>4.5</ele><time>2026-04-11T15:19:12Z</time></trkpt><trkpt lat="36.699838754391145" lon="14.954833850743846"><ele>4.25</ele><time>2026-04-11T15:19:13Z</time></trkpt><trkpt lat="36.69969701082031" lon="14.954781147802308"><ele>4.0</ele><time>2026-04-11T15:19:14Z</time></trkpt><trkpt lat="36.69955016581409" lon="14.954727687610106"><ele>4.333333333333333</ele><time>2026-04-11T15:19:15Z</time></trkpt><trkpt lat="36.699398239044434" lon="14.954673652781452"><ele>4.666666666666667</ele><time>2026-04-11T15:19:16Z</time></trkpt><trkpt lat="36.69924598160422" lon="14.9546180041206"><ele>5.0</ele><time>2026-04-11T15:19:17Z</time></trkpt><trkpt lat="36.699097485881126" lon="14.954564902333768"><ele>5.0</ele><time>2026-04-11T15:19:18Z</time></trkpt><trkpt lat="36.69894250961309" lon="14.954510758132523"><ele>5.0</ele><time>2026-04-11T15:19:19Z</time></trkpt><trkpt lat="36.698791863978855" lon="14.954454385288253"><ele>5.0</ele><time>2026-04-11T15:19:20Z</time></trkpt><trkpt lat="36.69863244700079" lon="14.954396679643711"><ele>4.666666666666667</ele><time>2026-04-11T15:19:21Z</time></trkpt><trkpt lat="36.69845769058352" lon="14.95434054773385"><ele>4.333333333333333</ele><time>2026-04-11T15:19:22Z</time></trkpt><trkpt lat="36.698297467306695" lon="14.954280722066322"><ele>4.0</ele><time>2026-04-11T15:19:23Z</time></trkpt><trkpt lat="36.69813053736568" lon="14.954221123230557"><ele>4.0</ele><time>2026-04-11T15:19:24Z</time></trkpt><trkpt lat="36.6979758460047" lon="14.954162615151246"><ele>4.0</ele><time>2026-04-11T15:19:25Z</time></trkpt><trkpt lat="36.69782692945178" lon="14.954117061195719"><ele>4.0</ele><time>2026-04-11T15:19:26Z</time></trkpt><trkpt lat="36.697682399475035" lon="14.954067082538504"><ele>4.0</ele><time>2026-04-11T15:19:27Z</time></trkpt><trkpt lat="36.69754679930827" lon="14.954010454721857"><ele>4.0</ele><time>2026-04-11T15:19:28Z</time></trkpt><trkpt lat="36.697386322133326" lon="14.953956994435234"><ele>4.0</ele><time>2026-04-11T15:19:29Z</time></trkpt><trkpt lat="36.69725100658116" lon="14.953914450061259"><ele>4.0</ele><time>2026-04-11T15:19:30Z</time></trkpt><trkpt lat="36.697131489086786" lon="14.95386949750629"><ele>4.0</ele><time>2026-04-11T15:19:31Z</time></trkpt><trkpt lat="36.69701958060021" lon="14.953829653754827"><ele>4.0</ele><time>2026-04-11T15:19:32Z</time></trkpt><trkpt lat="36.696915999470626" lon="14.953796907801248"><ele>4.0</ele><time>2026-04-11T15:19:33Z</time></trkpt><trkpt lat="36.696816922104496" lon="14.9537651901357"><ele>4.0</ele><time>2026-04-11T15:19:34Z</time></trkpt><trkpt lat="36.696710930903286" lon="14.953722984469358"><ele>4.0</ele><time>2026-04-11T15:19:35Z</time></trkpt><trkpt lat="36.69662390436342" lon="14.953671733655659"><ele>4.0</ele><time>2026-04-11T15:19:36Z</time></trkpt><trkpt lat="36.69656383468294" lon="14.953610681766115"><ele>4.0</ele><time>2026-04-11T15:19:37Z</time></trkpt><trkpt lat="36.696496283228036" lon="14.953580295581508"><ele>4.0</ele><time>2026-04-11T15:19:38Z</time></trkpt><trkpt lat="36.69652428948684" lon="14.953334824947492"><ele>4.0</ele><time>2026-04-11T15:19:40Z</time></trkpt><trkpt lat="36.696577005235376" lon="14.953220018478758"><ele>4.333333333333333</ele><time>2026-04-11T15:19:41Z</time></trkpt><trkpt lat="36.69665772329169" lon="14.953078001792878"><ele>4.666666666666667</ele><time>2026-04-11T15:19:42Z</time></trkpt><trkpt lat="36.69675573704555" lon="14.952921607724152"><ele>5.0</ele><time>2026-04-11T15:19:43Z</time></trkpt><trkpt lat="36.6968556211449" lon="14.952761178813637"><ele>4.666666666666667</ele><time>2026-04-11T15:19:44Z</time></trkpt><trkpt lat="36.696958761909244" lon="14.952597417352058"><ele>4.333333333333333</ele><time>2026-04-11T15:19:44.999Z</time></trkpt><trkpt lat="36.69706955156319" lon="14.952427928989426"><ele>4.0</ele><time>2026-04-11T15:19:45.999Z</time></trkpt><trkpt lat="36.69718040598695" lon="14.952261157666273"><ele>4.0</ele><time>2026-04-11T15:19:46.999Z</time></trkpt><trkpt lat="36.69728603974338" lon="14.952093055713721"><ele>4.0</ele><time>2026-04-11T15:19:47.999Z</time></trkpt><trkpt lat="36.69739021910499" lon="14.951920523573719"><ele>4.0</ele><time>2026-04-11T15:19:48.999Z</time></trkpt><trkpt lat="36.69750000483302" lon="14.951743718067277"><ele>4.0</ele><time>2026-04-11T15:19:49.999Z</time></trkpt><trkpt lat="36.69760777498065" lon="14.9515719823428"><ele>4.0</ele><time>2026-04-11T15:19:50.999Z</time></trkpt><trkpt lat="36.69771221325365" lon="14.951405922868883"><ele>4.0</ele><time>2026-04-11T15:19:51.999Z</time></trkpt><trkpt lat="36.69782036703231" lon="14.951239050655158"><ele>4.666666666666666</ele><time>2026-04-11T15:19:52.999Z</time></trkpt><trkpt lat="36.697931792434545" lon="14.951070159976661"><ele>5.333333333333333</ele><time>2026-04-11T15:19:53.999Z</time></trkpt><trkpt lat="36.6980592806722" lon="14.950887813325952"><ele>6.0</ele><time>2026-04-11T15:19:54.999Z</time></trkpt><trkpt lat="36.69819773451922" lon="14.95069947443567"><ele>6.0</ele><time>2026-04-11T15:19:55.999Z</time></trkpt><trkpt lat="36.69833351568049" lon="14.95052235959651"><ele>6.0</ele><time>2026-04-11T15:19:56.999Z</time></trkpt><trkpt lat="36.69847444649228" lon="14.950345178330423"><ele>6.0</ele><time>2026-04-11T15:19:57.999Z</time></trkpt><trkpt lat="36.69862727775161" lon="14.950156908404656"><ele>5.333333333333333</ele><time>2026-04-11T15:19:58.999Z</time></trkpt><trkpt lat="36.69878153408376" lon="14.949970549058637"><ele>4.666666666666666</ele><time>2026-04-11T15:19:59.999Z</time></trkpt><trkpt lat="36.698935408911524" lon="14.949782486644645"><ele>4.0</ele><time>2026-04-11T15:20:00.999Z</time></trkpt><trkpt lat="36.699086981306614" lon="14.94959488873028"><ele>4.0</ele><time>2026-04-11T15:20:01.999Z</time></trkpt><trkpt lat="36.69923706105063" lon="14.949406474683201"><ele>4.0</ele><time>2026-04-11T15:20:02.999Z</time></trkpt><trkpt lat="36.69938226372148" lon="14.949223886950874"><ele>4.0</ele><time>2026-04-11T15:20:03.999Z</time></trkpt><trkpt lat="36.69952892598768" lon="14.949040631443626"><ele>4.0</ele><time>2026-04-11T15:20:04.999Z</time></trkpt><trkpt lat="36.699673053175964" lon="14.948862481025666"><ele>4.0</ele><time>2026-04-11T15:20:05.999Z</time></trkpt><trkpt lat="36.69981907572781" lon="14.948687061348902"><ele>4.0</ele><time>2026-04-11T15:20:06.999Z</time></trkpt><trkpt lat="36.699957703317324" lon="14.948514014123292"><ele>3.6666666666666665</ele><time>2026-04-11T15:20:07.999Z</time></trkpt><trkpt lat="36.700091714611546" lon="14.94833997185885"><ele>3.333333333333333</ele><time>2026-04-11T15:20:08.999Z</time></trkpt><trkpt lat="36.700226003192824" lon="14.948174414759157"><ele>3.0</ele><time>2026-04-11T15:20:09.999Z</time></trkpt><trkpt lat="36.70036379992525" lon="14.948012669159224"><ele>3.666666666666667</ele><time>2026-04-11T15:20:10.999Z</time></trkpt><trkpt lat="36.70050059474323" lon="14.947852945764993"><ele>4.333333333333334</ele><time>2026-04-11T15:20:11.999Z</time></trkpt><trkpt lat="36.700639129196354" lon="14.94768438938611"><ele>5.0</ele><time>2026-04-11T15:20:12.999Z</time></trkpt><trkpt lat="36.70077026018693" lon="14.947512970529997"><ele>5.0</ele><time>2026-04-11T15:20:13.999Z</time></trkpt><trkpt lat="36.70090718752227" lon="14.947338200701322"><ele>5.0</ele><time>2026-04-11T15:20:14.999Z</time></trkpt><trkpt lat="36.701044139708394" lon="14.947169712221054"><ele>5.0</ele><time>2026-04-11T15:20:15.999Z</time></trkpt><trkpt lat="36.701183553924146" lon="14.946998913773546"><ele>5.0</ele><time>2026-04-11T15:20:16.999Z</time></trkpt><trkpt lat="36.701325251038924" lon="14.946826122685936"><ele>5.0</ele><time>2026-04-11T15:20:18Z</time></trkpt><trkpt lat="36.701464616750975" lon="14.946653352151465"><ele>5.0</ele><time>2026-04-11T15:20:19Z</time></trkpt><trkpt lat="36.70160742594858" lon="14.946476062775565"><ele>5.0</ele><time>2026-04-11T15:20:20Z</time></trkpt><trkpt lat="36.70174981727308" lon="14.946296708816982"><ele>5.0</ele><time>2026-04-11T15:20:21Z</time></trkpt><trkpt lat="36.70189293616894" lon="14.946113126407832"><ele>5.0</ele><time>2026-04-11T15:20:22Z</time></trkpt><trkpt lat="36.70203874083187" lon="14.94592643835983"><ele>5.0</ele><time>2026-04-11T15:20:23Z</time></trkpt><trkpt lat="36.7021816581692" lon="14.945743663139819"><ele>5.0</ele><time>2026-04-11T15:20:24Z</time></trkpt><trkpt lat="36.702325235215405" lon="14.945560604998155"><ele>5.0</ele><time>2026-04-11T15:20:25Z</time></trkpt><trkpt lat="36.70247141208225" lon="14.945372344121358"><ele>5.0</ele><time>2026-04-11T15:20:26Z</time></trkpt><trkpt lat="36.70262093426269" lon="14.945192964332056"><ele>5.0</ele><time>2026-04-11T15:20:27Z</time></trkpt><trkpt lat="36.70276808026948" lon="14.94501226648505"><ele>5.0</ele><time>2026-04-11T15:20:28Z</time></trkpt><trkpt lat="36.702919446612306" lon="14.944831363413586"><ele>4.666666666666667</ele><time>2026-04-11T15:20:29Z</time></trkpt><trkpt lat="36.703065072347925" lon="14.944649428692165"><ele>4.333333333333333</ele><time>2026-04-11T15:20:30Z</time></trkpt><trkpt lat="36.70320677584351" lon="14.944468151299306"><ele>4.0</ele><time>2026-04-11T15:20:31Z</time></trkpt><trkpt lat="36.703344853534816" lon="14.94428500897541"><ele>4.333333333333333</ele><time>2026-04-11T15:20:32Z</time></trkpt><trkpt lat="36.703482420950586" lon="14.944105204006355"><ele>4.666666666666667</ele><time>2026-04-11T15:20:33Z</time></trkpt><trkpt lat="36.70362132071158" lon="14.943930228784701"><ele>5.0</ele><time>2026-04-11T15:20:34Z</time></trkpt><trkpt lat="36.70376345345932" lon="14.943750981761129"><ele>5.0</ele><time>2026-04-11T15:20:35Z</time></trkpt><trkpt lat="36.7038939847808" lon="14.943574748306093"><ele>5.0</ele><time>2026-04-11T15:20:36Z</time></trkpt><trkpt lat="36.70403281896143" lon="14.943390346677914"><ele>5.0</ele><time>2026-04-11T15:20:37Z</time></trkpt><trkpt lat="36.704173204917005" lon="14.943207452536692"><ele>5.0</ele><time>2026-04-11T15:20:38Z</time></trkpt><trkpt lat="36.704316141305874" lon="14.943028190112221"><ele>5.0</ele><time>2026-04-11T15:20:39Z</time></trkpt><trkpt lat="36.704458471511366" lon="14.94285441123032"><ele>5.0</ele><time>2026-04-11T15:20:40Z</time></trkpt><trkpt lat="36.704602321660175" lon="14.942678337864134"><ele>4.666666666666667</ele><time>2026-04-11T15:20:41Z</time></trkpt><trkpt lat="36.7047421573969" lon="14.942501125004211"><ele>4.333333333333333</ele><time>2026-04-11T15:20:42Z</time></trkpt><trkpt lat="36.70488316410344" lon="14.942318029057494"><ele>4.0</ele><time>2026-04-11T15:20:43Z</time></trkpt><trkpt lat="36.70502015607568" lon="14.942140379042064"><ele>4.0</ele><time>2026-04-11T15:20:44Z</time></trkpt><trkpt lat="36.70515745269219" lon="14.941965892050408"><ele>4.0</ele><time>2026-04-11T15:20:45Z</time></trkpt><trkpt lat="36.70529495798975" lon="14.9417946887314"><ele>4.0</ele><time>2026-04-11T15:20:46Z</time></trkpt><trkpt lat="36.705429652233754" lon="14.941623482026575"><ele>4.333333333333333</ele><time>2026-04-11T15:20:47Z</time></trkpt><trkpt lat="36.70554973583074" lon="14.94146552259102"><ele>4.666666666666667</ele><time>2026-04-11T15:20:48Z</time></trkpt><trkpt lat="36.70565774776996" lon="14.94132317942742"><ele>5.0</ele><time>2026-04-11T15:20:49Z</time></trkpt><trkpt lat="36.70576303261473" lon="14.941188566752016"><ele>5.0</ele><time>2026-04-11T15:20:50Z</time></trkpt><trkpt lat="36.70585948533008" lon="14.941067608902586"><ele>5.0</ele><time>2026-04-11T15:20:51Z</time></trkpt><trkpt lat="36.70595106418937" lon="14.940951458534812"><ele>5.0</ele><time>2026-04-11T15:20:52Z</time></trkpt><trkpt lat="36.70603188801752" lon="14.940837088346374"><ele>5.0</ele><time>2026-04-11T15:20:53Z</time></trkpt><trkpt lat="36.70610375114315" lon="14.940735882388749"><ele>5.0</ele><time>2026-04-11T15:20:54Z</time></trkpt><trkpt lat="36.706176467653904" lon="14.9406350620413"><ele>5.0</ele><time>2026-04-11T15:20:55Z</time></trkpt><trkpt lat="36.70624372085848" lon="14.940544524558465"><ele>5.0</ele><time>2026-04-11T15:20:56Z</time></trkpt><trkpt lat="36.70631442014335" lon="14.940448455828058"><ele>5.0</ele><time>2026-04-11T15:20:57Z</time></trkpt><trkpt lat="36.706384506435356" lon="14.940345899669193"><ele>5.0</ele><time>2026-04-11T15:20:58Z</time></trkpt><trkpt lat="36.70644617041703" lon="14.940249494380335"><ele>5.0</ele><time>2026-04-11T15:20:59Z</time></trkpt><trkpt lat="36.70651096441041" lon="14.940160493455995"><ele>5.0</ele><time>2026-04-11T15:21:00Z</time></trkpt><trkpt lat="36.706592438430185" lon="14.940091787016268"><ele>5.0</ele><time>2026-04-11T15:21:01Z</time></trkpt><trkpt lat="36.70667829478183" lon="14.94005497659155"><ele>5.0</ele><time>2026-04-11T15:21:02Z</time></trkpt><trkpt lat="36.706763435037246" lon="14.940055016040569"><ele>5.0</ele><time>2026-04-11T15:21:03Z</time></trkpt><trkpt lat="36.70685221107546" lon="14.940087874398738"><ele>5.0</ele><time>2026-04-11T15:21:04Z</time></trkpt><trkpt lat="36.70693189863214" lon="14.940143026054056"><ele>5.0</ele><time>2026-04-11T15:21:05Z</time></trkpt><trkpt lat="36.706992543794115" lon="14.940216344132825"><ele>5.0</ele><time>2026-04-11T15:21:06Z</time></trkpt><trkpt lat="36.7070439446411" lon="14.940281031739124"><ele>5.0</ele><time>2026-04-11T15:21:07Z</time></trkpt><trkpt lat="36.70710254552638" lon="14.940349144524301"><ele>5.0</ele><time>2026-04-11T15:21:09Z</time></trkpt><trkpt lat="36.707157231704585" lon="14.940408368074843"><ele>5.0</ele><time>2026-04-11T15:21:16Z</time></trkpt><trkpt lat="36.70725015186037" lon="14.940506203864354"><ele>5.0</ele><time>2026-04-11T15:21:17Z</time></trkpt><trkpt lat="36.70732752569105" lon="14.94057474531633"><ele>5.0</ele><time>2026-04-11T15:21:18Z</time></trkpt><trkpt lat="36.7073854190423" lon="14.940637285217223"><ele>5.0</ele><time>2026-04-11T15:21:19Z</time></trkpt><trkpt lat="36.70744841350538" lon="14.940709739803644"><ele>5.0</ele><time>2026-04-11T15:21:20Z</time></trkpt><trkpt lat="36.7075149219197" lon="14.940787314861295"><ele>5.0</ele><time>2026-04-11T15:21:21Z</time></trkpt><trkpt lat="36.707594370439146" lon="14.940843171841868"><ele>5.0</ele><time>2026-04-11T15:21:22Z</time></trkpt><trkpt lat="36.7076807719266" lon="14.940883302241463"><ele>5.0</ele><time>2026-04-11T15:21:23Z</time></trkpt><trkpt lat="36.707752842517934" lon="14.940918721384193"><ele>5.0</ele><time>2026-04-11T15:21:24Z</time></trkpt><trkpt lat="36.70781450394312" lon="14.94094479389462"><ele>5.0</ele><time>2026-04-11T15:21:25Z</time></trkpt><trkpt lat="36.707876360685766" lon="14.940965260307204"><ele>5.0</ele><time>2026-04-11T15:21:26Z</time></trkpt><trkpt lat="36.70793952096479" lon="14.940988985404124"><ele>5.0</ele><time>2026-04-11T15:21:27Z</time></trkpt><trkpt lat="36.70801195411227" lon="14.941013282230486"><ele>5.0</ele><time>2026-04-11T15:21:28Z</time></trkpt><trkpt lat="36.708091456726656" lon="14.941041485343108"><ele>5.0</ele><time>2026-04-11T15:21:29Z</time></trkpt><trkpt lat="36.70815946999231" lon="14.941061645063828"><ele>5.0</ele><time>2026-04-11T15:21:30Z</time></trkpt><trkpt lat="36.708268344662535" lon="14.941101489240124"><ele>5.0</ele><time>2026-04-11T15:21:32Z</time></trkpt><trkpt lat="36.70837901251612" lon="14.941149374338218"><ele>5.0</ele><time>2026-04-11T15:21:34Z</time></trkpt><trkpt lat="36.708458285543394" lon="14.941175234472608"><ele>5.0</ele><time>2026-04-11T15:21:35Z</time></trkpt><trkpt lat="36.708584440797374" lon="14.941207986742121"><ele>5.0</ele><time>2026-04-11T15:21:36Z</time></trkpt><trkpt lat="36.70871669674907" lon="14.941256611106594"><ele>5.0</ele><time>2026-04-11T15:21:37Z</time></trkpt><trkpt lat="36.708869066760634" lon="14.94131726656655"><ele>5.0</ele><time>2026-04-11T15:21:37.999Z</time></trkpt><trkpt lat="36.70904326202845" lon="14.941382588303297"><ele>5.0</ele><time>2026-04-11T15:21:38.999Z</time></trkpt><trkpt lat="36.70923796183721" lon="14.941451196644518"><ele>5.0</ele><time>2026-04-11T15:21:39.999Z</time></trkpt><trkpt lat="36.70940297787961" lon="14.94150429167156"><ele>5.0</ele><time>2026-04-11T15:21:40.999Z</time></trkpt><trkpt lat="36.7095406551962" lon="14.94155379249426"><ele>5.0</ele><time>2026-04-11T15:21:41.999Z</time></trkpt><trkpt lat="36.709664726136886" lon="14.941599409933946"><ele>5.0</ele><time>2026-04-11T15:21:42.999Z</time></trkpt><trkpt lat="36.70978359859747" lon="14.941643390834223"><ele>5.0</ele><time>2026-04-11T15:21:43.999Z</time></trkpt><trkpt lat="36.709896626149295" lon="14.941680510617594"><ele>5.0</ele><time>2026-04-11T15:21:44.999Z</time></trkpt><trkpt lat="36.710000732479195" lon="14.94171027983553"><ele>5.0</ele><time>2026-04-11T15:21:45.999Z</time></trkpt><trkpt lat="36.710093429939214" lon="14.94173935969619"><ele>5.0</ele><time>2026-04-11T15:21:46.999Z</time></trkpt><trkpt lat="36.71017324970166" lon="14.941769460118948"><ele>5.0</ele><time>2026-04-11T15:21:47.999Z</time></trkpt><trkpt lat="36.7102369217025" lon="14.941798871575404"><ele>5.2</ele><time>2026-04-11T15:21:48.999Z</time></trkpt><trkpt lat="36.7103384411262" lon="14.941832317374923"><ele>5.4</ele><time>2026-04-11T15:21:50.999Z</time></trkpt><trkpt lat="36.71043703203317" lon="14.941683174841648"><ele>5.6</ele><time>2026-04-11T15:21:54.999Z</time></trkpt><trkpt lat="36.71045529544343" lon="14.941594163287093"><ele>5.8</ele><time>2026-04-11T15:21:55.999Z</time></trkpt><trkpt lat="36.710478028229026" lon="14.94148747140124"><ele>6.0</ele><time>2026-04-11T15:21:56.999Z</time></trkpt><trkpt lat="36.71049864306375" lon="14.941391859297504"><ele>6.0</ele><time>2026-04-11T15:21:57.999Z</time></trkpt><trkpt lat="36.710517602849905" lon="14.941307722721598"><ele>6.0</ele><time>2026-04-11T15:21:58.999Z</time></trkpt><trkpt lat="36.710535866554274" lon="14.94122667512768"><ele>6.0</ele><time>2026-04-11T15:21:59.999Z</time></trkpt><trkpt lat="36.71055467414871" lon="14.94114321395317"><ele>6.0</ele><time>2026-04-11T15:22:00.999Z</time></trkpt><trkpt lat="36.710575972878615" lon="14.94104869805453"><ele>6.0</ele><time>2026-04-11T15:22:01.999Z</time></trkpt><trkpt lat="36.710599159091984" lon="14.940946428704978"><ele>6.0</ele><time>2026-04-11T15:22:02.999Z</time></trkpt><trkpt lat="36.71062630864021" lon="14.940827572280892"><ele>5.75</ele><time>2026-04-11T15:22:03.999Z</time></trkpt><trkpt lat="36.71064652884062" lon="14.940678006277409"><ele>5.5</ele><time>2026-04-11T15:22:04.999Z</time></trkpt><trkpt lat="36.710679977892205" lon="14.94053373177321"><ele>5.25</ele><time>2026-04-11T15:22:05.999Z</time></trkpt><trkpt lat="36.7107139632184" lon="14.940384359961143"><ele>5.0</ele><time>2026-04-11T15:22:06.999Z</time></trkpt><trkpt lat="36.7107650298871" lon="14.94024428880209"><ele>5.0</ele><time>2026-04-11T15:22:07.999Z</time></trkpt><trkpt lat="36.71079060089174" lon="14.940070455913945"><ele>5.0</ele><time>2026-04-11T15:22:08.999Z</time></trkpt><trkpt lat="36.71083556139193" lon="14.939905115759066"><ele>5.0</ele><time>2026-04-11T15:22:09.999Z</time></trkpt><trkpt lat="36.71088905698763" lon="14.939736025391642"><ele>5.0</ele><time>2026-04-11T15:22:10.999Z</time></trkpt><trkpt lat="36.71091576310412" lon="14.939554643009398"><ele>4.666666666666667</ele><time>2026-04-11T15:22:11.999Z</time></trkpt><trkpt lat="36.71095948055003" lon="14.939372291726341"><ele>4.333333333333333</ele><time>2026-04-11T15:22:12.999Z</time></trkpt><trkpt lat="36.7110022337495" lon="14.939186603309969"><ele>4.0</ele><time>2026-04-11T15:22:13.999Z</time></trkpt><trkpt lat="36.71104653256571" lon="14.93900042869679"><ele>4.25</ele><time>2026-04-11T15:22:14.999Z</time></trkpt><trkpt lat="36.71108766936632" lon="14.938828417695897"><ele>4.5</ele><time>2026-04-11T15:22:15.999Z</time></trkpt><trkpt lat="36.711131643499094" lon="14.938667204405228"><ele>4.75</ele><time>2026-04-11T15:22:16.999Z</time></trkpt><trkpt lat="36.71116482484908" lon="14.938506250548553"><ele>5.0</ele><time>2026-04-11T15:22:17.999Z</time></trkpt><trkpt lat="36.71120719865373" lon="14.938343622861632"><ele>5.0</ele><time>2026-04-11T15:22:18.999Z</time></trkpt><trkpt lat="36.711242277656524" lon="14.938166768173682"><ele>5.0</ele><time>2026-04-11T15:22:19.999Z</time></trkpt><trkpt lat="36.7112840068637" lon="14.937996010511817"><ele>5.0</ele><time>2026-04-11T15:22:20.999Z</time></trkpt><trkpt lat="36.71131969194706" lon="14.937823332716398"><ele>5.0</ele><time>2026-04-11T15:22:21.999Z</time></trkpt><trkpt lat="36.71137029207383" lon="14.937674204424278"><ele>5.0</ele><time>2026-04-11T15:22:22.999Z</time></trkpt><trkpt lat="36.711400936149595" lon="14.937537663958304"><ele>5.0</ele><time>2026-04-11T15:22:24Z</time></trkpt><trkpt lat="36.711429275420805" lon="14.937411392947592"><ele>5.0</ele><time>2026-04-11T15:22:25Z</time></trkpt><trkpt lat="36.711442624005436" lon="14.937289193525867"><ele>5.0</ele><time>2026-04-11T15:22:26Z</time></trkpt><trkpt lat="36.71147332137529" lon="14.937174211818999"><ele>5.0</ele><time>2026-04-11T15:22:27Z</time></trkpt><trkpt lat="36.711498512391024" lon="14.937038749339944"><ele>5.0</ele><time>2026-04-11T15:22:28Z</time></trkpt><trkpt lat="36.71154359303981" lon="14.936902029490973"><ele>5.0</ele><time>2026-04-11T15:22:29Z</time></trkpt><trkpt lat="36.71157780844281" lon="14.93675468265188"><ele>5.0</ele><time>2026-04-11T15:22:30Z</time></trkpt><trkpt lat="36.711610138645945" lon="14.936614213472902"><ele>5.0</ele><time>2026-04-11T15:22:31Z</time></trkpt><trkpt lat="36.711638361152" lon="14.936491591991595"><ele>5.2</ele><time>2026-04-11T15:22:32Z</time></trkpt><trkpt lat="36.71166292436107" lon="14.936383877573903"><ele>5.4</ele><time>2026-04-11T15:22:33Z</time></trkpt><trkpt lat="36.711687223246834" lon="14.936280304054188"><ele>5.6</ele><time>2026-04-11T15:22:34Z</time></trkpt><trkpt lat="36.711710682975756" lon="14.93617969131864"><ele>5.8</ele><time>2026-04-11T15:22:35Z</time></trkpt><trkpt lat="36.71174037446924" lon="14.93605198691859"><ele>6.0</ele><time>2026-04-11T15:22:36Z</time></trkpt><trkpt lat="36.711769356974266" lon="14.935927242806798"><ele>6.0</ele><time>2026-04-11T15:22:37Z</time></trkpt><trkpt lat="36.711798541906546" lon="14.935801627496398"><ele>6.0</ele><time>2026-04-11T15:22:38Z</time></trkpt><trkpt lat="36.7118266062889" lon="14.935680835126947"><ele>6.0</ele><time>2026-04-11T15:22:39Z</time></trkpt><trkpt lat="36.71185367271674" lon="14.935564338373933"><ele>6.0</ele><time>2026-04-11T15:22:40Z</time></trkpt><trkpt lat="36.711879610646996" lon="14.935446004325586"><ele>6.0</ele><time>2026-04-11T15:22:41Z</time></trkpt><trkpt lat="36.71190404424534" lon="14.935335690526891"><ele>6.0</ele><time>2026-04-11T15:22:42Z</time></trkpt><trkpt lat="36.71192452009667" lon="14.935236561754152"><ele>6.0</ele><time>2026-04-11T15:22:43Z</time></trkpt><trkpt lat="36.711946895149175" lon="14.935129815978007"><ele>6.0</ele><time>2026-04-11T15:22:44Z</time></trkpt><trkpt lat="36.71197009862748" lon="14.935021521618854"><ele>6.0</ele><time>2026-04-11T15:22:45Z</time></trkpt><trkpt lat="36.71199672087123" lon="14.934902840704472"><ele>6.0</ele><time>2026-04-11T15:22:46Z</time></trkpt><trkpt lat="36.71202427795739" lon="14.934786289061844"><ele>6.0</ele><time>2026-04-11T15:22:47Z</time></trkpt><trkpt lat="36.71205235133125" lon="14.934672176801726"><ele>6.0</ele><time>2026-04-11T15:22:48Z</time></trkpt><trkpt lat="36.71208097447048" lon="14.934555829879766"><ele>6.0</ele><time>2026-04-11T15:22:49Z</time></trkpt><trkpt lat="36.71210968419816" lon="14.934438817903935"><ele>6.0</ele><time>2026-04-11T15:22:50Z</time></trkpt><trkpt lat="36.71213780057912" lon="14.93432228977885"><ele>6.0</ele><time>2026-04-11T15:22:51Z</time></trkpt><trkpt lat="36.71216234332092" lon="14.934220572576242"><ele>5.6</ele><time>2026-04-11T15:22:52Z</time></trkpt><trkpt lat="36.71219090584038" lon="14.93409964893848"><ele>5.199999999999999</ele><time>2026-04-11T15:22:53Z</time></trkpt><trkpt lat="36.71221705028523" lon="14.933986916572346"><ele>4.800000000000001</ele><time>2026-04-11T15:22:54Z</time></trkpt><trkpt lat="36.71224200154038" lon="14.933871387900044"><ele>4.4</ele><time>2026-04-11T15:22:55Z</time></trkpt><trkpt lat="36.71226368999504" lon="14.933766301750593"><ele>4.0</ele><time>2026-04-11T15:22:56Z</time></trkpt><trkpt lat="36.71228612154971" lon="14.93365348419951"><ele>4.0</ele><time>2026-04-11T15:22:57Z</time></trkpt><trkpt lat="36.71230693219858" lon="14.933545046249025"><ele>4.0</ele><time>2026-04-11T15:22:58Z</time></trkpt><trkpt lat="36.712328059122775" lon="14.933433024406172"><ele>4.0</ele><time>2026-04-11T15:22:59Z</time></trkpt><trkpt lat="36.712348077436395" lon="14.933326880774183"><ele>4.0</ele><time>2026-04-11T15:23:00Z</time></trkpt><trkpt lat="36.71237107350827" lon="14.933204540541851"><ele>4.0</ele><time>2026-04-11T15:23:01Z</time></trkpt><trkpt lat="36.71237775469347" lon="14.933089581902717"><ele>4.2</ele><time>2026-04-11T15:23:02Z</time></trkpt><trkpt lat="36.71240433739546" lon="14.932970357350383"><ele>4.4</ele><time>2026-04-11T15:23:03Z</time></trkpt><trkpt lat="36.71242240825517" lon="14.932847544573944"><ele>4.6</ele><time>2026-04-11T15:23:04Z</time></trkpt><trkpt lat="36.71244236856994" lon="14.932740374350196"><ele>4.8</ele><time>2026-04-11T15:23:05Z</time></trkpt><trkpt lat="36.71246233411423" lon="14.932628290115959"><ele>5.0</ele><time>2026-04-11T15:23:06Z</time></trkpt><trkpt lat="36.71248041889575" lon="14.932528285180373"><ele>5.0</ele><time>2026-04-11T15:23:07Z</time></trkpt><trkpt lat="36.71249681517638" lon="14.93242717876555"><ele>5.0</ele><time>2026-04-11T15:23:08Z</time></trkpt><trkpt lat="36.71251441272864" lon="14.93232722489636"><ele>5.0</ele><time>2026-04-11T15:23:09Z</time></trkpt><trkpt lat="36.71254716345441" lon="14.932238210245687"><ele>5.0</ele><time>2026-04-11T15:23:10Z</time></trkpt><trkpt lat="36.712561792209385" lon="14.932157239715448"><ele>5.0</ele><time>2026-04-11T15:23:11Z</time></trkpt><trkpt lat="36.71257053239627" lon="14.93201461590928"><ele>5.0</ele><time>2026-04-11T15:23:13Z</time></trkpt><trkpt lat="36.71257957083109" lon="14.931935241270235"><ele>5.0</ele><time>2026-04-11T15:23:15Z</time></trkpt><trkpt lat="36.712570120864925" lon="14.931798666056057"><ele>5.0</ele><time>2026-04-11T15:23:18Z</time></trkpt><trkpt lat="36.71261522197797" lon="14.931726478614321"><ele>5.0</ele><time>2026-04-11T15:23:19Z</time></trkpt><trkpt lat="36.71268038175072" lon="14.93164598565103"><ele>5.0</ele><time>2026-04-11T15:23:20Z</time></trkpt><trkpt lat="36.712742756290695" lon="14.931565447054442"><ele>5.0</ele><time>2026-04-11T15:23:21Z</time></trkpt><trkpt lat="36.712823573293036" lon="14.931448101805195"><ele>4.666666666666667</ele><time>2026-04-11T15:23:22Z</time></trkpt><trkpt lat="36.71292396112293" lon="14.931298155111264"><ele>4.333333333333333</ele><time>2026-04-11T15:23:23Z</time></trkpt><trkpt lat="36.71304261846892" lon="14.931143147256519"><ele>4.0</ele><time>2026-04-11T15:23:24Z</time></trkpt><trkpt lat="36.71317324128251" lon="14.930955607896689"><ele>5.0</ele><time>2026-04-11T15:23:25Z</time></trkpt><trkpt lat="36.713299060704216" lon="14.930744518432206"><ele>6.0</ele><time>2026-04-11T15:23:26Z</time></trkpt><trkpt lat="36.713433445552475" lon="14.93055289305558"><ele>7.0</ele><time>2026-04-11T15:23:27Z</time></trkpt><trkpt lat="36.713557618519" lon="14.93037761044701"><ele>6.666666666666667</ele><time>2026-04-11T15:23:28Z</time></trkpt><trkpt lat="36.71367630808684" lon="14.930213342246958"><ele>6.333333333333334</ele><time>2026-04-11T15:23:29Z</time></trkpt><trkpt lat="36.71379489442528" lon="14.930048230809808"><ele>6.0</ele><time>2026-04-11T15:23:30Z</time></trkpt><trkpt lat="36.71391923321239" lon="14.929877568117016"><ele>6.0</ele><time>2026-04-11T15:23:31Z</time></trkpt><trkpt lat="36.71404279284472" lon="14.929701367757387"><ele>6.0</ele><time>2026-04-11T15:23:32Z</time></trkpt><trkpt lat="36.714169215512484" lon="14.929508883260805"><ele>6.0</ele><time>2026-04-11T15:23:33Z</time></trkpt><trkpt lat="36.71431249703164" lon="14.929318712557489"><ele>5.0</ele><time>2026-04-11T15:23:34Z</time></trkpt><trkpt lat="36.71446098386204" lon="14.929105323767333"><ele>4.0</ele><time>2026-04-11T15:23:35Z</time></trkpt><trkpt lat="36.71460875942778" lon="14.92887917156271"><ele>4.0</ele><time>2026-04-11T15:23:36Z</time></trkpt><trkpt lat="36.71477523905439" lon="14.928651648017919"><ele>4.0</ele><time>2026-04-11T15:23:37Z</time></trkpt><trkpt lat="36.71493898702299" lon="14.928412208282246"><ele>4.5</ele><time>2026-04-11T15:23:38Z</time></trkpt><trkpt lat="36.71510166066993" lon="14.928174896529637"><ele>5.0</ele><time>2026-04-11T15:23:39Z</time></trkpt><trkpt lat="36.71526441074912" lon="14.927939216105685"><ele>5.0</ele><time>2026-04-11T15:23:40Z</time></trkpt><trkpt lat="36.71542970783655" lon="14.927704130148046"><ele>5.0</ele><time>2026-04-11T15:23:40.999Z</time></trkpt><trkpt lat="36.71559841180232" lon="14.927466261966961"><ele>5.0</ele><time>2026-04-11T15:23:41.999Z</time></trkpt><trkpt lat="36.715768611195145" lon="14.927222798054006"><ele>5.0</ele><time>2026-04-11T15:23:42.999Z</time></trkpt><trkpt lat="36.71593270067234" lon="14.926984799307133"><ele>5.0</ele><time>2026-04-11T15:23:43.999Z</time></trkpt><trkpt lat="36.71610031732221" lon="14.926739239933882"><ele>5.0</ele><time>2026-04-11T15:23:44.999Z</time></trkpt><trkpt lat="36.716266096677806" lon="14.926496912887776"><ele>5.5</ele><time>2026-04-11T15:23:45.999Z</time></trkpt><trkpt lat="36.71643365654335" lon="14.926254136059312"><ele>6.0</ele><time>2026-04-11T15:23:46.999Z</time></trkpt><trkpt lat="36.71660437308399" lon="14.926009181447425"><ele>6.0</ele><time>2026-04-11T15:23:47.999Z</time></trkpt><trkpt lat="36.71677400965658" lon="14.925765954794093"><ele>6.0</ele><time>2026-04-11T15:23:48.999Z</time></trkpt><trkpt lat="36.71694280219961" lon="14.925522385113965"><ele>6.0</ele><time>2026-04-11T15:23:49.999Z</time></trkpt><trkpt lat="36.717112586165314" lon="14.925279462551476"><ele>6.0</ele><time>2026-04-11T15:23:50.999Z</time></trkpt><trkpt lat="36.717275436910235" lon="14.925042515578662"><ele>6.5</ele><time>2026-04-11T15:23:51.999Z</time></trkpt><trkpt lat="36.7174307773546" lon="14.924822346006481"><ele>7.0</ele><time>2026-04-11T15:23:52.999Z</time></trkpt><trkpt lat="36.71758758615514" lon="14.924603801339815"><ele>7.5</ele><time>2026-04-11T15:23:53.999Z</time></trkpt><trkpt lat="36.717741127773515" lon="14.924391010873311"><ele>8.0</ele><time>2026-04-11T15:23:54.999Z</time></trkpt><trkpt lat="36.71789260925815" lon="14.924175626556112"><ele>6.0</ele><time>2026-04-11T15:23:55.999Z</time></trkpt><trkpt lat="36.71804249414954" lon="14.9239560018451"><ele>4.0</ele><time>2026-04-11T15:23:56.999Z</time></trkpt><trkpt lat="36.71818621221505" lon="14.923728657115573"><ele>4.0</ele><time>2026-04-11T15:23:57.999Z</time></trkpt><trkpt lat="36.718326482106136" lon="14.923487678592576"><ele>4.0</ele><time>2026-04-11T15:23:58.999Z</time></trkpt><trkpt lat="36.718460758693276" lon="14.923237950087353"><ele>5.0</ele><time>2026-04-11T15:23:59.999Z</time></trkpt><trkpt lat="36.71858696005035" lon="14.922985766313829"><ele>6.0</ele><time>2026-04-11T15:24:00.999Z</time></trkpt><trkpt lat="36.7187149840309" lon="14.922725365568878"><ele>5.5</ele><time>2026-04-11T15:24:01.999Z</time></trkpt><trkpt lat="36.71884800963224" lon="14.922457150012047"><ele>5.0</ele><time>2026-04-11T15:24:02.999Z</time></trkpt><trkpt lat="36.71897931100291" lon="14.922195703526615"><ele>5.0</ele><time>2026-04-11T15:24:03.999Z</time></trkpt><trkpt lat="36.719110291177415" lon="14.921933843551173"><ele>5.0</ele><time>2026-04-11T15:24:04.999Z</time></trkpt><trkpt lat="36.71923957636107" lon="14.921674162077158"><ele>5.0</ele><time>2026-04-11T15:24:05.999Z</time></trkpt><trkpt lat="36.71936172821856" lon="14.92142069413024"><ele>5.0</ele><time>2026-04-11T15:24:06.999Z</time></trkpt><trkpt lat="36.7194824389696" lon="14.92117845429756"><ele>4.666666666666667</ele><time>2026-04-11T15:24:07.999Z</time></trkpt><trkpt lat="36.71960144585695" lon="14.920941198859179"><ele>4.333333333333333</ele><time>2026-04-11T15:24:08.999Z</time></trkpt><trkpt lat="36.71971798441297" lon="14.920706413496891"><ele>4.0</ele><time>2026-04-11T15:24:09.999Z</time></trkpt><trkpt lat="36.71983136189663" lon="14.920483827936962"><ele>4.0</ele><time>2026-04-11T15:24:10.999Z</time></trkpt><trkpt lat="36.71994774439942" lon="14.920255769642404"><ele>4.0</ele><time>2026-04-11T15:24:11.999Z</time></trkpt><trkpt lat="36.720067311057676" lon="14.920035749627562"><ele>4.0</ele><time>2026-04-11T15:24:12.999Z</time></trkpt><trkpt lat="36.72018587172395" lon="14.919826334573857"><ele>4.0</ele><time>2026-04-11T15:24:13.999Z</time></trkpt><trkpt lat="36.72030048139668" lon="14.919642049467647"><ele>4.0</ele><time>2026-04-11T15:24:14.999Z</time></trkpt><trkpt lat="36.72041450458021" lon="14.919468311761545"><ele>4.0</ele><time>2026-04-11T15:24:15.999Z</time></trkpt><trkpt lat="36.720526432057646" lon="14.919301338292858"><ele>4.333333333333333</ele><time>2026-04-11T15:24:16.999Z</time></trkpt><trkpt lat="36.72063649955547" lon="14.919135582356999"><ele>4.666666666666667</ele><time>2026-04-11T15:24:17.999Z</time></trkpt><trkpt lat="36.72074647032653" lon="14.918961231735162"><ele>5.0</ele><time>2026-04-11T15:24:18.999Z</time></trkpt><trkpt lat="36.72085860087124" lon="14.918773245763848"><ele>5.0</ele><time>2026-04-11T15:24:19.999Z</time></trkpt><trkpt lat="36.720972881301186" lon="14.918588013724332"><ele>5.0</ele><time>2026-04-11T15:24:20.999Z</time></trkpt><trkpt lat="36.721088696500914" lon="14.918396493441362"><ele>5.0</ele><time>2026-04-11T15:24:21.999Z</time></trkpt><trkpt lat="36.72120168146263" lon="14.918211706048746"><ele>5.0</ele><time>2026-04-11T15:24:22.999Z</time></trkpt><trkpt lat="36.72130415086279" lon="14.918040521120796"><ele>5.0</ele><time>2026-04-11T15:24:23.999Z</time></trkpt><trkpt lat="36.72140000348719" lon="14.917874611034334"><ele>5.0</ele><time>2026-04-11T15:24:24.999Z</time></trkpt><trkpt lat="36.721498290794194" lon="14.917722850770657"><ele>5.0</ele><time>2026-04-11T15:24:25.999Z</time></trkpt><trkpt lat="36.721607345498256" lon="14.91757351977905"><ele>5.0</ele><time>2026-04-11T15:24:26.999Z</time></trkpt><trkpt lat="36.7217151764728" lon="14.917412989138047"><ele>5.0</ele><time>2026-04-11T15:24:27.999Z</time></trkpt><trkpt lat="36.72181633241726" lon="14.917243549721542"><ele>5.333333333333334</ele><time>2026-04-11T15:24:28.999Z</time></trkpt><trkpt lat="36.721918606378324" lon="14.917074784212087"><ele>5.666666666666667</ele><time>2026-04-11T15:24:30Z</time></trkpt><trkpt lat="36.72202465422832" lon="14.91690816626731"><ele>6.0</ele><time>2026-04-11T15:24:31Z</time></trkpt><trkpt lat="36.72212446188654" lon="14.916747912358382"><ele>6.0</ele><time>2026-04-11T15:24:32Z</time></trkpt><trkpt lat="36.72221965329362" lon="14.91659988695916"><ele>6.0</ele><time>2026-04-11T15:24:33Z</time></trkpt><trkpt lat="36.722304930978346" lon="14.916464043345796"><ele>6.0</ele><time>2026-04-11T15:24:34Z</time></trkpt><trkpt lat="36.72238947648338" lon="14.916336286583617"><ele>6.0</ele><time>2026-04-11T15:24:35Z</time></trkpt><trkpt lat="36.72246261653365" lon="14.91621793074823"><ele>6.0</ele><time>2026-04-11T15:24:36Z</time></trkpt><trkpt lat="36.722528851493315" lon="14.916110014265307"><ele>6.0</ele><time>2026-04-11T15:24:37Z</time></trkpt><trkpt lat="36.722586853108375" lon="14.916012512903961"><ele>6.0</ele><time>2026-04-11T15:24:38Z</time></trkpt><trkpt lat="36.722637313291955" lon="14.915921035793113"><ele>6.0</ele><time>2026-04-11T15:24:39Z</time></trkpt><trkpt lat="36.72268534427393" lon="14.91581977068683"><ele>6.0</ele><time>2026-04-11T15:24:40Z</time></trkpt><trkpt lat="36.72275330696272" lon="14.915698493025435"><ele>5.333333333333333</ele><time>2026-04-11T15:24:41Z</time></trkpt><trkpt lat="36.72284155614252" lon="14.915554301698082"><ele>4.666666666666666</ele><time>2026-04-11T15:24:42Z</time></trkpt><trkpt lat="36.72294700218175" lon="14.915391460138588"><ele>4.0</ele><time>2026-04-11T15:24:43Z</time></trkpt><trkpt lat="36.72306201478285" lon="14.915218928731221"><ele>4.333333333333333</ele><time>2026-04-11T15:24:44Z</time></trkpt><trkpt lat="36.72318392240931" lon="14.915033821538414"><ele>4.666666666666667</ele><time>2026-04-11T15:24:45Z</time></trkpt><trkpt lat="36.72330927182625" lon="14.91483664067287"><ele>5.0</ele><time>2026-04-11T15:24:46Z</time></trkpt><trkpt lat="36.7234341068833" lon="14.91463960345761"><ele>5.0</ele><time>2026-04-11T15:24:47Z</time></trkpt><trkpt lat="36.723560642543546" lon="14.914445158069991"><ele>5.0</ele><time>2026-04-11T15:24:48Z</time></trkpt><trkpt lat="36.72368931752807" lon="14.914244107958154"><ele>5.0</ele><time>2026-04-11T15:24:49Z</time></trkpt><trkpt lat="36.72377884091634" lon="14.91407018125753"><ele>5.666666666666667</ele><time>2026-04-11T15:24:50Z</time></trkpt><trkpt lat="36.72388860364775" lon="14.913829777702066"><ele>6.333333333333334</ele><time>2026-04-11T15:24:51Z</time></trkpt><trkpt lat="36.723998253744554" lon="14.913590306562694"><ele>7.0</ele><time>2026-04-11T15:24:52Z</time></trkpt><trkpt lat="36.72412028280812" lon="14.913328053998079"><ele>7.0</ele><time>2026-04-11T15:24:53Z</time></trkpt><trkpt lat="36.724246110058644" lon="14.913059488028923"><ele>7.0</ele><time>2026-04-11T15:24:54Z</time></trkpt><trkpt lat="36.72437117335367" lon="14.912786024259077"><ele>6.5</ele><time>2026-04-11T15:24:55Z</time></trkpt><trkpt lat="36.72449401593608" lon="14.91251425383934"><ele>6.0</ele><time>2026-04-11T15:24:56Z</time></trkpt><trkpt lat="36.7246159983459" lon="14.912238509047162"><ele>6.0</ele><time>2026-04-11T15:24:57Z</time></trkpt><trkpt lat="36.724737990313315" lon="14.911965222099816"><ele>6.0</ele><time>2026-04-11T15:24:58Z</time></trkpt><trkpt lat="36.72486287838856" lon="14.911684823161714"><ele>6.0</ele><time>2026-04-11T15:24:59Z</time></trkpt><trkpt lat="36.72499256833294" lon="14.911396307916137"><ele>6.0</ele><time>2026-04-11T15:25:00Z</time></trkpt><trkpt lat="36.72512200956455" lon="14.911113380861172"><ele>5.5</ele><time>2026-04-11T15:25:01Z</time></trkpt><trkpt lat="36.7252441651763" lon="14.910838522443866"><ele>5.0</ele><time>2026-04-11T15:25:02Z</time></trkpt><trkpt lat="36.72535870553432" lon="14.910587191632402"><ele>5.0</ele><time>2026-04-11T15:25:03Z</time></trkpt><trkpt lat="36.725460687983144" lon="14.910346427753364"><ele>5.0</ele><time>2026-04-11T15:25:04Z</time></trkpt><trkpt lat="36.72555706361472" lon="14.910125529963208"><ele>5.0</ele><time>2026-04-11T15:25:05Z</time></trkpt><trkpt lat="36.7256454787276" lon="14.909913866305544"><ele>5.0</ele><time>2026-04-11T15:25:06Z</time></trkpt><trkpt lat="36.72573196394096" lon="14.90972126633983"><ele>5.0</ele><time>2026-04-11T15:25:07Z</time></trkpt><trkpt lat="36.72581019406387" lon="14.909538728355804"><ele>5.0</ele><time>2026-04-11T15:25:08Z</time></trkpt><trkpt lat="36.725896608725826" lon="14.909350489374177"><ele>5.333333333333334</ele><time>2026-04-11T15:25:09Z</time></trkpt><trkpt lat="36.72597799857324" lon="14.909176679034857"><ele>5.666666666666667</ele><time>2026-04-11T15:25:10Z</time></trkpt><trkpt lat="36.72607957570168" lon="14.909003610814414"><ele>6.0</ele><time>2026-04-11T15:25:11Z</time></trkpt><trkpt lat="36.726234942342714" lon="14.908848468835622"><ele>5.666666666666667</ele><time>2026-04-11T15:25:12Z</time></trkpt><trkpt lat="36.72640913804397" lon="14.908668174568012"><ele>5.333333333333334</ele><time>2026-04-11T15:25:13Z</time></trkpt><trkpt lat="36.72658121570451" lon="14.908503045569889"><ele>5.0</ele><time>2026-04-11T15:25:14Z</time></trkpt><trkpt lat="36.726744579951855" lon="14.908331049663126"><ele>4.666666666666667</ele><time>2026-04-11T15:25:15Z</time></trkpt><trkpt lat="36.72690682840356" lon="14.90815879087572"><ele>4.333333333333333</ele><time>2026-04-11T15:25:16Z</time></trkpt><trkpt lat="36.7270567103321" lon="14.908004434576798"><ele>4.0</ele><time>2026-04-11T15:25:17Z</time></trkpt><trkpt lat="36.72719677098394" lon="14.907863554760267"><ele>4.0</ele><time>2026-04-11T15:25:18Z</time></trkpt><trkpt lat="36.72732677055289" lon="14.907721848462808"><ele>4.0</ele><time>2026-04-11T15:25:19Z</time></trkpt><trkpt lat="36.72745333784728" lon="14.907564331096477"><ele>4.0</ele><time>2026-04-11T15:25:20Z</time></trkpt><trkpt lat="36.72756847324066" lon="14.907387060889633"><ele>4.0</ele><time>2026-04-11T15:25:21Z</time></trkpt><trkpt lat="36.72767156774794" lon="14.907199035458106"><ele>4.0</ele><time>2026-04-11T15:25:22Z</time></trkpt><trkpt lat="36.72775334050541" lon="14.90700565902161"><ele>4.0</ele><time>2026-04-11T15:25:23Z</time></trkpt><trkpt lat="36.727814529075744" lon="14.906810863597952"><ele>4.666666666666666</ele><time>2026-04-11T15:25:24Z</time></trkpt><trkpt lat="36.72786591793807" lon="14.90660058048426"><ele>5.333333333333333</ele><time>2026-04-11T15:25:25Z</time></trkpt><trkpt lat="36.727908667215985" lon="14.906377698585139"><ele>6.0</ele><time>2026-04-11T15:25:26Z</time></trkpt><trkpt lat="36.72794737973086" lon="14.906137703907929"><ele>6.0</ele><time>2026-04-11T15:25:27Z</time></trkpt><trkpt lat="36.72798113005689" lon="14.905897914817011"><ele>6.0</ele><time>2026-04-11T15:25:28Z</time></trkpt><trkpt lat="36.72802179967583" lon="14.905652109897938"><ele>6.0</ele><time>2026-04-11T15:25:29Z</time></trkpt><trkpt lat="36.728070861983696" lon="14.905390671998749"><ele>6.0</ele><time>2026-04-11T15:25:30Z</time></trkpt><trkpt lat="36.72812423173868" lon="14.905109009086644"><ele>6.0</ele><time>2026-04-11T15:25:31Z</time></trkpt><trkpt lat="36.72817661467591" lon="14.904810938100965"><ele>6.0</ele><time>2026-04-11T15:25:32Z</time></trkpt><trkpt lat="36.72823988851478" lon="14.904506715494689"><ele>6.0</ele><time>2026-04-11T15:25:33Z</time></trkpt><trkpt lat="36.7283111371199" lon="14.904199223062546"><ele>5.5</ele><time>2026-04-11T15:25:34Z</time></trkpt><trkpt lat="36.72837552706276" lon="14.903888859845576"><ele>5.0</ele><time>2026-04-11T15:25:35Z</time></trkpt><trkpt lat="36.728436256844674" lon="14.903574963664632"><ele>5.0</ele><time>2026-04-11T15:25:36Z</time></trkpt><trkpt lat="36.72849709297157" lon="14.90325785091264"><ele>5.0</ele><time>2026-04-11T15:25:37Z</time></trkpt><trkpt lat="36.7285611851004" lon="14.902933547468932"><ele>4.5</ele><time>2026-04-11T15:25:38Z</time></trkpt><trkpt lat="36.728625247759865" lon="14.902605352080444"><ele>4.0</ele><time>2026-04-11T15:25:39Z</time></trkpt><trkpt lat="36.72868529093987" lon="14.902279364051306"><ele>4.5</ele><time>2026-04-11T15:25:40Z</time></trkpt><trkpt lat="36.72873860678931" lon="14.901954522196657"><ele>5.0</ele><time>2026-04-11T15:25:41Z</time></trkpt><trkpt lat="36.72879383869244" lon="14.901621429070442"><ele>5.0</ele><time>2026-04-11T15:25:42Z</time></trkpt><trkpt lat="36.72884914146931" lon="14.90130451402042"><ele>5.0</ele><time>2026-04-11T15:25:43Z</time></trkpt><trkpt lat="36.72890424006536" lon="14.900988168311931"><ele>5.0</ele><time>2026-04-11T15:25:43.999Z</time></trkpt><trkpt lat="36.72895651213927" lon="14.900691043305432"><ele>5.0</ele><time>2026-04-11T15:25:44.999Z</time></trkpt><trkpt lat="36.72900757493235" lon="14.900406433629435"><ele>5.0</ele><time>2026-04-11T15:25:45.999Z</time></trkpt><trkpt lat="36.729055010172736" lon="14.90013217928906"><ele>5.0</ele><time>2026-04-11T15:25:46.999Z</time></trkpt><trkpt lat="36.72910121167531" lon="14.89987219111527"><ele>5.0</ele><time>2026-04-11T15:25:47.999Z</time></trkpt><trkpt lat="36.72914542854312" lon="14.899611948007921"><ele>5.0</ele><time>2026-04-11T15:25:48.999Z</time></trkpt><trkpt lat="36.72919116428082" lon="14.899362135515075"><ele>5.0</ele><time>2026-04-11T15:25:49.999Z</time></trkpt><trkpt lat="36.72923339304156" lon="14.899109024387794"><ele>5.0</ele><time>2026-04-11T15:25:50.999Z</time></trkpt><trkpt lat="36.729272631623346" lon="14.898865595758322"><ele>5.0</ele><time>2026-04-11T15:25:51.999Z</time></trkpt><trkpt lat="36.72931712870535" lon="14.898627554605447"><ele>5.0</ele><time>2026-04-11T15:25:52.999Z</time></trkpt><trkpt lat="36.72936442649313" lon="14.898381272683173"><ele>5.0</ele><time>2026-04-11T15:25:53.999Z</time></trkpt><trkpt lat="36.72940595077142" lon="14.898151235257776"><ele>5.0</ele><time>2026-04-11T15:25:54.999Z</time></trkpt><trkpt lat="36.72944029360766" lon="14.897939401766845"><ele>5.0</ele><time>2026-04-11T15:25:55.999Z</time></trkpt><trkpt lat="36.72947542135344" lon="14.897732020232306"><ele>5.0</ele><time>2026-04-11T15:25:56.999Z</time></trkpt><trkpt lat="36.72951492018535" lon="14.897524719535355"><ele>5.0</ele><time>2026-04-11T15:25:57.999Z</time></trkpt><trkpt lat="36.72955152708874" lon="14.89732055440207"><ele>5.0</ele><time>2026-04-11T15:25:58.999Z</time></trkpt><trkpt lat="36.72958462465188" lon="14.89711621685429"><ele>5.0</ele><time>2026-04-11T15:25:59.999Z</time></trkpt><trkpt lat="36.72962274332262" lon="14.896892494550729"><ele>5.333333333333334</ele><time>2026-04-11T15:26:00.999Z</time></trkpt><trkpt lat="36.72966821898976" lon="14.89665987737303"><ele>5.666666666666667</ele><time>2026-04-11T15:26:01.999Z</time></trkpt><trkpt lat="36.72971378795245" lon="14.896430399053514"><ele>6.0</ele><time>2026-04-11T15:26:02.999Z</time></trkpt><trkpt lat="36.72975656468117" lon="14.89619734922099"><ele>6.0</ele><time>2026-04-11T15:26:03.999Z</time></trkpt><trkpt lat="36.72979353871581" lon="14.895968654077851"><ele>6.0</ele><time>2026-04-11T15:26:04.999Z</time></trkpt><trkpt lat="36.72982344136011" lon="14.895748511128616"><ele>6.0</ele><time>2026-04-11T15:26:05.999Z</time></trkpt><trkpt lat="36.7298493667295" lon="14.895523222911754"><ele>6.0</ele><time>2026-04-11T15:26:06.999Z</time></trkpt><trkpt lat="36.729869366956244" lon="14.895304852535341"><ele>6.0</ele><time>2026-04-11T15:26:07.999Z</time></trkpt><trkpt lat="36.72987669538564" lon="14.895070078302371"><ele>6.0</ele><time>2026-04-11T15:26:08.999Z</time></trkpt><trkpt lat="36.729867316623" lon="14.89484174130708"><ele>7.333333333333334</ele><time>2026-04-11T15:26:09.999Z</time></trkpt><trkpt lat="36.72984165958433" lon="14.89461777581116"><ele>8.666666666666668</ele><time>2026-04-11T15:26:10.999Z</time></trkpt><trkpt lat="36.72980165356868" lon="14.89440041507881"><ele>10.0</ele><time>2026-04-11T15:26:11.999Z</time></trkpt><trkpt lat="36.729753959383174" lon="14.894200713861473"><ele>11.333333333333334</ele><time>2026-04-11T15:26:12.999Z</time></trkpt><trkpt lat="36.72968828801439" lon="14.893996007486376"><ele>12.666666666666668</ele><time>2026-04-11T15:26:13.999Z</time></trkpt><trkpt lat="36.72960806771335" lon="14.893784750549425"><ele>14.0</ele><time>2026-04-11T15:26:14.999Z</time></trkpt><trkpt lat="36.72952720334656" lon="14.893581961001049"><ele>14.333333333333334</ele><time>2026-04-11T15:26:15.999Z</time></trkpt><trkpt lat="36.72944783051893" lon="14.89336190360262"><ele>14.666666666666668</ele><time>2026-04-11T15:26:16.999Z</time></trkpt><trkpt lat="36.729378551555165" lon="14.893127737052563"><ele>15.0</ele><time>2026-04-11T15:26:17.999Z</time></trkpt><trkpt lat="36.72932747027567" lon="14.892880702806163"><ele>12.333333333333334</ele><time>2026-04-11T15:26:18.999Z</time></trkpt><trkpt lat="36.72929248337807" lon="14.892636175958183"><ele>9.666666666666668</ele><time>2026-04-11T15:26:19.999Z</time></trkpt><trkpt lat="36.72927014813112" lon="14.89240981199662"><ele>7.0</ele><time>2026-04-11T15:26:20.999Z</time></trkpt><trkpt lat="36.72925859741276" lon="14.892197903738843"><ele>6.666666666666667</ele><time>2026-04-11T15:26:21.999Z</time></trkpt><trkpt lat="36.72925842484367" lon="14.891999724704437"><ele>6.333333333333334</ele><time>2026-04-11T15:26:22.999Z</time></trkpt><trkpt lat="36.72926366321875" lon="14.891797663060405"><ele>6.0</ele><time>2026-04-11T15:26:23.999Z</time></trkpt><trkpt lat="36.72927277414265" lon="14.891601312144461"><ele>6.75</ele><time>2026-04-11T15:26:24.999Z</time></trkpt><trkpt lat="36.729290019375114" lon="14.891409852493997"><ele>7.5</ele><time>2026-04-11T15:26:25.999Z</time></trkpt><trkpt lat="36.729316297098805" lon="14.891237325879349"><ele>8.25</ele><time>2026-04-11T15:26:26.999Z</time></trkpt><trkpt lat="36.7293493418502" lon="14.891076688215662"><ele>9.0</ele><time>2026-04-11T15:26:27.999Z</time></trkpt><trkpt lat="36.7293827991548" lon="14.890924284639297"><ele>11.25</ele><time>2026-04-11T15:26:28.999Z</time></trkpt><trkpt lat="36.72941648718961" lon="14.890764864824199"><ele>13.5</ele><time>2026-04-11T15:26:29.999Z</time></trkpt><trkpt lat="36.72945350224662" lon="14.890603892138046"><ele>15.75</ele><time>2026-04-11T15:26:30.999Z</time></trkpt><trkpt lat="36.72949725159219" lon="14.890449805251496"><ele>18.0</ele><time>2026-04-11T15:26:31.999Z</time></trkpt><trkpt lat="36.729548746413215" lon="14.890304337497279"><ele>18.0</ele><time>2026-04-11T15:26:32.999Z</time></trkpt><trkpt lat="36.729601912569095" lon="14.890166642951241"><ele>18.0</ele><time>2026-04-11T15:26:33.999Z</time></trkpt><trkpt lat="36.729659639228075" lon="14.89003481423715"><ele>18.0</ele><time>2026-04-11T15:26:34.999Z</time></trkpt><trkpt lat="36.72971711706544" lon="14.889896705094895"><ele>18.0</ele><time>2026-04-11T15:26:36Z</time></trkpt><trkpt lat="36.729775103070594" lon="14.889755131925176"><ele>17.25</ele><time>2026-04-11T15:26:37Z</time></trkpt><trkpt lat="36.729830040875335" lon="14.889604488924597"><ele>16.5</ele><time>2026-04-11T15:26:38Z</time></trkpt><trkpt lat="36.72989294997506" lon="14.889438274288908"><ele>15.75</ele><time>2026-04-11T15:26:39Z</time></trkpt><trkpt lat="36.729960806662916" lon="14.889265996584406"><ele>15.0</ele><time>2026-04-11T15:26:40Z</time></trkpt><trkpt lat="36.73002703608048" lon="14.889100539858218"><ele>13.75</ele><time>2026-04-11T15:26:41Z</time></trkpt><trkpt lat="36.73008996706086" lon="14.888937224057983"><ele>12.5</ele><time>2026-04-11T15:26:42Z</time></trkpt><trkpt lat="36.730152415501244" lon="14.888774372624708"><ele>11.25</ele><time>2026-04-11T15:26:43Z</time></trkpt><trkpt lat="36.73021637997697" lon="14.88860902458609"><ele>10.0</ele><time>2026-04-11T15:26:44Z</time></trkpt><trkpt lat="36.730280092355656" lon="14.88844318729689"><ele>13.333333333333334</ele><time>2026-04-11T15:26:45Z</time></trkpt><trkpt lat="36.730344694101724" lon="14.888262762544105"><ele>16.666666666666668</ele><time>2026-04-11T15:26:46Z</time></trkpt><trkpt lat="36.73041906949144" lon="14.888056632905176"><ele>20.0</ele><time>2026-04-11T15:26:47Z</time></trkpt><trkpt lat="36.73050583051336" lon="14.887838987047921"><ele>20.0</ele><time>2026-04-11T15:26:48Z</time></trkpt><trkpt lat="36.73059717742615" lon="14.88761304313678"><ele>20.0</ele><time>2026-04-11T15:26:49Z</time></trkpt><trkpt lat="36.73068915202935" lon="14.887387109562999"><ele>20.0</ele><time>2026-04-11T15:26:50Z</time></trkpt><trkpt lat="36.73079680774697" lon="14.88714811530917"><ele>18.666666666666668</ele><time>2026-04-11T15:26:51Z</time></trkpt><trkpt lat="36.73089672046235" lon="14.88689441386525"><ele>17.333333333333332</ele><time>2026-04-11T15:26:52Z</time></trkpt><trkpt lat="36.730984501702366" lon="14.886643246020228"><ele>16.0</ele><time>2026-04-11T15:26:53Z</time></trkpt><trkpt lat="36.731060720910385" lon="14.886381930784546"><ele>21.0</ele><time>2026-04-11T15:26:54Z</time></trkpt><trkpt lat="36.731129739875314" lon="14.886091215126266"><ele>26.0</ele><time>2026-04-11T15:26:55Z</time></trkpt><trkpt lat="36.73118814489917" lon="14.885800448014082"><ele>26.0</ele><time>2026-04-11T15:26:56Z</time></trkpt><trkpt lat="36.73123862389558" lon="14.885496818416478"><ele>26.0</ele><time>2026-04-11T15:26:57Z</time></trkpt><trkpt lat="36.73128147395027" lon="14.885188495162994"><ele>22.0</ele><time>2026-04-11T15:26:58Z</time></trkpt><trkpt lat="36.73131555365796" lon="14.884874398207826"><ele>18.0</ele><time>2026-04-11T15:26:59Z</time></trkpt><trkpt lat="36.73134366940801" lon="14.884545454057877"><ele>16.0</ele><time>2026-04-11T15:27:00Z</time></trkpt><trkpt lat="36.73136872832897" lon="14.88423210841726"><ele>14.0</ele><time>2026-04-11T15:27:01Z</time></trkpt><trkpt lat="36.73139176625404" lon="14.883898442398115"><ele>14.0</ele><time>2026-04-11T15:27:02Z</time></trkpt><trkpt lat="36.731416824272884" lon="14.883567330312472"><ele>14.0</ele><time>2026-04-11T15:27:03Z</time></trkpt><trkpt lat="36.73144297965005" lon="14.883228165291554"><ele>13.0</ele><time>2026-04-11T15:27:04Z</time></trkpt><trkpt lat="36.731468739956156" lon="14.88288732724383"><ele>12.0</ele><time>2026-04-11T15:27:05Z</time></trkpt><trkpt lat="36.73149470967697" lon="14.882547363279448"><ele>11.5</ele><time>2026-04-11T15:27:06Z</time></trkpt><trkpt lat="36.73151868352581" lon="14.882206952068815"><ele>11.0</ele><time>2026-04-11T15:27:07Z</time></trkpt><trkpt lat="36.73154546846052" lon="14.881887838968138"><ele>9.5</ele><time>2026-04-11T15:27:08Z</time></trkpt><trkpt lat="36.731573932029654" lon="14.881577966068368"><ele>8.0</ele><time>2026-04-11T15:27:09Z</time></trkpt><trkpt lat="36.73160183414738" lon="14.881260504029678"><ele>8.0</ele><time>2026-04-11T15:27:10Z</time></trkpt><trkpt lat="36.73162751201878" lon="14.880951279698266"><ele>8.0</ele><time>2026-04-11T15:27:11Z</time></trkpt><trkpt lat="36.73165028539417" lon="14.880668752553532"><ele>7.666666666666666</ele><time>2026-04-11T15:27:12Z</time></trkpt><trkpt lat="36.731671995971666" lon="14.880388206104293"><ele>7.333333333333334</ele><time>2026-04-11T15:27:13Z</time></trkpt><trkpt lat="36.731695684274044" lon="14.880117458472515"><ele>7.0</ele><time>2026-04-11T15:27:14Z</time></trkpt><trkpt lat="36.73171754854943" lon="14.879850940424578"><ele>6.666666666666667</ele><time>2026-04-11T15:27:15Z</time></trkpt><trkpt lat="36.73173833854639" lon="14.879584526087788"><ele>6.333333333333334</ele><time>2026-04-11T15:27:16Z</time></trkpt><trkpt lat="36.731760059895976" lon="14.87931737549224"><ele>6.0</ele><time>2026-04-11T15:27:17Z</time></trkpt><trkpt lat="36.73178122289263" lon="14.879058565251693"><ele>6.0</ele><time>2026-04-11T15:27:18Z</time></trkpt><trkpt lat="36.73180143568881" lon="14.87879643220489"><ele>6.0</ele><time>2026-04-11T15:27:19Z</time></trkpt><trkpt lat="36.73181772061213" lon="14.87853975210712"><ele>6.0</ele><time>2026-04-11T15:27:20Z</time></trkpt><trkpt lat="36.73183137468963" lon="14.878275988137293"><ele>5.333333333333333</ele><time>2026-04-11T15:27:21Z</time></trkpt><trkpt lat="36.73183653387387" lon="14.878017015556187"><ele>4.666666666666666</ele><time>2026-04-11T15:27:22Z</time></trkpt><trkpt lat="36.731838248416146" lon="14.877763840407788"><ele>4.0</ele><time>2026-04-11T15:27:23Z</time></trkpt><trkpt lat="36.73184318075568" lon="14.877513695708066"><ele>4.0</ele><time>2026-04-11T15:27:24Z</time></trkpt><trkpt lat="36.7318465516399" lon="14.877251104867721"><ele>4.0</ele><time>2026-04-11T15:27:25Z</time></trkpt><trkpt lat="36.7318483889321" lon="14.876981079757744"><ele>4.0</ele><time>2026-04-11T15:27:26Z</time></trkpt><trkpt lat="36.731854787269896" lon="14.876705928500481"><ele>5.0</ele><time>2026-04-11T15:27:27Z</time></trkpt><trkpt lat="36.731865990062694" lon="14.876431322570648"><ele>6.0</ele><time>2026-04-11T15:27:28Z</time></trkpt><trkpt lat="36.73188095618632" lon="14.87614495318596"><ele>6.5</ele><time>2026-04-11T15:27:29Z</time></trkpt><trkpt lat="36.73190059149207" lon="14.875860015783251"><ele>7.0</ele><time>2026-04-11T15:27:30Z</time></trkpt><trkpt lat="36.73192644897009" lon="14.87556933412303"><ele>7.0</ele><time>2026-04-11T15:27:31Z</time></trkpt><trkpt lat="36.731955350042234" lon="14.87528435643804"><ele>7.0</ele><time>2026-04-11T15:27:32Z</time></trkpt><trkpt lat="36.731981246001894" lon="14.87500202018395"><ele>7.5</ele><time>2026-04-11T15:27:33Z</time></trkpt><trkpt lat="36.73200846607542" lon="14.874719639396982"><ele>8.0</ele><time>2026-04-11T15:27:34Z</time></trkpt><trkpt lat="36.732042544820125" lon="14.87443847978166"><ele>9.5</ele><time>2026-04-11T15:27:35Z</time></trkpt><trkpt lat="36.732087540963356" lon="14.874155813817548"><ele>11.0</ele><time>2026-04-11T15:27:36Z</time></trkpt><trkpt lat="36.73213467999337" lon="14.873876679248006"><ele>11.0</ele><time>2026-04-11T15:27:37Z</time></trkpt><trkpt lat="36.73217872243471" lon="14.873607893745541"><ele>11.0</ele><time>2026-04-11T15:27:38Z</time></trkpt><trkpt lat="36.7322206317841" lon="14.873340920371927"><ele>11.0</ele><time>2026-04-11T15:27:39Z</time></trkpt><trkpt lat="36.732254497783146" lon="14.873072826764316"><ele>11.0</ele><time>2026-04-11T15:27:40Z</time></trkpt><trkpt lat="36.73227685962572" lon="14.872799090875768"><ele>11.0</ele><time>2026-04-11T15:27:41Z</time></trkpt><trkpt lat="36.73228617562953" lon="14.872518368151134"><ele>11.0</ele><time>2026-04-11T15:27:42Z</time></trkpt><trkpt lat="36.7322861083025" lon="14.872232804048858"><ele>10.333333333333332</ele><time>2026-04-11T15:27:43Z</time></trkpt><trkpt lat="36.73228216269598" lon="14.871984077156636"><ele>9.666666666666666</ele><time>2026-04-11T15:27:44Z</time></trkpt><trkpt lat="36.73228101823602" lon="14.87176023351838"><ele>9.0</ele><time>2026-04-11T15:27:45Z</time></trkpt><trkpt lat="36.73228383560708" lon="14.871533523556236"><ele>8.0</ele><time>2026-04-11T15:27:46Z</time></trkpt><trkpt lat="36.732287559143906" lon="14.871301352129922"><ele>7.0</ele><time>2026-04-11T15:27:47Z</time></trkpt><trkpt lat="36.73229107890782" lon="14.871056418672014"><ele>6.0</ele><time>2026-04-11T15:27:48Z</time></trkpt><trkpt lat="36.732292208924505" lon="14.870799748987881"><ele>6.0</ele><time>2026-04-11T15:27:49Z</time></trkpt><trkpt lat="36.732291593933425" lon="14.870548184773504"><ele>6.0</ele><time>2026-04-11T15:27:50Z</time></trkpt><trkpt lat="36.73229399205053" lon="14.870284694594044"><ele>6.0</ele><time>2026-04-11T15:27:51Z</time></trkpt><trkpt lat="36.73229743388347" lon="14.870020361368516"><ele>6.0</ele><time>2026-04-11T15:27:52Z</time></trkpt><trkpt lat="36.73229752083488" lon="14.869750356104023"><ele>6.0</ele><time>2026-04-11T15:27:53Z</time></trkpt><trkpt lat="36.73229613519348" lon="14.869475931350243"><ele>6.0</ele><time>2026-04-11T15:27:54Z</time></trkpt><trkpt lat="36.7322960230372" lon="14.869200200212175"><ele>6.333333333333334</ele><time>2026-04-11T15:27:55Z</time></trkpt><trkpt lat="36.73229500686889" lon="14.868921951782506"><ele>6.666666666666667</ele><time>2026-04-11T15:27:56Z</time></trkpt><trkpt lat="36.73229525650499" lon="14.868653760447867"><ele>7.0</ele><time>2026-04-11T15:27:56.999Z</time></trkpt><trkpt lat="36.73229630794459" lon="14.868384209304935"><ele>7.0</ele><time>2026-04-11T15:27:57.999Z</time></trkpt><trkpt lat="36.73229663190441" lon="14.868121205994537"><ele>7.0</ele><time>2026-04-11T15:27:58.999Z</time></trkpt><trkpt lat="36.73229678658628" lon="14.867857460025672"><ele>7.0</ele><time>2026-04-11T15:27:59.999Z</time></trkpt><trkpt lat="36.732299317871465" lon="14.867589068901427"><ele>7.0</ele><time>2026-04-11T15:28:00.999Z</time></trkpt><trkpt lat="36.73230094045264" lon="14.867329313114357"><ele>7.0</ele><time>2026-04-11T15:28:01.999Z</time></trkpt><trkpt lat="36.732297494438036" lon="14.867087905458048"><ele>7.0</ele><time>2026-04-11T15:28:02.999Z</time></trkpt><trkpt lat="36.732286480663696" lon="14.866854890702447"><ele>7.0</ele><time>2026-04-11T15:28:03.999Z</time></trkpt><trkpt lat="36.732261159123304" lon="14.866614712654412"><ele>7.0</ele><time>2026-04-11T15:28:04.999Z</time></trkpt><trkpt lat="36.73221440309319" lon="14.86636357787914"><ele>7.0</ele><time>2026-04-11T15:28:05.999Z</time></trkpt><trkpt lat="36.732157936051784" lon="14.866113907550494"><ele>6.333333333333334</ele><time>2026-04-11T15:28:06.999Z</time></trkpt><trkpt lat="36.732099261708406" lon="14.86585922103829"><ele>5.666666666666667</ele><time>2026-04-11T15:28:07.999Z</time></trkpt><trkpt lat="36.7320415560947" lon="14.865615159065051"><ele>5.0</ele><time>2026-04-11T15:28:08.999Z</time></trkpt><trkpt lat="36.73198440239789" lon="14.865394233723825"><ele>5.0</ele><time>2026-04-11T15:28:09.999Z</time></trkpt><trkpt lat="36.731930924492744" lon="14.865178085111829"><ele>5.0</ele><time>2026-04-11T15:28:10.999Z</time></trkpt><trkpt lat="36.73188117185153" lon="14.864963349282316"><ele>5.0</ele><time>2026-04-11T15:28:11.999Z</time></trkpt><trkpt lat="36.731832147717235" lon="14.864733511645944"><ele>4.333333333333334</ele><time>2026-04-11T15:28:12.999Z</time></trkpt><trkpt lat="36.731784021876976" lon="14.86450720410745"><ele>3.666666666666667</ele><time>2026-04-11T15:28:13.999Z</time></trkpt><trkpt lat="36.73173591356864" lon="14.864279933047394"><ele>3.0</ele><time>2026-04-11T15:28:14.999Z</time></trkpt><trkpt lat="36.731689620321525" lon="14.8640630830461"><ele>3.0</ele><time>2026-04-11T15:28:15.999Z</time></trkpt><trkpt lat="36.731644696385544" lon="14.863867568855897"><ele>3.0</ele><time>2026-04-11T15:28:16.999Z</time></trkpt><trkpt lat="36.73160303632014" lon="14.863698590620718"><ele>3.0</ele><time>2026-04-11T15:28:17.999Z</time></trkpt><trkpt lat="36.73156459645936" lon="14.863560229128817"><ele>3.0</ele><time>2026-04-11T15:28:18.999Z</time></trkpt><trkpt lat="36.731524695602815" lon="14.863424171354897"><ele>3.5</ele><time>2026-04-11T15:28:19.999Z</time></trkpt><trkpt lat="36.73148365356984" lon="14.863290230988472"><ele>4.0</ele><time>2026-04-11T15:28:20.999Z</time></trkpt><trkpt lat="36.73145620643864" lon="14.86317517737597"><ele>4.5</ele><time>2026-04-11T15:28:21.999Z</time></trkpt><trkpt lat="36.73143601232738" lon="14.863084792303528"><ele>5.0</ele><time>2026-04-11T15:28:22.999Z</time></trkpt><trkpt lat="36.731420944293816" lon="14.862998985550284"><ele>5.5</ele><time>2026-04-11T15:28:23.999Z</time></trkpt><trkpt lat="36.731417294236316" lon="14.862915969942364"><ele>6.0</ele><time>2026-04-11T15:28:24.999Z</time></trkpt><trkpt lat="36.73142435041301" lon="14.86283094009941"><ele>6.0</ele><time>2026-04-11T15:28:25.999Z</time></trkpt><trkpt lat="36.731432261811136" lon="14.862746325372242"><ele>6.0</ele><time>2026-04-11T15:28:26.999Z</time></trkpt><trkpt lat="36.73142575697806" lon="14.862665165627698"><ele>6.0</ele><time>2026-04-11T15:28:27.999Z</time></trkpt><trkpt lat="36.73139826484533" lon="14.862577407246214"><ele>6.0</ele><time>2026-04-11T15:28:28.999Z</time></trkpt><trkpt lat="36.73134462467573" lon="14.862461451385201"><ele>6.0</ele><time>2026-04-11T15:28:29.999Z</time></trkpt><trkpt lat="36.7312904869662" lon="14.862323727049649"><ele>6.0</ele><time>2026-04-11T15:28:30.999Z</time></trkpt><trkpt lat="36.731250343314514" lon="14.862173071376818"><ele>6.5</ele><time>2026-04-11T15:28:31.999Z</time></trkpt><trkpt lat="36.731220165756895" lon="14.862017790718202"><ele>7.0</ele><time>2026-04-11T15:28:32.999Z</time></trkpt><trkpt lat="36.731187331134116" lon="14.861866965919349"><ele>7.5</ele><time>2026-04-11T15:28:33.999Z</time></trkpt><trkpt lat="36.73115387077515" lon="14.861728574338272"><ele>8.0</ele><time>2026-04-11T15:28:34.999Z</time></trkpt><trkpt lat="36.73112592029995" lon="14.8616129356555"><ele>8.25</ele><time>2026-04-11T15:28:35.999Z</time></trkpt><trkpt lat="36.73110696242468" lon="14.861519730209757"><ele>8.5</ele><time>2026-04-11T15:28:36.999Z</time></trkpt><trkpt lat="36.73105819308581" lon="14.861369679241307"><ele>8.75</ele><time>2026-04-11T15:28:38.999Z</time></trkpt><trkpt lat="36.73101680874894" lon="14.86124789243233"><ele>9.0</ele><time>2026-04-11T15:28:39.999Z</time></trkpt><trkpt lat="36.730975667250675" lon="14.8610834818795"><ele>9.75</ele><time>2026-04-11T15:28:40.999Z</time></trkpt><trkpt lat="36.730936498599426" lon="14.860895915746749"><ele>10.5</ele><time>2026-04-11T15:28:42Z</time></trkpt><trkpt lat="36.73089724022876" lon="14.860729925454143"><ele>11.25</ele><time>2026-04-11T15:28:43Z</time></trkpt><trkpt lat="36.730865752987484" lon="14.860592139458346"><ele>12.0</ele><time>2026-04-11T15:28:44Z</time></trkpt><trkpt lat="36.73083721972295" lon="14.860476788338454"><ele>12.0</ele><time>2026-04-11T15:28:45Z</time></trkpt><trkpt lat="36.73079311233911" lon="14.860327788042634"><ele>12.0</ele><time>2026-04-11T15:28:46Z</time></trkpt><trkpt lat="36.73073987990946" lon="14.860126286529301"><ele>12.0</ele><time>2026-04-11T15:28:47Z</time></trkpt><trkpt lat="36.730697404515766" lon="14.859910479992292"><ele>13.0</ele><time>2026-04-11T15:28:48Z</time></trkpt><trkpt lat="36.730660810336516" lon="14.859708142708522"><ele>14.0</ele><time>2026-04-11T15:28:49Z</time></trkpt><trkpt lat="36.73061870759728" lon="14.859530918496318"><ele>15.0</ele><time>2026-04-11T15:28:50Z</time></trkpt><trkpt lat="36.730583920850314" lon="14.859373817912074"><ele>16.0</ele><time>2026-04-11T15:28:51Z</time></trkpt><trkpt lat="36.73055703477818" lon="14.859226163548671"><ele>16.0</ele><time>2026-04-11T15:28:52Z</time></trkpt><trkpt lat="36.73053757092379" lon="14.859084817001166"><ele>16.0</ele><time>2026-04-11T15:28:53Z</time></trkpt><trkpt lat="36.730518477606545" lon="14.858941432170637"><ele>16.0</ele><time>2026-04-11T15:28:54Z</time></trkpt><trkpt lat="36.73049570155287" lon="14.858786341310816"><ele>16.0</ele><time>2026-04-11T15:28:55Z</time></trkpt><trkpt lat="36.73047693355364" lon="14.858628983470588"><ele>16.0</ele><time>2026-04-11T15:28:56Z</time></trkpt><trkpt lat="36.73046612543928" lon="14.858467421692858"><ele>16.0</ele><time>2026-04-11T15:28:57Z</time></trkpt><trkpt lat="36.73046509923215" lon="14.858314529813983"><ele>16.0</ele><time>2026-04-11T15:28:58Z</time></trkpt><trkpt lat="36.7304762355083" lon="14.858168784615534"><ele>16.0</ele><time>2026-04-11T15:28:59Z</time></trkpt><trkpt lat="36.73049523801061" lon="14.85803133488749"><ele>15.8</ele><time>2026-04-11T15:29:00Z</time></trkpt><trkpt lat="36.73052837695237" lon="14.857902227125516"><ele>15.600000000000001</ele><time>2026-04-11T15:29:01Z</time></trkpt><trkpt lat="36.730577883021674" lon="14.857778552046733"><ele>15.4</ele><time>2026-04-11T15:29:02Z</time></trkpt><trkpt lat="36.730621460419314" lon="14.857660213830247"><ele>15.2</ele><time>2026-04-11T15:29:03Z</time></trkpt><trkpt lat="36.730640291449" lon="14.857560401222772"><ele>15.0</ele><time>2026-04-11T15:29:04Z</time></trkpt><trkpt lat="36.73063063886053" lon="14.857475035419126"><ele>14.8</ele><time>2026-04-11T15:29:05Z</time></trkpt><trkpt lat="36.7305924208967" lon="14.857400430760357"><ele>14.6</ele><time>2026-04-11T15:29:06Z</time></trkpt><trkpt lat="36.730521074959285" lon="14.857333697002948"><ele>14.399999999999999</ele><time>2026-04-11T15:29:07Z</time></trkpt><trkpt lat="36.73043011751638" lon="14.857264807702611"><ele>14.2</ele><time>2026-04-11T15:29:08Z</time></trkpt><trkpt lat="36.730368467760954" lon="14.857176713094681"><ele>14.0</ele><time>2026-04-11T15:29:09Z</time></trkpt><trkpt lat="36.73033395107888" lon="14.857046834884112"><ele>14.0</ele><time>2026-04-11T15:29:10Z</time></trkpt><trkpt lat="36.73032403044124" lon="14.856885006364239"><ele>13.999999999999998</ele><time>2026-04-11T15:29:11Z</time></trkpt><trkpt lat="36.730332098809086" lon="14.856737186937645"><ele>13.999999999999998</ele><time>2026-04-11T15:29:12Z</time></trkpt><trkpt lat="36.730336482626356" lon="14.85662388741653"><ele>14.0</ele><time>2026-04-11T15:29:13Z</time></trkpt><trkpt lat="36.7303231209051" lon="14.856529984818263"><ele>14.0</ele><time>2026-04-11T15:29:14Z</time></trkpt><trkpt lat="36.73027531944691" lon="14.856393989569465"><ele>13.2</ele><time>2026-04-11T15:29:16Z</time></trkpt><trkpt lat="36.730262694334435" lon="14.856283278753361"><ele>12.399999999999999</ele><time>2026-04-11T15:29:18Z</time></trkpt><trkpt lat="36.73035952712426" lon="14.856221113830149"><ele>11.6</ele><time>2026-04-11T15:29:20Z</time></trkpt><trkpt lat="36.73044625474836" lon="14.856218043615543"><ele>10.8</ele><time>2026-04-11T15:29:21Z</time></trkpt><trkpt lat="36.73054676934618" lon="14.856221982491546"><ele>10.0</ele><time>2026-04-11T15:29:22Z</time></trkpt><trkpt lat="36.73065721533378" lon="14.856225499393652"><ele>10.0</ele><time>2026-04-11T15:29:23Z</time></trkpt><trkpt lat="36.73075987757997" lon="14.856223610336398"><ele>10.0</ele><time>2026-04-11T15:29:24Z</time></trkpt><trkpt lat="36.730835459103275" lon="14.856218600773802"><ele>10.0</ele><time>2026-04-11T15:29:25Z</time></trkpt><trkpt lat="36.73090950901999" lon="14.85621451396028"><ele>10.0</ele><time>2026-04-11T15:29:28Z</time></trkpt><trkpt lat="36.730879145843836" lon="14.855945644259203"><ele>9.6</ele><time>2026-04-11T15:29:49Z</time></trkpt><trkpt lat="36.730833704860046" lon="14.85583996876999"><ele>9.2</ele><time>2026-04-11T15:29:50Z</time></trkpt><trkpt lat="36.73078475415901" lon="14.855735942939884"><ele>8.8</ele><time>2026-04-11T15:29:51Z</time></trkpt><trkpt lat="36.7307334629732" lon="14.855614152746936"><ele>8.4</ele><time>2026-04-11T15:29:52Z</time></trkpt><trkpt lat="36.73068508776595" lon="14.855481412074893"><ele>8.0</ele><time>2026-04-11T15:29:53Z</time></trkpt><trkpt lat="36.73064702805039" lon="14.855368320944315"><ele>7.999999999999999</ele><time>2026-04-11T15:29:54Z</time></trkpt><trkpt lat="36.730611383901255" lon="14.855267126966972"><ele>8.0</ele><time>2026-04-11T15:29:55Z</time></trkpt><trkpt lat="36.73058130006633" lon="14.855179850326218"><ele>8.0</ele><time>2026-04-11T15:29:56Z</time></trkpt><trkpt lat="36.730544628435915" lon="14.85509265667234"><ele>8.0</ele><time>2026-04-11T15:29:56.999Z</time></trkpt><trkpt lat="36.730535551581795" lon="14.855014564565307"><ele>7.999999999999999</ele><time>2026-04-11T15:29:57.999Z</time></trkpt><trkpt lat="36.730525578287164" lon="14.854924864384659"><ele>8.0</ele><time>2026-04-11T15:29:59.999Z</time></trkpt><trkpt lat="36.73054600907046" lon="14.854829144440288"><ele>9.666666666666666</ele><time>2026-04-11T15:30:01.999Z</time></trkpt><trkpt lat="36.7307124900795" lon="14.854809599947846"><ele>11.333333333333332</ele><time>2026-04-11T15:30:02.999Z</time></trkpt><trkpt lat="36.730774080182634" lon="14.854748045578729"><ele>13.0</ele><time>2026-04-11T15:30:04.999Z</time></trkpt><trkpt lat="36.73066385845206" lon="14.854499632441653"><ele>13.0</ele><time>2026-04-11T15:30:09.999Z</time></trkpt><trkpt lat="36.7306136472952" lon="14.854369554413934"><ele>13.0</ele><time>2026-04-11T15:30:10.999Z</time></trkpt><trkpt lat="36.7305746033303" lon="14.8542468177088"><ele>13.0</ele><time>2026-04-11T15:30:11.999Z</time></trkpt><trkpt lat="36.73054148589288" lon="14.854174259717913"><ele>13.0</ele><time>2026-04-11T15:30:12.999Z</time></trkpt><trkpt lat="36.73048760190417" lon="14.854047227765973"><ele>13.0</ele><time>2026-04-11T15:30:14.999Z</time></trkpt><trkpt lat="36.73044392748132" lon="14.853884583771226"><ele>13.600000000000001</ele><time>2026-04-11T15:30:15.999Z</time></trkpt><trkpt lat="36.73038041575506" lon="14.853755798948919"><ele>14.200000000000001</ele><time>2026-04-11T15:30:16.999Z</time></trkpt><trkpt lat="36.730360970813685" lon="14.853653554342841"><ele>14.8</ele><time>2026-04-11T15:30:17.999Z</time></trkpt><trkpt lat="36.730334631138234" lon="14.853555612591297"><ele>15.4</ele><time>2026-04-11T15:30:19.999Z</time></trkpt><trkpt lat="36.730483705594736" lon="14.853486810588235"><ele>16.0</ele><time>2026-04-11T15:30:21.999Z</time></trkpt><trkpt lat="36.73060143762334" lon="14.853400106721898"><ele>16.0</ele><time>2026-04-11T15:30:22.999Z</time></trkpt><trkpt lat="36.73070106491747" lon="14.853350491274329"><ele>16.0</ele><time>2026-04-11T15:30:23.999Z</time></trkpt><trkpt lat="36.73082570721264" lon="14.85328060569516"><ele>16.0</ele><time>2026-04-11T15:30:25.999Z</time></trkpt><trkpt lat="36.7309181704194" lon="14.853228347954703"><ele>16.0</ele><time>2026-04-11T15:30:26.999Z</time></trkpt><trkpt lat="36.730987304515985" lon="14.853186820356363"><ele>16.0</ele><time>2026-04-11T15:30:27.999Z</time></trkpt><trkpt lat="36.73105335524783" lon="14.853175007812503"><ele>16.5</ele><time>2026-04-11T15:30:28.999Z</time></trkpt><trkpt lat="36.731125299367136" lon="14.853123527132274"><ele>17.0</ele><time>2026-04-11T15:30:29.999Z</time></trkpt><trkpt lat="36.731201347379304" lon="14.85304461370572"><ele>17.5</ele><time>2026-04-11T15:30:30.999Z</time></trkpt><trkpt lat="36.73125631042927" lon="14.852977854860331"><ele>18.0</ele><time>2026-04-11T15:30:31.999Z</time></trkpt><trkpt lat="36.73129742731982" lon="14.852899752092979"><ele>18.5</ele><time>2026-04-11T15:30:32.999Z</time></trkpt><trkpt lat="36.73138661510625" lon="14.852822414517082"><ele>19.0</ele><time>2026-04-11T15:30:33.999Z</time></trkpt><trkpt lat="36.73148723352761" lon="14.85270935370799"><ele>19.0</ele><time>2026-04-11T15:30:34.999Z</time></trkpt><trkpt lat="36.73156232762796" lon="14.85262455747239"><ele>19.0</ele><time>2026-04-11T15:30:35.999Z</time></trkpt><trkpt lat="36.73160511406783" lon="14.852559353117476"><ele>19.0</ele><time>2026-04-11T15:30:36.999Z</time></trkpt><trkpt lat="36.73167918209709" lon="14.852491671151343"><ele>19.0</ele><time>2026-04-11T15:30:38.999Z</time></trkpt><trkpt lat="36.73172818799664" lon="14.852437441333139"><ele>19.0</ele><time>2026-04-11T15:30:42.999Z</time></trkpt><trkpt lat="36.7316408128651" lon="14.852288536870475"><ele>18.75</ele><time>2026-04-11T15:30:45.999Z</time></trkpt><trkpt lat="36.731550718070835" lon="14.852163219730063"><ele>18.5</ele><time>2026-04-11T15:30:46.999Z</time></trkpt><trkpt lat="36.73145931199612" lon="14.852043857774264"><ele>18.25</ele><time>2026-04-11T15:30:48Z</time></trkpt><trkpt lat="36.731379674336786" lon="14.85193656877037"><ele>18.0</ele><time>2026-04-11T15:30:49Z</time></trkpt><trkpt lat="36.73131519812039" lon="14.851861148896285"><ele>18.0</ele><time>2026-04-11T15:30:50Z</time></trkpt><trkpt lat="36.73125531024639" lon="14.851807100469795"><ele>18.0</ele><time>2026-04-11T15:30:51Z</time></trkpt><trkpt lat="36.73120933085531" lon="14.851740274543632"><ele>18.0</ele><time>2026-04-11T15:30:52Z</time></trkpt><trkpt lat="36.73115414530889" lon="14.851671706893331"><ele>18.0</ele><time>2026-04-11T15:30:53Z</time></trkpt><trkpt lat="36.73109398737718" lon="14.85159375644084"><ele>18.0</ele><time>2026-04-11T15:30:54Z</time></trkpt><trkpt lat="36.73103308541058" lon="14.851527023001621"><ele>18.0</ele><time>2026-04-11T15:30:55Z</time></trkpt><trkpt lat="36.7309789443665" lon="14.851470657206017"><ele>17.833333333333332</ele><time>2026-04-11T15:30:56Z</time></trkpt><trkpt lat="36.73092493239642" lon="14.851410399336764"><ele>17.666666666666668</ele><time>2026-04-11T15:30:57Z</time></trkpt><trkpt lat="36.730869611627945" lon="14.851340478113157"><ele>17.5</ele><time>2026-04-11T15:30:58Z</time></trkpt><trkpt lat="36.73080436683157" lon="14.851275944141772"><ele>17.333333333333336</ele><time>2026-04-11T15:30:59Z</time></trkpt><trkpt lat="36.73073449287824" lon="14.851200191107736"><ele>17.166666666666668</ele><time>2026-04-11T15:31:00Z</time></trkpt><trkpt lat="36.73066822313246" lon="14.851132517663116"><ele>17.0</ele><time>2026-04-11T15:31:01Z</time></trkpt><trkpt lat="36.730610391190815" lon="14.851078181113749"><ele>17.0</ele><time>2026-04-11T15:31:02Z</time></trkpt><trkpt lat="36.73055765722211" lon="14.851022899203157"><ele>17.0</ele><time>2026-04-11T15:31:03Z</time></trkpt><trkpt lat="36.73046255664352" lon="14.85091442087911"><ele>17.0</ele><time>2026-04-11T15:31:05Z</time></trkpt><trkpt lat="36.73039556457886" lon="14.850868197483514"><ele>17.0</ele><time>2026-04-11T15:31:06Z</time></trkpt><trkpt lat="36.73033486284776" lon="14.850812197867214"><ele>17.0</ele><time>2026-04-11T15:31:07Z</time></trkpt><trkpt lat="36.73027126947711" lon="14.850749393755626"><ele>17.0</ele><time>2026-04-11T15:31:08Z</time></trkpt><trkpt lat="36.730196855369954" lon="14.850669066186756"><ele>16.0</ele><time>2026-04-11T15:31:09Z</time></trkpt><trkpt lat="36.73012319887057" lon="14.850592029531446"><ele>15.0</ele><time>2026-04-11T15:31:10Z</time></trkpt><trkpt lat="36.73006233651818" lon="14.850527447685513"><ele>14.0</ele><time>2026-04-11T15:31:11Z</time></trkpt><trkpt lat="36.730009589001966" lon="14.850465729873564"><ele>13.0</ele><time>2026-04-11T15:31:12Z</time></trkpt><trkpt lat="36.72994341250351" lon="14.850396205101521"><ele>12.0</ele><time>2026-04-11T15:31:13Z</time></trkpt><trkpt lat="36.72988118791133" lon="14.850334782534635"><ele>11.0</ele><time>2026-04-11T15:31:14Z</time></trkpt><trkpt lat="36.729829513695655" lon="14.850282300253689"><ele>11.0</ele><time>2026-04-11T15:31:15Z</time></trkpt><trkpt lat="36.72974970257763" lon="14.850193631173948"><ele>11.0</ele><time>2026-04-11T15:31:17Z</time></trkpt><trkpt lat="36.72967381987568" lon="14.850116188458593"><ele>11.0</ele><time>2026-04-11T15:31:19Z</time></trkpt><trkpt lat="36.729611655373105" lon="14.850053071694786"><ele>11.0</ele><time>2026-04-11T15:31:21Z</time></trkpt><trkpt lat="36.729556784019465" lon="14.850013247211487"><ele>11.0</ele><time>2026-04-11T15:31:24Z</time></trkpt><trkpt lat="36.72946285681946" lon="14.849948449375246"><ele>10.833333333333332</ele><time>2026-04-11T15:31:26Z</time></trkpt><trkpt lat="36.72941300236973" lon="14.849893048510989"><ele>10.666666666666666</ele><time>2026-04-11T15:31:27Z</time></trkpt><trkpt lat="36.72932604851397" lon="14.849796515222407"><ele>10.5</ele><time>2026-04-11T15:31:29Z</time></trkpt><trkpt lat="36.72927553247872" lon="14.849742998202109"><ele>10.333333333333334</ele><time>2026-04-11T15:31:30Z</time></trkpt><trkpt lat="36.72922041888762" lon="14.849693235479503"><ele>10.166666666666668</ele><time>2026-04-11T15:31:31Z</time></trkpt><trkpt lat="36.72914936700322" lon="14.849592795741746"><ele>10.0</ele><time>2026-04-11T15:31:33Z</time></trkpt><trkpt lat="36.72906910382713" lon="14.849510576195174"><ele>10.0</ele><time>2026-04-11T15:31:35Z</time></trkpt><trkpt lat="36.728999002278115" lon="14.849460016825438"><ele>10.0</ele><time>2026-04-11T15:31:37Z</time></trkpt><trkpt lat="36.728927541746906" lon="14.849375096024112"><ele>10.0</ele><time>2026-04-11T15:31:40Z</time></trkpt><trkpt lat="36.72887101323336" lon="14.849304583506411"><ele>10.0</ele><time>2026-04-11T15:31:42Z</time></trkpt><trkpt lat="36.728794927042806" lon="14.849223265677189"><ele>10.0</ele><time>2026-04-11T15:31:44Z</time></trkpt><trkpt lat="36.728728373104836" lon="14.849163356933685"><ele>10.0</ele><time>2026-04-11T15:31:46Z</time></trkpt><trkpt lat="36.72864987089156" lon="14.849092031715129"><ele>9.8</ele><time>2026-04-11T15:31:48Z</time></trkpt><trkpt lat="36.728566748495886" lon="14.849004076224071"><ele>9.6</ele><time>2026-04-11T15:31:50Z</time></trkpt><trkpt lat="36.72850133950197" lon="14.848929810511242"><ele>9.4</ele><time>2026-04-11T15:31:53Z</time></trkpt><trkpt lat="36.72842789576082" lon="14.848858161399397"><ele>9.2</ele><time>2026-04-11T15:31:54Z</time></trkpt><trkpt lat="36.7283616030514" lon="14.848784525827773"><ele>9.0</ele><time>2026-04-11T15:31:56Z</time></trkpt><trkpt lat="36.72829228655464" lon="14.848731963040208"><ele>9.0</ele><time>2026-04-11T15:31:58Z</time></trkpt><trkpt lat="36.728239875061014" lon="14.848671886187221"><ele>9.0</ele><time>2026-04-11T15:32:00Z</time></trkpt><trkpt lat="36.72818297705171" lon="14.84861475903876"><ele>9.0</ele><time>2026-04-11T15:32:03Z</time></trkpt><trkpt lat="36.72812921826737" lon="14.84854522128172"><ele>9.0</ele><time>2026-04-11T15:32:07Z</time></trkpt><trkpt lat="36.728047612743076" lon="14.848473993690318"><ele>9.0</ele><time>2026-04-11T15:32:09.999Z</time></trkpt><trkpt lat="36.72798370749935" lon="14.84838171684041"><ele>9.0</ele><time>2026-04-11T15:32:11.999Z</time></trkpt><trkpt lat="36.72790991184945" lon="14.848286722015438"><ele>9.5</ele><time>2026-04-11T15:32:13.999Z</time></trkpt><trkpt lat="36.72786686050433" lon="14.848226024630888"><ele>10.0</ele><time>2026-04-11T15:32:14.999Z</time></trkpt><trkpt lat="36.72782956011713" lon="14.84815848358694"><ele>10.5</ele><time>2026-04-11T15:32:15.999Z</time></trkpt><trkpt lat="36.72778981975155" lon="14.84808934922019"><ele>11.0</ele><time>2026-04-11T15:32:16.999Z</time></trkpt><trkpt lat="36.72774424008395" lon="14.84801882867522"><ele>11.5</ele><time>2026-04-11T15:32:17.999Z</time></trkpt><trkpt lat="36.72768845176385" lon="14.847923072635343"><ele>12.0</ele><time>2026-04-11T15:32:18.999Z</time></trkpt><trkpt lat="36.72761684218607" lon="14.847801108448781"><ele>12.142857142857142</ele><time>2026-04-11T15:32:19.999Z</time></trkpt><trkpt lat="36.72756536269259" lon="14.847716681834859"><ele>12.285714285714285</ele><time>2026-04-11T15:32:20.999Z</time></trkpt><trkpt lat="36.72751934596005" lon="14.847644841515832"><ele>12.428571428571427</ele><time>2026-04-11T15:32:21.999Z</time></trkpt><trkpt lat="36.72747916549464" lon="14.847579053648502"><ele>12.571428571428571</ele><time>2026-04-11T15:32:22.999Z</time></trkpt><trkpt lat="36.72744671419117" lon="14.847511186283485"><ele>12.714285714285715</ele><time>2026-04-11T15:32:23.999Z</time></trkpt><trkpt lat="36.72740612744244" lon="14.847444760590259"><ele>12.857142857142856</ele><time>2026-04-11T15:32:24.999Z</time></trkpt><trkpt lat="36.72736660066499" lon="14.847382521825175"><ele>13.0</ele><time>2026-04-11T15:32:25.999Z</time></trkpt><trkpt lat="36.72731040985747" lon="14.847283952782334"><ele>13.4</ele><time>2026-04-11T15:32:27.999Z</time></trkpt><trkpt lat="36.72725318068834" lon="14.847188093060103"><ele>13.8</ele><time>2026-04-11T15:32:29.999Z</time></trkpt><trkpt lat="36.727192415167615" lon="14.847086461425267"><ele>14.2</ele><time>2026-04-11T15:32:31.999Z</time></trkpt><trkpt lat="36.72710061192838" lon="14.846973174238313"><ele>14.6</ele><time>2026-04-11T15:32:33.999Z</time></trkpt><trkpt lat="36.72705305780931" lon="14.846882747048326"><ele>15.0</ele><time>2026-04-11T15:32:34.999Z</time></trkpt><trkpt lat="36.72699545448782" lon="14.846788701671777"><ele>15.6</ele><time>2026-04-11T15:32:35.999Z</time></trkpt><trkpt lat="36.726948043001435" lon="14.84671129208604"><ele>16.2</ele><time>2026-04-11T15:32:36.999Z</time></trkpt><trkpt lat="36.726879514885184" lon="14.846600279473803"><ele>16.8</ele><time>2026-04-11T15:32:38.999Z</time></trkpt><trkpt lat="36.7268272116066" lon="14.846506019111944"><ele>17.4</ele><time>2026-04-11T15:32:40.999Z</time></trkpt><trkpt lat="36.72675539652404" lon="14.846396189783249"><ele>18.0</ele><time>2026-04-11T15:32:42.999Z</time></trkpt><trkpt lat="36.72669190331821" lon="14.846288124981314"><ele>18.0</ele><time>2026-04-11T15:32:44.999Z</time></trkpt><trkpt lat="36.72663156179626" lon="14.846185064132287"><ele>18.0</ele><time>2026-04-11T15:32:46.999Z</time></trkpt><trkpt lat="36.7265745238267" lon="14.846093464894084"><ele>18.0</ele><time>2026-04-11T15:32:48.999Z</time></trkpt><trkpt lat="36.726516700672654" lon="14.845997507027247"><ele>18.0</ele><time>2026-04-11T15:32:50.999Z</time></trkpt><trkpt lat="36.72644258445564" lon="14.845881974986181"><ele>18.0</ele><time>2026-04-11T15:32:52.999Z</time></trkpt><trkpt lat="36.72640334856323" lon="14.845818308662071"><ele>18.4</ele><time>2026-04-11T15:32:54Z</time></trkpt><trkpt lat="36.72634670332209" lon="14.845723885313573"><ele>18.8</ele><time>2026-04-11T15:32:56Z</time></trkpt><trkpt lat="36.726283161375996" lon="14.845637176932087"><ele>19.2</ele><time>2026-04-11T15:32:58Z</time></trkpt><trkpt lat="36.72623824366532" lon="14.8455685031276"><ele>19.6</ele><time>2026-04-11T15:32:59Z</time></trkpt><trkpt lat="36.72618147113901" lon="14.845452853866979"><ele>20.0</ele><time>2026-04-11T15:33:01Z</time></trkpt><trkpt lat="36.72612160167304" lon="14.84534399176217"><ele>20.0</ele><time>2026-04-11T15:33:03Z</time></trkpt><trkpt lat="36.726063134478636" lon="14.845269448382338"><ele>20.0</ele><time>2026-04-11T15:33:05Z</time></trkpt><trkpt lat="36.72597507506715" lon="14.845150152281132"><ele>20.0</ele><time>2026-04-11T15:33:07Z</time></trkpt><trkpt lat="36.72589685518902" lon="14.845024030791212"><ele>20.0</ele><time>2026-04-11T15:33:08Z</time></trkpt><trkpt lat="36.725810833641404" lon="14.844867613092411"><ele>20.0</ele><time>2026-04-11T15:33:09Z</time></trkpt><trkpt lat="36.72573287664904" lon="14.844720942388122"><ele>20.0</ele><time>2026-04-11T15:33:10Z</time></trkpt><trkpt lat="36.72566591659978" lon="14.844604625879407"><ele>20.0</ele><time>2026-04-11T15:33:11Z</time></trkpt><trkpt lat="36.72560606593835" lon="14.84451182710458"><ele>20.0</ele><time>2026-04-11T15:33:12Z</time></trkpt><trkpt lat="36.72555201020159" lon="14.844425156221499"><ele>20.0</ele><time>2026-04-11T15:33:13Z</time></trkpt><trkpt lat="36.725495590706025" lon="14.84433062674791"><ele>20.4</ele><time>2026-04-11T15:33:14Z</time></trkpt><trkpt lat="36.72543501734988" lon="14.844223452528638"><ele>20.8</ele><time>2026-04-11T15:33:15Z</time></trkpt><trkpt lat="36.72536694969921" lon="14.844116070567706"><ele>21.200000000000003</ele><time>2026-04-11T15:33:16Z</time></trkpt><trkpt lat="36.725294088754865" lon="14.843995815560161"><ele>21.6</ele><time>2026-04-11T15:33:17Z</time></trkpt><trkpt lat="36.725225085099" lon="14.843883572895672"><ele>22.0</ele><time>2026-04-11T15:33:18Z</time></trkpt><trkpt lat="36.72515668184114" lon="14.843773917384455"><ele>21.200000000000003</ele><time>2026-04-11T15:33:19Z</time></trkpt><trkpt lat="36.72508821241752" lon="14.843668888014612"><ele>20.400000000000002</ele><time>2026-04-11T15:33:20Z</time></trkpt><trkpt lat="36.72503493451826" lon="14.843561524812978"><ele>19.6</ele><time>2026-04-11T15:33:21Z</time></trkpt><trkpt lat="36.724981749997596" lon="14.84345820101407"><ele>18.8</ele><time>2026-04-11T15:33:22Z</time></trkpt><trkpt lat="36.72491984296876" lon="14.843352878448421"><ele>18.0</ele><time>2026-04-11T15:33:23Z</time></trkpt><trkpt lat="36.72485286125888" lon="14.84324874017783"><ele>18.0</ele><time>2026-04-11T15:33:24Z</time></trkpt><trkpt lat="36.724790645462186" lon="14.843148920796995"><ele>18.0</ele><time>2026-04-11T15:33:25Z</time></trkpt><trkpt lat="36.72474110656152" lon="14.843066181683794"><ele>18.0</ele><time>2026-04-11T15:33:26Z</time></trkpt><trkpt lat="36.72469438563121" lon="14.84298046312235"><ele>18.0</ele><time>2026-04-11T15:33:27Z</time></trkpt><trkpt lat="36.72464669211281" lon="14.842895771073309"><ele>18.0</ele><time>2026-04-11T15:33:28Z</time></trkpt><trkpt lat="36.724592731153486" lon="14.842817993190373"><ele>18.0</ele><time>2026-04-11T15:33:29Z</time></trkpt><trkpt lat="36.72451853887431" lon="14.84271950851593"><ele>17.6</ele><time>2026-04-11T15:33:30Z</time></trkpt><trkpt lat="36.724451891030434" lon="14.842611320561707"><ele>17.200000000000003</ele><time>2026-04-11T15:33:31Z</time></trkpt><trkpt lat="36.72440142149134" lon="14.842522080683977"><ele>16.8</ele><time>2026-04-11T15:33:32Z</time></trkpt><trkpt lat="36.72436169809328" lon="14.842441068182502"><ele>16.400000000000002</ele><time>2026-04-11T15:33:33Z</time></trkpt><trkpt lat="36.7243286386805" lon="14.842372636517677"><ele>16.0</ele><time>2026-04-11T15:33:34Z</time></trkpt><trkpt lat="36.72425447564941" lon="14.842262155756424"><ele>16.0</ele><time>2026-04-11T15:33:36Z</time></trkpt><trkpt lat="36.724184476856784" lon="14.842177583062147"><ele>16.0</ele><time>2026-04-11T15:33:38Z</time></trkpt><trkpt lat="36.724137916801865" lon="14.842101637607927"><ele>16.0</ele><time>2026-04-11T15:33:40Z</time></trkpt><trkpt lat="36.72408304993163" lon="14.842007617385477"><ele>16.0</ele><time>2026-04-11T15:33:43Z</time></trkpt><trkpt lat="36.724035301041" lon="14.841911649309091"><ele>16.0</ele><time>2026-04-11T15:33:45Z</time></trkpt><trkpt lat="36.72396734055961" lon="14.84182043251739"><ele>16.166666666666664</ele><time>2026-04-11T15:33:47Z</time></trkpt><trkpt lat="36.72391888041793" lon="14.841727891179662"><ele>16.333333333333332</ele><time>2026-04-11T15:33:49Z</time></trkpt><trkpt lat="36.72384872314772" lon="14.841615067217182"><ele>16.5</ele><time>2026-04-11T15:33:51Z</time></trkpt><trkpt lat="36.723808276111235" lon="14.841547414801575"><ele>16.666666666666668</ele><time>2026-04-11T15:33:52Z</time></trkpt><trkpt lat="36.72375844639571" lon="14.841476388855487"><ele>16.833333333333336</ele><time>2026-04-11T15:33:53Z</time></trkpt><trkpt lat="36.723718304899315" lon="14.841403071152548"><ele>17.0</ele><time>2026-04-11T15:33:54Z</time></trkpt><trkpt lat="36.72366570837723" lon="14.841306950175767"><ele>17.0</ele><time>2026-04-11T15:33:55Z</time></trkpt><trkpt lat="36.72360819733826" lon="14.841195988683802"><ele>17.0</ele><time>2026-04-11T15:33:56Z</time></trkpt><trkpt lat="36.7235802960242" lon="14.841080911787907"><ele>17.0</ele><time>2026-04-11T15:33:57Z</time></trkpt><trkpt lat="36.72357577214294" lon="14.840982911554098"><ele>17.0</ele><time>2026-04-11T15:33:58Z</time></trkpt><trkpt lat="36.72354851105486" lon="14.840878112056899"><ele>17.0</ele><time>2026-04-11T15:34:00Z</time></trkpt><trkpt lat="36.72368158651748" lon="14.840814775435076"><ele>17.0</ele><time>2026-04-11T15:34:01Z</time></trkpt><trkpt lat="36.72376625780759" lon="14.840742263880768"><ele>17.0</ele><time>2026-04-11T15:34:02Z</time></trkpt><trkpt lat="36.723851999957056" lon="14.840689790481974"><ele>17.0</ele><time>2026-04-11T15:34:03Z</time></trkpt><trkpt lat="36.723925336758164" lon="14.840632609953985"><ele>17.0</ele><time>2026-04-11T15:34:04Z</time></trkpt><trkpt lat="36.723985376903784" lon="14.840590266703991"><ele>17.0</ele><time>2026-04-11T15:34:05Z</time></trkpt><trkpt lat="36.72404657453706" lon="14.84052830127923"><ele>17.0</ele><time>2026-04-11T15:34:07Z</time></trkpt><trkpt lat="36.72406880684194" lon="14.840444361900076"><ele>17.0</ele><time>2026-04-11T15:34:09.999Z</time></trkpt><trkpt lat="36.72394653891341" lon="14.840240517004485"><ele>17.0</ele><time>2026-04-11T15:34:12.999Z</time></trkpt><trkpt lat="36.72386416500775" lon="14.840119155687168"><ele>17.0</ele><time>2026-04-11T15:34:13.999Z</time></trkpt><trkpt lat="36.72379161156496" lon="14.839968078802587"><ele>17.0</ele><time>2026-04-11T15:34:14.999Z</time></trkpt><trkpt lat="36.723719416328215" lon="14.839851691467556"><ele>17.0</ele><time>2026-04-11T15:34:15.999Z</time></trkpt><trkpt lat="36.72365717769244" lon="14.839750028145987"><ele>17.0</ele><time>2026-04-11T15:34:16.999Z</time></trkpt><trkpt lat="36.72361229658966" lon="14.83969186554984"><ele>17.0</ele><time>2026-04-11T15:34:17.999Z</time></trkpt><trkpt lat="36.72351008947254" lon="14.839523212779579"><ele>16.8</ele><time>2026-04-11T15:34:19.999Z</time></trkpt><trkpt lat="36.723431098935166" lon="14.839398651875586"><ele>16.6</ele><time>2026-04-11T15:34:20.999Z</time></trkpt><trkpt lat="36.723373268815735" lon="14.839302141878072"><ele>16.400000000000002</ele><time>2026-04-11T15:34:21.999Z</time></trkpt><trkpt lat="36.72332842623844" lon="14.839233974923348"><ele>16.2</ele><time>2026-04-11T15:34:22.999Z</time></trkpt><trkpt lat="36.723267929737844" lon="14.839150662402798"><ele>16.0</ele><time>2026-04-11T15:34:23.999Z</time></trkpt><trkpt lat="36.72320288104337" lon="14.839025691417868"><ele>15.4</ele><time>2026-04-11T15:34:24.999Z</time></trkpt><trkpt lat="36.723141097039345" lon="14.83891134053151"><ele>14.8</ele><time>2026-04-11T15:34:25.999Z</time></trkpt><trkpt lat="36.723088648613334" lon="14.8388224157022"><ele>14.200000000000001</ele><time>2026-04-11T15:34:26.999Z</time></trkpt><trkpt lat="36.72304399677561" lon="14.838739572521595"><ele>13.600000000000001</ele><time>2026-04-11T15:34:27.999Z</time></trkpt><trkpt lat="36.72300303217206" lon="14.838663864022715"><ele>13.0</ele><time>2026-04-11T15:34:28.999Z</time></trkpt><trkpt lat="36.722923993096714" lon="14.838556285389062"><ele>13.0</ele><time>2026-04-11T15:34:30.999Z</time></trkpt><trkpt lat="36.72287663012047" lon="14.838495253256545"><ele>13.0</ele><time>2026-04-11T15:34:32.999Z</time></trkpt><trkpt lat="36.722935903469406" lon="14.838566260588726"><ele>13.0</ele><time>2026-04-11T15:34:57.999Z</time></trkpt><trkpt lat="36.7230026880271" lon="14.83864777662788"><ele>13.0</ele><time>2026-04-11T15:35:00Z</time></trkpt><trkpt lat="36.72305698233534" lon="14.838740785714414"><ele>13.0</ele><time>2026-04-11T15:35:02Z</time></trkpt><trkpt lat="36.723259976989105" lon="14.838649182710714"><ele>12.999999999999998</ele><time>2026-04-11T15:35:14Z</time></trkpt><trkpt lat="36.72334482128918" lon="14.83857490653256"><ele>13.0</ele><time>2026-04-11T15:35:16Z</time></trkpt><trkpt lat="36.72340389259821" lon="14.838512879139836"><ele>13.0</ele><time>2026-04-11T15:35:17Z</time></trkpt><trkpt lat="36.72346482327213" lon="14.838459396784913"><ele>13.0</ele><time>2026-04-11T15:35:18Z</time></trkpt><trkpt lat="36.72352257339241" lon="14.83840970907329"><ele>12.999999999999998</ele><time>2026-04-11T15:35:19Z</time></trkpt><trkpt lat="36.72358081126405" lon="14.838359528062993"><ele>13.0</ele><time>2026-04-11T15:35:20Z</time></trkpt><trkpt lat="36.723643245138064" lon="14.838304695202622"><ele>12.333333333333332</ele><time>2026-04-11T15:35:21Z</time></trkpt><trkpt lat="36.723694300161284" lon="14.838236926622326"><ele>11.666666666666666</ele><time>2026-04-11T15:35:22Z</time></trkpt><trkpt lat="36.72375100998684" lon="14.838182576042604"><ele>11.0</ele><time>2026-04-11T15:35:23Z</time></trkpt><trkpt lat="36.72380182053485" lon="14.838124763905308"><ele>10.333333333333332</ele><time>2026-04-11T15:35:24Z</time></trkpt><trkpt lat="36.72390368074717" lon="14.838141791948557"><ele>9.666666666666666</ele><time>2026-04-11T15:35:26Z</time></trkpt><trkpt lat="36.72395092481093" lon="14.838206422968568"><ele>9.0</ele><time>2026-04-11T15:35:27Z</time></trkpt><trkpt lat="36.724002428800596" lon="14.838312202094796"><ele>9.0</ele><time>2026-04-11T15:35:28Z</time></trkpt><trkpt lat="36.7240429557262" lon="14.838401740187836"><ele>9.0</ele><time>2026-04-11T15:35:29Z</time></trkpt><trkpt lat="36.72409438242127" lon="14.838477014819945"><ele>9.0</ele><time>2026-04-11T15:35:31Z</time></trkpt><trkpt lat="36.72415862779971" lon="14.838461638255055"><ele>9.0</ele><time>2026-04-11T15:35:33Z</time></trkpt><trkpt lat="36.72422040670372" lon="14.838416598137924"><ele>9.0</ele><time>2026-04-11T15:35:34Z</time></trkpt><trkpt lat="36.7242871856188" lon="14.838335763461563"><ele>9.0</ele><time>2026-04-11T15:35:35Z</time></trkpt><trkpt lat="36.724358687710065" lon="14.838274961924913"><ele>8.75</ele><time>2026-04-11T15:35:36Z</time></trkpt><trkpt lat="36.72445496101744" lon="14.83822422183658"><ele>8.5</ele><time>2026-04-11T15:35:38Z</time></trkpt><trkpt lat="36.72454453793191" lon="14.838383244238775"><ele>8.25</ele><time>2026-04-11T15:35:47Z</time></trkpt><trkpt lat="36.72461261513949" lon="14.838471510351416"><ele>8.0</ele><time>2026-04-11T15:35:48Z</time></trkpt><trkpt lat="36.724664899021505" lon="14.838588293283339"><ele>8.0</ele><time>2026-04-11T15:35:50Z</time></trkpt><trkpt lat="36.72483334042291" lon="14.838527520551912"><ele>8.0</ele><time>2026-04-11T15:35:53Z</time></trkpt><trkpt lat="36.7248867323954" lon="14.838454125577133"><ele>8.0</ele><time>2026-04-11T15:35:54Z</time></trkpt><trkpt lat="36.72492419714282" lon="14.838369410740686"><ele>8.0</ele><time>2026-04-11T15:35:55Z</time></trkpt><trkpt lat="36.72497938150587" lon="14.838254946319987"><ele>8.0</ele><time>2026-04-11T15:35:57Z</time></trkpt><trkpt lat="36.72490765626626" lon="14.838067481092382"><ele>7.999999999999999</ele><time>2026-04-11T15:35:59Z</time></trkpt><trkpt lat="36.72485138807195" lon="14.837989732955553"><ele>8.0</ele><time>2026-04-11T15:36:00Z</time></trkpt><trkpt lat="36.72478929350227" lon="14.837928451045062"><ele>8.0</ele><time>2026-04-11T15:36:01Z</time></trkpt><trkpt lat="36.72474104532351" lon="14.837868847605025"><ele>8.0</ele><time>2026-04-11T15:36:02Z</time></trkpt><trkpt lat="36.724692908468214" lon="14.837793210156057"><ele>7.999999999999999</ele><time>2026-04-11T15:36:03Z</time></trkpt><trkpt lat="36.724632198524525" lon="14.837697190534817"><ele>8.0</ele><time>2026-04-11T15:36:04Z</time></trkpt><trkpt lat="36.724577414978135" lon="14.837614135844428"><ele>7.833333333333333</ele><time>2026-04-11T15:36:05Z</time></trkpt><trkpt lat="36.724532565897874" lon="14.837542610192472"><ele>7.666666666666666</ele><time>2026-04-11T15:36:06Z</time></trkpt><trkpt lat="36.72448102119726" lon="14.837464106199764"><ele>7.5</ele><time>2026-04-11T15:36:07Z</time></trkpt><trkpt lat="36.724422566636484" lon="14.837378216952379"><ele>7.333333333333334</ele><time>2026-04-11T15:36:08Z</time></trkpt><trkpt lat="36.724361727119586" lon="14.837283204234405"><ele>7.166666666666667</ele><time>2026-04-11T15:36:09Z</time></trkpt><trkpt lat="36.724296354106734" lon="14.837187457308383"><ele>7.0</ele><time>2026-04-11T15:36:10Z</time></trkpt><trkpt lat="36.72422288486786" lon="14.837095455560663"><ele>7.0</ele><time>2026-04-11T15:36:11Z</time></trkpt><trkpt lat="36.72415432653464" lon="14.837006087930451"><ele>6.999999999999999</ele><time>2026-04-11T15:36:12Z</time></trkpt><trkpt lat="36.724089295791906" lon="14.836914366340768"><ele>6.999999999999999</ele><time>2026-04-11T15:36:13Z</time></trkpt><trkpt lat="36.72402107309424" lon="14.836817658123548"><ele>7.0</ele><time>2026-04-11T15:36:14Z</time></trkpt><trkpt lat="36.7239614978877" lon="14.836729427838417"><ele>7.0</ele><time>2026-04-11T15:36:15Z</time></trkpt><trkpt lat="36.72389873546089" lon="14.836638277218174"><ele>7.6</ele><time>2026-04-11T15:36:16Z</time></trkpt><trkpt lat="36.723838826235095" lon="14.836549938050437"><ele>8.2</ele><time>2026-04-11T15:36:17Z</time></trkpt><trkpt lat="36.72376873466934" lon="14.836459738947656"><ele>8.8</ele><time>2026-04-11T15:36:18Z</time></trkpt><trkpt lat="36.723697040859825" lon="14.836372394455253"><ele>9.4</ele><time>2026-04-11T15:36:19Z</time></trkpt><trkpt lat="36.723627663232044" lon="14.83628225710118"><ele>10.0</ele><time>2026-04-11T15:36:20Z</time></trkpt><trkpt lat="36.72355046277132" lon="14.836191840474244"><ele>9.6</ele><time>2026-04-11T15:36:21Z</time></trkpt><trkpt lat="36.72347062779522" lon="14.836102853754554"><ele>9.2</ele><time>2026-04-11T15:36:22Z</time></trkpt><trkpt lat="36.723391420888525" lon="14.836011132908986"><ele>8.8</ele><time>2026-04-11T15:36:23Z</time></trkpt><trkpt lat="36.723314286934645" lon="14.835922819171753"><ele>8.4</ele><time>2026-04-11T15:36:24Z</time></trkpt><trkpt lat="36.723239584330855" lon="14.835843185374271"><ele>8.0</ele><time>2026-04-11T15:36:24.999Z</time></trkpt><trkpt lat="36.72317273063582" lon="14.83576815718395"><ele>8.0</ele><time>2026-04-11T15:36:25.999Z</time></trkpt><trkpt lat="36.72310755061909" lon="14.835686000315743"><ele>8.0</ele><time>2026-04-11T15:36:26.999Z</time></trkpt><trkpt lat="36.723041737728394" lon="14.835598876541836"><ele>8.0</ele><time>2026-04-11T15:36:27.999Z</time></trkpt><trkpt lat="36.7229777342914" lon="14.835505155860654"><ele>8.0</ele><time>2026-04-11T15:36:28.999Z</time></trkpt><trkpt lat="36.72293084226475" lon="14.835398648763588"><ele>8.0</ele><time>2026-04-11T15:36:29.999Z</time></trkpt><trkpt lat="36.72287251581243" lon="14.835307274149683"><ele>8.0</ele><time>2026-04-11T15:36:30.999Z</time></trkpt><trkpt lat="36.722812586866496" lon="14.835214152112844"><ele>8.0</ele><time>2026-04-11T15:36:31.999Z</time></trkpt><trkpt lat="36.72275224858041" lon="14.83512017540287"><ele>8.0</ele><time>2026-04-11T15:36:32.999Z</time></trkpt><trkpt lat="36.722685417547694" lon="14.83501608619026"><ele>8.0</ele><time>2026-04-11T15:36:33.999Z</time></trkpt><trkpt lat="36.722620025054475" lon="14.834915920151522"><ele>8.0</ele><time>2026-04-11T15:36:34.999Z</time></trkpt><trkpt lat="36.72256385737512" lon="14.83482939489226"><ele>7.833333333333333</ele><time>2026-04-11T15:36:35.999Z</time></trkpt><trkpt lat="36.72251193823366" lon="14.83474941436132"><ele>7.666666666666666</ele><time>2026-04-11T15:36:36.999Z</time></trkpt><trkpt lat="36.72246663690896" lon="14.834680026057569"><ele>7.5</ele><time>2026-04-11T15:36:37.999Z</time></trkpt><trkpt lat="36.72241534267049" lon="14.834631448454607"><ele>7.333333333333334</ele><time>2026-04-11T15:36:38.999Z</time></trkpt><trkpt lat="36.722351836632676" lon="14.83452344615013"><ele>7.166666666666667</ele><time>2026-04-11T15:36:40.999Z</time></trkpt><trkpt lat="36.72229020325075" lon="14.834419850879366"><ele>7.0</ele><time>2026-04-11T15:36:42.999Z</time></trkpt><trkpt lat="36.7222115933106" lon="14.834293387936595"><ele>7.333333333333334</ele><time>2026-04-11T15:36:44.999Z</time></trkpt><trkpt lat="36.722160022448605" lon="14.83421888240684"><ele>7.666666666666667</ele><time>2026-04-11T15:36:45.999Z</time></trkpt><trkpt lat="36.722102925425816" lon="14.83413954680958"><ele>8.0</ele><time>2026-04-11T15:36:46.999Z</time></trkpt><trkpt lat="36.722040984659586" lon="14.834058306361843"><ele>8.333333333333334</ele><time>2026-04-11T15:36:47.999Z</time></trkpt><trkpt lat="36.721980878570356" lon="14.833984241991894"><ele>8.666666666666666</ele><time>2026-04-11T15:36:48.999Z</time></trkpt><trkpt lat="36.721923784636616" lon="14.833917229594705"><ele>9.0</ele><time>2026-04-11T15:36:49.999Z</time></trkpt><trkpt lat="36.72186180660556" lon="14.833838440961358"><ele>9.0</ele><time>2026-04-11T15:36:50.999Z</time></trkpt><trkpt lat="36.721791564376765" lon="14.83374818554098"><ele>9.0</ele><time>2026-04-11T15:36:51.999Z</time></trkpt><trkpt lat="36.7217192956691" lon="14.833672471614655"><ele>9.0</ele><time>2026-04-11T15:36:52.999Z</time></trkpt><trkpt lat="36.7216480045627" lon="14.833612633467746"><ele>9.0</ele><time>2026-04-11T15:36:53.999Z</time></trkpt><trkpt lat="36.72154087925716" lon="14.833519543131057"><ele>9.0</ele><time>2026-04-11T15:36:54.999Z</time></trkpt><trkpt lat="36.72144879723249" lon="14.833450598529849"><ele>9.5</ele><time>2026-04-11T15:36:55.999Z</time></trkpt><trkpt lat="36.72135583007974" lon="14.833376972152651"><ele>10.0</ele><time>2026-04-11T15:36:56.999Z</time></trkpt><trkpt lat="36.72125695602402" lon="14.833302277341145"><ele>10.5</ele><time>2026-04-11T15:36:57.999Z</time></trkpt><trkpt lat="36.72115306868129" lon="14.83323169703427"><ele>11.0</ele><time>2026-04-11T15:36:58.999Z</time></trkpt><trkpt lat="36.72106077826213" lon="14.833167634287406"><ele>9.4</ele><time>2026-04-11T15:36:59.999Z</time></trkpt><trkpt lat="36.720972117961786" lon="14.83310672419174"><ele>7.800000000000001</ele><time>2026-04-11T15:37:00.999Z</time></trkpt><trkpt lat="36.720886361573534" lon="14.83304760037505"><ele>6.2</ele><time>2026-04-11T15:37:01.999Z</time></trkpt><trkpt lat="36.7208048795483" lon="14.832993388627713"><ele>4.6</ele><time>2026-04-11T15:37:02.999Z</time></trkpt><trkpt lat="36.720715098093244" lon="14.832928847204586"><ele>3.0</ele><time>2026-04-11T15:37:03.999Z</time></trkpt><trkpt lat="36.720620969746285" lon="14.832856841339705"><ele>3.0</ele><time>2026-04-11T15:37:04.999Z</time></trkpt><trkpt lat="36.7205165160402" lon="14.83277853647159"><ele>3.0</ele><time>2026-04-11T15:37:06Z</time></trkpt><trkpt lat="36.720418211102995" lon="14.832702825397115"><ele>3.0</ele><time>2026-04-11T15:37:07Z</time></trkpt><trkpt lat="36.72033512904524" lon="14.832628643102009"><ele>3.0</ele><time>2026-04-11T15:37:08Z</time></trkpt><trkpt lat="36.72025527273592" lon="14.83254786168509"><ele>3.0</ele><time>2026-04-11T15:37:09Z</time></trkpt><trkpt lat="36.72017829217873" lon="14.832449835001425"><ele>3.2</ele><time>2026-04-11T15:37:10Z</time></trkpt><trkpt lat="36.720101084225014" lon="14.832344848612468"><ele>3.4</ele><time>2026-04-11T15:37:11Z</time></trkpt><trkpt lat="36.72004158678283" lon="14.832249667370354"><ele>3.6000000000000005</ele><time>2026-04-11T15:37:12Z</time></trkpt><trkpt lat="36.71997590231828" lon="14.832161934576717"><ele>3.8000000000000003</ele><time>2026-04-11T15:37:13Z</time></trkpt><trkpt lat="36.719902603813814" lon="14.832065128862187"><ele>4.0</ele><time>2026-04-11T15:37:14Z</time></trkpt><trkpt lat="36.71983987202235" lon="14.831972518810211"><ele>4.0</ele><time>2026-04-11T15:37:15Z</time></trkpt><trkpt lat="36.71977867903804" lon="14.831884109159267"><ele>4.0</ele><time>2026-04-11T15:37:16Z</time></trkpt><trkpt lat="36.71972632401043" lon="14.831804496207269"><ele>4.0</ele><time>2026-04-11T15:37:17Z</time></trkpt><trkpt lat="36.71967726247635" lon="14.831714566538038"><ele>4.0</ele><time>2026-04-11T15:37:18Z</time></trkpt><trkpt lat="36.71961415382727" lon="14.831631673388161"><ele>4.0</ele><time>2026-04-11T15:37:19Z</time></trkpt><trkpt lat="36.719541064692216" lon="14.83153304899737"><ele>3.4000000000000004</ele><time>2026-04-11T15:37:20Z</time></trkpt><trkpt lat="36.71946643590307" lon="14.831437325085485"><ele>2.8000000000000003</ele><time>2026-04-11T15:37:21Z</time></trkpt><trkpt lat="36.71939086073474" lon="14.831341671307499"><ele>2.2</ele><time>2026-04-11T15:37:22Z</time></trkpt><trkpt lat="36.7193111534721" lon="14.831235765368609"><ele>1.6</ele><time>2026-04-11T15:37:23Z</time></trkpt><trkpt lat="36.71923148161629" lon="14.831127513695193"><ele>1.0</ele><time>2026-04-11T15:37:24Z</time></trkpt><trkpt lat="36.7191483441119" lon="14.83101025703005"><ele>2.25</ele><time>2026-04-11T15:37:25Z</time></trkpt><trkpt lat="36.71906487496212" lon="14.830895243081978"><ele>3.5</ele><time>2026-04-11T15:37:26Z</time></trkpt><trkpt lat="36.7189779011753" lon="14.830775091816985"><ele>4.75</ele><time>2026-04-11T15:37:27Z</time></trkpt><trkpt lat="36.718889763132346" lon="14.83065287992774"><ele>6.0</ele><time>2026-04-11T15:37:28Z</time></trkpt><trkpt lat="36.71880594294706" lon="14.830524910296328"><ele>6.0</ele><time>2026-04-11T15:37:29Z</time></trkpt><trkpt lat="36.718726355129604" lon="14.830390868525589"><ele>6.0</ele><time>2026-04-11T15:37:30Z</time></trkpt><trkpt lat="36.71864130886211" lon="14.830254379302298"><ele>6.0</ele><time>2026-04-11T15:37:31Z</time></trkpt><trkpt lat="36.71855586376952" lon="14.830116998115036"><ele>6.0</ele><time>2026-04-11T15:37:32Z</time></trkpt><trkpt lat="36.71847279922265" lon="14.829979057732523"><ele>5.5</ele><time>2026-04-11T15:37:33Z</time></trkpt><trkpt lat="36.718394961087476" lon="14.8298379880608"><ele>5.0</ele><time>2026-04-11T15:37:34Z</time></trkpt><trkpt lat="36.718320843879596" lon="14.829696037927244"><ele>4.5</ele><time>2026-04-11T15:37:35Z</time></trkpt><trkpt lat="36.71824544246398" lon="14.829560442462013"><ele>4.0</ele><time>2026-04-11T15:37:36Z</time></trkpt><trkpt lat="36.718166848707625" lon="14.829427919987495"><ele>5.5</ele><time>2026-04-11T15:37:37Z</time></trkpt><trkpt lat="36.71809261090783" lon="14.829294827274433"><ele>7.0</ele><time>2026-04-11T15:37:38Z</time></trkpt><trkpt lat="36.71801569179272" lon="14.82915827410728"><ele>8.5</ele><time>2026-04-11T15:37:39Z</time></trkpt><trkpt lat="36.7179371691276" lon="14.829022320365416"><ele>10.0</ele><time>2026-04-11T15:37:40Z</time></trkpt><trkpt lat="36.717859608352825" lon="14.828888091770715"><ele>10.0</ele><time>2026-04-11T15:37:41Z</time></trkpt><trkpt lat="36.717783967141365" lon="14.828758989255915"><ele>10.0</ele><time>2026-04-11T15:37:42Z</time></trkpt><trkpt lat="36.717724139842765" lon="14.828638098317661"><ele>10.0</ele><time>2026-04-11T15:37:43Z</time></trkpt><trkpt lat="36.717665366441274" lon="14.828525329660355"><ele>10.0</ele><time>2026-04-11T15:37:44Z</time></trkpt><trkpt lat="36.7176016726527" lon="14.828411780127816"><ele>9.2</ele><time>2026-04-11T15:37:45Z</time></trkpt><trkpt lat="36.717536332740146" lon="14.828297658251422"><ele>8.4</ele><time>2026-04-11T15:37:46Z</time></trkpt><trkpt lat="36.71747375877658" lon="14.828179877488171"><ele>7.6</ele><time>2026-04-11T15:37:47Z</time></trkpt><trkpt lat="36.717415674145826" lon="14.82807080172124"><ele>6.8</ele><time>2026-04-11T15:37:48Z</time></trkpt><trkpt lat="36.71735640802192" lon="14.827959757620528"><ele>6.0</ele><time>2026-04-11T15:37:49Z</time></trkpt><trkpt lat="36.71728933818748" lon="14.827838182229398"><ele>6.0</ele><time>2026-04-11T15:37:50Z</time></trkpt><trkpt lat="36.71719931269412" lon="14.827697270367805"><ele>6.0</ele><time>2026-04-11T15:37:51Z</time></trkpt><trkpt lat="36.71709846421047" lon="14.827540622993657"><ele>6.0</ele><time>2026-04-11T15:37:52Z</time></trkpt><trkpt lat="36.71699971167984" lon="14.827367480073598"><ele>5.333333333333333</ele><time>2026-04-11T15:37:53Z</time></trkpt><trkpt lat="36.716905905209956" lon="14.82718274519149"><ele>4.666666666666666</ele><time>2026-04-11T15:37:54Z</time></trkpt><trkpt lat="36.71681472727153" lon="14.826993535250477"><ele>4.0</ele><time>2026-04-11T15:37:55Z</time></trkpt><trkpt lat="36.71671292595785" lon="14.826807513691103"><ele>4.0</ele><time>2026-04-11T15:37:56Z</time></trkpt><trkpt lat="36.716596931294966" lon="14.82662182279234"><ele>4.0</ele><time>2026-04-11T15:37:57Z</time></trkpt><trkpt lat="36.716471440159395" lon="14.826408559605717"><ele>4.0</ele><time>2026-04-11T15:37:58Z</time></trkpt><trkpt lat="36.71637045820816" lon="14.826175612225976"><ele>5.25</ele><time>2026-04-11T15:37:59Z</time></trkpt><trkpt lat="36.71630700782071" lon="14.825956382668359"><ele>6.5</ele><time>2026-04-11T15:38:00Z</time></trkpt><trkpt lat="36.71626828311478" lon="14.825780019373788"><ele>7.75</ele><time>2026-04-11T15:38:01Z</time></trkpt><trkpt lat="36.716245654024135" lon="14.825638886239673"><ele>9.0</ele><time>2026-04-11T15:38:02Z</time></trkpt><trkpt lat="36.71624037250499" lon="14.825506267980895"><ele>9.0</ele><time>2026-04-11T15:38:03Z</time></trkpt><trkpt lat="36.716249303498856" lon="14.825359626086223"><ele>9.0</ele><time>2026-04-11T15:38:04Z</time></trkpt><trkpt lat="36.716284973457036" lon="14.825204733448027"><ele>9.0</ele><time>2026-04-11T15:38:05Z</time></trkpt><trkpt lat="36.716340236446314" lon="14.825061024619306"><ele>9.0</ele><time>2026-04-11T15:38:06Z</time></trkpt><trkpt lat="36.716416400378925" lon="14.824935154195595"><ele>8.5</ele><time>2026-04-11T15:38:07Z</time></trkpt><trkpt lat="36.71650007993491" lon="14.824837449224379"><ele>8.0</ele><time>2026-04-11T15:38:08Z</time></trkpt><trkpt lat="36.71658848332854" lon="14.824737171111954"><ele>7.5</ele><time>2026-04-11T15:38:09Z</time></trkpt><trkpt lat="36.71666795605111" lon="14.824634225869016"><ele>7.0</ele><time>2026-04-11T15:38:10Z</time></trkpt><trkpt lat="36.716852787303935" lon="14.824655276635859"><ele>8.25</ele><time>2026-04-11T15:38:11Z</time></trkpt><trkpt lat="36.716976021594355" lon="14.824627740657421"><ele>9.5</ele><time>2026-04-11T15:38:12Z</time></trkpt><trkpt lat="36.71709000707325" lon="14.824603385242023"><ele>10.75</ele><time>2026-04-11T15:38:13Z</time></trkpt><trkpt lat="36.71720521797893" lon="14.824568540547482"><ele>12.0</ele><time>2026-04-11T15:38:14Z</time></trkpt><trkpt lat="36.71731810444658" lon="14.824534353867305"><ele>12.0</ele><time>2026-04-11T15:38:15Z</time></trkpt><trkpt lat="36.7174173651974" lon="14.824518492402301"><ele>12.0</ele><time>2026-04-11T15:38:16Z</time></trkpt><trkpt lat="36.71750973000079" lon="14.8245162580873"><ele>12.0</ele><time>2026-04-11T15:38:17Z</time></trkpt><trkpt lat="36.71760389129075" lon="14.8245196671612"><ele>12.0</ele><time>2026-04-11T15:38:18Z</time></trkpt><trkpt lat="36.71767401062733" lon="14.824518773323184"><ele>12.0</ele><time>2026-04-11T15:38:19Z</time></trkpt><trkpt lat="36.717752296912714" lon="14.824511665841554"><ele>12.0</ele><time>2026-04-11T15:40:04Z</time></trkpt><trkpt lat="36.717823401069325" lon="14.824482126748292"><ele>12.6</ele><time>2026-04-11T15:40:05Z</time></trkpt><trkpt lat="36.717903653046214" lon="14.824445317492495"><ele>13.2</ele><time>2026-04-11T15:40:06Z</time></trkpt><trkpt lat="36.717993708790736" lon="14.824423208720548"><ele>13.8</ele><time>2026-04-11T15:40:07Z</time></trkpt><trkpt lat="36.71809460452195" lon="14.824408668112275"><ele>14.4</ele><time>2026-04-11T15:40:08Z</time></trkpt><trkpt lat="36.71821383056965" lon="14.824396412190028"><ele>15.0</ele><time>2026-04-11T15:40:09Z</time></trkpt><trkpt lat="36.71832692322832" lon="14.824389055026886"><ele>15.0</ele><time>2026-04-11T15:40:10Z</time></trkpt><trkpt lat="36.71844418652474" lon="14.824375136552755"><ele>15.0</ele><time>2026-04-11T15:40:11Z</time></trkpt><trkpt lat="36.71858896200264" lon="14.824361280103094"><ele>15.0</ele><time>2026-04-11T15:40:12Z</time></trkpt><trkpt lat="36.71875387064611" lon="14.824352558143097"><ele>15.0</ele><time>2026-04-11T15:40:13Z</time></trkpt><trkpt lat="36.71891917662757" lon="14.824342960746966"><ele>15.0</ele><time>2026-04-11T15:40:14Z</time></trkpt><trkpt lat="36.719068249257155" lon="14.824336235581697"><ele>15.0</ele><time>2026-04-11T15:40:15Z</time></trkpt><trkpt lat="36.719205786059426" lon="14.824319761291651"><ele>15.0</ele><time>2026-04-11T15:40:16Z</time></trkpt><trkpt lat="36.71934550549813" lon="14.824304825734066"><ele>15.0</ele><time>2026-04-11T15:40:17Z</time></trkpt><trkpt lat="36.719495895074886" lon="14.82429351110902"><ele>15.0</ele><time>2026-04-11T15:40:18Z</time></trkpt><trkpt lat="36.71966867461487" lon="14.824274262271134"><ele>15.0</ele><time>2026-04-11T15:40:19Z</time></trkpt><trkpt lat="36.719828178386216" lon="14.824260094506366"><ele>15.0</ele><time>2026-04-11T15:40:20Z</time></trkpt><trkpt lat="36.719975309655126" lon="14.824248687077612"><ele>15.0</ele><time>2026-04-11T15:40:21Z</time></trkpt><trkpt lat="36.720101620461016" lon="14.824244533156774"><ele>15.0</ele><time>2026-04-11T15:40:22Z</time></trkpt><trkpt lat="36.720214808810766" lon="14.824238280259861"><ele>15.0</ele><time>2026-04-11T15:40:23Z</time></trkpt><trkpt lat="36.720325096782354" lon="14.824263250136562"><ele>15.0</ele><time>2026-04-11T15:40:24Z</time></trkpt><trkpt lat="36.72043199462102" lon="14.824289402479895"><ele>16.0</ele><time>2026-04-11T15:40:25Z</time></trkpt><trkpt lat="36.720532289700216" lon="14.824347110716852"><ele>17.0</ele><time>2026-04-11T15:40:26Z</time></trkpt><trkpt lat="36.720620919781204" lon="14.824426924765543"><ele>18.0</ele><time>2026-04-11T15:40:27Z</time></trkpt><trkpt lat="36.720681414588526" lon="14.824529400104403"><ele>19.0</ele><time>2026-04-11T15:40:28Z</time></trkpt><trkpt lat="36.720725317213294" lon="14.824642481130446"><ele>20.0</ele><time>2026-04-11T15:40:29Z</time></trkpt><trkpt lat="36.72076039700428" lon="14.824770250101725"><ele>20.0</ele><time>2026-04-11T15:40:30Z</time></trkpt><trkpt lat="36.72073013820405" lon="14.824921132250749"><ele>20.0</ele><time>2026-04-11T15:40:31Z</time></trkpt><trkpt lat="36.72068754206472" lon="14.825052355095357"><ele>20.0</ele><time>2026-04-11T15:40:32Z</time></trkpt><trkpt lat="36.720615156603685" lon="14.82517499628772"><ele>20.0</ele><time>2026-04-11T15:40:33Z</time></trkpt><trkpt lat="36.72050961960056" lon="14.825266852157602"><ele>20.5</ele><time>2026-04-11T15:40:34Z</time></trkpt><trkpt lat="36.72041619264428" lon="14.82532147357842"><ele>21.0</ele><time>2026-04-11T15:40:35Z</time></trkpt><trkpt lat="36.72030937803367" lon="14.825350669572671"><ele>21.5</ele><time>2026-04-11T15:40:36Z</time></trkpt><trkpt lat="36.72018641821504" lon="14.825321530562158"><ele>22.0</ele><time>2026-04-11T15:40:37Z</time></trkpt><trkpt lat="36.72006610403722" lon="14.82525899155676"><ele>21.0</ele><time>2026-04-11T15:40:38Z</time></trkpt><trkpt lat="36.719979551602684" lon="14.825126871561634"><ele>20.0</ele><time>2026-04-11T15:40:38.999Z</time></trkpt><trkpt lat="36.71991802024586" lon="14.824988843392202"><ele>19.0</ele><time>2026-04-11T15:40:39.999Z</time></trkpt><trkpt lat="36.71987996784605" lon="14.824827561404545"><ele>18.0</ele><time>2026-04-11T15:40:40.999Z</time></trkpt><trkpt lat="36.719849364278176" lon="14.824635434626947"><ele>18.0</ele><time>2026-04-11T15:40:41.999Z</time></trkpt><trkpt lat="36.71984515646567" lon="14.824412697005553"><ele>18.0</ele><time>2026-04-11T15:40:42.999Z</time></trkpt><trkpt lat="36.719817845665844" lon="14.824180041132577"><ele>18.0</ele><time>2026-04-11T15:40:43.999Z</time></trkpt><trkpt lat="36.7198013461556" lon="14.823947898115339"><ele>16.5</ele><time>2026-04-11T15:40:44.999Z</time></trkpt><trkpt lat="36.71977199682097" lon="14.823659493003055"><ele>15.0</ele><time>2026-04-11T15:40:45.999Z</time></trkpt><trkpt lat="36.719749886178356" lon="14.823382578147337"><ele>12.5</ele><time>2026-04-11T15:40:46.999Z</time></trkpt><trkpt lat="36.71973230479884" lon="14.823102140836445"><ele>10.0</ele><time>2026-04-11T15:40:47.999Z</time></trkpt><trkpt lat="36.71972053781132" lon="14.82280120712245"><ele>7.5</ele><time>2026-04-11T15:40:48.999Z</time></trkpt><trkpt lat="36.71971427263654" lon="14.822501973497905"><ele>5.0</ele><time>2026-04-11T15:40:49.999Z</time></trkpt><trkpt lat="36.7197072604826" lon="14.822202818159308"><ele>5.0</ele><time>2026-04-11T15:40:50.999Z</time></trkpt><trkpt lat="36.719696929874424" lon="14.821908855580975"><ele>5.0</ele><time>2026-04-11T15:40:51.999Z</time></trkpt><trkpt lat="36.719684128627364" lon="14.821622506306063"><ele>4.333333333333334</ele><time>2026-04-11T15:40:52.999Z</time></trkpt><trkpt lat="36.719670358777805" lon="14.82135883076543"><ele>3.666666666666667</ele><time>2026-04-11T15:40:53.999Z</time></trkpt><trkpt lat="36.719658598517356" lon="14.821101513747355"><ele>3.0</ele><time>2026-04-11T15:40:54.999Z</time></trkpt><trkpt lat="36.71964668667614" lon="14.82084601360416"><ele>3.0</ele><time>2026-04-11T15:40:55.999Z</time></trkpt><trkpt lat="36.71963577973747" lon="14.82060080162491"><ele>3.0</ele><time>2026-04-11T15:40:56.999Z</time></trkpt><trkpt lat="36.71962287324843" lon="14.8203652183082"><ele>3.0</ele><time>2026-04-11T15:40:57.999Z</time></trkpt><trkpt lat="36.719611663520176" lon="14.820128573723975"><ele>3.0</ele><time>2026-04-11T15:40:58.999Z</time></trkpt><trkpt lat="36.71960239952143" lon="14.819885003901362"><ele>3.0</ele><time>2026-04-11T15:40:59.999Z</time></trkpt><trkpt lat="36.719594789398116" lon="14.819642064427654"><ele>3.0</ele><time>2026-04-11T15:41:00.999Z</time></trkpt><trkpt lat="36.719583371714876" lon="14.819392180763153"><ele>4.333333333333334</ele><time>2026-04-11T15:41:01.999Z</time></trkpt><trkpt lat="36.71957020461006" lon="14.819139102840436"><ele>5.666666666666667</ele><time>2026-04-11T15:41:02.999Z</time></trkpt><trkpt lat="36.71955537240471" lon="14.818877586378422"><ele>7.0</ele><time>2026-04-11T15:41:03.999Z</time></trkpt><trkpt lat="36.71954316791222" lon="14.818631743886694"><ele>8.333333333333334</ele><time>2026-04-11T15:41:04.999Z</time></trkpt><trkpt lat="36.71953242037112" lon="14.818385297838109"><ele>9.666666666666666</ele><time>2026-04-11T15:41:05.999Z</time></trkpt><trkpt lat="36.71952389831673" lon="14.818150294499864"><ele>11.0</ele><time>2026-04-11T15:41:06.999Z</time></trkpt><trkpt lat="36.71951676278236" lon="14.817931448668283"><ele>11.0</ele><time>2026-04-11T15:41:07.999Z</time></trkpt><trkpt lat="36.71951352153236" lon="14.817724704639195"><ele>11.0</ele><time>2026-04-11T15:41:08.999Z</time></trkpt><trkpt lat="36.719492113032175" lon="14.817536559615437"><ele>11.0</ele><time>2026-04-11T15:41:09.999Z</time></trkpt><trkpt lat="36.719482821748514" lon="14.817364688141732"><ele>11.200000000000001</ele><time>2026-04-11T15:41:10.999Z</time></trkpt><trkpt lat="36.719474398540534" lon="14.81720887411998"><ele>11.4</ele><time>2026-04-11T15:41:11.999Z</time></trkpt><trkpt lat="36.71946790314457" lon="14.817065148723028"><ele>11.6</ele><time>2026-04-11T15:41:12.999Z</time></trkpt><trkpt lat="36.71946152328798" lon="14.816934135862962"><ele>11.8</ele><time>2026-04-11T15:41:13.999Z</time></trkpt><trkpt lat="36.71945542229111" lon="14.816808849390041"><ele>12.0</ele><time>2026-04-11T15:41:14.999Z</time></trkpt><trkpt lat="36.71951259325509" lon="14.816693833014318"><ele>11.6</ele><time>2026-04-11T15:41:15.999Z</time></trkpt><trkpt lat="36.71951215699319" lon="14.816593782517598"><ele>11.2</ele><time>2026-04-11T15:41:16.999Z</time></trkpt><trkpt lat="36.71952280009069" lon="14.816493892656256"><ele>10.8</ele><time>2026-04-11T15:41:18Z</time></trkpt><trkpt lat="36.719548347658574" lon="14.816381337626968"><ele>10.4</ele><time>2026-04-11T15:41:19Z</time></trkpt><trkpt lat="36.71958304130305" lon="14.816261165981171"><ele>10.0</ele><time>2026-04-11T15:41:20Z</time></trkpt><trkpt lat="36.71962434062269" lon="14.816136615192805"><ele>10.0</ele><time>2026-04-11T15:41:21Z</time></trkpt><trkpt lat="36.71967993511735" lon="14.816030052364546"><ele>10.0</ele><time>2026-04-11T15:41:22Z</time></trkpt><trkpt lat="36.719732585740836" lon="14.815937415925493"><ele>10.0</ele><time>2026-04-11T15:41:23Z</time></trkpt><trkpt lat="36.71977392454169" lon="14.815862535006678"><ele>10.0</ele><time>2026-04-11T15:41:24Z</time></trkpt><trkpt lat="36.71982704044567" lon="14.81574073236873"><ele>10.0</ele><time>2026-04-11T15:41:26Z</time></trkpt><trkpt lat="36.71988500283274" lon="14.815645105288892"><ele>9.666666666666668</ele><time>2026-04-11T15:41:28Z</time></trkpt><trkpt lat="36.719877538431426" lon="14.815545057299337"><ele>9.333333333333334</ele><time>2026-04-11T15:41:30Z</time></trkpt><trkpt lat="36.719812900620646" lon="14.815456508173334"><ele>9.0</ele><time>2026-04-11T15:41:33Z</time></trkpt><trkpt lat="36.71975052028707" lon="14.815412290605218"><ele>8.666666666666666</ele><time>2026-04-11T15:41:35Z</time></trkpt><trkpt lat="36.71965009952158" lon="14.81539827387266"><ele>8.333333333333332</ele><time>2026-04-11T15:41:37Z</time></trkpt><trkpt lat="36.71958687568914" lon="14.815411342653013"><ele>8.0</ele><time>2026-04-11T15:41:38Z</time></trkpt><trkpt lat="36.71950835471142" lon="14.815434142885541"><ele>8.0</ele><time>2026-04-11T15:41:39Z</time></trkpt><trkpt lat="36.71942341627812" lon="14.815425104578715"><ele>8.0</ele><time>2026-04-11T15:41:40Z</time></trkpt><trkpt lat="36.71931420078153" lon="14.815432740774476"><ele>8.0</ele><time>2026-04-11T15:41:41Z</time></trkpt><trkpt lat="36.71921330785703" lon="14.815440303054288"><ele>8.0</ele><time>2026-04-11T15:41:42Z</time></trkpt><trkpt lat="36.71909482620213" lon="14.815449768297144"><ele>8.0</ele><time>2026-04-11T15:41:43Z</time></trkpt><trkpt lat="36.718996263633834" lon="14.815457408847129"><ele>7.499999999999999</ele><time>2026-04-11T15:41:45Z</time></trkpt><trkpt lat="36.718910774588814" lon="14.815462618628265"><ele>7.0</ele><time>2026-04-11T15:41:47Z</time></trkpt><trkpt lat="36.71882796693042" lon="14.815468482218842"><ele>6.5</ele><time>2026-04-11T15:41:49Z</time></trkpt><trkpt lat="36.71874446206133" lon="14.815474395179915"><ele>6.0</ele><time>2026-04-11T15:41:51Z</time></trkpt><trkpt lat="36.71865969560499" lon="14.815480397473369"><ele>5.5</ele><time>2026-04-11T15:41:53Z</time></trkpt><trkpt lat="36.71855223055644" lon="14.8154878796545"><ele>5.0</ele><time>2026-04-11T15:41:55Z</time></trkpt><trkpt lat="36.71846019413992" lon="14.81549446337617"><ele>4.2</ele><time>2026-04-11T15:41:57Z</time></trkpt><trkpt lat="36.718373276149656" lon="14.815500020943544"><ele>3.4</ele><time>2026-04-11T15:42:59.999Z</time></trkpt><trkpt lat="36.71825997835006" lon="14.815507322125084"><ele>2.6</ele><time>2026-04-11T15:43:01.999Z</time></trkpt><trkpt lat="36.71813661123127" lon="14.81551527219911"><ele>1.8</ele><time>2026-04-11T15:43:03.999Z</time></trkpt><trkpt lat="36.718070168512746" lon="14.815519553928889"><ele>1.0</ele><time>2026-04-11T15:43:04.999Z</time></trkpt><trkpt lat="36.71800311781561" lon="14.815523874849001"><ele>1.0</ele><time>2026-04-11T15:43:05.999Z</time></trkpt><trkpt lat="36.717884263014525" lon="14.81553002733102"><ele>1.0</ele><time>2026-04-11T15:43:07.999Z</time></trkpt><trkpt lat="36.71781286372" lon="14.815533876386297"><ele>1.0</ele><time>2026-04-11T15:43:08.999Z</time></trkpt><trkpt lat="36.71772145015439" lon="14.815538804387172"><ele>1.0</ele><time>2026-04-11T15:43:09.999Z</time></trkpt><trkpt lat="36.71761081865199" lon="14.815680795913948"><ele>1.0</ele><time>2026-04-11T15:43:10.999Z</time></trkpt><trkpt lat="36.71752195932508" lon="14.815689788660313"><ele>0.9999999999999999</ele><time>2026-04-11T15:43:11.999Z</time></trkpt><trkpt lat="36.717457349084924" lon="14.815697954869714"><ele>1.0</ele><time>2026-04-11T15:43:12.999Z</time></trkpt><trkpt lat="36.71739488781664" lon="14.815716339256277"><ele>1.0</ele><time>2026-04-11T15:43:13.999Z</time></trkpt><trkpt lat="36.71730854073716" lon="14.815773982724577"><ele>1.0</ele><time>2026-04-11T15:43:15.999Z</time></trkpt><trkpt lat="36.7172635280832" lon="14.815868083182316"><ele>0.9999999999999999</ele><time>2026-04-11T15:43:18.999Z</time></trkpt><trkpt lat="36.71724176123603" lon="14.815941955442936"><ele>1.0</ele><time>2026-04-11T15:43:20.999Z</time></trkpt><trkpt lat="36.71720475996234" lon="14.816038273137488"><ele>0.8333333333333333</ele><time>2026-04-11T15:43:34Z</time></trkpt><trkpt lat="36.7171732184044" lon="14.816123271277853"><ele>0.6666666666666666</ele><time>2026-04-11T15:43:35Z</time></trkpt><trkpt lat="36.717140675070056" lon="14.816224565579617"><ele>0.5</ele><time>2026-04-11T15:43:36Z</time></trkpt><trkpt lat="36.717106467882836" lon="14.816342284952126"><ele>0.3333333333333333</ele><time>2026-04-11T15:43:37Z</time></trkpt><trkpt lat="36.717070135948745" lon="14.816451221335567"><ele>0.16666666666666666</ele><time>2026-04-11T15:43:38Z</time></trkpt><trkpt lat="36.71703279717858" lon="14.816549978532619"><ele>0.0</ele><time>2026-04-11T15:43:39Z</time></trkpt><trkpt lat="36.7169946859917" lon="14.816641095182076"><ele>0.0</ele><time>2026-04-11T15:43:40Z</time></trkpt><trkpt lat="36.716954086388334" lon="14.81673084098079"><ele>0.0</ele><time>2026-04-11T15:43:41Z</time></trkpt><trkpt lat="36.71691828287202" lon="14.816803343067239"><ele>0.0</ele><time>2026-04-11T15:43:42Z</time></trkpt><trkpt lat="36.71685058315908" lon="14.816810506374429"><ele>0.0</ele><time>2026-04-11T15:43:52Z</time></trkpt><trkpt lat="36.716773427055344" lon="14.816745099512923"><ele>0.0</ele><time>2026-04-11T15:43:55Z</time></trkpt><trkpt lat="36.71673782350659" lon="14.816597618890913"><ele>0.0</ele><time>2026-04-11T15:43:57Z</time></trkpt><trkpt lat="36.71672404730522" lon="14.816480783464918"><ele>0.0</ele><time>2026-04-11T15:43:58Z</time></trkpt><trkpt lat="36.716705404263394" lon="14.816316577533433"><ele>0.0</ele><time>2026-04-11T15:43:59Z</time></trkpt><trkpt lat="36.7166783308913" lon="14.816114458078635"><ele>0.0</ele><time>2026-04-11T15:44:00Z</time></trkpt><trkpt lat="36.71665047885394" lon="14.815895480205098"><ele>0.0</ele><time>2026-04-11T15:44:01Z</time></trkpt><trkpt lat="36.71662697711342" lon="14.81568028983478"><ele>0.0</ele><time>2026-04-11T15:44:02Z</time></trkpt><trkpt lat="36.71659899203623" lon="14.815451599481925"><ele>0.0</ele><time>2026-04-11T15:44:03Z</time></trkpt><trkpt lat="36.7165670740276" lon="14.815215879888607"><ele>0.0</ele><time>2026-04-11T15:44:04Z</time></trkpt><trkpt lat="36.71653701592818" lon="14.814976397621043"><ele>0.0</ele><time>2026-04-11T15:44:05Z</time></trkpt><trkpt lat="36.71650543808636" lon="14.81473180253499"><ele>0.0</ele><time>2026-04-11T15:44:06Z</time></trkpt><trkpt lat="36.71647594777582" lon="14.814465336331995"><ele>0.0</ele><time>2026-04-11T15:44:07Z</time></trkpt><trkpt lat="36.71644321120942" lon="14.814215801298742"><ele>0.0</ele><time>2026-04-11T15:44:08Z</time></trkpt><trkpt lat="36.716409854224416" lon="14.813972653412849"><ele>0.0</ele><time>2026-04-11T15:44:09Z</time></trkpt><trkpt lat="36.71637696740273" lon="14.813743841371384"><ele>0.0</ele><time>2026-04-11T15:44:10Z</time></trkpt><trkpt lat="36.71634568132765" lon="14.81352571922187"><ele>0.0</ele><time>2026-04-11T15:44:11Z</time></trkpt><trkpt lat="36.71631533281752" lon="14.813312084035823"><ele>0.0</ele><time>2026-04-11T15:44:12Z</time></trkpt><trkpt lat="36.71628611291075" lon="14.813112193193618"><ele>0.0</ele><time>2026-04-11T15:44:13Z</time></trkpt><trkpt lat="36.71625633130116" lon="14.81291200773809"><ele>0.0</ele><time>2026-04-11T15:44:14Z</time></trkpt><trkpt lat="36.716228291499256" lon="14.812726820962832"><ele>0.0</ele><time>2026-04-11T15:44:15Z</time></trkpt><trkpt lat="36.71619844389193" lon="14.812559011665096"><ele>0.0</ele><time>2026-04-11T15:44:16Z</time></trkpt><trkpt lat="36.71617511512125" lon="14.812409874785168"><ele>0.0</ele><time>2026-04-11T15:44:17Z</time></trkpt><trkpt lat="36.71614554506775" lon="14.8122568556886"><ele>0.0</ele><time>2026-04-11T15:44:18Z</time></trkpt><trkpt lat="36.716109686955626" lon="14.812100597470168"><ele>0.0</ele><time>2026-04-11T15:44:19Z</time></trkpt><trkpt lat="36.716071929381016" lon="14.811948225859258"><ele>0.4</ele><time>2026-04-11T15:44:20Z</time></trkpt><trkpt lat="36.71603205852607" lon="14.811816239741844"><ele>0.8</ele><time>2026-04-11T15:44:21Z</time></trkpt><trkpt lat="36.715995518050775" lon="14.811701185104736"><ele>1.2000000000000002</ele><time>2026-04-11T15:44:22Z</time></trkpt><trkpt lat="36.71596813252262" lon="14.811609211849058"><ele>1.6</ele><time>2026-04-11T15:44:23Z</time></trkpt><trkpt lat="36.7159470418747" lon="14.811533026372517"><ele>2.0</ele><time>2026-04-11T15:44:24Z</time></trkpt><trkpt lat="36.71593055933302" lon="14.81140748818577"><ele>1.9999999999999998</ele><time>2026-04-11T15:44:26Z</time></trkpt><trkpt lat="36.71591232256205" lon="14.811331627725483"><ele>2.0</ele><time>2026-04-11T15:44:29Z</time></trkpt><trkpt lat="36.71593943780785" lon="14.811232042417037"><ele>2.0</ele><time>2026-04-11T15:44:36Z</time></trkpt><trkpt lat="36.71597377489193" lon="14.811134087424053"><ele>2.0</ele><time>2026-04-11T15:44:40Z</time></trkpt><trkpt lat="36.71590933279805" lon="14.811135363301824"><ele>1.9999999999999998</ele><time>2026-04-11T15:45:14.999Z</time></trkpt><trkpt lat="36.71583773071405" lon="14.811039458651967"><ele>2.0</ele><time>2026-04-11T15:45:20.999Z</time></trkpt><trkpt lat="36.715775407004834" lon="14.810989424532604"><ele>2.5</ele><time>2026-04-11T15:45:21.999Z</time></trkpt><trkpt lat="36.71570806114452" lon="14.810945632008153"><ele>3.0</ele><time>2026-04-11T15:45:23.999Z</time></trkpt><trkpt lat="36.71561461313019" lon="14.810882335662008"><ele>3.5</ele><time>2026-04-11T15:45:40Z</time></trkpt><trkpt lat="36.71556500155543" lon="14.810832607292893"><ele>4.0</ele><time>2026-04-11T15:45:41Z</time></trkpt><trkpt lat="36.715509672487954" lon="14.810793550340048"><ele>4.5</ele><time>2026-04-11T15:45:42Z</time></trkpt><trkpt lat="36.71540715210729" lon="14.810696016896749"><ele>5.0</ele><time>2026-04-11T15:45:44Z</time></trkpt><trkpt lat="36.71535745425749" lon="14.810636427614595"><ele>5.0</ele><time>2026-04-11T15:45:45Z</time></trkpt><trkpt lat="36.71529760114418" lon="14.810570881015654"><ele>5.0</ele><time>2026-04-11T15:45:46Z</time></trkpt><trkpt lat="36.71523046511506" lon="14.810504306664907"><ele>5.0</ele><time>2026-04-11T15:45:47Z</time></trkpt><trkpt lat="36.715156475559255" lon="14.810417183798112"><ele>5.0</ele><time>2026-04-11T15:45:48Z</time></trkpt><trkpt lat="36.71507209075025" lon="14.810307005908504"><ele>5.0</ele><time>2026-04-11T15:45:49Z</time></trkpt><trkpt lat="36.71497758696126" lon="14.810193670586196"><ele>5.0</ele><time>2026-04-11T15:45:50Z</time></trkpt><trkpt lat="36.71488566358137" lon="14.81008128180869"><ele>5.0</ele><time>2026-04-11T15:45:51Z</time></trkpt><trkpt lat="36.71480344273053" lon="14.809960889884948"><ele>5.0</ele><time>2026-04-11T15:45:52Z</time></trkpt><trkpt lat="36.71472823815479" lon="14.809856489793015"><ele>5.0</ele><time>2026-04-11T15:45:53Z</time></trkpt><trkpt lat="36.71464186008675" lon="14.809737388411266"><ele>5.0</ele><time>2026-04-11T15:45:54Z</time></trkpt><trkpt lat="36.7145553757049" lon="14.809616368701501"><ele>5.0</ele><time>2026-04-11T15:45:55Z</time></trkpt><trkpt lat="36.71446496703878" lon="14.809491486988978"><ele>5.0</ele><time>2026-04-11T15:45:56Z</time></trkpt><trkpt lat="36.714366067447365" lon="14.809357570170691"><ele>5.0</ele><time>2026-04-11T15:45:57Z</time></trkpt><trkpt lat="36.714272021420236" lon="14.809219790939663"><ele>5.0</ele><time>2026-04-11T15:45:58Z</time></trkpt><trkpt lat="36.714181596013375" lon="14.809084998949869"><ele>5.0</ele><time>2026-04-11T15:45:59Z</time></trkpt><trkpt lat="36.714089025345125" lon="14.80895515063934"><ele>5.0</ele><time>2026-04-11T15:46:00Z</time></trkpt><trkpt lat="36.7139984702977" lon="14.80881950524589"><ele>5.0</ele><time>2026-04-11T15:46:01Z</time></trkpt><trkpt lat="36.71390410661441" lon="14.808676206286284"><ele>5.0</ele><time>2026-04-11T15:46:02Z</time></trkpt><trkpt lat="36.7138159626187" lon="14.808546330707854"><ele>5.0</ele><time>2026-04-11T15:46:03Z</time></trkpt><trkpt lat="36.71373670400455" lon="14.808451479297256"><ele>5.0</ele><time>2026-04-11T15:46:04Z</time></trkpt><trkpt lat="36.713673573515074" lon="14.808374852320199"><ele>5.0</ele><time>2026-04-11T15:46:05Z</time></trkpt><trkpt lat="36.7135982708023" lon="14.808293133574583"><ele>5.0</ele><time>2026-04-11T15:46:06Z</time></trkpt><trkpt lat="36.713527468108296" lon="14.808201731040134"><ele>5.4</ele><time>2026-04-11T15:46:07Z</time></trkpt><trkpt lat="36.71345775290985" lon="14.808101463719801"><ele>5.8</ele><time>2026-04-11T15:46:08Z</time></trkpt><trkpt lat="36.71338417979013" lon="14.807991757742418"><ele>6.199999999999999</ele><time>2026-04-11T15:46:09Z</time></trkpt><trkpt lat="36.71330898840428" lon="14.807876689926413"><ele>6.6</ele><time>2026-04-11T15:46:10Z</time></trkpt><trkpt lat="36.713246763604836" lon="14.807777881100316"><ele>7.0</ele><time>2026-04-11T15:46:11Z</time></trkpt><trkpt lat="36.713183940308504" lon="14.807679679431097"><ele>7.199999999999999</ele><time>2026-04-11T15:46:12Z</time></trkpt><trkpt lat="36.71312172191044" lon="14.807578431081035"><ele>7.3999999999999995</ele><time>2026-04-11T15:46:13Z</time></trkpt><trkpt lat="36.7130622291665" lon="14.807484132470263"><ele>7.6000000000000005</ele><time>2026-04-11T15:46:14Z</time></trkpt><trkpt lat="36.71300995797771" lon="14.807393146449293"><ele>7.800000000000001</ele><time>2026-04-11T15:46:15Z</time></trkpt><trkpt lat="36.7129586254454" lon="14.80729955551788"><ele>8.0</ele><time>2026-04-11T15:46:16Z</time></trkpt><trkpt lat="36.71291131575056" lon="14.807210349725212"><ele>7.999999999999999</ele><time>2026-04-11T15:46:17Z</time></trkpt><trkpt lat="36.71285567684211" lon="14.807127101256784"><ele>8.0</ele><time>2026-04-11T15:46:18Z</time></trkpt><trkpt lat="36.71280793288075" lon="14.807058269852734"><ele>8.0</ele><time>2026-04-11T15:46:19Z</time></trkpt><trkpt lat="36.71275809559546" lon="14.80699449729799"><ele>8.0</ele><time>2026-04-11T15:46:20Z</time></trkpt><trkpt lat="36.71269608961497" lon="14.806921403928328"><ele>7.999999999999999</ele><time>2026-04-11T15:46:21Z</time></trkpt><trkpt lat="36.71261991046352" lon="14.806819548487939"><ele>8.0</ele><time>2026-04-11T15:46:22Z</time></trkpt><trkpt lat="36.71254321889279" lon="14.80671660205382"><ele>7.6000000000000005</ele><time>2026-04-11T15:46:23Z</time></trkpt><trkpt lat="36.71246016550582" lon="14.806620620239034"><ele>7.200000000000001</ele><time>2026-04-11T15:46:24Z</time></trkpt><trkpt lat="36.71237914395686" lon="14.80654233150791"><ele>6.8</ele><time>2026-04-11T15:46:25Z</time></trkpt><trkpt lat="36.71229919962509" lon="14.806443169903773"><ele>6.4</ele><time>2026-04-11T15:46:26Z</time></trkpt><trkpt lat="36.71222344017323" lon="14.80633980584981"><ele>6.0</ele><time>2026-04-11T15:46:27Z</time></trkpt><trkpt lat="36.71214890714203" lon="14.806245546923439"><ele>6.0</ele><time>2026-04-11T15:46:28Z</time></trkpt><trkpt lat="36.712067438532394" lon="14.806147988116352"><ele>6.0</ele><time>2026-04-11T15:46:29Z</time></trkpt><trkpt lat="36.711984446203495" lon="14.806045035892154"><ele>6.0</ele><time>2026-04-11T15:46:30Z</time></trkpt><trkpt lat="36.71190977457219" lon="14.805939986283706"><ele>6.0</ele><time>2026-04-11T15:46:31Z</time></trkpt><trkpt lat="36.711835401114236" lon="14.805827454136335"><ele>5.5</ele><time>2026-04-11T15:46:32Z</time></trkpt><trkpt lat="36.71175785617616" lon="14.805715369208247"><ele>5.0</ele><time>2026-04-11T15:46:33Z</time></trkpt><trkpt lat="36.711683941112895" lon="14.805609504028507"><ele>4.5</ele><time>2026-04-11T15:46:34Z</time></trkpt><trkpt lat="36.7116188532165" lon="14.80551388388476"><ele>4.0</ele><time>2026-04-11T15:46:35Z</time></trkpt><trkpt lat="36.71155650814002" lon="14.805380829133595"><ele>4.0</ele><time>2026-04-11T15:46:36Z</time></trkpt><trkpt lat="36.711463358921726" lon="14.805253268503778"><ele>4.0</ele><time>2026-04-11T15:46:37Z</time></trkpt><trkpt lat="36.71139108887788" lon="14.805126590392273"><ele>4.0</ele><time>2026-04-11T15:46:38Z</time></trkpt><trkpt lat="36.711333548327104" lon="14.805027529242967"><ele>4.0</ele><time>2026-04-11T15:46:39Z</time></trkpt><trkpt lat="36.711283262581745" lon="14.80492804073372"><ele>4.0</ele><time>2026-04-11T15:46:40Z</time></trkpt><trkpt lat="36.711209854234816" lon="14.80481272378832"><ele>4.0</ele><time>2026-04-11T15:46:41Z</time></trkpt><trkpt lat="36.711151317079974" lon="14.804686651203262"><ele>4.0</ele><time>2026-04-11T15:46:42Z</time></trkpt><trkpt lat="36.711084601805" lon="14.804574674984396"><ele>4.0</ele><time>2026-04-11T15:46:43Z</time></trkpt><trkpt lat="36.71102284329748" lon="14.804471018330123"><ele>3.5</ele><time>2026-04-11T15:46:44Z</time></trkpt><trkpt lat="36.710955178953654" lon="14.804357449197383"><ele>3.0</ele><time>2026-04-11T15:46:45Z</time></trkpt><trkpt lat="36.710890720321686" lon="14.804248571936927"><ele>2.5</ele><time>2026-04-11T15:46:46Z</time></trkpt><trkpt lat="36.71082065044395" lon="14.804126357055937"><ele>2.0</ele><time>2026-04-11T15:46:47Z</time></trkpt><trkpt lat="36.71075692571514" lon="14.804014038914671"><ele>2.0</ele><time>2026-04-11T15:46:48Z</time></trkpt><trkpt lat="36.71069608456018" lon="14.803905405038087"><ele>2.0</ele><time>2026-04-11T15:46:49Z</time></trkpt><trkpt lat="36.71064376464092" lon="14.803803985168408"><ele>2.0</ele><time>2026-04-11T15:46:50Z</time></trkpt><trkpt lat="36.710595520403025" lon="14.803702847528157"><ele>2.0</ele><time>2026-04-11T15:46:51Z</time></trkpt><trkpt lat="36.710549539225376" lon="14.803599018430349"><ele>2.0</ele><time>2026-04-11T15:46:52Z</time></trkpt><trkpt lat="36.71051744254695" lon="14.803525099842568"><ele>2.1666666666666665</ele><time>2026-04-11T15:46:53Z</time></trkpt><trkpt lat="36.71047413455328" lon="14.803465859912533"><ele>2.333333333333333</ele><time>2026-04-11T15:46:54Z</time></trkpt><trkpt lat="36.7104273229438" lon="14.803348826562072"><ele>2.5</ele><time>2026-04-11T15:46:56Z</time></trkpt><trkpt lat="36.710377988634036" lon="14.80327648569676"><ele>2.6666666666666665</ele><time>2026-04-11T15:47:13.999Z</time></trkpt><trkpt lat="36.71033621035904" lon="14.803208485173533"><ele>2.8333333333333335</ele><time>2026-04-11T15:48:26Z</time></trkpt><trkpt lat="36.71033748301974" lon="14.803117811970832"><ele>3.0</ele><time>2026-04-11T15:48:28Z</time></trkpt><trkpt lat="36.710292146893536" lon="14.803019716528997"><ele>3.0</ele><time>2026-04-11T15:48:34Z</time></trkpt><trkpt lat="36.71024899116575" lon="14.802929657098831"><ele>3.0</ele><time>2026-04-11T15:48:35Z</time></trkpt><trkpt lat="36.71019317857685" lon="14.802848675304283"><ele>3.0</ele><time>2026-04-11T15:48:36Z</time></trkpt><trkpt lat="36.710154185380574" lon="14.802758156292018"><ele>3.0</ele><time>2026-04-11T15:48:37Z</time></trkpt><trkpt lat="36.710096427297714" lon="14.802686737429633"><ele>3.0</ele><time>2026-04-11T15:48:38Z</time></trkpt><trkpt lat="36.71002656022027" lon="14.802618724178426"><ele>3.0</ele><time>2026-04-11T15:48:39Z</time></trkpt><trkpt lat="36.709939710987186" lon="14.802571108544068"><ele>3.5999999999999996</ele><time>2026-04-11T15:48:40Z</time></trkpt><trkpt lat="36.70985325302881" lon="14.802521457409766"><ele>4.199999999999999</ele><time>2026-04-11T15:48:41Z</time></trkpt><trkpt lat="36.709777605778214" lon="14.802451213586611"><ele>4.8</ele><time>2026-04-11T15:48:42Z</time></trkpt><trkpt lat="36.709709803966035" lon="14.802355399034958"><ele>5.3999999999999995</ele><time>2026-04-11T15:48:43Z</time></trkpt><trkpt lat="36.70964779571087" lon="14.802263992628301"><ele>6.0</ele><time>2026-04-11T15:48:44Z</time></trkpt><trkpt lat="36.70958621086294" lon="14.802179835761448"><ele>6.0</ele><time>2026-04-11T15:48:45Z</time></trkpt><trkpt lat="36.70953213272454" lon="14.8020986410371"><ele>6.0</ele><time>2026-04-11T15:48:46Z</time></trkpt><trkpt lat="36.70947452566587" lon="14.802007837553814"><ele>6.0</ele><time>2026-04-11T15:48:47Z</time></trkpt><trkpt lat="36.709412501401914" lon="14.801913814219695"><ele>6.0</ele><time>2026-04-11T15:48:48Z</time></trkpt><trkpt lat="36.709345237627424" lon="14.801820907940309"><ele>6.0</ele><time>2026-04-11T15:48:49Z</time></trkpt><trkpt lat="36.70927617812936" lon="14.801726151706738"><ele>5.6</ele><time>2026-04-11T15:48:50Z</time></trkpt><trkpt lat="36.709219152380946" lon="14.801614351606382"><ele>5.199999999999999</ele><time>2026-04-11T15:48:51Z</time></trkpt><trkpt lat="36.70916358555713" lon="14.801507300032352"><ele>4.800000000000001</ele><time>2026-04-11T15:48:52Z</time></trkpt><trkpt lat="36.70910122646881" lon="14.801408375345323"><ele>4.4</ele><time>2026-04-11T15:48:53Z</time></trkpt><trkpt lat="36.709039456934775" lon="14.801297429495571"><ele>4.0</ele><time>2026-04-11T15:48:54Z</time></trkpt><trkpt lat="36.70896890929523" lon="14.801174259913994"><ele>4.0</ele><time>2026-04-11T15:48:55Z</time></trkpt><trkpt lat="36.70890444032515" lon="14.801051938116032"><ele>4.0</ele><time>2026-04-11T15:48:56Z</time></trkpt><trkpt lat="36.70883858390739" lon="14.80095075480429"><ele>4.0</ele><time>2026-04-11T15:48:57Z</time></trkpt><trkpt lat="36.70878633085245" lon="14.800850650896779"><ele>4.0</ele><time>2026-04-11T15:48:58Z</time></trkpt><trkpt lat="36.708743063558956" lon="14.800772029674821"><ele>4.0</ele><time>2026-04-11T15:48:59Z</time></trkpt><trkpt lat="36.708695872498666" lon="14.800692159751781"><ele>3.6666666666666665</ele><time>2026-04-11T15:49:00Z</time></trkpt><trkpt lat="36.70865388184405" lon="14.800627927189273"><ele>3.333333333333333</ele><time>2026-04-11T15:49:01Z</time></trkpt><trkpt lat="36.7086013552441" lon="14.80053000838301"><ele>3.0</ele><time>2026-04-11T15:49:03Z</time></trkpt><trkpt lat="36.70854251031771" lon="14.80044779574364"><ele>2.6666666666666665</ele><time>2026-04-11T15:49:06Z</time></trkpt><trkpt lat="36.70849535657255" lon="14.800383941712566"><ele>2.333333333333333</ele><time>2026-04-11T15:49:08.999Z</time></trkpt><trkpt lat="36.7084518352637" lon="14.800325006504288"><ele>2.0</ele><time>2026-04-11T15:49:12.999Z</time></trkpt><trkpt lat="36.70840209152203" lon="14.800265654230433"><ele>2.0</ele><time>2026-04-11T15:50:54Z</time></trkpt><trkpt lat="36.70838888009329" lon="14.800176540735864"><ele>1.9999999999999998</ele><time>2026-04-11T15:51:12.999Z</time></trkpt><trkpt lat="36.708418015717974" lon="14.800246653797407"><ele>2.0</ele><time>2026-04-11T15:58:26Z</time></trkpt><trkpt lat="36.70844897827789" lon="14.800338131461787"><ele>2.0</ele><time>2026-04-11T15:58:59Z</time></trkpt><trkpt lat="36.70841967630009" lon="14.800267959498964"><ele>1.9999999999999998</ele><time>2026-04-11T16:01:00Z</time></trkpt><trkpt lat="36.70836316032982" lon="14.800173665363701"><ele>2.0</ele><time>2026-04-11T16:01:17Z</time></trkpt><trkpt lat="36.70841889362883" lon="14.80023056361166"><ele>2.0</ele><time>2026-04-11T16:02:17Z</time></trkpt><trkpt lat="36.70834955618424" lon="14.800243898415447"><ele>1.9999999999999998</ele><time>2026-04-11T16:05:42.999Z</time></trkpt><trkpt lat="36.708293258552054" lon="14.800199554011469"><ele>2.0</ele><time>2026-04-11T16:06:48.998Z</time></trkpt><trkpt lat="36.70825132662713" lon="14.80012880705492"><ele>2.0</ele><time>2026-04-11T16:08:41.999Z</time></trkpt><trkpt lat="36.70821920372962" lon="14.800060138574628"><ele>2.0</ele><time>2026-04-11T16:08:45.999Z</time></trkpt><trkpt lat="36.70819574583469" lon="14.799965780704598"><ele>1.9999999999999998</ele><time>2026-04-11T16:08:47.999Z</time></trkpt><trkpt lat="36.70812654080649" lon="14.799871544451797"><ele>2.0</ele><time>2026-04-11T16:08:49.999Z</time></trkpt><trkpt lat="36.708095970737254" lon="14.799795280186068"><ele>2.5</ele><time>2026-04-11T16:08:51.999Z</time></trkpt><trkpt lat="36.70806546696315" lon="14.79970112811528"><ele>3.0</ele><time>2026-04-11T16:08:53.999Z</time></trkpt><trkpt lat="36.70802355830088" lon="14.799616379833758"><ele>3.5</ele><time>2026-04-11T16:08:55.999Z</time></trkpt><trkpt lat="36.7079810553614" lon="14.799510097279038"><ele>4.0</ele><time>2026-04-11T16:08:58Z</time></trkpt><trkpt lat="36.70795065706806" lon="14.799423845880291"><ele>4.5</ele><time>2026-04-11T16:09:00Z</time></trkpt><trkpt lat="36.70791503071341" lon="14.799317186766066"><ele>5.0</ele><time>2026-04-11T16:09:02Z</time></trkpt><trkpt lat="36.70788507621724" lon="14.799227508206807"><ele>5.333333333333334</ele><time>2026-04-11T16:09:04Z</time></trkpt><trkpt lat="36.707809651197806" lon="14.799218083131892"><ele>5.666666666666667</ele><time>2026-04-11T16:09:05Z</time></trkpt><trkpt lat="36.70777851064175" lon="14.799111881211784"><ele>6.0</ele><time>2026-04-11T16:09:07Z</time></trkpt><trkpt lat="36.70772031480412" lon="14.799012594855268"><ele>6.333333333333334</ele><time>2026-04-11T16:09:09Z</time></trkpt><trkpt lat="36.70770949885626" lon="14.798911325170861"><ele>6.666666666666667</ele><time>2026-04-11T16:09:11Z</time></trkpt><trkpt lat="36.707695170117496" lon="14.798821521706197"><ele>7.0</ele><time>2026-04-11T16:09:13Z</time></trkpt><trkpt lat="36.70765004309256" lon="14.798763839854683"><ele>6.428571428571429</ele><time>2026-04-11T16:09:15Z</time></trkpt><trkpt lat="36.70762064323908" lon="14.798670146856168"><ele>5.857142857142857</ele><time>2026-04-11T16:09:17Z</time></trkpt><trkpt lat="36.70759346627249" lon="14.798570170000886"><ele>5.285714285714286</ele><time>2026-04-11T16:09:19Z</time></trkpt><trkpt lat="36.70758645801215" lon="14.798480680500628"><ele>4.714285714285714</ele><time>2026-04-11T16:09:21Z</time></trkpt><trkpt lat="36.70753524768543" lon="14.798427954078814"><ele>4.142857142857142</ele><time>2026-04-11T16:09:27Z</time></trkpt><trkpt lat="36.70752302879189" lon="14.798350436121368"><ele>3.571428571428571</ele><time>2026-04-11T16:09:41Z</time></trkpt><trkpt lat="36.70753716673274" lon="14.798270180881268"><ele>3.0</ele><time>2026-04-11T16:09:59Z</time></trkpt><trkpt lat="36.707518672606064" lon="14.798188380334777"><ele>2.9999999999999996</ele><time>2026-04-11T16:10:07Z</time></trkpt><trkpt lat="36.70749260600801" lon="14.798105364675504"><ele>3.0</ele><time>2026-04-11T16:10:14Z</time></trkpt><trkpt lat="36.707450695154556" lon="14.798034172757767"><ele>3.0</ele><time>2026-04-11T16:10:21Z</time></trkpt><trkpt lat="36.707426399342985" lon="14.797953835893312"><ele>3.0</ele><time>2026-04-11T16:10:32Z</time></trkpt><trkpt lat="36.707382939852266" lon="14.797874324628681"><ele>3.0</ele><time>2026-04-11T16:10:43Z</time></trkpt><trkpt lat="36.70738313989951" lon="14.797790057890033"><ele>2.9999999999999996</ele><time>2026-04-11T16:10:48Z</time></trkpt><trkpt lat="36.70732239280054" lon="14.79773141845946"><ele>3.0</ele><time>2026-04-11T16:11:44Z</time></trkpt><trkpt lat="36.70727046524122" lon="14.797684404752623"><ele>2.9999999999999996</ele><time>2026-04-11T16:11:59Z</time></trkpt><trkpt lat="36.70726005504135" lon="14.797601595366984"><ele>3.0</ele><time>2026-04-11T16:12:11Z</time></trkpt><trkpt lat="36.70729445301003" lon="14.797534117642604"><ele>3.0</ele><time>2026-04-11T16:12:41Z</time></trkpt><trkpt lat="36.7072972649346" lon="14.79744809081024"><ele>3.0</ele><time>2026-04-11T16:13:10.001Z</time></trkpt><trkpt lat="36.7072416963697" lon="14.797490873255237"><ele>3.0</ele><time>2026-04-11T16:13:29Z</time></trkpt><trkpt lat="36.70728405971717" lon="14.797558838400606"><ele>2.9999999999999996</ele><time>2026-04-11T16:13:44Z</time></trkpt><trkpt lat="36.707273423411294" lon="14.797651103393386"><ele>3.0</ele><time>2026-04-11T16:14:02Z</time></trkpt><trkpt lat="36.70730251889776" lon="14.797732029368817"><ele>3.0</ele><time>2026-04-11T16:14:13Z</time></trkpt><trkpt lat="36.70735418738274" lon="14.797788166232007"><ele>3.0</ele><time>2026-04-11T16:14:39Z</time></trkpt><trkpt lat="36.70736794425759" lon="14.797871679858508"><ele>3.0</ele><time>2026-04-11T16:14:43Z</time></trkpt><trkpt lat="36.70739489947165" lon="14.797949654966429"><ele>3.0</ele><time>2026-04-11T16:14:53.001Z</time></trkpt><trkpt lat="36.707408553666646" lon="14.798029259119392"><ele>3.0</ele><time>2026-04-11T16:14:59.001Z</time></trkpt><trkpt lat="36.707522623005495" lon="14.797975967699534"><ele>3.0</ele><time>2026-04-11T16:15:24.001Z</time></trkpt><trkpt lat="36.70748319812991" lon="14.797857935822426"><ele>3.0</ele><time>2026-04-11T16:15:26.001Z</time></trkpt><trkpt lat="36.70747196643543" lon="14.797768182185568"><ele>3.0</ele><time>2026-04-11T16:15:28.001Z</time></trkpt><trkpt lat="36.70744778471918" lon="14.79784596304103"><ele>3.0</ele><time>2026-04-11T16:16:31Z</time></trkpt><trkpt lat="36.70749805780016" lon="14.798010481516052"><ele>3.0</ele><time>2026-04-11T16:16:45Z</time></trkpt><trkpt lat="36.707445470719954" lon="14.797962628801388"><ele>3.0</ele><time>2026-04-11T16:22:43Z</time></trkpt><trkpt lat="36.70742784348743" lon="14.797886391023072"><ele>3.0</ele><time>2026-04-11T16:23:52.999Z</time></trkpt><trkpt lat="36.70741753964401" lon="14.797804455274187"><ele>3.0</ele><time>2026-04-11T16:24:10Z</time></trkpt><trkpt lat="36.70740883672004" lon="14.797716916334213"><ele>3.0</ele><time>2026-04-11T16:24:18Z</time></trkpt><trkpt lat="36.707367373597876" lon="14.797613695176866"><ele>3.0</ele><time>2026-04-11T16:26:18Z</time></trkpt><trkpt lat="36.70735370909417" lon="14.7975037947324"><ele>3.0</ele><time>2026-04-11T16:26:21Z</time></trkpt><trkpt lat="36.7073249381618" lon="14.797398172899099"><ele>3.0</ele><time>2026-04-11T16:26:32Z</time></trkpt><trkpt lat="36.70726813359839" lon="14.797232981160152"><ele>3.3333333333333335</ele><time>2026-04-11T16:26:34Z</time></trkpt><trkpt lat="36.70723677076288" lon="14.797130219215182"><ele>3.666666666666667</ele><time>2026-04-11T16:26:35Z</time></trkpt><trkpt lat="36.70720606184623" lon="14.797023645229267"><ele>4.0</ele><time>2026-04-11T16:26:36Z</time></trkpt><trkpt lat="36.707171420917085" lon="14.796918530968252"><ele>4.333333333333334</ele><time>2026-04-11T16:26:37Z</time></trkpt><trkpt lat="36.70717641130163" lon="14.796795868408768"><ele>4.666666666666667</ele><time>2026-04-11T16:26:38Z</time></trkpt><trkpt lat="36.70714959667287" lon="14.796707731747325"><ele>5.0</ele><time>2026-04-11T16:26:39Z</time></trkpt><trkpt lat="36.70710837309725" lon="14.796572234461692"><ele>5.4</ele><time>2026-04-11T16:26:41Z</time></trkpt><trkpt lat="36.7070841186078" lon="14.796492513190964"><ele>5.8</ele><time>2026-04-11T16:26:42Z</time></trkpt><trkpt lat="36.707058505501095" lon="14.796408325698517"><ele>6.199999999999999</ele><time>2026-04-11T16:26:43Z</time></trkpt><trkpt lat="36.70701798275149" lon="14.796275131944688"><ele>6.6</ele><time>2026-04-11T16:26:45Z</time></trkpt><trkpt lat="36.706976872935044" lon="14.796140008458595"><ele>7.0</ele><time>2026-04-11T16:26:47Z</time></trkpt><trkpt lat="36.70693995308088" lon="14.79602111719118"><ele>6.500000000000001</ele><time>2026-04-11T16:26:49Z</time></trkpt><trkpt lat="36.70690761015902" lon="14.79592053877608"><ele>6.0</ele><time>2026-04-11T16:26:51Z</time></trkpt><trkpt lat="36.706875086974286" lon="14.795827100702102"><ele>5.5</ele><time>2026-04-11T16:26:53Z</time></trkpt><trkpt lat="36.70686063184633" lon="14.795741382495796"><ele>5.0</ele><time>2026-04-11T16:26:55Z</time></trkpt><trkpt lat="36.70684375114545" lon="14.79566453401411"><ele>4.5</ele><time>2026-04-11T16:26:57Z</time></trkpt><trkpt lat="36.70681569597908" lon="14.79557323959974"><ele>4.0</ele><time>2026-04-11T16:26:59Z</time></trkpt><trkpt lat="36.706791481919446" lon="14.795464980264304"><ele>3.9999999999999996</ele><time>2026-04-11T16:27:01Z</time></trkpt><trkpt lat="36.70677335508746" lon="14.79533933167086"><ele>4.0</ele><time>2026-04-11T16:27:03Z</time></trkpt><trkpt lat="36.70673726946162" lon="14.795198776828194"><ele>4.0</ele><time>2026-04-11T16:27:05Z</time></trkpt><trkpt lat="36.706722026965" lon="14.795122262552551"><ele>4.0</ele><time>2026-04-11T16:27:06Z</time></trkpt><trkpt lat="36.70670422991484" lon="14.795046005373747"><ele>3.9999999999999996</ele><time>2026-04-11T16:27:07Z</time></trkpt><trkpt lat="36.70668627125031" lon="14.794962926236492"><ele>4.0</ele><time>2026-04-11T16:27:08Z</time></trkpt><trkpt lat="36.70666733351324" lon="14.79488244750821"><ele>3.8571428571428568</ele><time>2026-04-11T16:27:09Z</time></trkpt><trkpt lat="36.706648913869834" lon="14.794799423388286"><ele>3.714285714285714</ele><time>2026-04-11T16:27:10Z</time></trkpt><trkpt lat="36.706629959457516" lon="14.794710127315051"><ele>3.571428571428571</ele><time>2026-04-11T16:27:11Z</time></trkpt><trkpt lat="36.70660791423487" lon="14.794628667386988"><ele>3.4285714285714284</ele><time>2026-04-11T16:27:12Z</time></trkpt><trkpt lat="36.70658824683062" lon="14.794546076198317"><ele>3.2857142857142856</ele><time>2026-04-11T16:27:13Z</time></trkpt><trkpt lat="36.70656815698752" lon="14.794459647233511"><ele>3.1428571428571423</ele><time>2026-04-11T16:27:14Z</time></trkpt><trkpt lat="36.706541982972226" lon="14.794363586896406"><ele>3.0</ele><time>2026-04-11T16:27:15Z</time></trkpt><trkpt lat="36.70651267596203" lon="14.794238482166149"><ele>3.3333333333333335</ele><time>2026-04-11T16:27:16Z</time></trkpt><trkpt lat="36.706484532914686" lon="14.794138453423136"><ele>3.666666666666667</ele><time>2026-04-11T16:27:17Z</time></trkpt><trkpt lat="36.706455628380105" lon="14.7940423754782"><ele>4.0</ele><time>2026-04-11T16:27:18Z</time></trkpt><trkpt lat="36.7064333041449" lon="14.793962885282824"><ele>4.333333333333334</ele><time>2026-04-11T16:27:19Z</time></trkpt><trkpt lat="36.70640488082959" lon="14.793867955933406"><ele>4.666666666666667</ele><time>2026-04-11T16:27:20Z</time></trkpt><trkpt lat="36.706378813798736" lon="14.793765491860263"><ele>5.0</ele><time>2026-04-11T16:27:21Z</time></trkpt><trkpt lat="36.70635300923785" lon="14.79366714930042"><ele>5.0</ele><time>2026-04-11T16:27:22Z</time></trkpt><trkpt lat="36.70633274350142" lon="14.7935690302035"><ele>5.0</ele><time>2026-04-11T16:27:23Z</time></trkpt><trkpt lat="36.70631389295727" lon="14.793468238838074"><ele>5.0</ele><time>2026-04-11T16:27:24Z</time></trkpt><trkpt lat="36.70629303335492" lon="14.7933605429507"><ele>5.0</ele><time>2026-04-11T16:27:25Z</time></trkpt><trkpt lat="36.706267869314495" lon="14.793245324365904"><ele>5.0</ele><time>2026-04-11T16:27:26Z</time></trkpt><trkpt lat="36.70624347879708" lon="14.79314102161064"><ele>5.0</ele><time>2026-04-11T16:27:27Z</time></trkpt><trkpt lat="36.70622281453788" lon="14.793031339711957"><ele>5.166666666666667</ele><time>2026-04-11T16:27:28Z</time></trkpt><trkpt lat="36.70620235738416" lon="14.792934362401876"><ele>5.333333333333334</ele><time>2026-04-11T16:27:29Z</time></trkpt><trkpt lat="36.70618328227336" lon="14.792852064259877"><ele>5.5</ele><time>2026-04-11T16:27:30Z</time></trkpt><trkpt lat="36.70617950104359" lon="14.792773215814238"><ele>5.666666666666667</ele><time>2026-04-11T16:27:31Z</time></trkpt><trkpt lat="36.706142442801706" lon="14.792638503560928"><ele>5.833333333333333</ele><time>2026-04-11T16:27:33Z</time></trkpt><trkpt lat="36.706123428162904" lon="14.792542741718947"><ele>6.0</ele><time>2026-04-11T16:27:34Z</time></trkpt><trkpt lat="36.70612250887791" lon="14.792443663194287"><ele>6.0</ele><time>2026-04-11T16:27:35Z</time></trkpt><trkpt lat="36.706106099693585" lon="14.79234651457807"><ele>6.0</ele><time>2026-04-11T16:27:36Z</time></trkpt><trkpt lat="36.70608461422818" lon="14.792243369375855"><ele>6.0</ele><time>2026-04-11T16:27:37Z</time></trkpt><trkpt lat="36.706070160025575" lon="14.792147592160989"><ele>6.0</ele><time>2026-04-11T16:27:38Z</time></trkpt><trkpt lat="36.706048179763606" lon="14.792019425101516"><ele>6.0</ele><time>2026-04-11T16:27:39Z</time></trkpt><trkpt lat="36.70602830287158" lon="14.791906417180023"><ele>6.0</ele><time>2026-04-11T16:27:40Z</time></trkpt><trkpt lat="36.706005267902995" lon="14.791798957829185"><ele>5.166666666666667</ele><time>2026-04-11T16:27:41Z</time></trkpt><trkpt lat="36.705987913685" lon="14.791694644435806"><ele>4.333333333333333</ele><time>2026-04-11T16:27:42Z</time></trkpt><trkpt lat="36.70596475592387" lon="14.791584661075158"><ele>3.5</ele><time>2026-04-11T16:27:43Z</time></trkpt><trkpt lat="36.705948851424814" lon="14.791487547248737"><ele>2.6666666666666665</ele><time>2026-04-11T16:27:44Z</time></trkpt><trkpt lat="36.705929586393886" lon="14.791394090514359"><ele>1.8333333333333333</ele><time>2026-04-11T16:27:45Z</time></trkpt><trkpt lat="36.70591715461349" lon="14.791294243970317"><ele>1.0</ele><time>2026-04-11T16:27:46Z</time></trkpt><trkpt lat="36.705896306351285" lon="14.791195387840173"><ele>0.9999999999999999</ele><time>2026-04-11T16:27:47Z</time></trkpt><trkpt lat="36.70586937815461" lon="14.791110114074788"><ele>1.0</ele><time>2026-04-11T16:27:48Z</time></trkpt><trkpt lat="36.70585063477269" lon="14.79101349782206"><ele>1.0</ele><time>2026-04-11T16:27:49Z</time></trkpt><trkpt lat="36.70581201241817" lon="14.790917642419217"><ele>1.0</ele><time>2026-04-11T16:27:50Z</time></trkpt><trkpt lat="36.70578698111454" lon="14.790815610288277"><ele>0.9999999999999999</ele><time>2026-04-11T16:27:51Z</time></trkpt><trkpt lat="36.705763698661585" lon="14.790720474632462"><ele>1.0</ele><time>2026-04-11T16:27:52Z</time></trkpt><trkpt lat="36.70574343750457" lon="14.790637572949224"><ele>1.1666666666666665</ele><time>2026-04-11T16:27:53Z</time></trkpt><trkpt lat="36.705720272970055" lon="14.790497345042906"><ele>1.3333333333333333</ele><time>2026-04-11T16:27:55Z</time></trkpt><trkpt lat="36.70569940802417" lon="14.790407758906548"><ele>1.5</ele><time>2026-04-11T16:27:57Z</time></trkpt><trkpt lat="36.705672996941274" lon="14.790321691082713"><ele>1.6666666666666665</ele><time>2026-04-11T16:27:59Z</time></trkpt><trkpt lat="36.70565301486323" lon="14.790222928464761"><ele>1.8333333333333333</ele><time>2026-04-11T16:28:01Z</time></trkpt><trkpt lat="36.70562902650949" lon="14.790130521954639"><ele>2.0</ele><time>2026-04-11T16:28:03Z</time></trkpt><trkpt lat="36.705616798799" lon="14.790035968164478"><ele>2.2</ele><time>2026-04-11T16:28:05Z</time></trkpt><trkpt lat="36.705578423854746" lon="14.789915341853371"><ele>2.4000000000000004</ele><time>2026-04-11T16:28:07Z</time></trkpt><trkpt lat="36.70554673865889" lon="14.789812653135742"><ele>2.5999999999999996</ele><time>2026-04-11T16:28:09Z</time></trkpt><trkpt lat="36.705504254585875" lon="14.789718499227753"><ele>2.8</ele><time>2026-04-11T16:28:11Z</time></trkpt><trkpt lat="36.70548512498975" lon="14.789623754508595"><ele>3.0</ele><time>2026-04-11T16:28:13Z</time></trkpt><trkpt lat="36.70548591602923" lon="14.789507753889287"><ele>3.0</ele><time>2026-04-11T16:28:15Z</time></trkpt><trkpt lat="36.70546275908884" lon="14.789412382580764"><ele>3.0</ele><time>2026-04-11T16:28:17Z</time></trkpt><trkpt lat="36.70544830989441" lon="14.789295024757827"><ele>3.0</ele><time>2026-04-11T16:28:19Z</time></trkpt><trkpt lat="36.70544232391194" lon="14.789190686595088"><ele>3.0</ele><time>2026-04-11T16:28:22Z</time></trkpt><trkpt lat="36.70538984071755" lon="14.789079167227554"><ele>3.0</ele><time>2026-04-11T16:28:33Z</time></trkpt><trkpt lat="36.7053857811814" lon="14.788933709612003"><ele>3.2</ele><time>2026-04-11T16:28:35Z</time></trkpt><trkpt lat="36.7053618814739" lon="14.788791777462272"><ele>3.4</ele><time>2026-04-11T16:28:37Z</time></trkpt><trkpt lat="36.705332753692524" lon="14.788697341872261"><ele>3.6000000000000005</ele><time>2026-04-11T16:28:38Z</time></trkpt><trkpt lat="36.70531597350359" lon="14.788604129128966"><ele>3.8000000000000003</ele><time>2026-04-11T16:28:39Z</time></trkpt><trkpt lat="36.70530065870536" lon="14.788519056411364"><ele>4.0</ele><time>2026-04-11T16:28:40Z</time></trkpt><trkpt lat="36.70529365582793" lon="14.788380419390675"><ele>3.9999999999999996</ele><time>2026-04-11T16:28:42Z</time></trkpt><trkpt lat="36.70528050683521" lon="14.788296429469597"><ele>4.0</ele><time>2026-04-11T16:28:43Z</time></trkpt><trkpt lat="36.70526424780045" lon="14.78813279697713"><ele>4.0</ele><time>2026-04-11T16:28:45Z</time></trkpt><trkpt lat="36.705260046255425" lon="14.788041048316659"><ele>4.0</ele><time>2026-04-11T16:28:46Z</time></trkpt><trkpt lat="36.70525409245785" lon="14.787937361038702"><ele>3.9999999999999996</ele><time>2026-04-11T16:28:47Z</time></trkpt><trkpt lat="36.70525184394507" lon="14.787833835581807"><ele>4.0</ele><time>2026-04-11T16:28:48Z</time></trkpt><trkpt lat="36.705241580509636" lon="14.787744228184417"><ele>3.333333333333333</ele><time>2026-04-11T16:28:49Z</time></trkpt><trkpt lat="36.70523728853629" lon="14.787653427260997"><ele>2.6666666666666665</ele><time>2026-04-11T16:28:50Z</time></trkpt><trkpt lat="36.70522787186309" lon="14.78754809628678"><ele>2.0</ele><time>2026-04-11T16:28:51Z</time></trkpt><trkpt lat="36.70521601711337" lon="14.787431421013446"><ele>1.3333333333333333</ele><time>2026-04-11T16:28:52Z</time></trkpt><trkpt lat="36.70521450756304" lon="14.787334072217405"><ele>0.6666666666666666</ele><time>2026-04-11T16:28:53Z</time></trkpt><trkpt lat="36.70521237936593" lon="14.787247114569235"><ele>0.0</ele><time>2026-04-11T16:28:54Z</time></trkpt><trkpt lat="36.70520968115599" lon="14.787154330346294"><ele>0.0</ele><time>2026-04-11T16:28:55Z</time></trkpt><trkpt lat="36.705210585010434" lon="14.787013491396918"><ele>0.0</ele><time>2026-04-11T16:28:57Z</time></trkpt><trkpt lat="36.70519957895241" lon="14.786917642532588"><ele>0.0</ele><time>2026-04-11T16:28:59Z</time></trkpt><trkpt lat="36.705199660456294" lon="14.786833200920231"><ele>0.0</ele><time>2026-04-11T16:29:12Z</time></trkpt><trkpt lat="36.70520195674977" lon="14.786738133582237"><ele>0.0</ele><time>2026-04-11T16:29:16Z</time></trkpt><trkpt lat="36.705202813151594" lon="14.786633697569654"><ele>0.0</ele><time>2026-04-11T16:29:20Z</time></trkpt><trkpt lat="36.705177633541695" lon="14.786535119314896"><ele>0.0</ele><time>2026-04-11T16:29:23Z</time></trkpt><trkpt lat="36.70515902518194" lon="14.78641266367796"><ele>0.0</ele><time>2026-04-11T16:29:25Z</time></trkpt><trkpt lat="36.705164932396414" lon="14.786312392223685"><ele>0.0</ele><time>2026-04-11T16:29:26Z</time></trkpt><trkpt lat="36.70517280901039" lon="14.786213450782492"><ele>0.0</ele><time>2026-04-11T16:29:27Z</time></trkpt><trkpt lat="36.70516887622753" lon="14.786124154260541"><ele>0.0</ele><time>2026-04-11T16:29:28Z</time></trkpt><trkpt lat="36.705151279989195" lon="14.786011871171999"><ele>0.0</ele><time>2026-04-11T16:29:29Z</time></trkpt><trkpt lat="36.705138310288" lon="14.785911938449415"><ele>0.4</ele><time>2026-04-11T16:29:30Z</time></trkpt><trkpt lat="36.705116065654614" lon="14.785809846945366"><ele>0.8</ele><time>2026-04-11T16:29:31Z</time></trkpt><trkpt lat="36.705093015430364" lon="14.785706172200747"><ele>1.2000000000000002</ele><time>2026-04-11T16:29:32.001Z</time></trkpt><trkpt lat="36.705070579469655" lon="14.785595109253295"><ele>1.6</ele><time>2026-04-11T16:29:33.001Z</time></trkpt><trkpt lat="36.70505635371809" lon="14.785477831820659"><ele>2.0</ele><time>2026-04-11T16:29:34.001Z</time></trkpt><trkpt lat="36.7050436703897" lon="14.785347706000167"><ele>2.0</ele><time>2026-04-11T16:29:35.001Z</time></trkpt><trkpt lat="36.705022726716074" lon="14.785224697573506"><ele>2.0</ele><time>2026-04-11T16:29:36.001Z</time></trkpt><trkpt lat="36.705005915313606" lon="14.785118844048947"><ele>2.0</ele><time>2026-04-11T16:29:37.001Z</time></trkpt><trkpt lat="36.70498096212939" lon="14.78501124747076"><ele>2.0</ele><time>2026-04-11T16:29:38.001Z</time></trkpt><trkpt lat="36.70495943081032" lon="14.784891865670595"><ele>2.0</ele><time>2026-04-11T16:29:39.001Z</time></trkpt><trkpt lat="36.70494108012878" lon="14.784778787817153"><ele>1.9999999999999998</ele><time>2026-04-11T16:29:40.001Z</time></trkpt><trkpt lat="36.704920688771494" lon="14.784665354406846"><ele>2.0</ele><time>2026-04-11T16:29:41.001Z</time></trkpt><trkpt lat="36.704894383072926" lon="14.784564912881008"><ele>2.0</ele><time>2026-04-11T16:29:42.001Z</time></trkpt><trkpt lat="36.7048670341378" lon="14.78446347845691"><ele>2.0</ele><time>2026-04-11T16:29:43.001Z</time></trkpt><trkpt lat="36.70483962038885" lon="14.784379180452621"><ele>1.9999999999999998</ele><time>2026-04-11T16:29:44.001Z</time></trkpt><trkpt lat="36.70479968318458" lon="14.784295037818955"><ele>2.0</ele><time>2026-04-11T16:29:45.001Z</time></trkpt><trkpt lat="36.704765548937345" lon="14.784214434123099"><ele>1.9999999999999998</ele><time>2026-04-11T16:29:46.001Z</time></trkpt><trkpt lat="36.70473249641139" lon="14.78413161203323"><ele>2.0</ele><time>2026-04-11T16:29:47.001Z</time></trkpt><trkpt lat="36.70470271363179" lon="14.784038271715543"><ele>2.0</ele><time>2026-04-11T16:29:48.001Z</time></trkpt><trkpt lat="36.70467854203733" lon="14.783944470693243"><ele>2.0</ele><time>2026-04-11T16:29:49.001Z</time></trkpt><trkpt lat="36.70463745739092" lon="14.783829995066052"><ele>1.9999999999999998</ele><time>2026-04-11T16:29:50.001Z</time></trkpt><trkpt lat="36.704606702998916" lon="14.783709806728792"><ele>2.0</ele><time>2026-04-11T16:29:51.001Z</time></trkpt><trkpt lat="36.704574912301304" lon="14.783584104527595"><ele>2.0</ele><time>2026-04-11T16:29:52.001Z</time></trkpt><trkpt lat="36.70454079136108" lon="14.783460908999174"><ele>2.0</ele><time>2026-04-11T16:29:53.001Z</time></trkpt><trkpt lat="36.704505455660176" lon="14.783339393842377"><ele>2.0</ele><time>2026-04-11T16:29:54.001Z</time></trkpt><trkpt lat="36.704470905725266" lon="14.783238110436017"><ele>2.0</ele><time>2026-04-11T16:29:55.001Z</time></trkpt><trkpt lat="36.704435278025116" lon="14.783153963559759"><ele>2.0</ele><time>2026-04-11T16:29:56.001Z</time></trkpt><trkpt lat="36.70439665362496" lon="14.783060960776433"><ele>2.0</ele><time>2026-04-11T16:29:57.001Z</time></trkpt><trkpt lat="36.70437226020061" lon="14.782939446400714"><ele>2.0</ele><time>2026-04-11T16:29:58.001Z</time></trkpt><trkpt lat="36.704339955996375" lon="14.782819722916964"><ele>2.0</ele><time>2026-04-11T16:29:59.001Z</time></trkpt><trkpt lat="36.70435881734374" lon="14.782676086749778"><ele>2.0</ele><time>2026-04-11T16:30:00.001Z</time></trkpt><trkpt lat="36.70436709892932" lon="14.782551568633371"><ele>2.0</ele><time>2026-04-11T16:30:01.001Z</time></trkpt><trkpt lat="36.70434560621983" lon="14.78242429964061"><ele>2.0</ele><time>2026-04-11T16:30:02.001Z</time></trkpt><trkpt lat="36.70433122874583" lon="14.78229018074638"><ele>2.0</ele><time>2026-04-11T16:30:03.001Z</time></trkpt><trkpt lat="36.704341051016954" lon="14.782162780067395"><ele>2.0</ele><time>2026-04-11T16:30:04.001Z</time></trkpt><trkpt lat="36.70434483174466" lon="14.782050056503154"><ele>2.0</ele><time>2026-04-11T16:30:05.001Z</time></trkpt><trkpt lat="36.70435379049762" lon="14.78193059279046"><ele>2.0</ele><time>2026-04-11T16:30:06.001Z</time></trkpt><trkpt lat="36.70435636291031" lon="14.781821066905737"><ele>2.0</ele><time>2026-04-11T16:30:07.001Z</time></trkpt><trkpt lat="36.70435319276796" lon="14.78171241492478"><ele>2.0</ele><time>2026-04-11T16:30:08.001Z</time></trkpt><trkpt lat="36.70435356806518" lon="14.781623124097177"><ele>2.0</ele><time>2026-04-11T16:30:09.001Z</time></trkpt><trkpt lat="36.70435324193856" lon="14.781496448167289"><ele>2.0</ele><time>2026-04-11T16:30:11.001Z</time></trkpt><trkpt lat="36.70450256377508" lon="14.781440555490478"><ele>2.0</ele><time>2026-04-11T16:30:14.001Z</time></trkpt><trkpt lat="36.704593383682464" lon="14.781451494102242"><ele>2.2</ele><time>2026-04-11T16:30:17Z</time></trkpt><trkpt lat="36.704648255964216" lon="14.781496131256345"><ele>2.4000000000000004</ele><time>2026-04-11T16:30:33Z</time></trkpt><trkpt lat="36.70472458318169" lon="14.781581101810106"><ele>2.5999999999999996</ele><time>2026-04-11T16:30:35Z</time></trkpt><trkpt lat="36.70479700410096" lon="14.781667872169171"><ele>2.8</ele><time>2026-04-11T16:30:36Z</time></trkpt><trkpt lat="36.70488160950219" lon="14.781759009790466"><ele>3.0</ele><time>2026-04-11T16:30:37Z</time></trkpt><trkpt lat="36.7049670921505" lon="14.781840645274654"><ele>3.0</ele><time>2026-04-11T16:30:38Z</time></trkpt><trkpt lat="36.7050567656889" lon="14.781924534540208"><ele>3.0</ele><time>2026-04-11T16:30:39Z</time></trkpt><trkpt lat="36.70513616152841" lon="14.781997032118728"><ele>3.0</ele><time>2026-04-11T16:30:40Z</time></trkpt><trkpt lat="36.705209306681944" lon="14.782064404355735"><ele>3.0</ele><time>2026-04-11T16:30:41Z</time></trkpt><trkpt lat="36.70529270904677" lon="14.782141597135983"><ele>3.0</ele><time>2026-04-11T16:30:42Z</time></trkpt><trkpt lat="36.70537582924554" lon="14.782212955069687"><ele>2.8</ele><time>2026-04-11T16:30:43Z</time></trkpt><trkpt lat="36.70544242949302" lon="14.782273364689368"><ele>2.5999999999999996</ele><time>2026-04-11T16:30:44Z</time></trkpt><trkpt lat="36.70551196084351" lon="14.782352975286134"><ele>2.4000000000000004</ele><time>2026-04-11T16:30:45Z</time></trkpt><trkpt lat="36.70557738326689" lon="14.78244863810275"><ele>2.2</ele><time>2026-04-11T16:30:46Z</time></trkpt><trkpt lat="36.705641107896284" lon="14.782549851499336"><ele>2.0</ele><time>2026-04-11T16:30:47Z</time></trkpt><trkpt lat="36.70570573028682" lon="14.78266122342623"><ele>2.75</ele><time>2026-04-11T16:30:48Z</time></trkpt><trkpt lat="36.70578779949598" lon="14.78274460224602"><ele>3.5</ele><time>2026-04-11T16:30:49Z</time></trkpt><trkpt lat="36.70587724743286" lon="14.782827527132975"><ele>4.25</ele><time>2026-04-11T16:30:50Z</time></trkpt><trkpt lat="36.70597843221466" lon="14.782901330196587"><ele>5.0</ele><time>2026-04-11T16:30:51Z</time></trkpt><trkpt lat="36.70606921934468" lon="14.783002181619825"><ele>4.8</ele><time>2026-04-11T16:30:52Z</time></trkpt><trkpt lat="36.706161511047995" lon="14.783086362763392"><ele>4.6</ele><time>2026-04-11T16:30:53Z</time></trkpt><trkpt lat="36.7062426130014" lon="14.783171104316994"><ele>4.4</ele><time>2026-04-11T16:30:54Z</time></trkpt><trkpt lat="36.70631369782948" lon="14.783243488626002"><ele>4.2</ele><time>2026-04-11T16:30:55Z</time></trkpt><trkpt lat="36.70636204510785" lon="14.783319120276454"><ele>4.0</ele><time>2026-04-11T16:30:56Z</time></trkpt><trkpt lat="36.70640955143956" lon="14.783380755464837"><ele>4.0</ele><time>2026-04-11T16:30:57Z</time></trkpt><trkpt lat="36.706422608151854" lon="14.783507231726448"><ele>4.0</ele><time>2026-04-11T16:30:59Z</time></trkpt><trkpt lat="36.70639513558004" lon="14.783586921411462"><ele>4.0</ele><time>2026-04-11T16:31:00Z</time></trkpt><trkpt lat="36.70637735903015" lon="14.783734697912946"><ele>4.0</ele><time>2026-04-11T16:31:01Z</time></trkpt><trkpt lat="36.70636231340107" lon="14.78388780014736"><ele>4.0</ele><time>2026-04-11T16:31:02Z</time></trkpt><trkpt lat="36.70634818962795" lon="14.784023332819142"><ele>4.333333333333333</ele><time>2026-04-11T16:31:03Z</time></trkpt><trkpt lat="36.706334811765586" lon="14.784143537293453"><ele>4.666666666666666</ele><time>2026-04-11T16:31:04Z</time></trkpt><trkpt lat="36.70632338365621" lon="14.784246222642698"><ele>5.0</ele><time>2026-04-11T16:31:05Z</time></trkpt><trkpt lat="36.70631284870324" lon="14.784343010045664"><ele>5.333333333333333</ele><time>2026-04-11T16:31:06Z</time></trkpt><trkpt lat="36.706303493555275" lon="14.784442218133734"><ele>5.666666666666667</ele><time>2026-04-11T16:31:07Z</time></trkpt><trkpt lat="36.70629384680682" lon="14.784544518905147"><ele>6.0</ele><time>2026-04-11T16:31:08Z</time></trkpt><trkpt lat="36.706283806678734" lon="14.784660071332118"><ele>6.333333333333334</ele><time>2026-04-11T16:31:10Z</time></trkpt><trkpt lat="36.706501968458404" lon="14.784720870927664"><ele>6.666666666666667</ele><time>2026-04-11T16:31:11Z</time></trkpt><trkpt lat="36.70661950440828" lon="14.784741243037926"><ele>7.0</ele><time>2026-04-11T16:31:12Z</time></trkpt><trkpt lat="36.70675858833101" lon="14.784746017753122"><ele>7.0</ele><time>2026-04-11T16:31:13Z</time></trkpt><trkpt lat="36.706900124706685" lon="14.784737350516219"><ele>7.0</ele><time>2026-04-11T16:31:14Z</time></trkpt><trkpt lat="36.70703112134943" lon="14.784748354264552"><ele>7.0</ele><time>2026-04-11T16:31:15Z</time></trkpt><trkpt lat="36.7071461741253" lon="14.784750122249918"><ele>7.0</ele><time>2026-04-11T16:31:16Z</time></trkpt><trkpt lat="36.707249196715104" lon="14.784746438104055"><ele>7.6</ele><time>2026-04-11T16:31:17Z</time></trkpt><trkpt lat="36.70733538455318" lon="14.784760913794337"><ele>8.2</ele><time>2026-04-11T16:31:18Z</time></trkpt><trkpt lat="36.70740017503055" lon="14.784765668637313"><ele>8.8</ele><time>2026-04-11T16:31:19Z</time></trkpt><trkpt lat="36.70746757474854" lon="14.784776158904574"><ele>9.4</ele><time>2026-04-11T16:31:21Z</time></trkpt><trkpt lat="36.707476174555424" lon="14.784604972864292"><ele>10.0</ele><time>2026-04-11T16:31:22Z</time></trkpt><trkpt lat="36.707488182650536" lon="14.784462384990384"><ele>9.6</ele><time>2026-04-11T16:31:23Z</time></trkpt><trkpt lat="36.707501151226545" lon="14.784300872654613"><ele>9.2</ele><time>2026-04-11T16:31:24Z</time></trkpt><trkpt lat="36.70751236221551" lon="14.784160995120619"><ele>8.8</ele><time>2026-04-11T16:31:25Z</time></trkpt><trkpt lat="36.707523583555655" lon="14.784031299790328"><ele>8.4</ele><time>2026-04-11T16:31:26Z</time></trkpt><trkpt lat="36.70753394801478" lon="14.783908016749455"><ele>8.0</ele><time>2026-04-11T16:31:27Z</time></trkpt><trkpt lat="36.70754278469326" lon="14.783800422906076"><ele>7.999999999999999</ele><time>2026-04-11T16:31:28Z</time></trkpt><trkpt lat="36.70754994277466" lon="14.783708741875"><ele>8.0</ele><time>2026-04-11T16:31:29Z</time></trkpt><trkpt lat="36.707571061915424" lon="14.783630890014448"><ele>8.0</ele><time>2026-04-11T16:31:30Z</time></trkpt><trkpt lat="36.70764374711087" lon="14.783587676488104"><ele>8.0</ele><time>2026-04-11T16:31:31.001Z</time></trkpt><trkpt lat="36.70774698340947" lon="14.783613464125064"><ele>7.999999999999999</ele><time>2026-04-11T16:31:32.001Z</time></trkpt><trkpt lat="36.70786866089844" lon="14.783605001325466"><ele>8.0</ele><time>2026-04-11T16:31:33.001Z</time></trkpt><trkpt lat="36.70801384606347" lon="14.783580106272693"><ele>8.5</ele><time>2026-04-11T16:31:34.001Z</time></trkpt><trkpt lat="36.708170211976885" lon="14.783577027995449"><ele>9.0</ele><time>2026-04-11T16:31:35.001Z</time></trkpt><trkpt lat="36.70831537249458" lon="14.783563081533499"><ele>9.5</ele><time>2026-04-11T16:31:36.001Z</time></trkpt><trkpt lat="36.70844591949663" lon="14.78356331334954"><ele>10.0</ele><time>2026-04-11T16:31:37.001Z</time></trkpt><trkpt lat="36.70856810378097" lon="14.783564303552977"><ele>10.0</ele><time>2026-04-11T16:31:38.001Z</time></trkpt><trkpt lat="36.70868876670674" lon="14.783546542867372"><ele>10.0</ele><time>2026-04-11T16:31:39.001Z</time></trkpt><trkpt lat="36.708795761520335" lon="14.783535539239034"><ele>10.0</ele><time>2026-04-11T16:31:40.001Z</time></trkpt><trkpt lat="36.708897072441395" lon="14.783527589622475"><ele>10.0</ele><time>2026-04-11T16:31:41.001Z</time></trkpt><trkpt lat="36.70899115983073" lon="14.783520842581531"><ele>10.0</ele><time>2026-04-11T16:31:42.001Z</time></trkpt><trkpt lat="36.70908674886418" lon="14.783506319764204"><ele>10.0</ele><time>2026-04-11T16:31:43.001Z</time></trkpt><trkpt lat="36.709173607538666" lon="14.783492541553272"><ele>10.0</ele><time>2026-04-11T16:31:44.001Z</time></trkpt><trkpt lat="36.70926182459227" lon="14.783481219072174"><ele>10.0</ele><time>2026-04-11T16:31:45.001Z</time></trkpt><trkpt lat="36.70935547022522" lon="14.783459099291282"><ele>10.0</ele><time>2026-04-11T16:31:46.001Z</time></trkpt><trkpt lat="36.709465421525195" lon="14.783403332751455"><ele>10.0</ele><time>2026-04-11T16:31:47.001Z</time></trkpt><trkpt lat="36.70956853216471" lon="14.783289309353712"><ele>8.333333333333334</ele><time>2026-04-11T16:31:48.001Z</time></trkpt><trkpt lat="36.70968118106725" lon="14.783170050400232"><ele>6.666666666666667</ele><time>2026-04-11T16:31:49.001Z</time></trkpt><trkpt lat="36.70980138691594" lon="14.783041759547778"><ele>5.0</ele><time>2026-04-11T16:31:50.001Z</time></trkpt><trkpt lat="36.70991974207133" lon="14.78292051131887"><ele>5.0</ele><time>2026-04-11T16:31:51.001Z</time></trkpt><trkpt lat="36.71001219914428" lon="14.782826537357156"><ele>5.0</ele><time>2026-04-11T16:31:52.001Z</time></trkpt><trkpt lat="36.71008556786885" lon="14.782750931628756"><ele>5.0</ele><time>2026-04-11T16:31:53.001Z</time></trkpt><trkpt lat="36.710153334807266" lon="14.782680138163371"><ele>5.0</ele><time>2026-04-11T16:31:54.001Z</time></trkpt><trkpt lat="36.710214130520725" lon="14.782614536128486"><ele>5.0</ele><time>2026-04-11T16:31:55.001Z</time></trkpt><trkpt lat="36.7102831471953" lon="14.782526483960483"><ele>4.833333333333334</ele><time>2026-04-11T16:31:57.001Z</time></trkpt><trkpt lat="36.710365980143024" lon="14.782514368719383"><ele>4.666666666666667</ele><time>2026-04-11T16:32:10.001Z</time></trkpt><trkpt lat="36.71040816706095" lon="14.78242768477604"><ele>4.5</ele><time>2026-04-11T16:32:54Z</time></trkpt><trkpt lat="36.71039222601218" lon="14.782331195066552"><ele>4.333333333333333</ele><time>2026-04-11T16:32:56Z</time></trkpt><trkpt lat="36.710428238275036" lon="14.782254643751923"><ele>4.166666666666666</ele><time>2026-04-11T16:32:59Z</time></trkpt><trkpt lat="36.71049273202256" lon="14.782261826178443"><ele>4.0</ele><time>2026-04-11T16:33:20Z</time></trkpt><trkpt lat="36.71048092732655" lon="14.781984815167052"><ele>4.0</ele><time>2026-04-11T16:33:26Z</time></trkpt><trkpt lat="36.71050458360319" lon="14.781868185403944"><ele>4.0</ele><time>2026-04-11T16:33:28Z</time></trkpt><trkpt lat="36.71053645014895" lon="14.781725115156739"><ele>4.0</ele><time>2026-04-11T16:33:30Z</time></trkpt><trkpt lat="36.710553685254176" lon="14.781647734980547"><ele>4.0</ele><time>2026-04-11T16:33:31Z</time></trkpt><trkpt lat="36.710574716698794" lon="14.781550197072827"><ele>4.0</ele><time>2026-04-11T16:33:32Z</time></trkpt><trkpt lat="36.7106000393607" lon="14.781431039010519"><ele>3.9999999999999996</ele><time>2026-04-11T16:33:33Z</time></trkpt><trkpt lat="36.7106290237929" lon="14.78129574602975"><ele>4.0</ele><time>2026-04-11T16:33:34Z</time></trkpt><trkpt lat="36.710655355755605" lon="14.781183477617805"><ele>4.0</ele><time>2026-04-11T16:33:35Z</time></trkpt><trkpt lat="36.71068133896657" lon="14.781083221340548"><ele>4.0</ele><time>2026-04-11T16:33:36Z</time></trkpt><trkpt lat="36.71070882660564" lon="14.780999348119764"><ele>3.9999999999999996</ele><time>2026-04-11T16:33:37Z</time></trkpt><trkpt lat="36.71075054743012" lon="14.780917575788578"><ele>4.0</ele><time>2026-04-11T16:33:38Z</time></trkpt><trkpt lat="36.710823641323714" lon="14.780857901437793"><ele>4.0</ele><time>2026-04-11T16:33:39Z</time></trkpt><trkpt lat="36.710933347983705" lon="14.780870490743014"><ele>4.0</ele><time>2026-04-11T16:33:40Z</time></trkpt><trkpt lat="36.71104516828674" lon="14.78085305153656"><ele>4.0</ele><time>2026-04-11T16:33:41Z</time></trkpt><trkpt lat="36.71114999641303" lon="14.780839268348048"><ele>4.0</ele><time>2026-04-11T16:33:42Z</time></trkpt><trkpt lat="36.71125007770303" lon="14.78082115585939"><ele>4.0</ele><time>2026-04-11T16:33:43.001Z</time></trkpt><trkpt lat="36.71135348849845" lon="14.780802790498607"><ele>3.75</ele><time>2026-04-11T16:33:44.001Z</time></trkpt><trkpt lat="36.71146340809274" lon="14.78079037153327"><ele>3.5</ele><time>2026-04-11T16:33:45.001Z</time></trkpt><trkpt lat="36.71157660075867" lon="14.780781340591155"><ele>3.25</ele><time>2026-04-11T16:33:46.001Z</time></trkpt><trkpt lat="36.711696728888185" lon="14.780762149274189"><ele>3.0</ele><time>2026-04-11T16:33:47.001Z</time></trkpt><trkpt lat="36.71183003338693" lon="14.780737646463791"><ele>3.333333333333333</ele><time>2026-04-11T16:33:48.001Z</time></trkpt><trkpt lat="36.71198502292082" lon="14.780713346089323"><ele>3.6666666666666665</ele><time>2026-04-11T16:33:49.001Z</time></trkpt><trkpt lat="36.712150184413076" lon="14.780694143955273"><ele>4.0</ele><time>2026-04-11T16:33:50.001Z</time></trkpt><trkpt lat="36.712315738743335" lon="14.780681279770246"><ele>4.0</ele><time>2026-04-11T16:33:51.001Z</time></trkpt><trkpt lat="36.71246329134512" lon="14.780657176736181"><ele>4.0</ele><time>2026-04-11T16:33:52.001Z</time></trkpt><trkpt lat="36.71259895281016" lon="14.780637706263908"><ele>4.0</ele><time>2026-04-11T16:33:53.001Z</time></trkpt><trkpt lat="36.712722868885656" lon="14.780623465599016"><ele>4.0</ele><time>2026-04-11T16:33:54.001Z</time></trkpt><trkpt lat="36.712837256814275" lon="14.780603804655223"><ele>4.800000000000001</ele><time>2026-04-11T16:33:55.001Z</time></trkpt><trkpt lat="36.712951927408874" lon="14.780592194146271"><ele>5.6000000000000005</ele><time>2026-04-11T16:33:56.001Z</time></trkpt><trkpt lat="36.71305826013693" lon="14.780548411169024"><ele>6.4</ele><time>2026-04-11T16:33:57.001Z</time></trkpt><trkpt lat="36.71315930016599" lon="14.7804983565251"><ele>7.2</ele><time>2026-04-11T16:33:58Z</time></trkpt><trkpt lat="36.71325979117869" lon="14.78044447234529"><ele>8.0</ele><time>2026-04-11T16:33:59Z</time></trkpt><trkpt lat="36.71336404585351" lon="14.780388570046714"><ele>7.999999999999999</ele><time>2026-04-11T16:34:00Z</time></trkpt><trkpt lat="36.71345269891681" lon="14.780339252959232"><ele>8.0</ele><time>2026-04-11T16:34:01Z</time></trkpt><trkpt lat="36.713510426919036" lon="14.780307073067174"><ele>8.0</ele><time>2026-04-11T16:34:02Z</time></trkpt><trkpt lat="36.71358522239451" lon="14.780283086248179"><ele>8.0</ele><time>2026-04-11T16:34:04Z</time></trkpt><trkpt lat="36.71361581439141" lon="14.780364355176056"><ele>7.999999999999999</ele><time>2026-04-11T16:34:08Z</time></trkpt><trkpt lat="36.71368098763343" lon="14.780488563604528"><ele>8.0</ele><time>2026-04-11T16:34:09Z</time></trkpt><trkpt lat="36.71372371185005" lon="14.780575175357898"><ele>8.666666666666666</ele><time>2026-04-11T16:34:10Z</time></trkpt><trkpt lat="36.71376314067149" lon="14.780655106658033"><ele>9.333333333333332</ele><time>2026-04-11T16:34:11Z</time></trkpt><trkpt lat="36.71380194085877" lon="14.780737166098278"><ele>10.0</ele><time>2026-04-11T16:34:12Z</time></trkpt><trkpt lat="36.713835289507124" lon="14.780809891106152"><ele>10.666666666666666</ele><time>2026-04-11T16:34:13Z</time></trkpt><trkpt lat="36.713888910690585" lon="14.780926825714257"><ele>11.333333333333334</ele><time>2026-04-11T16:34:15Z</time></trkpt><trkpt lat="36.71396625278963" lon="14.780854191831295"><ele>12.0</ele><time>2026-04-11T16:34:16Z</time></trkpt><trkpt lat="36.714027097265244" lon="14.780809202366912"><ele>12.0</ele><time>2026-04-11T16:34:17Z</time></trkpt><trkpt lat="36.71412828626406" lon="14.780750712114438"><ele>12.0</ele><time>2026-04-11T16:34:18Z</time></trkpt><trkpt lat="36.71421531418197" lon="14.780703278822335"><ele>12.0</ele><time>2026-04-11T16:34:19Z</time></trkpt><trkpt lat="36.71427750770845" lon="14.780669381132324"><ele>12.0</ele><time>2026-04-11T16:34:20Z</time></trkpt><trkpt lat="36.714357763982605" lon="14.78062563838227"><ele>12.0</ele><time>2026-04-11T16:34:22Z</time></trkpt><trkpt lat="36.714424275738324" lon="14.780878122243546"><ele>12.25</ele><time>2026-04-11T16:34:25Z</time></trkpt><trkpt lat="36.71448671640836" lon="14.781017643181036"><ele>12.5</ele><time>2026-04-11T16:34:26Z</time></trkpt><trkpt lat="36.71453415154092" lon="14.781123634852536"><ele>12.75</ele><time>2026-04-11T16:34:27Z</time></trkpt><trkpt lat="36.71459230614457" lon="14.781250470578085"><ele>13.0</ele><time>2026-04-11T16:34:28Z</time></trkpt><trkpt lat="36.7146653742947" lon="14.781409871890881"><ele>13.0</ele><time>2026-04-11T16:34:29Z</time></trkpt><trkpt lat="36.71474337749845" lon="14.781590465902767"><ele>13.0</ele><time>2026-04-11T16:34:30Z</time></trkpt><trkpt lat="36.714822144944485" lon="14.78178193912168"><ele>13.0</ele><time>2026-04-11T16:34:31Z</time></trkpt><trkpt lat="36.714896329485335" lon="14.781964934706943"><ele>12.75</ele><time>2026-04-11T16:34:32Z</time></trkpt><trkpt lat="36.714963055629966" lon="14.78212720584671"><ele>12.5</ele><time>2026-04-11T16:34:33Z</time></trkpt><trkpt lat="36.71502428803807" lon="14.782281863603673"><ele>12.25</ele><time>2026-04-11T16:34:34Z</time></trkpt><trkpt lat="36.71508488944145" lon="14.782434927559775"><ele>12.0</ele><time>2026-04-11T16:34:35Z</time></trkpt><trkpt lat="36.71514445045731" lon="14.782585363770538"><ele>11.8</ele><time>2026-04-11T16:34:36Z</time></trkpt><trkpt lat="36.71519514405939" lon="14.782713403136583"><ele>11.6</ele><time>2026-04-11T16:34:37Z</time></trkpt><trkpt lat="36.71527783286531" lon="14.782792193174132"><ele>11.4</ele><time>2026-04-11T16:34:38Z</time></trkpt><trkpt lat="36.71530751739671" lon="14.782867161792842"><ele>11.200000000000001</ele><time>2026-04-11T16:34:39Z</time></trkpt><trkpt lat="36.71537436774318" lon="14.782939226177433"><ele>11.0</ele><time>2026-04-11T16:34:41Z</time></trkpt><trkpt lat="36.7154340182974" lon="14.782841536230306"><ele>12.200000000000001</ele><time>2026-04-11T16:34:43Z</time></trkpt><trkpt lat="36.71549645909936" lon="14.782803073041231"><ele>13.4</ele><time>2026-04-11T16:34:50Z</time></trkpt><trkpt lat="36.715433368976385" lon="14.782769488528281"><ele>14.6</ele><time>2026-04-11T16:34:51Z</time></trkpt><trkpt lat="36.71539492613835" lon="14.782636513449715"><ele>15.8</ele><time>2026-04-11T16:34:52Z</time></trkpt><trkpt lat="36.71536578134544" lon="14.782492075482342"><ele>17.0</ele><time>2026-04-11T16:34:53Z</time></trkpt><trkpt lat="36.715357042410936" lon="14.782328054400264"><ele>17.2</ele><time>2026-04-11T16:34:54Z</time></trkpt><trkpt lat="36.71535747240371" lon="14.782206456411375"><ele>17.4</ele><time>2026-04-11T16:34:55Z</time></trkpt><trkpt lat="36.71536185419407" lon="14.782092264381651"><ele>17.6</ele><time>2026-04-11T16:34:56Z</time></trkpt><trkpt lat="36.71537094589277" lon="14.781988868581458"><ele>17.8</ele><time>2026-04-11T16:34:57Z</time></trkpt><trkpt lat="36.715384550648906" lon="14.781845023423324"><ele>18.0</ele><time>2026-04-11T16:34:58Z</time></trkpt><trkpt lat="36.71539907031952" lon="14.78172175936282"><ele>18.2</ele><time>2026-04-11T16:34:59Z</time></trkpt><trkpt lat="36.71540975058919" lon="14.781599774231797"><ele>18.4</ele><time>2026-04-11T16:35:00Z</time></trkpt><trkpt lat="36.71541334159852" lon="14.781479983883617"><ele>18.599999999999998</ele><time>2026-04-11T16:35:01Z</time></trkpt><trkpt lat="36.71540523507808" lon="14.781377209538524"><ele>18.8</ele><time>2026-04-11T16:35:02Z</time></trkpt><trkpt lat="36.71538625112383" lon="14.781265697718482"><ele>19.0</ele><time>2026-04-11T16:35:03Z</time></trkpt><trkpt lat="36.71535845414521" lon="14.781140950765144"><ele>19.6</ele><time>2026-04-11T16:35:04Z</time></trkpt><trkpt lat="36.71532588366772" lon="14.781012280734089"><ele>20.2</ele><time>2026-04-11T16:35:05Z</time></trkpt><trkpt lat="36.71528870708437" lon="14.780898046412986"><ele>20.8</ele><time>2026-04-11T16:35:06Z</time></trkpt><trkpt lat="36.7152543501006" lon="14.780799238645756"><ele>21.400000000000002</ele><time>2026-04-11T16:35:07Z</time></trkpt><trkpt lat="36.71521666359394" lon="14.780697172726423"><ele>22.0</ele><time>2026-04-11T16:35:08Z</time></trkpt><trkpt lat="36.715177308882325" lon="14.780590588776022"><ele>21.200000000000003</ele><time>2026-04-11T16:35:09Z</time></trkpt><trkpt lat="36.71513735524538" lon="14.780482382769396"><ele>20.400000000000002</ele><time>2026-04-11T16:35:10Z</time></trkpt><trkpt lat="36.71509869768879" lon="14.780377686941286"><ele>19.6</ele><time>2026-04-11T16:35:11Z</time></trkpt><trkpt lat="36.71506083216923" lon="14.780274028741005"><ele>18.8</ele><time>2026-04-11T16:35:12Z</time></trkpt><trkpt lat="36.71502341143823" lon="14.780168445380603"><ele>18.0</ele><time>2026-04-11T16:35:13Z</time></trkpt><trkpt lat="36.71498797012472" lon="14.780068574453507"><ele>18.0</ele><time>2026-04-11T16:35:14Z</time></trkpt><trkpt lat="36.71495345519602" lon="14.779971294942703"><ele>18.0</ele><time>2026-04-11T16:35:15Z</time></trkpt><trkpt lat="36.71491865593627" lon="14.77987321397375"><ele>18.0</ele><time>2026-04-11T16:35:16Z</time></trkpt><trkpt lat="36.71488433296305" lon="14.779776475455353"><ele>18.0</ele><time>2026-04-11T16:35:17Z</time></trkpt><trkpt lat="36.714849076933696" lon="14.779680211056089"><ele>18.0</ele><time>2026-04-11T16:35:18Z</time></trkpt><trkpt lat="36.71481294802274" lon="14.779582546961036"><ele>18.0</ele><time>2026-04-11T16:35:19Z</time></trkpt><trkpt lat="36.71477706191476" lon="14.779485538954912"><ele>18.0</ele><time>2026-04-11T16:35:20Z</time></trkpt><trkpt lat="36.71474318876817" lon="14.77939765197526"><ele>18.0</ele><time>2026-04-11T16:35:21Z</time></trkpt><trkpt lat="36.714715872305405" lon="14.779326184422715"><ele>18.0</ele><time>2026-04-11T16:35:22Z</time></trkpt><trkpt lat="36.71466395680929" lon="14.779187520057864"><ele>18.0</ele><time>2026-04-11T16:35:23Z</time></trkpt><trkpt lat="36.7146353516912" lon="14.779110840935168"><ele>18.0</ele><time>2026-04-11T16:35:24Z</time></trkpt><trkpt lat="36.71460546274602" lon="14.779030720283403"><ele>18.0</ele><time>2026-04-11T16:35:25Z</time></trkpt><trkpt lat="36.71457498140632" lon="14.77894901167121"><ele>18.333333333333332</ele><time>2026-04-11T16:35:26Z</time></trkpt><trkpt lat="36.714546929935636" lon="14.77887381636006"><ele>18.666666666666668</ele><time>2026-04-11T16:35:27Z</time></trkpt><trkpt lat="36.71456628374614" lon="14.77872290479842"><ele>19.0</ele><time>2026-04-11T16:35:28Z</time></trkpt><trkpt lat="36.71457010370488" lon="14.7786216314173"><ele>19.333333333333336</ele><time>2026-04-11T16:35:29Z</time></trkpt><trkpt lat="36.71457107347951" lon="14.778529607975457"><ele>19.666666666666668</ele><time>2026-04-11T16:35:30Z</time></trkpt><trkpt lat="36.714572104682595" lon="14.778436565298172"><ele>20.0</ele><time>2026-04-11T16:35:31Z</time></trkpt><trkpt lat="36.7145724814137" lon="14.77834210301994"><ele>20.142857142857142</ele><time>2026-04-11T16:35:32Z</time></trkpt><trkpt lat="36.71457275906156" lon="14.778248864683707"><ele>20.285714285714285</ele><time>2026-04-11T16:35:33Z</time></trkpt><trkpt lat="36.71457305512899" lon="14.778149440802494"><ele>20.42857142857143</ele><time>2026-04-11T16:35:34Z</time></trkpt><trkpt lat="36.7145733335954" lon="14.778055927526449"><ele>20.57142857142857</ele><time>2026-04-11T16:35:35Z</time></trkpt><trkpt lat="36.71457362126817" lon="14.777959322708"><ele>20.714285714285715</ele><time>2026-04-11T16:35:36Z</time></trkpt><trkpt lat="36.714573859339744" lon="14.777879374666117"><ele>20.857142857142858</ele><time>2026-04-11T16:35:37Z</time></trkpt><trkpt lat="36.71457409597945" lon="14.777799907498885"><ele>21.0</ele><time>2026-04-11T16:35:38Z</time></trkpt><trkpt lat="36.71457438101781" lon="14.777704187222302"><ele>21.166666666666668</ele><time>2026-04-11T16:35:39Z</time></trkpt><trkpt lat="36.71457464055478" lon="14.777617030860362"><ele>21.333333333333332</ele><time>2026-04-11T16:35:40Z</time></trkpt><trkpt lat="36.71457491100716" lon="14.777526208695557"><ele>21.5</ele><time>2026-04-11T16:35:41Z</time></trkpt><trkpt lat="36.71457538322733" lon="14.777367630135194"><ele>21.666666666666664</ele><time>2026-04-11T16:35:43Z</time></trkpt><trkpt lat="36.71457562371061" lon="14.777286872209425"><ele>21.833333333333332</ele><time>2026-04-11T16:35:44Z</time></trkpt><trkpt lat="36.71457602151737" lon="14.777153282443118"><ele>22.0</ele><time>2026-04-11T16:35:46Z</time></trkpt><trkpt lat="36.71457643311095" lon="14.77701506326933"><ele>22.0</ele><time>2026-04-11T16:35:48Z</time></trkpt><trkpt lat="36.71457679990134" lon="14.776891889235815"><ele>22.0</ele><time>2026-04-11T16:35:50.001Z</time></trkpt><trkpt lat="36.714577198173565" lon="14.776758143229491"><ele>22.0</ele><time>2026-04-11T16:35:52.001Z</time></trkpt><trkpt lat="36.71457760025676" lon="14.776623117737858"><ele>22.0</ele><time>2026-04-11T16:35:54.001Z</time></trkpt><trkpt lat="36.71457773247517" lon="14.77653461146565"><ele>22.0</ele><time>2026-04-11T16:35:55.001Z</time></trkpt><trkpt lat="36.71457787174415" lon="14.776424588874294"><ele>22.166666666666664</ele><time>2026-04-11T16:35:56.001Z</time></trkpt><trkpt lat="36.71457801024722" lon="14.776315171541837"><ele>22.333333333333332</ele><time>2026-04-11T16:35:57.001Z</time></trkpt><trkpt lat="36.71457815914961" lon="14.776197538058646"><ele>22.5</ele><time>2026-04-11T16:35:58.001Z</time></trkpt><trkpt lat="36.71457828293447" lon="14.77609974821798"><ele>22.666666666666668</ele><time>2026-04-11T16:35:59.001Z</time></trkpt><trkpt lat="36.71457839119786" lon="14.776014219738551"><ele>22.833333333333336</ele><time>2026-04-11T16:36:00.001Z</time></trkpt><trkpt lat="36.71457849187129" lon="14.775934687038037"><ele>23.0</ele><time>2026-04-11T16:36:01.001Z</time></trkpt><trkpt lat="36.714578529704525" lon="14.77580043684343"><ele>23.2</ele><time>2026-04-11T16:36:03.001Z</time></trkpt><trkpt lat="36.714577952088185" lon="14.775686588744989"><ele>23.4</ele><time>2026-04-11T16:36:05.001Z</time></trkpt><trkpt lat="36.71453178604094" lon="14.775593973623302"><ele>23.599999999999998</ele><time>2026-04-11T16:36:09Z</time></trkpt><trkpt lat="36.71445001085016" lon="14.775562308911475"><ele>23.799999999999997</ele><time>2026-04-11T16:36:11Z</time></trkpt><trkpt lat="36.71436303131793" lon="14.775519429350606"><ele>24.0</ele><time>2026-04-11T16:36:13Z</time></trkpt><trkpt lat="36.7142755692462" lon="14.77547635784927"><ele>24.0</ele><time>2026-04-11T16:36:15Z</time></trkpt><trkpt lat="36.714180515100715" lon="14.7754407181259"><ele>24.0</ele><time>2026-04-11T16:36:17Z</time></trkpt><trkpt lat="36.71410425538462" lon="14.77540330624444"><ele>24.0</ele><time>2026-04-11T16:36:19Z</time></trkpt><trkpt lat="36.71402253712416" lon="14.775376514005785"><ele>24.0</ele><time>2026-04-11T16:36:21Z</time></trkpt><trkpt lat="36.71394548927618" lon="14.775357977893142"><ele>24.0</ele><time>2026-04-11T16:36:23Z</time></trkpt><trkpt lat="36.713878271591064" lon="14.775320928909059"><ele>24.0</ele><time>2026-04-11T16:36:26Z</time></trkpt><trkpt lat="36.71384734668939" lon="14.775152711861853"><ele>24.0</ele><time>2026-04-11T16:36:27Z</time></trkpt><trkpt lat="36.713885986519664" lon="14.775007424581627"><ele>24.0</ele><time>2026-04-11T16:36:29Z</time></trkpt><trkpt lat="36.71390934047007" lon="14.774924550655877"><ele>24.0</ele><time>2026-04-11T16:36:31Z</time></trkpt><trkpt lat="36.71393108010518" lon="14.774847405273487"><ele>24.0</ele><time>2026-04-11T16:36:33Z</time></trkpt><trkpt lat="36.71395238523921" lon="14.774771801754142"><ele>24.0</ele><time>2026-04-11T16:36:35Z</time></trkpt><trkpt lat="36.71398629806799" lon="14.774651458505172"><ele>24.0</ele><time>2026-04-11T16:36:37Z</time></trkpt><trkpt lat="36.714006063422346" lon="14.774575002423765"><ele>24.0</ele><time>2026-04-11T16:36:38Z</time></trkpt><trkpt lat="36.714029588944555" lon="14.774464570694702"><ele>24.0</ele><time>2026-04-11T16:36:39Z</time></trkpt><trkpt lat="36.71404060005509" lon="14.774366475518727"><ele>24.0</ele><time>2026-04-11T16:36:40Z</time></trkpt><trkpt lat="36.71403534109603" lon="14.77427165368547"><ele>24.0</ele><time>2026-04-11T16:36:41Z</time></trkpt><trkpt lat="36.71403097380297" lon="14.774168852234975"><ele>24.0</ele><time>2026-04-11T16:36:42Z</time></trkpt><trkpt lat="36.71402545687279" lon="14.774053574064608"><ele>24.0</ele><time>2026-04-11T16:36:43Z</time></trkpt><trkpt lat="36.71401733954646" lon="14.773891474334453"><ele>23.75</ele><time>2026-04-11T16:36:44Z</time></trkpt><trkpt lat="36.71400890105855" lon="14.773724934594782"><ele>23.5</ele><time>2026-04-11T16:36:45Z</time></trkpt><trkpt lat="36.71400070209723" lon="14.773563122082146"><ele>23.25</ele><time>2026-04-11T16:36:46Z</time></trkpt><trkpt lat="36.713993144375785" lon="14.773413964877466"><ele>23.0</ele><time>2026-04-11T16:36:47Z</time></trkpt><trkpt lat="36.71398695659158" lon="14.773301704866705"><ele>23.4</ele><time>2026-04-11T16:36:48Z</time></trkpt><trkpt lat="36.71398145762626" lon="14.773208411111538"><ele>23.799999999999997</ele><time>2026-04-11T16:36:49Z</time></trkpt><trkpt lat="36.71397332334752" lon="14.773070407521258"><ele>24.2</ele><time>2026-04-11T16:36:51Z</time></trkpt><trkpt lat="36.71396377226429" lon="14.772893986933232"><ele>24.6</ele><time>2026-04-11T16:36:59Z</time></trkpt><trkpt lat="36.71395691677427" lon="14.772762138296187"><ele>25.0</ele><time>2026-04-11T16:37:00Z</time></trkpt><trkpt lat="36.71394876701306" lon="14.77260539756693"><ele>25.25</ele><time>2026-04-11T16:37:01Z</time></trkpt><trkpt lat="36.71394146448277" lon="14.77245277013157"><ele>25.5</ele><time>2026-04-11T16:37:02Z</time></trkpt><trkpt lat="36.71393436802757" lon="14.772286027847606"><ele>25.75</ele><time>2026-04-11T16:37:03Z</time></trkpt><trkpt lat="36.713927881961965" lon="14.772133627659624"><ele>26.0</ele><time>2026-04-11T16:37:04Z</time></trkpt><trkpt lat="36.71392181471548" lon="14.771991068268159"><ele>25.25</ele><time>2026-04-11T16:37:05Z</time></trkpt><trkpt lat="36.71391508861208" lon="14.77183415850233"><ele>24.5</ele><time>2026-04-11T16:37:06Z</time></trkpt><trkpt lat="36.713906033054734" lon="14.771665484934186"><ele>23.75</ele><time>2026-04-11T16:37:07Z</time></trkpt><trkpt lat="36.71389717605314" lon="14.771500509789238"><ele>23.0</ele><time>2026-04-11T16:37:08Z</time></trkpt><trkpt lat="36.713888978708425" lon="14.771347821768101"><ele>23.0</ele><time>2026-04-11T16:37:09Z</time></trkpt><trkpt lat="36.71388012553301" lon="14.771182917889462"><ele>23.0</ele><time>2026-04-11T16:37:10Z</time></trkpt><trkpt lat="36.7138716410673" lon="14.771024881785321"><ele>23.0</ele><time>2026-04-11T16:37:11Z</time></trkpt><trkpt lat="36.71386406105377" lon="14.770883692436598"><ele>23.0</ele><time>2026-04-11T16:37:12Z</time></trkpt><trkpt lat="36.71385708230109" lon="14.770753702566589"><ele>22.833333333333336</ele><time>2026-04-11T16:37:13Z</time></trkpt><trkpt lat="36.71385094025486" lon="14.77063929756224"><ele>22.666666666666668</ele><time>2026-04-11T16:37:14Z</time></trkpt><trkpt lat="36.71384568002554" lon="14.770529261727626"><ele>22.5</ele><time>2026-04-11T16:37:15Z</time></trkpt><trkpt lat="36.71384105613146" lon="14.770429334273695"><ele>22.333333333333332</ele><time>2026-04-11T16:37:16Z</time></trkpt><trkpt lat="36.71383736813719" lon="14.770345420112035"><ele>22.166666666666664</ele><time>2026-04-11T16:37:17Z</time></trkpt><trkpt lat="36.713832038950954" lon="14.770215814317778"><ele>22.0</ele><time>2026-04-11T16:37:19Z</time></trkpt><trkpt lat="36.71382795926954" lon="14.770116596039959"><ele>21.75</ele><time>2026-04-11T16:37:22Z</time></trkpt><trkpt lat="36.71382465704501" lon="14.7700362855356"><ele>21.5</ele><time>2026-04-11T16:37:29Z</time></trkpt><trkpt lat="36.7136800170069" lon="14.769988531356878"><ele>21.25</ele><time>2026-04-11T16:37:32Z</time></trkpt><trkpt lat="36.71355063313256" lon="14.770014556214116"><ele>21.0</ele><time>2026-04-11T16:37:33Z</time></trkpt><trkpt lat="36.71338866825745" lon="14.770044554356657"><ele>19.666666666666668</ele><time>2026-04-11T16:37:34Z</time></trkpt><trkpt lat="36.713205857553234" lon="14.770063215559407"><ele>18.333333333333336</ele><time>2026-04-11T16:37:35Z</time></trkpt><trkpt lat="36.71303436070112" lon="14.770068336368901"><ele>17.0</ele><time>2026-04-11T16:37:36Z</time></trkpt><trkpt lat="36.71288540143809" lon="14.770078648537538"><ele>17.0</ele><time>2026-04-11T16:37:37Z</time></trkpt><trkpt lat="36.71274578664573" lon="14.770090471774504"><ele>17.0</ele><time>2026-04-11T16:37:38Z</time></trkpt><trkpt lat="36.71261296407608" lon="14.770110317620807"><ele>17.0</ele><time>2026-04-11T16:37:39Z</time></trkpt><trkpt lat="36.712489864312566" lon="14.770133539797483"><ele>17.0</ele><time>2026-04-11T16:37:40Z</time></trkpt><trkpt lat="36.71237018499209" lon="14.770125430337853"><ele>16.2</ele><time>2026-04-11T16:37:41Z</time></trkpt><trkpt lat="36.712257588340606" lon="14.770131179895186"><ele>15.399999999999999</ele><time>2026-04-11T16:37:42Z</time></trkpt><trkpt lat="36.71216202988606" lon="14.770140228749646"><ele>14.600000000000001</ele><time>2026-04-11T16:37:43Z</time></trkpt><trkpt lat="36.71208789422713" lon="14.770147248985205"><ele>13.8</ele><time>2026-04-11T16:37:44Z</time></trkpt><trkpt lat="36.712004847488515" lon="14.770155113046894"><ele>13.0</ele><time>2026-04-11T16:37:45Z</time></trkpt><trkpt lat="36.711905910594965" lon="14.770164481871296"><ele>12.333333333333332</ele><time>2026-04-11T16:37:46Z</time></trkpt><trkpt lat="36.71180444917079" lon="14.770171353265013"><ele>11.666666666666666</ele><time>2026-04-11T16:37:47Z</time></trkpt><trkpt lat="36.711713375719114" lon="14.770178855823843"><ele>11.0</ele><time>2026-04-11T16:37:48Z</time></trkpt><trkpt lat="36.71164572916419" lon="14.770184428496663"><ele>10.333333333333332</ele><time>2026-04-11T16:37:49Z</time></trkpt><trkpt lat="36.71156751704384" lon="14.770190871550398"><ele>9.666666666666666</ele><time>2026-04-11T16:37:51Z</time></trkpt><trkpt lat="36.71150381346788" lon="14.770196119407073"><ele>9.0</ele><time>2026-04-11T16:37:54Z</time></trkpt><trkpt lat="36.71143033318624" lon="14.770121378285776"><ele>8.833333333333334</ele><time>2026-04-11T16:37:57.001Z</time></trkpt><trkpt lat="36.71142611821385" lon="14.770037235626612"><ele>8.666666666666666</ele><time>2026-04-11T16:37:59.001Z</time></trkpt><trkpt lat="36.711421739267884" lon="14.769949819597164"><ele>8.5</ele><time>2026-04-11T16:38:00.001Z</time></trkpt><trkpt lat="36.711415802954086" lon="14.769831314211261"><ele>8.333333333333332</ele><time>2026-04-11T16:38:01.001Z</time></trkpt><trkpt lat="36.711409290702456" lon="14.769703159618127"><ele>8.166666666666666</ele><time>2026-04-11T16:38:02.001Z</time></trkpt><trkpt lat="36.711402842465894" lon="14.769578298328158"><ele>8.0</ele><time>2026-04-11T16:38:03.001Z</time></trkpt><trkpt lat="36.71139792474325" lon="14.76948307330478"><ele>7.999999999999999</ele><time>2026-04-11T16:38:04.001Z</time></trkpt><trkpt lat="36.71139379416817" lon="14.769403090330567"><ele>8.0</ele><time>2026-04-11T16:38:05.001Z</time></trkpt><trkpt lat="36.71138654966318" lon="14.769262810332703"><ele>8.0</ele><time>2026-04-11T16:38:07.001Z</time></trkpt><trkpt lat="36.71138230892034" lon="14.769180694132814"><ele>8.0</ele><time>2026-04-11T16:38:08.001Z</time></trkpt><trkpt lat="36.7113775731525" lon="14.769088992433332"><ele>7.999999999999999</ele><time>2026-04-11T16:38:09.001Z</time></trkpt><trkpt lat="36.71137121991693" lon="14.768965970704357"><ele>8.0</ele><time>2026-04-11T16:38:11.001Z</time></trkpt><trkpt lat="36.71130574675481" lon="14.768860599194076"><ele>8.0</ele><time>2026-04-11T16:38:15Z</time></trkpt><trkpt lat="36.71121138831494" lon="14.768872116667547"><ele>8.0</ele><time>2026-04-11T16:38:17Z</time></trkpt><trkpt lat="36.71114317240372" lon="14.768877025004977"><ele>8.0</ele><time>2026-04-11T16:38:19Z</time></trkpt><trkpt lat="36.71107505520289" lon="14.768910872902525"><ele>8.0</ele><time>2026-04-11T16:38:21Z</time></trkpt><trkpt lat="36.71099167549614" lon="14.76881792223863"><ele>8.0</ele><time>2026-04-11T16:38:23Z</time></trkpt><trkpt lat="36.710991878045135" lon="14.768681243462812"><ele>7.0</ele><time>2026-04-11T16:38:24Z</time></trkpt><trkpt lat="36.710995279263166" lon="14.76854075044855"><ele>6.000000000000001</ele><time>2026-04-11T16:38:25Z</time></trkpt><trkpt lat="36.71099866312965" lon="14.768400974215236"><ele>5.0</ele><time>2026-04-11T16:38:26Z</time></trkpt><trkpt lat="36.71099281614492" lon="14.768275305698252"><ele>4.0</ele><time>2026-04-11T16:38:27Z</time></trkpt><trkpt lat="36.710985602010666" lon="14.76816709303275"><ele>3.0</ele><time>2026-04-11T16:38:28Z</time></trkpt><trkpt lat="36.71104643647817" lon="14.768043393803394"><ele>2.8</ele><time>2026-04-11T16:38:29Z</time></trkpt><trkpt lat="36.71102479343224" lon="14.767922626692929"><ele>2.5999999999999996</ele><time>2026-04-11T16:38:30Z</time></trkpt><trkpt lat="36.71101795769828" lon="14.767790198574515"><ele>2.4000000000000004</ele><time>2026-04-11T16:38:31Z</time></trkpt><trkpt lat="36.711016737560044" lon="14.767659768091946"><ele>2.2</ele><time>2026-04-11T16:38:32Z</time></trkpt><trkpt lat="36.71094711437176" lon="14.767516442512287"><ele>2.0</ele><time>2026-04-11T16:38:33Z</time></trkpt><trkpt lat="36.71094794166613" lon="14.767358780616606"><ele>2.0</ele><time>2026-04-11T16:38:34Z</time></trkpt><trkpt lat="36.71094794166578" lon="14.767204051389768"><ele>2.0</ele><time>2026-04-11T16:38:35Z</time></trkpt><trkpt lat="36.710947941668465" lon="14.767081287490257"><ele>2.0</ele><time>2026-04-11T16:38:36Z</time></trkpt><trkpt lat="36.71094444812523" lon="14.766958735896372"><ele>2.0</ele><time>2026-04-11T16:38:37Z</time></trkpt><trkpt lat="36.71093164156426" lon="14.766835537543859"><ele>2.0</ele><time>2026-04-11T16:38:38Z</time></trkpt><trkpt lat="36.710929641671015" lon="14.766679824366939"><ele>1.6</ele><time>2026-04-11T16:38:39Z</time></trkpt><trkpt lat="36.710929641673324" lon="14.76654253631468"><ele>1.2000000000000002</ele><time>2026-04-11T16:38:40Z</time></trkpt><trkpt lat="36.710929752087914" lon="14.766425177549927"><ele>0.8</ele><time>2026-04-11T16:38:41Z</time></trkpt><trkpt lat="36.710924894262895" lon="14.766318595214077"><ele>0.4</ele><time>2026-04-11T16:38:42Z</time></trkpt><trkpt lat="36.710917959475466" lon="14.766203653402032"><ele>0.0</ele><time>2026-04-11T16:38:43Z</time></trkpt><trkpt lat="36.71090935440485" lon="14.766075151021198"><ele>0.4</ele><time>2026-04-11T16:38:44Z</time></trkpt><trkpt lat="36.710902412363986" lon="14.765954850601618"><ele>0.8</ele><time>2026-04-11T16:38:45Z</time></trkpt><trkpt lat="36.71089603945478" lon="14.765829755042644"><ele>1.2000000000000002</ele><time>2026-04-11T16:38:46Z</time></trkpt><trkpt lat="36.7108896983838" lon="14.765705284443895"><ele>1.6</ele><time>2026-04-11T16:38:47Z</time></trkpt><trkpt lat="36.71088408417892" lon="14.76557054291905"><ele>2.0</ele><time>2026-04-11T16:38:48Z</time></trkpt><trkpt lat="36.710880671199874" lon="14.765444653798346"><ele>1.9999999999999998</ele><time>2026-04-11T16:38:49Z</time></trkpt><trkpt lat="36.7108776367067" lon="14.76533272523233"><ele>2.0</ele><time>2026-04-11T16:38:50Z</time></trkpt><trkpt lat="36.710874762870354" lon="14.765241344005057"><ele>2.0</ele><time>2026-04-11T16:38:51Z</time></trkpt><trkpt lat="36.710870866842605" lon="14.765147172817846"><ele>2.0</ele><time>2026-04-11T16:38:52Z</time></trkpt><trkpt lat="36.71086617988552" lon="14.765033883715738"><ele>1.9999999999999998</ele><time>2026-04-11T16:38:53Z</time></trkpt><trkpt lat="36.71082978883303" lon="14.764937051871232"><ele>2.0</ele><time>2026-04-11T16:38:54Z</time></trkpt><trkpt lat="36.71082114030007" lon="14.764825202364385"><ele>1.9999999999999998</ele><time>2026-04-11T16:38:55Z</time></trkpt><trkpt lat="36.71082573753551" lon="14.764716444591443"><ele>2.0</ele><time>2026-04-11T16:38:56Z</time></trkpt><trkpt lat="36.71082350798145" lon="14.764633618443575"><ele>2.0</ele><time>2026-04-11T16:38:57Z</time></trkpt><trkpt lat="36.71080594699469" lon="14.764502663810388"><ele>2.0</ele><time>2026-04-11T16:38:59Z</time></trkpt><trkpt lat="36.71078807239128" lon="14.7644066529805"><ele>1.9999999999999998</ele><time>2026-04-11T16:39:00Z</time></trkpt><trkpt lat="36.71077062371269" lon="14.764322273368089"><ele>2.0</ele><time>2026-04-11T16:39:01Z</time></trkpt><trkpt lat="36.71074611845116" lon="14.76423896446279"><ele>2.0</ele><time>2026-04-11T16:39:02Z</time></trkpt><trkpt lat="36.71073495648875" lon="14.764127724991324"><ele>2.0</ele><time>2026-04-11T16:39:03Z</time></trkpt><trkpt lat="36.71072348941317" lon="14.764043007455664"><ele>2.0</ele><time>2026-04-11T16:39:04Z</time></trkpt><trkpt lat="36.710681640213096" lon="14.763901708107694"><ele>2.0</ele><time>2026-04-11T16:39:06Z</time></trkpt><trkpt lat="36.71064295090548" lon="14.763787718975795"><ele>2.0</ele><time>2026-04-11T16:39:08Z</time></trkpt><trkpt lat="36.71062405110652" lon="14.7636485005835"><ele>2.0</ele><time>2026-04-11T16:39:10Z</time></trkpt><trkpt lat="36.710618212096705" lon="14.763533035798067"><ele>2.0</ele><time>2026-04-11T16:39:12Z</time></trkpt><trkpt lat="36.71060967548741" lon="14.763412905554508"><ele>2.0</ele><time>2026-04-11T16:39:14Z</time></trkpt><trkpt lat="36.710591541281026" lon="14.763273348693092"><ele>2.0</ele><time>2026-04-11T16:39:16Z</time></trkpt><trkpt lat="36.71056384856461" lon="14.76315500558153"><ele>2.0</ele><time>2026-04-11T16:39:18Z</time></trkpt><trkpt lat="36.710539652697676" lon="14.763003068938875"><ele>2.333333333333333</ele><time>2026-04-11T16:39:20Z</time></trkpt><trkpt lat="36.710504021260164" lon="14.76284778707589"><ele>2.6666666666666665</ele><time>2026-04-11T16:39:22Z</time></trkpt><trkpt lat="36.71048189731876" lon="14.762759183054074"><ele>3.0</ele><time>2026-04-11T16:39:23Z</time></trkpt><trkpt lat="36.710463575964425" lon="14.762681427901711"><ele>3.333333333333333</ele><time>2026-04-11T16:39:24Z</time></trkpt><trkpt lat="36.71044731284523" lon="14.762603707189031"><ele>3.6666666666666665</ele><time>2026-04-11T16:39:25Z</time></trkpt><trkpt lat="36.71043585870316" lon="14.762518598476069"><ele>4.0</ele><time>2026-04-11T16:39:26Z</time></trkpt><trkpt lat="36.71045691516009" lon="14.762406238031419"><ele>3.9999999999999996</ele><time>2026-04-11T16:39:27Z</time></trkpt><trkpt lat="36.71046262876752" lon="14.762324579018644"><ele>4.0</ele><time>2026-04-11T16:39:28Z</time></trkpt><trkpt lat="36.710446655512" lon="14.762211529263755"><ele>4.0</ele><time>2026-04-11T16:39:30Z</time></trkpt><trkpt lat="36.710417246241015" lon="14.762091880246047"><ele>4.0</ele><time>2026-04-11T16:39:32Z</time></trkpt><trkpt lat="36.7104081549968" lon="14.762004636229053"><ele>3.9999999999999996</ele><time>2026-04-11T16:39:33Z</time></trkpt><trkpt lat="36.710416741655756" lon="14.761913753838241"><ele>4.0</ele><time>2026-04-11T16:39:34Z</time></trkpt><trkpt lat="36.71041674165423" lon="14.761828460663038"><ele>3.9999999999999996</ele><time>2026-04-11T16:39:35Z</time></trkpt><trkpt lat="36.710416385171676" lon="14.761736286586135"><ele>4.0</ele><time>2026-04-11T16:39:36Z</time></trkpt><trkpt lat="36.71041433363191" lon="14.76159888319711"><ele>4.0</ele><time>2026-04-11T16:39:38Z</time></trkpt><trkpt lat="36.71041215667049" lon="14.761488319799811"><ele>4.0</ele><time>2026-04-11T16:39:40Z</time></trkpt><trkpt lat="36.71046590070414" lon="14.761434717316932"><ele>3.9999999999999996</ele><time>2026-04-11T16:39:41Z</time></trkpt><trkpt lat="36.71048562720567" lon="14.761348471363513"><ele>4.0</ele><time>2026-04-11T16:39:43Z</time></trkpt><trkpt lat="36.710490387609156" lon="14.761249099054544"><ele>3.9999999999999996</ele><time>2026-04-11T16:39:45Z</time></trkpt><trkpt lat="36.710505188056075" lon="14.761107000446774"><ele>4.0</ele><time>2026-04-11T16:39:47Z</time></trkpt><trkpt lat="36.71052089969825" lon="14.761022328934123"><ele>4.0</ele><time>2026-04-11T16:39:48Z</time></trkpt><trkpt lat="36.71046214319434" lon="14.760909283706102"><ele>4.0</ele><time>2026-04-11T16:39:49Z</time></trkpt><trkpt lat="36.71047515694026" lon="14.760826528470396"><ele>3.9999999999999996</ele><time>2026-04-11T16:39:50Z</time></trkpt><trkpt lat="36.7104802543664" lon="14.760746721272334"><ele>4.0</ele><time>2026-04-11T16:39:51Z</time></trkpt><trkpt lat="36.7104982206936" lon="14.760600568224643"><ele>4.2</ele><time>2026-04-11T16:39:53Z</time></trkpt><trkpt lat="36.71051540115961" lon="14.760507786010065"><ele>4.4</ele><time>2026-04-11T16:39:55Z</time></trkpt><trkpt lat="36.7105333337207" lon="14.76040916262081"><ele>4.6</ele><time>2026-04-11T16:39:57Z</time></trkpt><trkpt lat="36.71055919229774" lon="14.760295900973299"><ele>4.8</ele><time>2026-04-11T16:39:59Z</time></trkpt><trkpt lat="36.71059942364126" lon="14.760168516011873"><ele>5.0</ele><time>2026-04-11T16:40:01.001Z</time></trkpt><trkpt lat="36.71062731375071" lon="14.760060247736115"><ele>5.0</ele><time>2026-04-11T16:40:03.001Z</time></trkpt><trkpt lat="36.71063240053332" lon="14.759972938786994"><ele>5.0</ele><time>2026-04-11T16:40:06.001Z</time></trkpt><trkpt lat="36.71064333868085" lon="14.759855431712886"><ele>5.0</ele><time>2026-04-11T16:41:08Z</time></trkpt><trkpt lat="36.71066354359715" lon="14.759765045201027"><ele>5.0</ele><time>2026-04-11T16:41:09Z</time></trkpt><trkpt lat="36.71069393162119" lon="14.759635458076241"><ele>5.0</ele><time>2026-04-11T16:41:11Z</time></trkpt><trkpt lat="36.71068241498779" lon="14.759544098650736"><ele>5.0</ele><time>2026-04-11T16:41:13Z</time></trkpt><trkpt lat="36.710629322442045" lon="14.759408334472475"><ele>4.8</ele><time>2026-04-11T16:41:15Z</time></trkpt><trkpt lat="36.710610862584986" lon="14.759322208826527"><ele>4.6</ele><time>2026-04-11T16:41:16Z</time></trkpt><trkpt lat="36.71063408766726" lon="14.75916651102359"><ele>4.4</ele><time>2026-04-11T16:41:18Z</time></trkpt><trkpt lat="36.71064418215207" lon="14.759013062633466"><ele>4.2</ele><time>2026-04-11T16:41:20Z</time></trkpt><trkpt lat="36.71066567250989" lon="14.758932951655652"><ele>4.0</ele><time>2026-04-11T16:41:21Z</time></trkpt><trkpt lat="36.7106814833754" lon="14.75885439202785"><ele>3.9999999999999996</ele><time>2026-04-11T16:41:22Z</time></trkpt><trkpt lat="36.71068833619234" lon="14.758714499356886"><ele>4.0</ele><time>2026-04-11T16:41:24Z</time></trkpt><trkpt lat="36.710693248493946" lon="14.758633528543648"><ele>4.0</ele><time>2026-04-11T16:41:25Z</time></trkpt><trkpt lat="36.71069775506438" lon="14.758547502733457"><ele>4.0</ele><time>2026-04-11T16:41:26Z</time></trkpt><trkpt lat="36.71069434888947" lon="14.758468825333068"><ele>3.9999999999999996</ele><time>2026-04-11T16:41:27Z</time></trkpt><trkpt lat="36.71069502298528" lon="14.758314518303967"><ele>4.0</ele><time>2026-04-11T16:41:29Z</time></trkpt><trkpt lat="36.710708933771684" lon="14.758230342623287"><ele>4.0</ele><time>2026-04-11T16:41:30Z</time></trkpt><trkpt lat="36.710716448305256" lon="14.75814133759203"><ele>3.9999999999999996</ele><time>2026-04-11T16:41:31Z</time></trkpt><trkpt lat="36.71073075397951" lon="14.758051076017045"><ele>4.0</ele><time>2026-04-11T16:41:32Z</time></trkpt><trkpt lat="36.71075210301628" lon="14.75796256937338"><ele>4.0</ele><time>2026-04-11T16:41:33Z</time></trkpt><trkpt lat="36.710773261630166" lon="14.757880886684635"><ele>3.9999999999999996</ele><time>2026-04-11T16:41:34Z</time></trkpt><trkpt lat="36.7107961834189" lon="14.757790818437913"><ele>4.0</ele><time>2026-04-11T16:41:35Z</time></trkpt><trkpt lat="36.710822338112" lon="14.757709469691353"><ele>4.0</ele><time>2026-04-11T16:41:36Z</time></trkpt><trkpt lat="36.71086177982621" lon="14.757598010710941"><ele>3.9999999999999996</ele><time>2026-04-11T16:41:38Z</time></trkpt><trkpt lat="36.71089117043532" lon="14.757517798903233"><ele>4.0</ele><time>2026-04-11T16:41:40Z</time></trkpt><trkpt lat="36.71093636323828" lon="14.757448050754165"><ele>4.0</ele><time>2026-04-11T16:41:43Z</time></trkpt><trkpt lat="36.71097613915551" lon="14.75737871142819"><ele>4.0</ele><time>2026-04-11T16:41:45Z</time></trkpt><trkpt lat="36.71101868432101" lon="14.757304544306747"><ele>3.9999999999999996</ele><time>2026-04-11T16:41:47Z</time></trkpt><trkpt lat="36.71106923593256" lon="14.757216419901567"><ele>4.0</ele><time>2026-04-11T16:41:49Z</time></trkpt><trkpt lat="36.71123143570775" lon="14.757287561197458"><ele>4.800000000000001</ele><time>2026-04-11T16:41:50Z</time></trkpt><trkpt lat="36.711297714703655" lon="14.757200381848778"><ele>5.6000000000000005</ele><time>2026-04-11T16:41:52Z</time></trkpt><trkpt lat="36.711368424993196" lon="14.757125972197414"><ele>6.4</ele><time>2026-04-11T16:41:54Z</time></trkpt><trkpt lat="36.7114417955162" lon="14.757010936955282"><ele>7.2</ele><time>2026-04-11T16:41:56Z</time></trkpt><trkpt lat="36.71151580784888" lon="14.756959564554295"><ele>8.0</ele><time>2026-04-11T16:41:58Z</time></trkpt><trkpt lat="36.71159340209061" lon="14.756885242123147"><ele>7.800000000000001</ele><time>2026-04-11T16:42:00Z</time></trkpt><trkpt lat="36.71167855571199" lon="14.756815142539878"><ele>7.6000000000000005</ele><time>2026-04-11T16:42:02Z</time></trkpt><trkpt lat="36.71177571735391" lon="14.756771200259218"><ele>7.3999999999999995</ele><time>2026-04-11T16:42:05Z</time></trkpt><trkpt lat="36.71186612043949" lon="14.75673166862426"><ele>7.199999999999999</ele><time>2026-04-11T16:42:07.001Z</time></trkpt><trkpt lat="36.71195705006886" lon="14.75672691789529"><ele>7.0</ele><time>2026-04-11T16:42:09.001Z</time></trkpt><trkpt lat="36.71205257513028" lon="14.756725655800809"><ele>7.0</ele><time>2026-04-11T16:42:11.001Z</time></trkpt><trkpt lat="36.71215231586405" lon="14.756702698374504"><ele>6.999999999999999</ele><time>2026-04-11T16:42:13.001Z</time></trkpt><trkpt lat="36.71222573019363" lon="14.75669312981705"><ele>6.999999999999999</ele><time>2026-04-11T16:42:14Z</time></trkpt><trkpt lat="36.712339893024144" lon="14.756694038839074"><ele>7.0</ele><time>2026-04-11T16:42:16Z</time></trkpt><trkpt lat="36.712445427347255" lon="14.756689871706548"><ele>7.0</ele><time>2026-04-11T16:42:18Z</time></trkpt><trkpt lat="36.712571496495336" lon="14.756673678692092"><ele>7.0</ele><time>2026-04-11T16:42:20Z</time></trkpt><trkpt lat="36.712630142272104" lon="14.75662175861291"><ele>6.999999999999999</ele><time>2026-04-11T16:42:21Z</time></trkpt><trkpt lat="36.71274724218198" lon="14.756605389034233"><ele>6.999999999999999</ele><time>2026-04-11T16:42:23Z</time></trkpt><trkpt lat="36.71284335826807" lon="14.756591952821205"><ele>7.0</ele><time>2026-04-11T16:42:24Z</time></trkpt><trkpt lat="36.712937933270744" lon="14.756578732044474"><ele>7.0</ele><time>2026-04-11T16:42:25Z</time></trkpt><trkpt lat="36.7130559720783" lon="14.756564383236087"><ele>7.0</ele><time>2026-04-11T16:42:27Z</time></trkpt><trkpt lat="36.71317430523494" lon="14.756551245484397"><ele>6.999999999999999</ele><time>2026-04-11T16:42:29Z</time></trkpt><trkpt lat="36.71326200508378" lon="14.756545771294238"><ele>6.999999999999999</ele><time>2026-04-11T16:42:31Z</time></trkpt><trkpt lat="36.7133597210936" lon="14.756566915614574"><ele>7.0</ele><time>2026-04-11T16:42:33Z</time></trkpt><trkpt lat="36.7134636950359" lon="14.756553330601234"><ele>7.0</ele><time>2026-04-11T16:42:35Z</time></trkpt><trkpt lat="36.71356696375945" lon="14.756559513568138"><ele>6.8</ele><time>2026-04-11T16:42:37Z</time></trkpt><trkpt lat="36.71367713623304" lon="14.756567885225275"><ele>6.6</ele><time>2026-04-11T16:42:39Z</time></trkpt><trkpt lat="36.71380147151603" lon="14.75657964365204"><ele>6.3999999999999995</ele><time>2026-04-11T16:42:41Z</time></trkpt><trkpt lat="36.71386725929913" lon="14.756589019765462"><ele>6.199999999999999</ele><time>2026-04-11T16:42:42Z</time></trkpt><trkpt lat="36.71393867210491" lon="14.756617758537603"><ele>6.0</ele><time>2026-04-11T16:42:43Z</time></trkpt><trkpt lat="36.71401287241508" lon="14.756628039513235"><ele>6.0</ele><time>2026-04-11T16:42:44Z</time></trkpt><trkpt lat="36.71408344492088" lon="14.756635836759173"><ele>6.0</ele><time>2026-04-11T16:42:45Z</time></trkpt><trkpt lat="36.71415782917289" lon="14.756625325699094"><ele>6.0</ele><time>2026-04-11T16:42:46Z</time></trkpt><trkpt lat="36.71423178304207" lon="14.756634091678347"><ele>6.0</ele><time>2026-04-11T16:42:47Z</time></trkpt><trkpt lat="36.71429535213557" lon="14.756646490864767"><ele>6.0</ele><time>2026-04-11T16:42:48Z</time></trkpt><trkpt lat="36.714394567115065" lon="14.756719342970054"><ele>6.0</ele><time>2026-04-11T16:42:50Z</time></trkpt><trkpt lat="36.714445985615825" lon="14.756769506159968"><ele>6.25</ele><time>2026-04-11T16:42:51Z</time></trkpt><trkpt lat="36.71449507579411" lon="14.756710388251765"><ele>6.5</ele><time>2026-04-11T16:42:52Z</time></trkpt><trkpt lat="36.714597231596834" lon="14.756661565889077"><ele>6.75</ele><time>2026-04-11T16:42:54Z</time></trkpt><trkpt lat="36.71466021729826" lon="14.75656334145184"><ele>7.0</ele><time>2026-04-11T16:42:56Z</time></trkpt><trkpt lat="36.7149391228984" lon="14.756847336138327"><ele>8.2</ele><time>2026-04-11T16:43:13Z</time></trkpt><trkpt lat="36.714963056536725" lon="14.756937987266632"><ele>9.399999999999999</ele><time>2026-04-11T16:43:16Z</time></trkpt><trkpt lat="36.71493305252979" lon="14.757019214938678"><ele>10.600000000000001</ele><time>2026-04-11T16:43:19Z</time></trkpt><trkpt lat="36.714947746807574" lon="14.757149035052912"><ele>11.8</ele><time>2026-04-11T16:43:22Z</time></trkpt><trkpt lat="36.71493746111143" lon="14.75732938699369"><ele>13.0</ele><time>2026-04-11T16:43:24Z</time></trkpt><trkpt lat="36.71493189554233" lon="14.757410435677086"><ele>12.999999999999998</ele><time>2026-04-11T16:43:25Z</time></trkpt><trkpt lat="36.71491238983865" lon="14.75749059814267"><ele>13.0</ele><time>2026-04-11T16:43:26Z</time></trkpt><trkpt lat="36.71487645374878" lon="14.757565511353514"><ele>13.0</ele><time>2026-04-11T16:43:27Z</time></trkpt><trkpt lat="36.714813985289716" lon="14.757633947380878"><ele>13.0</ele><time>2026-04-11T16:43:28Z</time></trkpt><trkpt lat="36.71475958211583" lon="14.757727290592834"><ele>12.999999999999998</ele><time>2026-04-11T16:43:29Z</time></trkpt><trkpt lat="36.71471150111014" lon="14.757801408687147"><ele>13.0</ele><time>2026-04-11T16:43:30Z</time></trkpt><trkpt lat="36.714680302223954" lon="14.7578696940847"><ele>13.600000000000001</ele><time>2026-04-11T16:43:31Z</time></trkpt><trkpt lat="36.71466411532775" lon="14.757950800209555"><ele>14.200000000000001</ele><time>2026-04-11T16:43:32Z</time></trkpt><trkpt lat="36.71465863237239" lon="14.758086439765265"><ele>14.8</ele><time>2026-04-11T16:43:33Z</time></trkpt><trkpt lat="36.714664922083195" lon="14.758225317966266"><ele>15.4</ele><time>2026-04-11T16:43:34Z</time></trkpt><trkpt lat="36.7146710543151" lon="14.758377628161142"><ele>16.0</ele><time>2026-04-11T16:43:35Z</time></trkpt><trkpt lat="36.714679517314735" lon="14.758505846348918"><ele>16.666666666666664</ele><time>2026-04-11T16:43:36Z</time></trkpt><trkpt lat="36.714695344357736" lon="14.75860486117866"><ele>17.333333333333332</ele><time>2026-04-11T16:43:37Z</time></trkpt><trkpt lat="36.71472408906715" lon="14.758698496365838"><ele>18.0</ele><time>2026-04-11T16:43:38Z</time></trkpt><trkpt lat="36.71474860292941" lon="14.75880114517464"><ele>18.666666666666668</ele><time>2026-04-11T16:43:39Z</time></trkpt><trkpt lat="36.71476673956297" lon="14.758891172274648"><ele>19.333333333333336</ele><time>2026-04-11T16:43:40Z</time></trkpt><trkpt lat="36.71477336368544" lon="14.758974200325284"><ele>20.0</ele><time>2026-04-11T16:43:41Z</time></trkpt><trkpt lat="36.714839525931474" lon="14.759050439555995"><ele>20.0</ele><time>2026-04-11T16:43:43Z</time></trkpt><trkpt lat="36.714907066809566" lon="14.759074334399639"><ele>20.0</ele><time>2026-04-11T16:43:45Z</time></trkpt><trkpt lat="36.715074851806605" lon="14.758939662159582"><ele>20.0</ele><time>2026-04-11T16:44:10Z</time></trkpt><trkpt lat="36.71519553968703" lon="14.758830706073784"><ele>20.0</ele><time>2026-04-11T16:44:11Z</time></trkpt><trkpt lat="36.715341697912756" lon="14.758703244301755"><ele>20.666666666666668</ele><time>2026-04-11T16:44:12Z</time></trkpt><trkpt lat="36.715508455630484" lon="14.75855814424745"><ele>21.333333333333332</ele><time>2026-04-11T16:44:13Z</time></trkpt><trkpt lat="36.71568620906587" lon="14.758406882196192"><ele>22.0</ele><time>2026-04-11T16:44:14Z</time></trkpt><trkpt lat="36.71587643247894" lon="14.758247554848827"><ele>19.5</ele><time>2026-04-11T16:44:15Z</time></trkpt><trkpt lat="36.716071161984004" lon="14.758082321778826"><ele>17.0</ele><time>2026-04-11T16:44:16Z</time></trkpt><trkpt lat="36.71628133215319" lon="14.75790750590801"><ele>17.0</ele><time>2026-04-11T16:44:17Z</time></trkpt><trkpt lat="36.71649749657176" lon="14.757721945908905"><ele>17.0</ele><time>2026-04-11T16:44:18Z</time></trkpt><trkpt lat="36.716718090824834" lon="14.75753271633411"><ele>13.5</ele><time>2026-04-11T16:44:19Z</time></trkpt><trkpt lat="36.71694110241372" lon="14.757342439443647"><ele>10.0</ele><time>2026-04-11T16:44:20Z</time></trkpt><trkpt lat="36.71715677382189" lon="14.75715962944058"><ele>10.0</ele><time>2026-04-11T16:44:21Z</time></trkpt><trkpt lat="36.71736438919889" lon="14.756982377415099"><ele>10.0</ele><time>2026-04-11T16:44:22Z</time></trkpt><trkpt lat="36.717563010081726" lon="14.756804679276433"><ele>7.0</ele><time>2026-04-11T16:44:23Z</time></trkpt><trkpt lat="36.71774693999713" lon="14.756626445193618"><ele>4.0</ele><time>2026-04-11T16:44:24Z</time></trkpt><trkpt lat="36.71792102395901" lon="14.756446416197125"><ele>4.0</ele><time>2026-04-11T16:44:25Z</time></trkpt><trkpt lat="36.71808077782965" lon="14.756273921469516"><ele>4.0</ele><time>2026-04-11T16:44:26Z</time></trkpt><trkpt lat="36.71823175051064" lon="14.756103101052446"><ele>4.0</ele><time>2026-04-11T16:44:27Z</time></trkpt><trkpt lat="36.71837341163009" lon="14.755937243176437"><ele>4.666666666666666</ele><time>2026-04-11T16:44:28Z</time></trkpt><trkpt lat="36.71850668752202" lon="14.755775452131031"><ele>5.333333333333333</ele><time>2026-04-11T16:44:29Z</time></trkpt><trkpt lat="36.71863388971248" lon="14.755619595335329"><ele>6.0</ele><time>2026-04-11T16:44:30Z</time></trkpt><trkpt lat="36.71874306070218" lon="14.755458586625812"><ele>5.0</ele><time>2026-04-11T16:44:31Z</time></trkpt><trkpt lat="36.71885253024554" lon="14.755321619056893"><ele>4.0</ele><time>2026-04-11T16:44:32Z</time></trkpt><trkpt lat="36.71895168290927" lon="14.755197559926701"><ele>3.0</ele><time>2026-04-11T16:44:33Z</time></trkpt><trkpt lat="36.71904133677495" lon="14.755085385610338"><ele>2.0</ele><time>2026-04-11T16:44:34Z</time></trkpt><trkpt lat="36.71911469296474" lon="14.754994440571494"><ele>1.9999999999999998</ele><time>2026-04-11T16:44:35Z</time></trkpt><trkpt lat="36.71917425400829" lon="14.75492101363248"><ele>2.0</ele><time>2026-04-11T16:44:36Z</time></trkpt><trkpt lat="36.7192513161362" lon="14.754826011353156"><ele>2.0</ele><time>2026-04-11T16:44:38Z</time></trkpt><trkpt lat="36.71929930322307" lon="14.754766852181849"><ele>2.0</ele><time>2026-04-11T16:44:40Z</time></trkpt><trkpt lat="36.719367720030455" lon="14.75476713745435"><ele>1.9999999999999998</ele><time>2026-04-11T16:44:54Z</time></trkpt><trkpt lat="36.719453587954284" lon="14.75475588974877"><ele>2.0</ele><time>2026-04-11T16:44:56Z</time></trkpt><trkpt lat="36.71951669720015" lon="14.754686342583959"><ele>2.4000000000000004</ele><time>2026-04-11T16:44:57Z</time></trkpt><trkpt lat="36.71960283113117" lon="14.754663398605086"><ele>2.8000000000000003</ele><time>2026-04-11T16:44:58Z</time></trkpt><trkpt lat="36.719709798298005" lon="14.754634249590334"><ele>3.2</ele><time>2026-04-11T16:44:59Z</time></trkpt><trkpt lat="36.71981780068689" lon="14.754604124300045"><ele>3.6</ele><time>2026-04-11T16:45:00Z</time></trkpt><trkpt lat="36.71990339241444" lon="14.75458024991418"><ele>4.0</ele><time>2026-04-11T16:45:01Z</time></trkpt><trkpt lat="36.71999022107358" lon="14.754586672868282"><ele>4.0</ele><time>2026-04-11T16:45:02Z</time></trkpt><trkpt lat="36.72010040892511" lon="14.754554885340662"><ele>4.0</ele><time>2026-04-11T16:45:03Z</time></trkpt><trkpt lat="36.720212869081756" lon="14.754523322201528"><ele>4.0</ele><time>2026-04-11T16:45:04Z</time></trkpt><trkpt lat="36.720308489073794" lon="14.754500544183971"><ele>4.0</ele><time>2026-04-11T16:45:05Z</time></trkpt><trkpt lat="36.72039488127995" lon="14.75448272019845"><ele>4.0</ele><time>2026-04-11T16:45:06Z</time></trkpt><trkpt lat="36.720493984182696" lon="14.754469009619605"><ele>3.833333333333333</ele><time>2026-04-11T16:45:07Z</time></trkpt><trkpt lat="36.72059148241398" lon="14.754477810182278"><ele>3.6666666666666665</ele><time>2026-04-11T16:45:08Z</time></trkpt><trkpt lat="36.72066375641792" lon="14.754463487551078"><ele>3.5</ele><time>2026-04-11T16:45:09Z</time></trkpt><trkpt lat="36.72077283307345" lon="14.754460425437763"><ele>3.333333333333333</ele><time>2026-04-11T16:45:11Z</time></trkpt><trkpt lat="36.72085188341742" lon="14.754456691125885"><ele>3.1666666666666665</ele><time>2026-04-11T16:45:12Z</time></trkpt><trkpt lat="36.720927351930804" lon="14.75443244027003"><ele>3.0</ele><time>2026-04-11T16:45:13Z</time></trkpt><trkpt lat="36.7209960853233" lon="14.754434571598354"><ele>3.0</ele><time>2026-04-11T16:45:14Z</time></trkpt><trkpt lat="36.721114305626294" lon="14.754442476334454"><ele>3.0</ele><time>2026-04-11T16:45:16Z</time></trkpt><trkpt lat="36.72121282991322" lon="14.754455851735733"><ele>3.0</ele><time>2026-04-11T16:45:18Z</time></trkpt><trkpt lat="36.721332049920456" lon="14.754480087656228"><ele>3.0</ele><time>2026-04-11T16:45:20Z</time></trkpt><trkpt lat="36.721434278694524" lon="14.75450697208311"><ele>3.0</ele><time>2026-04-11T16:45:22Z</time></trkpt><trkpt lat="36.72152320390561" lon="14.754533461631459"><ele>3.0</ele><time>2026-04-11T16:45:24Z</time></trkpt><trkpt lat="36.72159011440949" lon="14.754554335582165"><ele>3.0</ele><time>2026-04-11T16:45:25Z</time></trkpt><trkpt lat="36.72170045533692" lon="14.754590447912193"><ele>3.0</ele><time>2026-04-11T16:45:26Z</time></trkpt><trkpt lat="36.72183070389823" lon="14.754638285683445"><ele>3.0</ele><time>2026-04-11T16:45:27Z</time></trkpt><trkpt lat="36.72193584597748" lon="14.754683286379686"><ele>3.0</ele><time>2026-04-11T16:45:28Z</time></trkpt><trkpt lat="36.72202586147426" lon="14.754721741551302"><ele>3.666666666666667</ele><time>2026-04-11T16:45:29Z</time></trkpt><trkpt lat="36.72210291379624" lon="14.754769335098707"><ele>4.333333333333334</ele><time>2026-04-11T16:45:30Z</time></trkpt><trkpt lat="36.722166894577995" lon="14.754798749435937"><ele>5.0</ele><time>2026-04-11T16:45:31Z</time></trkpt><trkpt lat="36.72224075132794" lon="14.75482147441475"><ele>5.666666666666667</ele><time>2026-04-11T16:45:33Z</time></trkpt><trkpt lat="36.72227536940493" lon="14.754732435064156"><ele>6.333333333333334</ele><time>2026-04-11T16:45:36Z</time></trkpt><trkpt lat="36.72214705771541" lon="14.754727773284042"><ele>7.0</ele><time>2026-04-11T16:46:15Z</time></trkpt><trkpt lat="36.72207496618667" lon="14.754678048164745"><ele>7.000000000000001</ele><time>2026-04-11T16:46:17Z</time></trkpt><trkpt lat="36.7219955304622" lon="14.75465616522798"><ele>7.0</ele><time>2026-04-11T16:46:19Z</time></trkpt><trkpt lat="36.72189859683241" lon="14.754619677959008"><ele>7.0</ele><time>2026-04-11T16:46:22Z</time></trkpt><trkpt lat="36.72183677993007" lon="14.754594211797473"><ele>7.0</ele><time>2026-04-11T16:46:23Z</time></trkpt><trkpt lat="36.72175459743545" lon="14.754561038155497"><ele>7.000000000000001</ele><time>2026-04-11T16:46:24Z</time></trkpt><trkpt lat="36.72165706519246" lon="14.754516918475602"><ele>7.0</ele><time>2026-04-11T16:46:25Z</time></trkpt><trkpt lat="36.721561154511924" lon="14.754471004407485"><ele>6.333333333333334</ele><time>2026-04-11T16:46:26Z</time></trkpt><trkpt lat="36.72146617097283" lon="14.754446338059276"><ele>5.666666666666667</ele><time>2026-04-11T16:46:27Z</time></trkpt><trkpt lat="36.72139010496432" lon="14.754440365365516"><ele>5.0</ele><time>2026-04-11T16:46:28Z</time></trkpt><trkpt lat="36.72132007543537" lon="14.754434751462988"><ele>4.333333333333334</ele><time>2026-04-11T16:46:29Z</time></trkpt><trkpt lat="36.72120162613455" lon="14.754390927328828"><ele>3.666666666666667</ele><time>2026-04-11T16:46:31Z</time></trkpt><trkpt lat="36.72113630983526" lon="14.754382606429887"><ele>3.0</ele><time>2026-04-11T16:46:32Z</time></trkpt><trkpt lat="36.72105737409691" lon="14.754394887007575"><ele>3.0</ele><time>2026-04-11T16:46:34Z</time></trkpt><trkpt lat="36.72099176696016" lon="14.75438207935077"><ele>3.0</ele><time>2026-04-11T16:46:38Z</time></trkpt><trkpt lat="36.72091483872619" lon="14.754372491529548"><ele>3.0</ele><time>2026-04-11T16:47:03Z</time></trkpt><trkpt lat="36.72082996894403" lon="14.754376409106657"><ele>3.0</ele><time>2026-04-11T16:47:04Z</time></trkpt><trkpt lat="36.72071817094869" lon="14.754384177312419"><ele>3.0</ele><time>2026-04-11T16:47:05Z</time></trkpt><trkpt lat="36.72060386757219" lon="14.754395024019097"><ele>3.0</ele><time>2026-04-11T16:47:06Z</time></trkpt><trkpt lat="36.72045658751489" lon="14.75441178359179"><ele>3.0</ele><time>2026-04-11T16:47:07Z</time></trkpt><trkpt lat="36.72029205070709" lon="14.754441105877897"><ele>3.0</ele><time>2026-04-11T16:47:08Z</time></trkpt><trkpt lat="36.72016273805692" lon="14.754473128100404"><ele>3.0</ele><time>2026-04-11T16:47:09Z</time></trkpt><trkpt lat="36.72006295373305" lon="14.754501914370914"><ele>3.1666666666666665</ele><time>2026-04-11T16:47:10Z</time></trkpt><trkpt lat="36.71997794601678" lon="14.754526437813837"><ele>3.333333333333333</ele><time>2026-04-11T16:47:11Z</time></trkpt><trkpt lat="36.7199089446786" lon="14.754546343641524"><ele>3.5</ele><time>2026-04-11T16:47:12Z</time></trkpt><trkpt lat="36.71979877832835" lon="14.754528629223133"><ele>3.6666666666666665</ele><time>2026-04-11T16:47:14Z</time></trkpt><trkpt lat="36.7197398677434" lon="14.754468908716406"><ele>3.833333333333333</ele><time>2026-04-11T16:47:15Z</time></trkpt><trkpt lat="36.71969207603481" lon="14.754397387137725"><ele>4.0</ele><time>2026-04-11T16:47:16Z</time></trkpt><trkpt lat="36.71977170821622" lon="14.754180545867152"><ele>4.0</ele><time>2026-04-11T16:47:18Z</time></trkpt><trkpt lat="36.719835652829154" lon="14.754097801462363"><ele>4.0</ele><time>2026-04-11T16:47:19Z</time></trkpt><trkpt lat="36.719919095013935" lon="14.753977903264527"><ele>4.0</ele><time>2026-04-11T16:47:20Z</time></trkpt><trkpt lat="36.72004033897573" lon="14.753847211410235"><ele>4.0</ele><time>2026-04-11T16:47:21Z</time></trkpt><trkpt lat="36.72016399826849" lon="14.753689694546294"><ele>3.6666666666666665</ele><time>2026-04-11T16:47:22Z</time></trkpt><trkpt lat="36.72030190184138" lon="14.753516988214793"><ele>3.333333333333333</ele><time>2026-04-11T16:47:23Z</time></trkpt><trkpt lat="36.72044470940419" lon="14.75334043537835"><ele>3.0</ele><time>2026-04-11T16:47:24Z</time></trkpt><trkpt lat="36.72059011515848" lon="14.753182840496615"><ele>3.0</ele><time>2026-04-11T16:47:25Z</time></trkpt><trkpt lat="36.72071449237774" lon="14.753011589325947"><ele>3.0</ele><time>2026-04-11T16:47:26Z</time></trkpt><trkpt lat="36.72083800486646" lon="14.75285853435966"><ele>3.0</ele><time>2026-04-11T16:47:27Z</time></trkpt><trkpt lat="36.720954111817946" lon="14.75271800742925"><ele>3.0</ele><time>2026-04-11T16:47:28Z</time></trkpt><trkpt lat="36.72107244816006" lon="14.752575557415037"><ele>3.0</ele><time>2026-04-11T16:47:29Z</time></trkpt><trkpt lat="36.72119222776283" lon="14.752427648995175"><ele>3.0</ele><time>2026-04-11T16:47:30Z</time></trkpt><trkpt lat="36.72131670056705" lon="14.752280031280412"><ele>3.0</ele><time>2026-04-11T16:47:31Z</time></trkpt><trkpt lat="36.7214412290659" lon="14.752128585178331"><ele>3.0</ele><time>2026-04-11T16:47:32Z</time></trkpt><trkpt lat="36.72156964247426" lon="14.751969936957668"><ele>3.0</ele><time>2026-04-11T16:47:33Z</time></trkpt><trkpt lat="36.721698195325175" lon="14.751809070175614"><ele>2.6666666666666665</ele><time>2026-04-11T16:47:34Z</time></trkpt><trkpt lat="36.72182247970173" lon="14.751655416239478"><ele>2.333333333333333</ele><time>2026-04-11T16:47:35Z</time></trkpt><trkpt lat="36.72194572833922" lon="14.751500434833446"><ele>2.0</ele><time>2026-04-11T16:47:36Z</time></trkpt><trkpt lat="36.722065989087284" lon="14.751349244563881"><ele>2.6666666666666665</ele><time>2026-04-11T16:47:37Z</time></trkpt><trkpt lat="36.72218607482875" lon="14.751199484152533"><ele>3.333333333333333</ele><time>2026-04-11T16:47:38Z</time></trkpt><trkpt lat="36.72230814918882" lon="14.751049181220406"><ele>4.0</ele><time>2026-04-11T16:47:39Z</time></trkpt><trkpt lat="36.7224315111212" lon="14.750894646930133"><ele>4.333333333333333</ele><time>2026-04-11T16:47:40Z</time></trkpt><trkpt lat="36.72255531693536" lon="14.750740354471064"><ele>4.666666666666667</ele><time>2026-04-11T16:47:41Z</time></trkpt><trkpt lat="36.72267922208277" lon="14.750586290476335"><ele>5.0</ele><time>2026-04-11T16:47:42Z</time></trkpt><trkpt lat="36.72280387089177" lon="14.750433890490694"><ele>5.0</ele><time>2026-04-11T16:47:43Z</time></trkpt><trkpt lat="36.722913347498086" lon="14.75026712757681"><ele>5.0</ele><time>2026-04-11T16:47:44Z</time></trkpt><trkpt lat="36.72302628572566" lon="14.75010722934799"><ele>5.0</ele><time>2026-04-11T16:47:45Z</time></trkpt><trkpt lat="36.723132322570365" lon="14.7499400763192"><ele>5.0</ele><time>2026-04-11T16:47:46Z</time></trkpt><trkpt lat="36.723230088916715" lon="14.749766081269597"><ele>5.0</ele><time>2026-04-11T16:47:47Z</time></trkpt><trkpt lat="36.72332020794075" lon="14.749591780171908"><ele>5.0</ele><time>2026-04-11T16:47:48Z</time></trkpt><trkpt lat="36.72339860651512" lon="14.749415044666483"><ele>5.0</ele><time>2026-04-11T16:47:49Z</time></trkpt><trkpt lat="36.72346845731033" lon="14.74923510926788"><ele>5.0</ele><time>2026-04-11T16:47:50Z</time></trkpt><trkpt lat="36.7235293132441" lon="14.749060516732342"><ele>5.0</ele><time>2026-04-11T16:47:51Z</time></trkpt><trkpt lat="36.72358643226679" lon="14.748880176571362"><ele>5.0</ele><time>2026-04-11T16:47:52Z</time></trkpt><trkpt lat="36.72363023418624" lon="14.748703018855005"><ele>5.0</ele><time>2026-04-11T16:47:53Z</time></trkpt><trkpt lat="36.723667121789234" lon="14.748533431954865"><ele>5.0</ele><time>2026-04-11T16:47:54Z</time></trkpt><trkpt lat="36.723693843894246" lon="14.748376229875044"><ele>5.0</ele><time>2026-04-11T16:47:55Z</time></trkpt><trkpt lat="36.72371921075362" lon="14.748199526256009"><ele>5.0</ele><time>2026-04-11T16:47:56Z</time></trkpt><trkpt lat="36.72373900993941" lon="14.748018024236094"><ele>5.0</ele><time>2026-04-11T16:47:57Z</time></trkpt><trkpt lat="36.72375200396317" lon="14.747824238796513"><ele>5.0</ele><time>2026-04-11T16:47:58Z</time></trkpt><trkpt lat="36.723759662583824" lon="14.747636189723163"><ele>6.0</ele><time>2026-04-11T16:47:59Z</time></trkpt><trkpt lat="36.72377145413895" lon="14.747473366741904"><ele>7.0</ele><time>2026-04-11T16:48:00Z</time></trkpt><trkpt lat="36.7237650067657" lon="14.74731266953843"><ele>8.0</ele><time>2026-04-11T16:48:01Z</time></trkpt><trkpt lat="36.72375246963663" lon="14.747151826871729"><ele>9.0</ele><time>2026-04-11T16:48:02Z</time></trkpt><trkpt lat="36.72373575994432" lon="14.746984503573588"><ele>9.4</ele><time>2026-04-11T16:48:03Z</time></trkpt><trkpt lat="36.72371371095519" lon="14.746828634105617"><ele>9.8</ele><time>2026-04-11T16:48:04Z</time></trkpt><trkpt lat="36.723691358391285" lon="14.746705777896837"><ele>10.200000000000001</ele><time>2026-04-11T16:48:05Z</time></trkpt><trkpt lat="36.723671091494225" lon="14.746591006191212"><ele>10.600000000000001</ele><time>2026-04-11T16:48:06Z</time></trkpt><trkpt lat="36.72365015620007" lon="14.746465042038043"><ele>11.0</ele><time>2026-04-11T16:48:07Z</time></trkpt><trkpt lat="36.72362337503299" lon="14.74633435626135"><ele>11.0</ele><time>2026-04-11T16:48:08Z</time></trkpt><trkpt lat="36.72359296758087" lon="14.746195958861957"><ele>11.0</ele><time>2026-04-11T16:48:09Z</time></trkpt><trkpt lat="36.7235605591931" lon="14.746045393960598"><ele>11.0</ele><time>2026-04-11T16:48:10Z</time></trkpt><trkpt lat="36.72353311654443" lon="14.745908249376894"><ele>11.0</ele><time>2026-04-11T16:48:11Z</time></trkpt><trkpt lat="36.72351006556182" lon="14.745784161859081"><ele>10.0</ele><time>2026-04-11T16:48:12Z</time></trkpt><trkpt lat="36.723488307388735" lon="14.745665195583483"><ele>9.0</ele><time>2026-04-11T16:48:13Z</time></trkpt><trkpt lat="36.723464115631415" lon="14.745549272137351"><ele>8.0</ele><time>2026-04-11T16:48:14Z</time></trkpt><trkpt lat="36.72344336730778" lon="14.745435185333722"><ele>7.0</ele><time>2026-04-11T16:48:15Z</time></trkpt><trkpt lat="36.723424225267614" lon="14.745324030358692"><ele>6.0</ele><time>2026-04-11T16:48:16Z</time></trkpt><trkpt lat="36.72340176768891" lon="14.745199763356501"><ele>6.0</ele><time>2026-04-11T16:48:17Z</time></trkpt><trkpt lat="36.72337574848069" lon="14.745062780858891"><ele>6.0</ele><time>2026-04-11T16:48:18Z</time></trkpt><trkpt lat="36.72335246431729" lon="14.744940663434013"><ele>6.0</ele><time>2026-04-11T16:48:19Z</time></trkpt><trkpt lat="36.723328280402846" lon="14.744826205922978"><ele>6.0</ele><time>2026-04-11T16:48:20Z</time></trkpt><trkpt lat="36.72330768100157" lon="14.744715967797395"><ele>6.0</ele><time>2026-04-11T16:48:21Z</time></trkpt><trkpt lat="36.72328915501208" lon="14.744606406894034"><ele>6.0</ele><time>2026-04-11T16:48:22Z</time></trkpt><trkpt lat="36.72326984358548" lon="14.744515545368097"><ele>6.0</ele><time>2026-04-11T16:48:23Z</time></trkpt><trkpt lat="36.723251618310634" lon="14.74442814497332"><ele>6.0</ele><time>2026-04-11T16:48:24Z</time></trkpt><trkpt lat="36.72323381015769" lon="14.744334233069189"><ele>6.0</ele><time>2026-04-11T16:48:25Z</time></trkpt><trkpt lat="36.7232170531349" lon="14.744255437908338"><ele>6.0</ele><time>2026-04-11T16:48:26Z</time></trkpt><trkpt lat="36.7231500635902" lon="14.744148241974155"><ele>6.0</ele><time>2026-04-11T16:48:28Z</time></trkpt><trkpt lat="36.72311925792589" lon="14.744071289429275"><ele>6.5</ele><time>2026-04-11T16:48:29Z</time></trkpt><trkpt lat="36.72310188574845" lon="14.743979345658419"><ele>7.0</ele><time>2026-04-11T16:48:30Z</time></trkpt><trkpt lat="36.72308408191794" lon="14.743888026090048"><ele>7.5</ele><time>2026-04-11T16:48:31Z</time></trkpt><trkpt lat="36.72306894273354" lon="14.743806217246712"><ele>8.0</ele><time>2026-04-11T16:48:32Z</time></trkpt><trkpt lat="36.72305161669757" lon="14.743713706718692"><ele>8.5</ele><time>2026-04-11T16:48:33Z</time></trkpt><trkpt lat="36.72303011451695" lon="14.743600777929293"><ele>9.0</ele><time>2026-04-11T16:48:34Z</time></trkpt><trkpt lat="36.723007060033105" lon="14.743482440350881"><ele>9.0</ele><time>2026-04-11T16:48:35Z</time></trkpt><trkpt lat="36.72298548758052" lon="14.743371709928324"><ele>9.0</ele><time>2026-04-11T16:48:36Z</time></trkpt><trkpt lat="36.722969569221576" lon="14.74329000175173"><ele>9.0</ele><time>2026-04-11T16:48:37Z</time></trkpt><trkpt lat="36.72295123114174" lon="14.743195873276326"><ele>9.0</ele><time>2026-04-11T16:48:38Z</time></trkpt><trkpt lat="36.72293389176876" lon="14.743106871031863"><ele>9.0</ele><time>2026-04-11T16:48:39Z</time></trkpt><trkpt lat="36.72290520641115" lon="14.742954401831424"><ele>9.0</ele><time>2026-04-11T16:48:41Z</time></trkpt><trkpt lat="36.72288708908858" lon="14.742858107158858"><ele>9.0</ele><time>2026-04-11T16:48:42Z</time></trkpt><trkpt lat="36.72286966436186" lon="14.742765493733538"><ele>9.0</ele><time>2026-04-11T16:48:43Z</time></trkpt><trkpt lat="36.72285092509935" lon="14.742665893439728"><ele>9.0</ele><time>2026-04-11T16:48:44Z</time></trkpt><trkpt lat="36.72283109485433" lon="14.742560494510547"><ele>9.0</ele><time>2026-04-11T16:48:45Z</time></trkpt><trkpt lat="36.72281088199816" lon="14.742453061984556"><ele>9.0</ele><time>2026-04-11T16:48:46Z</time></trkpt><trkpt lat="36.72278906139225" lon="14.742337242071219"><ele>9.0</ele><time>2026-04-11T16:48:47Z</time></trkpt><trkpt lat="36.722765146778606" lon="14.742215136853787"><ele>9.166666666666666</ele><time>2026-04-11T16:48:48Z</time></trkpt><trkpt lat="36.722745600494775" lon="14.74211533582025"><ele>9.333333333333334</ele><time>2026-04-11T16:48:49Z</time></trkpt><trkpt lat="36.722730563198695" lon="14.742038557160361"><ele>9.5</ele><time>2026-04-11T16:48:50Z</time></trkpt><trkpt lat="36.722711592846785" lon="14.741941696784508"><ele>9.666666666666668</ele><time>2026-04-11T16:48:51Z</time></trkpt><trkpt lat="36.72269019907456" lon="14.741830221894503"><ele>9.833333333333334</ele><time>2026-04-11T16:48:52Z</time></trkpt><trkpt lat="36.72266985680335" lon="14.741718920060412"><ele>10.0</ele><time>2026-04-11T16:48:53Z</time></trkpt><trkpt lat="36.722647931341456" lon="14.74159895588334"><ele>9.666666666666668</ele><time>2026-04-11T16:48:54Z</time></trkpt><trkpt lat="36.72262813909202" lon="14.741490663469678"><ele>9.333333333333334</ele><time>2026-04-11T16:48:55Z</time></trkpt><trkpt lat="36.722609290241905" lon="14.74138753287093"><ele>9.0</ele><time>2026-04-11T16:48:56Z</time></trkpt><trkpt lat="36.722589797893356" lon="14.741279843126108"><ele>8.666666666666666</ele><time>2026-04-11T16:48:57Z</time></trkpt><trkpt lat="36.72256955345552" lon="14.741179179322414"><ele>8.333333333333332</ele><time>2026-04-11T16:48:58Z</time></trkpt><trkpt lat="36.72254770058669" lon="14.741070517811487"><ele>8.0</ele><time>2026-04-11T16:48:59Z</time></trkpt><trkpt lat="36.72252858843061" lon="14.740975484177708"><ele>7.999999999999999</ele><time>2026-04-11T16:49:00Z</time></trkpt><trkpt lat="36.722477039136635" lon="14.740897184840478"><ele>8.0</ele><time>2026-04-11T16:49:01Z</time></trkpt><trkpt lat="36.72242071502044" lon="14.74080952371441"><ele>8.0</ele><time>2026-04-11T16:49:02Z</time></trkpt><trkpt lat="36.72236619342618" lon="14.740737304453592"><ele>8.0</ele><time>2026-04-11T16:49:03Z</time></trkpt><trkpt lat="36.72231121411929" lon="14.740671351502836"><ele>7.999999999999999</ele><time>2026-04-11T16:49:04Z</time></trkpt><trkpt lat="36.72225702990075" lon="14.740609252719258"><ele>8.0</ele><time>2026-04-11T16:49:05Z</time></trkpt><trkpt lat="36.722198800291736" lon="14.740543328565662"><ele>7.999999999999999</ele><time>2026-04-11T16:49:06Z</time></trkpt><trkpt lat="36.72213905235035" lon="14.74048265958612"><ele>8.0</ele><time>2026-04-11T16:49:07Z</time></trkpt><trkpt lat="36.72208040912646" lon="14.740428171249043"><ele>8.0</ele><time>2026-04-11T16:49:08Z</time></trkpt><trkpt lat="36.722019617792014" lon="14.740371698234647"><ele>8.0</ele><time>2026-04-11T16:49:09Z</time></trkpt><trkpt lat="36.721957022953276" lon="14.74031344106088"><ele>7.999999999999999</ele><time>2026-04-11T16:49:10Z</time></trkpt><trkpt lat="36.7218915555906" lon="14.74025467162919"><ele>8.0</ele><time>2026-04-11T16:49:11Z</time></trkpt><trkpt lat="36.721823172434476" lon="14.7401901285375"><ele>6.5</ele><time>2026-04-11T16:49:12Z</time></trkpt><trkpt lat="36.721442180267324" lon="14.740215179151667"><ele>5.0</ele><time>2026-04-11T16:49:13Z</time></trkpt><trkpt lat="36.721407722410405" lon="14.740133863670149"><ele>5.0</ele><time>2026-04-11T16:49:14Z</time></trkpt><trkpt lat="36.721375483205335" lon="14.740046551037535"><ele>5.0</ele><time>2026-04-11T16:49:15Z</time></trkpt><trkpt lat="36.7213437957387" lon="14.739958829186765"><ele>5.0</ele><time>2026-04-11T16:49:16Z</time></trkpt><trkpt lat="36.72131444038631" lon="14.739872842221388"><ele>5.0</ele><time>2026-04-11T16:49:17Z</time></trkpt><trkpt lat="36.72128625435025" lon="14.739789401167899"><ele>5.0</ele><time>2026-04-11T16:49:18Z</time></trkpt><trkpt lat="36.72125792349947" lon="14.73970855102556"><ele>5.0</ele><time>2026-04-11T16:49:19Z</time></trkpt><trkpt lat="36.72123021764966" lon="14.739634279464001"><ele>5.0</ele><time>2026-04-11T16:49:20Z</time></trkpt><trkpt lat="36.721200492471084" lon="14.739557387433562"><ele>5.0</ele><time>2026-04-11T16:49:21Z</time></trkpt><trkpt lat="36.72116417139633" lon="14.73947348291291"><ele>5.0</ele><time>2026-04-11T16:49:22Z</time></trkpt><trkpt lat="36.721136609957156" lon="14.739394254074607"><ele>5.0</ele><time>2026-04-11T16:49:23Z</time></trkpt><trkpt lat="36.7211105173865" lon="14.73931127649674"><ele>5.0</ele><time>2026-04-11T16:49:24Z</time></trkpt><trkpt lat="36.72108342363365" lon="14.73922533830109"><ele>5.0</ele><time>2026-04-11T16:49:25Z</time></trkpt><trkpt lat="36.72105578591767" lon="14.739141869355219"><ele>5.0</ele><time>2026-04-11T16:49:26Z</time></trkpt><trkpt lat="36.72102814191333" lon="14.739058866805701"><ele>5.0</ele><time>2026-04-11T16:49:27Z</time></trkpt><trkpt lat="36.72100308858274" lon="14.738975493240975"><ele>5.166666666666667</ele><time>2026-04-11T16:49:28Z</time></trkpt><trkpt lat="36.720977785865124" lon="14.738892028022487"><ele>5.333333333333334</ele><time>2026-04-11T16:49:29Z</time></trkpt><trkpt lat="36.720956371872546" lon="14.738809955781894"><ele>5.5</ele><time>2026-04-11T16:49:30Z</time></trkpt><trkpt lat="36.720933516446195" lon="14.738735326692103"><ele>5.666666666666667</ele><time>2026-04-11T16:49:31Z</time></trkpt><trkpt lat="36.72090369612876" lon="14.73861098177969"><ele>5.833333333333333</ele><time>2026-04-11T16:49:33Z</time></trkpt><trkpt lat="36.72088010487639" lon="14.738518515011181"><ele>6.0</ele><time>2026-04-11T16:49:35Z</time></trkpt><trkpt lat="36.72086335051017" lon="14.73843696810565"><ele>6.0</ele><time>2026-04-11T16:49:37Z</time></trkpt><trkpt lat="36.720809215265746" lon="14.738378703854103"><ele>6.0</ele><time>2026-04-11T16:49:41Z</time></trkpt><trkpt lat="36.72086362012483" lon="14.73833899580201"><ele>6.0</ele><time>2026-04-11T16:51:28Z</time></trkpt></trkseg></trk></gpx>